<?xml version="1.0" encoding="UTF-8" standalone="no" ?>
<gpx xmlns="http://www.topografix.com/GPX/1/1" xmlns:xsi="http://www.w3.org/2001/XMLSchema-instance" xsi:schemaLocation="http://www.topografix.com/GPX/1/1 http://www.topografix.com/GPX/1/1/gpx.xsd" version="1.1" creator="VisuGPX - https://www.visugpx.com">
  <metadata>
    <name>4 Têtes FN</name>
    <desc><![CDATA[Retour aux Quatre Têtes que je délaisse depuis bien longtemps, long comme le vallon de Doran mais le cadre est somptueux ! Monté avec des doutes sur la nivo en FN je me rassure assez vite, en choisissant bien les passages c'est bien stable et agréable à skier...]]></desc>
  </metadata>
  <trk>
    <name><![CDATA[4 Têtes FN]]></name>
    <trkseg>
      <trkpt lat="45.95722" lon="6.61003">
        <ele>970</ele>
        <time>2018-03-24T07:45:34.000Z</time>
      </trkpt>
      <trkpt lat="45.95738" lon="6.60997">
        <ele>969.59997558594</ele>
        <time>2018-03-24T07:46:10.000Z</time>
      </trkpt>
      <trkpt lat="45.95745" lon="6.60996">
        <ele>969.40002441406</ele>
        <time>2018-03-24T07:46:13.000Z</time>
      </trkpt>
      <trkpt lat="45.95755" lon="6.60994">
        <ele>969.40002441406</ele>
        <time>2018-03-24T07:46:22.000Z</time>
      </trkpt>
      <trkpt lat="45.95765" lon="6.60993">
        <ele>969.40002441406</ele>
        <time>2018-03-24T07:46:33.000Z</time>
      </trkpt>
      <trkpt lat="45.9577" lon="6.60991">
        <ele>969.79998779297</ele>
        <time>2018-03-24T07:46:43.000Z</time>
      </trkpt>
      <trkpt lat="45.95772" lon="6.6099">
        <ele>970</ele>
        <time>2018-03-24T07:46:45.000Z</time>
      </trkpt>
      <trkpt lat="45.95777" lon="6.60985">
        <ele>970.59997558594</ele>
        <time>2018-03-24T07:46:51.000Z</time>
      </trkpt>
      <trkpt lat="45.9578" lon="6.60983">
        <ele>971</ele>
        <time>2018-03-24T07:46:54.000Z</time>
      </trkpt>
      <trkpt lat="45.95783" lon="6.60982">
        <ele>971.20001220703</ele>
        <time>2018-03-24T07:46:56.000Z</time>
      </trkpt>
      <trkpt lat="45.95793" lon="6.60978">
        <ele>971.59997558594</ele>
        <time>2018-03-24T07:47:05.000Z</time>
      </trkpt>
      <trkpt lat="45.95798" lon="6.60978">
        <ele>972</ele>
        <time>2018-03-24T07:47:08.000Z</time>
      </trkpt>
      <trkpt lat="45.95799" lon="6.60977">
        <ele>972.20001220703</ele>
        <time>2018-03-24T07:47:09.000Z</time>
      </trkpt>
      <trkpt lat="45.95808" lon="6.60973">
        <ele>973.20001220703</ele>
        <time>2018-03-24T07:47:17.000Z</time>
      </trkpt>
      <trkpt lat="45.95809" lon="6.60972">
        <ele>973.59997558594</ele>
        <time>2018-03-24T07:47:19.000Z</time>
      </trkpt>
      <trkpt lat="45.95812" lon="6.60972">
        <ele>974.40002441406</ele>
        <time>2018-03-24T07:47:23.000Z</time>
      </trkpt>
      <trkpt lat="45.95815" lon="6.60972">
        <ele>974.59997558594</ele>
        <time>2018-03-24T07:47:26.000Z</time>
      </trkpt>
      <trkpt lat="45.95816" lon="6.60972">
        <ele>975</ele>
        <time>2018-03-24T07:47:28.000Z</time>
      </trkpt>
      <trkpt lat="45.95816" lon="6.60971">
        <ele>975.40002441406</ele>
        <time>2018-03-24T07:47:30.000Z</time>
      </trkpt>
      <trkpt lat="45.95817" lon="6.6097">
        <ele>975.40002441406</ele>
        <time>2018-03-24T07:47:31.000Z</time>
      </trkpt>
      <trkpt lat="45.95818" lon="6.60969">
        <ele>975.79998779297</ele>
        <time>2018-03-24T07:47:33.000Z</time>
      </trkpt>
      <trkpt lat="45.95822" lon="6.60966">
        <ele>976.59997558594</ele>
        <time>2018-03-24T07:47:38.000Z</time>
      </trkpt>
      <trkpt lat="45.95829" lon="6.6095">
        <ele>977.59997558594</ele>
        <time>2018-03-24T07:47:51.000Z</time>
      </trkpt>
      <trkpt lat="45.95833" lon="6.60944">
        <ele>978.40002441406</ele>
        <time>2018-03-24T07:47:57.000Z</time>
      </trkpt>
      <trkpt lat="45.95836" lon="6.60941">
        <ele>978.59997558594</ele>
        <time>2018-03-24T07:48:00.000Z</time>
      </trkpt>
      <trkpt lat="45.95843" lon="6.60937">
        <ele>979.40002441406</ele>
        <time>2018-03-24T07:48:05.000Z</time>
      </trkpt>
      <trkpt lat="45.95846" lon="6.60935">
        <ele>979.79998779297</ele>
        <time>2018-03-24T07:48:08.000Z</time>
      </trkpt>
      <trkpt lat="45.95847" lon="6.60934">
        <ele>979.79998779297</ele>
        <time>2018-03-24T07:48:10.000Z</time>
      </trkpt>
      <trkpt lat="45.95851" lon="6.60932">
        <ele>979.79998779297</ele>
        <time>2018-03-24T07:48:13.000Z</time>
      </trkpt>
      <trkpt lat="45.95853" lon="6.60931">
        <ele>980</ele>
        <time>2018-03-24T07:48:15.000Z</time>
      </trkpt>
      <trkpt lat="45.95856" lon="6.60927">
        <ele>980.79998779297</ele>
        <time>2018-03-24T07:48:20.000Z</time>
      </trkpt>
      <trkpt lat="45.95861" lon="6.60919">
        <ele>982</ele>
        <time>2018-03-24T07:48:28.000Z</time>
      </trkpt>
      <trkpt lat="45.95862" lon="6.60918">
        <ele>982.20001220703</ele>
        <time>2018-03-24T07:48:29.000Z</time>
      </trkpt>
      <trkpt lat="45.95863" lon="6.60915">
        <ele>982.79998779297</ele>
        <time>2018-03-24T07:48:32.000Z</time>
      </trkpt>
      <trkpt lat="45.95864" lon="6.60914">
        <ele>983</ele>
        <time>2018-03-24T07:48:34.000Z</time>
      </trkpt>
      <trkpt lat="45.95866" lon="6.60912">
        <ele>983.40002441406</ele>
        <time>2018-03-24T07:48:36.000Z</time>
      </trkpt>
      <trkpt lat="45.95869" lon="6.60907">
        <ele>984.20001220703</ele>
        <time>2018-03-24T07:48:42.000Z</time>
      </trkpt>
      <trkpt lat="45.95871" lon="6.60901">
        <ele>985.40002441406</ele>
        <time>2018-03-24T07:48:48.000Z</time>
      </trkpt>
      <trkpt lat="45.95872" lon="6.609">
        <ele>985.59997558594</ele>
        <time>2018-03-24T07:48:49.000Z</time>
      </trkpt>
      <trkpt lat="45.95874" lon="6.60898">
        <ele>985.79998779297</ele>
        <time>2018-03-24T07:48:51.000Z</time>
      </trkpt>
      <trkpt lat="45.95874" lon="6.60894">
        <ele>986</ele>
        <time>2018-03-24T07:48:54.000Z</time>
      </trkpt>
      <trkpt lat="45.95874" lon="6.60892">
        <ele>986.40002441406</ele>
        <time>2018-03-24T07:48:56.000Z</time>
      </trkpt>
      <trkpt lat="45.95874" lon="6.60891">
        <ele>986.59997558594</ele>
        <time>2018-03-24T07:48:57.000Z</time>
      </trkpt>
      <trkpt lat="45.95875" lon="6.60888">
        <ele>987</ele>
        <time>2018-03-24T07:49:00.000Z</time>
      </trkpt>
      <trkpt lat="45.95875" lon="6.60886">
        <ele>987.40002441406</ele>
        <time>2018-03-24T07:49:02.000Z</time>
      </trkpt>
      <trkpt lat="45.95876" lon="6.60884">
        <ele>987.79998779297</ele>
        <time>2018-03-24T07:49:05.000Z</time>
      </trkpt>
      <trkpt lat="45.95878" lon="6.6088">
        <ele>988.40002441406</ele>
        <time>2018-03-24T07:49:09.000Z</time>
      </trkpt>
      <trkpt lat="45.95878" lon="6.6088">
        <ele>988.59997558594</ele>
        <time>2018-03-24T07:49:10.000Z</time>
      </trkpt>
      <trkpt lat="45.95882" lon="6.60876">
        <ele>989.59997558594</ele>
        <time>2018-03-24T07:49:17.000Z</time>
      </trkpt>
      <trkpt lat="45.95885" lon="6.60872">
        <ele>990.79998779297</ele>
        <time>2018-03-24T07:49:23.000Z</time>
      </trkpt>
      <trkpt lat="45.95887" lon="6.60868">
        <ele>991.79998779297</ele>
        <time>2018-03-24T07:49:29.000Z</time>
      </trkpt>
      <trkpt lat="45.9589" lon="6.60861">
        <ele>993</ele>
        <time>2018-03-24T07:49:38.000Z</time>
      </trkpt>
      <trkpt lat="45.95892" lon="6.60858">
        <ele>994</ele>
        <time>2018-03-24T07:49:44.000Z</time>
      </trkpt>
      <trkpt lat="45.95897" lon="6.60855">
        <ele>995.20001220703</ele>
        <time>2018-03-24T07:49:51.000Z</time>
      </trkpt>
      <trkpt lat="45.95899" lon="6.60848">
        <ele>996.20001220703</ele>
        <time>2018-03-24T07:49:59.000Z</time>
      </trkpt>
      <trkpt lat="45.95904" lon="6.60847">
        <ele>997.40002441406</ele>
        <time>2018-03-24T07:50:06.000Z</time>
      </trkpt>
      <trkpt lat="45.95907" lon="6.60843">
        <ele>998.40002441406</ele>
        <time>2018-03-24T07:50:12.000Z</time>
      </trkpt>
      <trkpt lat="45.9591" lon="6.60841">
        <ele>999.59997558594</ele>
        <time>2018-03-24T07:50:20.000Z</time>
      </trkpt>
      <trkpt lat="45.95912" lon="6.60838">
        <ele>1000.5999755859</ele>
        <time>2018-03-24T07:50:27.000Z</time>
      </trkpt>
      <trkpt lat="45.95911" lon="6.60831">
        <ele>1001.799987793</ele>
        <time>2018-03-24T07:50:34.000Z</time>
      </trkpt>
      <trkpt lat="45.9591" lon="6.60825">
        <ele>1002.799987793</ele>
        <time>2018-03-24T07:50:40.000Z</time>
      </trkpt>
      <trkpt lat="45.95912" lon="6.60818">
        <ele>1003.799987793</ele>
        <time>2018-03-24T07:50:47.000Z</time>
      </trkpt>
      <trkpt lat="45.95913" lon="6.60812">
        <ele>1005</ele>
        <time>2018-03-24T07:50:54.000Z</time>
      </trkpt>
      <trkpt lat="45.95916" lon="6.60806">
        <ele>1006</ele>
        <time>2018-03-24T07:51:00.000Z</time>
      </trkpt>
      <trkpt lat="45.95917" lon="6.60799">
        <ele>1007.200012207</ele>
        <time>2018-03-24T07:51:08.000Z</time>
      </trkpt>
      <trkpt lat="45.95918" lon="6.60791">
        <ele>1008.4000244141</ele>
        <time>2018-03-24T07:51:14.000Z</time>
      </trkpt>
      <trkpt lat="45.95919" lon="6.60785">
        <ele>1009.4000244141</ele>
        <time>2018-03-24T07:51:20.000Z</time>
      </trkpt>
      <trkpt lat="45.95918" lon="6.60782">
        <ele>1009.5999755859</ele>
        <time>2018-03-24T07:51:22.000Z</time>
      </trkpt>
      <trkpt lat="45.95919" lon="6.60777">
        <ele>1010.4000244141</ele>
        <time>2018-03-24T07:51:29.000Z</time>
      </trkpt>
      <trkpt lat="45.9592" lon="6.60772">
        <ele>1011.5999755859</ele>
        <time>2018-03-24T07:51:36.000Z</time>
      </trkpt>
      <trkpt lat="45.95922" lon="6.60768">
        <ele>1012.799987793</ele>
        <time>2018-03-24T07:51:43.000Z</time>
      </trkpt>
      <trkpt lat="45.95924" lon="6.60759">
        <ele>1013.799987793</ele>
        <time>2018-03-24T07:51:51.000Z</time>
      </trkpt>
      <trkpt lat="45.95924" lon="6.60748">
        <ele>1015</ele>
        <time>2018-03-24T07:51:59.000Z</time>
      </trkpt>
      <trkpt lat="45.95927" lon="6.60744">
        <ele>1016</ele>
        <time>2018-03-24T07:52:05.000Z</time>
      </trkpt>
      <trkpt lat="45.95932" lon="6.60742">
        <ele>1017</ele>
        <time>2018-03-24T07:52:11.000Z</time>
      </trkpt>
      <trkpt lat="45.95933" lon="6.60739">
        <ele>1018</ele>
        <time>2018-03-24T07:52:17.000Z</time>
      </trkpt>
      <trkpt lat="45.95936" lon="6.60734">
        <ele>1019.200012207</ele>
        <time>2018-03-24T07:52:23.000Z</time>
      </trkpt>
      <trkpt lat="45.95937" lon="6.60727">
        <ele>1020.4000244141</ele>
        <time>2018-03-24T07:52:31.000Z</time>
      </trkpt>
      <trkpt lat="45.95933" lon="6.6072">
        <ele>1021.4000244141</ele>
        <time>2018-03-24T07:52:37.000Z</time>
      </trkpt>
      <trkpt lat="45.95933" lon="6.60713">
        <ele>1022.5999755859</ele>
        <time>2018-03-24T07:52:43.000Z</time>
      </trkpt>
      <trkpt lat="45.95935" lon="6.60709">
        <ele>1023.5999755859</ele>
        <time>2018-03-24T07:52:49.000Z</time>
      </trkpt>
      <trkpt lat="45.95936" lon="6.60702">
        <ele>1024.8000488281</ele>
        <time>2018-03-24T07:52:56.000Z</time>
      </trkpt>
      <trkpt lat="45.95941" lon="6.60699">
        <ele>1025.8000488281</ele>
        <time>2018-03-24T07:53:02.000Z</time>
      </trkpt>
      <trkpt lat="45.95946" lon="6.60695">
        <ele>1026.8000488281</ele>
        <time>2018-03-24T07:53:09.000Z</time>
      </trkpt>
      <trkpt lat="45.95948" lon="6.60689">
        <ele>1028</ele>
        <time>2018-03-24T07:53:16.000Z</time>
      </trkpt>
      <trkpt lat="45.95955" lon="6.60687">
        <ele>1029</ele>
        <time>2018-03-24T07:53:23.000Z</time>
      </trkpt>
      <trkpt lat="45.95958" lon="6.60684">
        <ele>1029.4000244141</ele>
        <time>2018-03-24T07:53:28.000Z</time>
      </trkpt>
      <trkpt lat="45.95959" lon="6.60682">
        <ele>1029.8000488281</ele>
        <time>2018-03-24T07:53:30.000Z</time>
      </trkpt>
      <trkpt lat="45.95959" lon="6.60681">
        <ele>1030</ele>
        <time>2018-03-24T07:53:31.000Z</time>
      </trkpt>
      <trkpt lat="45.9596" lon="6.60679">
        <ele>1030.1999511719</ele>
        <time>2018-03-24T07:53:33.000Z</time>
      </trkpt>
      <trkpt lat="45.95963" lon="6.60677">
        <ele>1030.4000244141</ele>
        <time>2018-03-24T07:53:36.000Z</time>
      </trkpt>
      <trkpt lat="45.95967" lon="6.60674">
        <ele>1030.8000488281</ele>
        <time>2018-03-24T07:53:39.000Z</time>
      </trkpt>
      <trkpt lat="45.95969" lon="6.60673">
        <ele>1031</ele>
        <time>2018-03-24T07:53:41.000Z</time>
      </trkpt>
      <trkpt lat="45.9597" lon="6.60672">
        <ele>1031.1999511719</ele>
        <time>2018-03-24T07:53:42.000Z</time>
      </trkpt>
      <trkpt lat="45.95976" lon="6.60667">
        <ele>1032</ele>
        <time>2018-03-24T07:53:48.000Z</time>
      </trkpt>
      <trkpt lat="45.95979" lon="6.60665">
        <ele>1032.5999755859</ele>
        <time>2018-03-24T07:53:51.000Z</time>
      </trkpt>
      <trkpt lat="45.95983" lon="6.60663">
        <ele>1033.1999511719</ele>
        <time>2018-03-24T07:53:55.000Z</time>
      </trkpt>
      <trkpt lat="45.95985" lon="6.60663">
        <ele>1033.5999755859</ele>
        <time>2018-03-24T07:53:57.000Z</time>
      </trkpt>
      <trkpt lat="45.95986" lon="6.60662">
        <ele>1034</ele>
        <time>2018-03-24T07:53:59.000Z</time>
      </trkpt>
      <trkpt lat="45.95988" lon="6.60661">
        <ele>1034.1999511719</ele>
        <time>2018-03-24T07:54:01.000Z</time>
      </trkpt>
      <trkpt lat="45.95991" lon="6.60658">
        <ele>1035.4000244141</ele>
        <time>2018-03-24T07:54:07.000Z</time>
      </trkpt>
      <trkpt lat="45.95992" lon="6.60653">
        <ele>1036.5999755859</ele>
        <time>2018-03-24T07:54:14.000Z</time>
      </trkpt>
      <trkpt lat="45.95994" lon="6.6065">
        <ele>1037.5999755859</ele>
        <time>2018-03-24T07:54:21.000Z</time>
      </trkpt>
      <trkpt lat="45.95997" lon="6.60647">
        <ele>1038.8000488281</ele>
        <time>2018-03-24T07:54:29.000Z</time>
      </trkpt>
      <trkpt lat="45.96003" lon="6.60641">
        <ele>1039.8000488281</ele>
        <time>2018-03-24T07:54:37.000Z</time>
      </trkpt>
      <trkpt lat="45.96004" lon="6.60638">
        <ele>1041</ele>
        <time>2018-03-24T07:54:43.000Z</time>
      </trkpt>
      <trkpt lat="45.96002" lon="6.60635">
        <ele>1042</ele>
        <time>2018-03-24T07:54:50.000Z</time>
      </trkpt>
      <trkpt lat="45.95997" lon="6.60626">
        <ele>1043.1999511719</ele>
        <time>2018-03-24T07:54:58.000Z</time>
      </trkpt>
      <trkpt lat="45.96001" lon="6.60625">
        <ele>1044.4000244141</ele>
        <time>2018-03-24T07:55:04.000Z</time>
      </trkpt>
      <trkpt lat="45.96003" lon="6.6062">
        <ele>1045.4000244141</ele>
        <time>2018-03-24T07:55:09.000Z</time>
      </trkpt>
      <trkpt lat="45.96003" lon="6.60611">
        <ele>1046.4000244141</ele>
        <time>2018-03-24T07:55:17.000Z</time>
      </trkpt>
      <trkpt lat="45.96004" lon="6.60607">
        <ele>1047.4000244141</ele>
        <time>2018-03-24T07:55:24.000Z</time>
      </trkpt>
      <trkpt lat="45.96007" lon="6.60603">
        <ele>1048.5999755859</ele>
        <time>2018-03-24T07:55:29.000Z</time>
      </trkpt>
      <trkpt lat="45.96012" lon="6.60601">
        <ele>1049.5999755859</ele>
        <time>2018-03-24T07:55:36.000Z</time>
      </trkpt>
      <trkpt lat="45.96015" lon="6.606">
        <ele>1049.8000488281</ele>
        <time>2018-03-24T07:55:41.000Z</time>
      </trkpt>
      <trkpt lat="45.96018" lon="6.60598">
        <ele>1050.5999755859</ele>
        <time>2018-03-24T07:55:44.000Z</time>
      </trkpt>
      <trkpt lat="45.96019" lon="6.60598">
        <ele>1050.8000488281</ele>
        <time>2018-03-24T07:55:45.000Z</time>
      </trkpt>
      <trkpt lat="45.96025" lon="6.60597">
        <ele>1051</ele>
        <time>2018-03-24T07:55:50.000Z</time>
      </trkpt>
      <trkpt lat="45.96027" lon="6.60597">
        <ele>1051.1999511719</ele>
        <time>2018-03-24T07:55:52.000Z</time>
      </trkpt>
      <trkpt lat="45.9603" lon="6.60594">
        <ele>1051.5999755859</ele>
        <time>2018-03-24T07:56:00.000Z</time>
      </trkpt>
      <trkpt lat="45.96037" lon="6.60578">
        <ele>1052.5999755859</ele>
        <time>2018-03-24T07:56:12.000Z</time>
      </trkpt>
      <trkpt lat="45.96038" lon="6.60567">
        <ele>1053.5999755859</ele>
        <time>2018-03-24T07:56:25.000Z</time>
      </trkpt>
      <trkpt lat="45.96052" lon="6.60554">
        <ele>1054.5999755859</ele>
        <time>2018-03-24T07:56:37.000Z</time>
      </trkpt>
      <trkpt lat="45.96053" lon="6.60553">
        <ele>1054.8000488281</ele>
        <time>2018-03-24T07:56:39.000Z</time>
      </trkpt>
      <trkpt lat="45.96051" lon="6.60548">
        <ele>1055.8000488281</ele>
        <time>2018-03-24T07:56:47.000Z</time>
      </trkpt>
      <trkpt lat="45.96051" lon="6.60541">
        <ele>1057</ele>
        <time>2018-03-24T07:56:54.000Z</time>
      </trkpt>
      <trkpt lat="45.96048" lon="6.60536">
        <ele>1058</ele>
        <time>2018-03-24T07:57:01.000Z</time>
      </trkpt>
      <trkpt lat="45.96046" lon="6.60532">
        <ele>1059</ele>
        <time>2018-03-24T07:57:06.000Z</time>
      </trkpt>
      <trkpt lat="45.96047" lon="6.60531">
        <ele>1059.1999511719</ele>
        <time>2018-03-24T07:57:07.000Z</time>
      </trkpt>
      <trkpt lat="45.96054" lon="6.60531">
        <ele>1060.1999511719</ele>
        <time>2018-03-24T07:57:14.000Z</time>
      </trkpt>
      <trkpt lat="45.96056" lon="6.60529">
        <ele>1060.4000244141</ele>
        <time>2018-03-24T07:57:16.000Z</time>
      </trkpt>
      <trkpt lat="45.96057" lon="6.60527">
        <ele>1060.8000488281</ele>
        <time>2018-03-24T07:57:18.000Z</time>
      </trkpt>
      <trkpt lat="45.96059" lon="6.60524">
        <ele>1061</ele>
        <time>2018-03-24T07:57:20.000Z</time>
      </trkpt>
      <trkpt lat="45.96059" lon="6.60522">
        <ele>1061.4000244141</ele>
        <time>2018-03-24T07:57:22.000Z</time>
      </trkpt>
      <trkpt lat="45.96061" lon="6.60514">
        <ele>1062.4000244141</ele>
        <time>2018-03-24T07:57:29.000Z</time>
      </trkpt>
      <trkpt lat="45.96073" lon="6.60503">
        <ele>1063.5999755859</ele>
        <time>2018-03-24T07:57:36.000Z</time>
      </trkpt>
      <trkpt lat="45.96076" lon="6.605">
        <ele>1064</ele>
        <time>2018-03-24T07:57:38.000Z</time>
      </trkpt>
      <trkpt lat="45.96077" lon="6.605">
        <ele>1064.5999755859</ele>
        <time>2018-03-24T07:57:42.000Z</time>
      </trkpt>
      <trkpt lat="45.96077" lon="6.60499">
        <ele>1064.5999755859</ele>
        <time>2018-03-24T07:57:43.000Z</time>
      </trkpt>
      <trkpt lat="45.96078" lon="6.60498">
        <ele>1065.8000488281</ele>
        <time>2018-03-24T07:57:50.000Z</time>
      </trkpt>
      <trkpt lat="45.96081" lon="6.60492">
        <ele>1067</ele>
        <time>2018-03-24T07:57:59.000Z</time>
      </trkpt>
      <trkpt lat="45.96081" lon="6.60487">
        <ele>1068</ele>
        <time>2018-03-24T07:58:04.000Z</time>
      </trkpt>
      <trkpt lat="45.96087" lon="6.60481">
        <ele>1069.1999511719</ele>
        <time>2018-03-24T07:58:09.000Z</time>
      </trkpt>
      <trkpt lat="45.96087" lon="6.60477">
        <ele>1069.5999755859</ele>
        <time>2018-03-24T07:58:12.000Z</time>
      </trkpt>
      <trkpt lat="45.96085" lon="6.60472">
        <ele>1070.1999511719</ele>
        <time>2018-03-24T07:58:16.000Z</time>
      </trkpt>
      <trkpt lat="45.96085" lon="6.60462">
        <ele>1071</ele>
        <time>2018-03-24T07:58:23.000Z</time>
      </trkpt>
      <trkpt lat="45.96089" lon="6.60457">
        <ele>1071.1999511719</ele>
        <time>2018-03-24T07:58:27.000Z</time>
      </trkpt>
      <trkpt lat="45.96093" lon="6.60448">
        <ele>1072.1999511719</ele>
        <time>2018-03-24T07:58:39.000Z</time>
      </trkpt>
      <trkpt lat="45.96096" lon="6.60441">
        <ele>1073.4000244141</ele>
        <time>2018-03-24T07:58:46.000Z</time>
      </trkpt>
      <trkpt lat="45.96099" lon="6.6044">
        <ele>1073.5999755859</ele>
        <time>2018-03-24T07:58:48.000Z</time>
      </trkpt>
      <trkpt lat="45.96101" lon="6.60439">
        <ele>1073.8000488281</ele>
        <time>2018-03-24T07:58:50.000Z</time>
      </trkpt>
      <trkpt lat="45.96103" lon="6.60436">
        <ele>1074</ele>
        <time>2018-03-24T07:58:54.000Z</time>
      </trkpt>
      <trkpt lat="45.96106" lon="6.60431">
        <ele>1074.4000244141</ele>
        <time>2018-03-24T07:58:59.000Z</time>
      </trkpt>
      <trkpt lat="45.9611" lon="6.60425">
        <ele>1074.8000488281</ele>
        <time>2018-03-24T07:59:04.000Z</time>
      </trkpt>
      <trkpt lat="45.96111" lon="6.60423">
        <ele>1074.8000488281</ele>
        <time>2018-03-24T07:59:06.000Z</time>
      </trkpt>
      <trkpt lat="45.96112" lon="6.60421">
        <ele>1075</ele>
        <time>2018-03-24T07:59:08.000Z</time>
      </trkpt>
      <trkpt lat="45.96114" lon="6.60417">
        <ele>1075.4000244141</ele>
        <time>2018-03-24T07:59:11.000Z</time>
      </trkpt>
      <trkpt lat="45.96115" lon="6.60416">
        <ele>1075.5999755859</ele>
        <time>2018-03-24T07:59:12.000Z</time>
      </trkpt>
      <trkpt lat="45.96116" lon="6.60411">
        <ele>1076.1999511719</ele>
        <time>2018-03-24T07:59:17.000Z</time>
      </trkpt>
      <trkpt lat="45.96116" lon="6.60409">
        <ele>1076.4000244141</ele>
        <time>2018-03-24T07:59:19.000Z</time>
      </trkpt>
      <trkpt lat="45.96117" lon="6.60409">
        <ele>1076.5999755859</ele>
        <time>2018-03-24T07:59:20.000Z</time>
      </trkpt>
      <trkpt lat="45.96118" lon="6.60408">
        <ele>1076.8000488281</ele>
        <time>2018-03-24T07:59:21.000Z</time>
      </trkpt>
      <trkpt lat="45.96123" lon="6.60404">
        <ele>1077.5999755859</ele>
        <time>2018-03-24T07:59:29.000Z</time>
      </trkpt>
      <trkpt lat="45.96126" lon="6.60401">
        <ele>1078.4000244141</ele>
        <time>2018-03-24T07:59:33.000Z</time>
      </trkpt>
      <trkpt lat="45.96127" lon="6.60399">
        <ele>1078.8000488281</ele>
        <time>2018-03-24T07:59:36.000Z</time>
      </trkpt>
      <trkpt lat="45.96132" lon="6.60389">
        <ele>1079.8000488281</ele>
        <time>2018-03-24T07:59:47.000Z</time>
      </trkpt>
      <trkpt lat="45.96134" lon="6.60381">
        <ele>1080.8000488281</ele>
        <time>2018-03-24T07:59:54.000Z</time>
      </trkpt>
      <trkpt lat="45.96134" lon="6.60368">
        <ele>1081.8000488281</ele>
        <time>2018-03-24T08:00:05.000Z</time>
      </trkpt>
      <trkpt lat="45.96131" lon="6.60357">
        <ele>1083</ele>
        <time>2018-03-24T08:00:14.000Z</time>
      </trkpt>
      <trkpt lat="45.96131" lon="6.60353">
        <ele>1083.1999511719</ele>
        <time>2018-03-24T08:00:16.000Z</time>
      </trkpt>
      <trkpt lat="45.96131" lon="6.60347">
        <ele>1084</ele>
        <time>2018-03-24T08:00:19.000Z</time>
      </trkpt>
      <trkpt lat="45.96135" lon="6.6034">
        <ele>1085</ele>
        <time>2018-03-24T08:00:27.000Z</time>
      </trkpt>
      <trkpt lat="45.96138" lon="6.60331">
        <ele>1086</ele>
        <time>2018-03-24T08:00:35.000Z</time>
      </trkpt>
      <trkpt lat="45.96139" lon="6.60322">
        <ele>1087.1999511719</ele>
        <time>2018-03-24T08:00:43.000Z</time>
      </trkpt>
      <trkpt lat="45.96139" lon="6.60321">
        <ele>1087.1999511719</ele>
        <time>2018-03-24T08:00:44.000Z</time>
      </trkpt>
      <trkpt lat="45.96142" lon="6.60314">
        <ele>1088.1999511719</ele>
        <time>2018-03-24T08:00:51.000Z</time>
      </trkpt>
      <trkpt lat="45.96143" lon="6.60306">
        <ele>1089.1999511719</ele>
        <time>2018-03-24T08:01:00.000Z</time>
      </trkpt>
      <trkpt lat="45.96143" lon="6.60304">
        <ele>1089.8000488281</ele>
        <time>2018-03-24T08:01:02.000Z</time>
      </trkpt>
      <trkpt lat="45.96145" lon="6.603">
        <ele>1090.1999511719</ele>
        <time>2018-03-24T08:01:08.000Z</time>
      </trkpt>
      <trkpt lat="45.96146" lon="6.60292">
        <ele>1091.4000244141</ele>
        <time>2018-03-24T08:01:17.000Z</time>
      </trkpt>
      <trkpt lat="45.96143" lon="6.60284">
        <ele>1092.4000244141</ele>
        <time>2018-03-24T08:01:25.000Z</time>
      </trkpt>
      <trkpt lat="45.96141" lon="6.60275">
        <ele>1093.4000244141</ele>
        <time>2018-03-24T08:01:33.000Z</time>
      </trkpt>
      <trkpt lat="45.96141" lon="6.60269">
        <ele>1094.5999755859</ele>
        <time>2018-03-24T08:01:42.000Z</time>
      </trkpt>
      <trkpt lat="45.96141" lon="6.60262">
        <ele>1095.8000488281</ele>
        <time>2018-03-24T08:01:50.000Z</time>
      </trkpt>
      <trkpt lat="45.96142" lon="6.60253">
        <ele>1096.8000488281</ele>
        <time>2018-03-24T08:01:57.000Z</time>
      </trkpt>
      <trkpt lat="45.96145" lon="6.60246">
        <ele>1097.8000488281</ele>
        <time>2018-03-24T08:02:06.000Z</time>
      </trkpt>
      <trkpt lat="45.96149" lon="6.60238">
        <ele>1099</ele>
        <time>2018-03-24T08:02:15.000Z</time>
      </trkpt>
      <trkpt lat="45.96156" lon="6.60236">
        <ele>1100</ele>
        <time>2018-03-24T08:02:26.000Z</time>
      </trkpt>
      <trkpt lat="45.96163" lon="6.60234">
        <ele>1101.1999511719</ele>
        <time>2018-03-24T08:02:36.000Z</time>
      </trkpt>
      <trkpt lat="45.96173" lon="6.60231">
        <ele>1102.1999511719</ele>
        <time>2018-03-24T08:02:45.000Z</time>
      </trkpt>
      <trkpt lat="45.96178" lon="6.60232">
        <ele>1103.1999511719</ele>
        <time>2018-03-24T08:02:51.000Z</time>
      </trkpt>
      <trkpt lat="45.96185" lon="6.60231">
        <ele>1104.1999511719</ele>
        <time>2018-03-24T08:02:59.000Z</time>
      </trkpt>
      <trkpt lat="45.96188" lon="6.6023">
        <ele>1104.5999755859</ele>
        <time>2018-03-24T08:03:02.000Z</time>
      </trkpt>
      <trkpt lat="45.96196" lon="6.60226">
        <ele>1105.4000244141</ele>
        <time>2018-03-24T08:03:08.000Z</time>
      </trkpt>
      <trkpt lat="45.96197" lon="6.60225">
        <ele>1105.5999755859</ele>
        <time>2018-03-24T08:03:10.000Z</time>
      </trkpt>
      <trkpt lat="45.96198" lon="6.60221">
        <ele>1106.4000244141</ele>
        <time>2018-03-24T08:03:17.000Z</time>
      </trkpt>
      <trkpt lat="45.96198" lon="6.60215">
        <ele>1107.5999755859</ele>
        <time>2018-03-24T08:03:24.000Z</time>
      </trkpt>
      <trkpt lat="45.962" lon="6.60205">
        <ele>1108.5999755859</ele>
        <time>2018-03-24T08:03:35.000Z</time>
      </trkpt>
      <trkpt lat="45.96202" lon="6.6019">
        <ele>1109.5999755859</ele>
        <time>2018-03-24T08:03:47.000Z</time>
      </trkpt>
      <trkpt lat="45.96208" lon="6.60187">
        <ele>1110.8000488281</ele>
        <time>2018-03-24T08:03:54.000Z</time>
      </trkpt>
      <trkpt lat="45.96216" lon="6.60187">
        <ele>1111.8000488281</ele>
        <time>2018-03-24T08:04:03.000Z</time>
      </trkpt>
      <trkpt lat="45.96219" lon="6.60186">
        <ele>1112.1999511719</ele>
        <time>2018-03-24T08:04:06.000Z</time>
      </trkpt>
      <trkpt lat="45.96221" lon="6.60183">
        <ele>1112.8000488281</ele>
        <time>2018-03-24T08:04:08.000Z</time>
      </trkpt>
      <trkpt lat="45.96221" lon="6.60183">
        <ele>1112.8000488281</ele>
        <time>2018-03-24T08:04:09.000Z</time>
      </trkpt>
      <trkpt lat="45.96221" lon="6.60182">
        <ele>1113</ele>
        <time>2018-03-24T08:04:10.000Z</time>
      </trkpt>
      <trkpt lat="45.96218" lon="6.60176">
        <ele>1114</ele>
        <time>2018-03-24T08:04:17.000Z</time>
      </trkpt>
      <trkpt lat="45.96218" lon="6.6017">
        <ele>1115</ele>
        <time>2018-03-24T08:04:26.000Z</time>
      </trkpt>
      <trkpt lat="45.96213" lon="6.60174">
        <ele>1116</ele>
        <time>2018-03-24T08:04:33.000Z</time>
      </trkpt>
      <trkpt lat="45.96207" lon="6.60179">
        <ele>1117.1999511719</ele>
        <time>2018-03-24T08:04:41.000Z</time>
      </trkpt>
      <trkpt lat="45.96203" lon="6.60177">
        <ele>1118.1999511719</ele>
        <time>2018-03-24T08:04:48.000Z</time>
      </trkpt>
      <trkpt lat="45.96197" lon="6.60174">
        <ele>1119.1999511719</ele>
        <time>2018-03-24T08:04:54.000Z</time>
      </trkpt>
      <trkpt lat="45.96193" lon="6.60174">
        <ele>1120.4000244141</ele>
        <time>2018-03-24T08:05:01.000Z</time>
      </trkpt>
      <trkpt lat="45.9619" lon="6.60172">
        <ele>1121.4000244141</ele>
        <time>2018-03-24T08:05:09.000Z</time>
      </trkpt>
      <trkpt lat="45.96183" lon="6.60169">
        <ele>1122.5999755859</ele>
        <time>2018-03-24T08:05:20.000Z</time>
      </trkpt>
      <trkpt lat="45.96175" lon="6.60167">
        <ele>1123.5999755859</ele>
        <time>2018-03-24T08:05:29.000Z</time>
      </trkpt>
      <trkpt lat="45.96164" lon="6.60166">
        <ele>1124.5999755859</ele>
        <time>2018-03-24T08:05:40.000Z</time>
      </trkpt>
      <trkpt lat="45.96163" lon="6.60165">
        <ele>1124.5999755859</ele>
        <time>2018-03-24T08:05:41.000Z</time>
      </trkpt>
      <trkpt lat="45.96161" lon="6.60162">
        <ele>1125</ele>
        <time>2018-03-24T08:05:44.000Z</time>
      </trkpt>
      <trkpt lat="45.9616" lon="6.60158">
        <ele>1125.4000244141</ele>
        <time>2018-03-24T08:05:47.000Z</time>
      </trkpt>
      <trkpt lat="45.9616" lon="6.60157">
        <ele>1125.5999755859</ele>
        <time>2018-03-24T08:05:49.000Z</time>
      </trkpt>
      <trkpt lat="45.96158" lon="6.60149">
        <ele>1126.5999755859</ele>
        <time>2018-03-24T08:05:57.000Z</time>
      </trkpt>
      <trkpt lat="45.96159" lon="6.60139">
        <ele>1127.8000488281</ele>
        <time>2018-03-24T08:06:05.000Z</time>
      </trkpt>
      <trkpt lat="45.96159" lon="6.60138">
        <ele>1127.8000488281</ele>
        <time>2018-03-24T08:06:06.000Z</time>
      </trkpt>
      <trkpt lat="45.96164" lon="6.60134">
        <ele>1128.8000488281</ele>
        <time>2018-03-24T08:06:11.000Z</time>
      </trkpt>
      <trkpt lat="45.96168" lon="6.60131">
        <ele>1129.5999755859</ele>
        <time>2018-03-24T08:06:17.000Z</time>
      </trkpt>
      <trkpt lat="45.96171" lon="6.6013">
        <ele>1129.8000488281</ele>
        <time>2018-03-24T08:06:19.000Z</time>
      </trkpt>
      <trkpt lat="45.96172" lon="6.60128">
        <ele>1129.8000488281</ele>
        <time>2018-03-24T08:06:20.000Z</time>
      </trkpt>
      <trkpt lat="45.96173" lon="6.60127">
        <ele>1130</ele>
        <time>2018-03-24T08:06:21.000Z</time>
      </trkpt>
      <trkpt lat="45.96175" lon="6.60124">
        <ele>1130.4000244141</ele>
        <time>2018-03-24T08:06:25.000Z</time>
      </trkpt>
      <trkpt lat="45.96177" lon="6.60122">
        <ele>1130.8000488281</ele>
        <time>2018-03-24T08:06:27.000Z</time>
      </trkpt>
      <trkpt lat="45.96179" lon="6.60118">
        <ele>1131.5999755859</ele>
        <time>2018-03-24T08:06:33.000Z</time>
      </trkpt>
      <trkpt lat="45.96181" lon="6.60117">
        <ele>1131.8000488281</ele>
        <time>2018-03-24T08:06:35.000Z</time>
      </trkpt>
      <trkpt lat="45.96187" lon="6.60113">
        <ele>1133</ele>
        <time>2018-03-24T08:06:43.000Z</time>
      </trkpt>
      <trkpt lat="45.96192" lon="6.60109">
        <ele>1134</ele>
        <time>2018-03-24T08:06:51.000Z</time>
      </trkpt>
      <trkpt lat="45.96195" lon="6.60106">
        <ele>1134.5999755859</ele>
        <time>2018-03-24T08:06:55.000Z</time>
      </trkpt>
      <trkpt lat="45.96197" lon="6.60105">
        <ele>1135.1999511719</ele>
        <time>2018-03-24T08:06:58.000Z</time>
      </trkpt>
      <trkpt lat="45.96201" lon="6.60099">
        <ele>1136.1999511719</ele>
        <time>2018-03-24T08:07:05.000Z</time>
      </trkpt>
      <trkpt lat="45.96207" lon="6.60095">
        <ele>1137.4000244141</ele>
        <time>2018-03-24T08:07:13.000Z</time>
      </trkpt>
      <trkpt lat="45.9621" lon="6.60089">
        <ele>1138.4000244141</ele>
        <time>2018-03-24T08:07:22.000Z</time>
      </trkpt>
      <trkpt lat="45.96212" lon="6.60083">
        <ele>1139.4000244141</ele>
        <time>2018-03-24T08:07:30.000Z</time>
      </trkpt>
      <trkpt lat="45.96216" lon="6.60076">
        <ele>1140.5999755859</ele>
        <time>2018-03-24T08:07:39.000Z</time>
      </trkpt>
      <trkpt lat="45.96218" lon="6.60072">
        <ele>1141.5999755859</ele>
        <time>2018-03-24T08:07:46.000Z</time>
      </trkpt>
      <trkpt lat="45.96223" lon="6.60068">
        <ele>1142.5999755859</ele>
        <time>2018-03-24T08:07:55.000Z</time>
      </trkpt>
      <trkpt lat="45.96225" lon="6.60062">
        <ele>1143.8000488281</ele>
        <time>2018-03-24T08:08:02.000Z</time>
      </trkpt>
      <trkpt lat="45.9623" lon="6.60045">
        <ele>1144.8000488281</ele>
        <time>2018-03-24T08:08:11.000Z</time>
      </trkpt>
      <trkpt lat="45.96238" lon="6.60035">
        <ele>1145.4000244141</ele>
        <time>2018-03-24T08:08:20.000Z</time>
      </trkpt>
      <trkpt lat="45.9624" lon="6.60033">
        <ele>1145.4000244141</ele>
        <time>2018-03-24T08:08:22.000Z</time>
      </trkpt>
      <trkpt lat="45.96241" lon="6.60031">
        <ele>1145.4000244141</ele>
        <time>2018-03-24T08:08:24.000Z</time>
      </trkpt>
      <trkpt lat="45.96245" lon="6.60027">
        <ele>1145.5999755859</ele>
        <time>2018-03-24T08:08:28.000Z</time>
      </trkpt>
      <trkpt lat="45.96248" lon="6.60023">
        <ele>1145.8000488281</ele>
        <time>2018-03-24T08:08:30.000Z</time>
      </trkpt>
      <trkpt lat="45.96249" lon="6.60021">
        <ele>1145.8000488281</ele>
        <time>2018-03-24T08:08:32.000Z</time>
      </trkpt>
      <trkpt lat="45.96253" lon="6.60014">
        <ele>1145.8000488281</ele>
        <time>2018-03-24T08:08:36.000Z</time>
      </trkpt>
      <trkpt lat="45.96261" lon="6.60011">
        <ele>1145.8000488281</ele>
        <time>2018-03-24T08:08:40.000Z</time>
      </trkpt>
      <trkpt lat="45.96272" lon="6.59999">
        <ele>1146.1999511719</ele>
        <time>2018-03-24T08:09:01.000Z</time>
      </trkpt>
      <trkpt lat="45.96276" lon="6.60005">
        <ele>1146.1999511719</ele>
        <time>2018-03-24T08:10:09.000Z</time>
      </trkpt>
      <trkpt lat="45.96274" lon="6.59997">
        <ele>1146</ele>
        <time>2018-03-24T08:10:15.000Z</time>
      </trkpt>
      <trkpt lat="45.96275" lon="6.59994">
        <ele>1146</ele>
        <time>2018-03-24T08:10:17.000Z</time>
      </trkpt>
      <trkpt lat="45.96274" lon="6.59989">
        <ele>1146</ele>
        <time>2018-03-24T08:10:19.000Z</time>
      </trkpt>
      <trkpt lat="45.96279" lon="6.59987">
        <ele>1146.1999511719</ele>
        <time>2018-03-24T08:10:57.000Z</time>
      </trkpt>
      <trkpt lat="45.96278" lon="6.59996">
        <ele>1147</ele>
        <time>2018-03-24T08:11:07.000Z</time>
      </trkpt>
      <trkpt lat="45.96276" lon="6.59987">
        <ele>1146</ele>
        <time>2018-03-24T08:12:15.000Z</time>
      </trkpt>
      <trkpt lat="45.96295" lon="6.59986">
        <ele>1146</ele>
        <time>2018-03-24T08:12:45.000Z</time>
      </trkpt>
      <trkpt lat="45.96302" lon="6.5998">
        <ele>1148.8000488281</ele>
        <time>2018-03-24T08:12:53.000Z</time>
      </trkpt>
      <trkpt lat="45.96303" lon="6.59979">
        <ele>1149.8000488281</ele>
        <time>2018-03-24T08:12:54.000Z</time>
      </trkpt>
      <trkpt lat="45.96305" lon="6.59978">
        <ele>1150</ele>
        <time>2018-03-24T08:12:55.000Z</time>
      </trkpt>
      <trkpt lat="45.96307" lon="6.59976">
        <ele>1151.1999511719</ele>
        <time>2018-03-24T08:12:58.000Z</time>
      </trkpt>
      <trkpt lat="45.96313" lon="6.59972">
        <ele>1152.1999511719</ele>
        <time>2018-03-24T08:13:09.000Z</time>
      </trkpt>
      <trkpt lat="45.96317" lon="6.59971">
        <ele>1153.1999511719</ele>
        <time>2018-03-24T08:13:16.000Z</time>
      </trkpt>
      <trkpt lat="45.96321" lon="6.5997">
        <ele>1154.4000244141</ele>
        <time>2018-03-24T08:13:20.000Z</time>
      </trkpt>
      <trkpt lat="45.96326" lon="6.59965">
        <ele>1155</ele>
        <time>2018-03-24T08:13:26.000Z</time>
      </trkpt>
      <trkpt lat="45.96328" lon="6.59964">
        <ele>1155.5999755859</ele>
        <time>2018-03-24T08:13:30.000Z</time>
      </trkpt>
      <trkpt lat="45.96336" lon="6.59961">
        <ele>1156.5999755859</ele>
        <time>2018-03-24T08:13:40.000Z</time>
      </trkpt>
      <trkpt lat="45.96345" lon="6.59952">
        <ele>1157.4000244141</ele>
        <time>2018-03-24T08:13:51.000Z</time>
      </trkpt>
      <trkpt lat="45.96347" lon="6.59949">
        <ele>1157.5999755859</ele>
        <time>2018-03-24T08:13:56.000Z</time>
      </trkpt>
      <trkpt lat="45.96352" lon="6.59944">
        <ele>1158.1999511719</ele>
        <time>2018-03-24T08:14:01.000Z</time>
      </trkpt>
      <trkpt lat="45.96358" lon="6.59938">
        <ele>1158.4000244141</ele>
        <time>2018-03-24T08:14:09.000Z</time>
      </trkpt>
      <trkpt lat="45.96359" lon="6.59937">
        <ele>1158.8000488281</ele>
        <time>2018-03-24T08:14:12.000Z</time>
      </trkpt>
      <trkpt lat="45.96361" lon="6.59937">
        <ele>1159</ele>
        <time>2018-03-24T08:14:14.000Z</time>
      </trkpt>
      <trkpt lat="45.96364" lon="6.59935">
        <ele>1159.4000244141</ele>
        <time>2018-03-24T08:14:19.000Z</time>
      </trkpt>
      <trkpt lat="45.96366" lon="6.59935">
        <ele>1159.5999755859</ele>
        <time>2018-03-24T08:14:22.000Z</time>
      </trkpt>
      <trkpt lat="45.96368" lon="6.59934">
        <ele>1159.8000488281</ele>
        <time>2018-03-24T08:14:26.000Z</time>
      </trkpt>
      <trkpt lat="45.96375" lon="6.59926">
        <ele>1160.8000488281</ele>
        <time>2018-03-24T08:14:35.000Z</time>
      </trkpt>
      <trkpt lat="45.96378" lon="6.59922">
        <ele>1162</ele>
        <time>2018-03-24T08:14:42.000Z</time>
      </trkpt>
      <trkpt lat="45.96381" lon="6.59914">
        <ele>1163</ele>
        <time>2018-03-24T08:14:54.000Z</time>
      </trkpt>
      <trkpt lat="45.96384" lon="6.59917">
        <ele>1164</ele>
        <time>2018-03-24T08:15:06.000Z</time>
      </trkpt>
      <trkpt lat="45.96387" lon="6.59913">
        <ele>1165.1999511719</ele>
        <time>2018-03-24T08:15:14.000Z</time>
      </trkpt>
      <trkpt lat="45.96393" lon="6.59916">
        <ele>1166.1999511719</ele>
        <time>2018-03-24T08:15:24.000Z</time>
      </trkpt>
      <trkpt lat="45.96394" lon="6.59918">
        <ele>1167.1999511719</ele>
        <time>2018-03-24T08:15:30.000Z</time>
      </trkpt>
      <trkpt lat="45.96398" lon="6.59914">
        <ele>1168.1999511719</ele>
        <time>2018-03-24T08:15:36.000Z</time>
      </trkpt>
      <trkpt lat="45.96405" lon="6.59907">
        <ele>1169.1999511719</ele>
        <time>2018-03-24T08:15:47.000Z</time>
      </trkpt>
      <trkpt lat="45.96408" lon="6.59906">
        <ele>1169.5999755859</ele>
        <time>2018-03-24T08:15:50.000Z</time>
      </trkpt>
      <trkpt lat="45.96408" lon="6.59902">
        <ele>1170</ele>
        <time>2018-03-24T08:15:54.000Z</time>
      </trkpt>
      <trkpt lat="45.96409" lon="6.59901">
        <ele>1170.4000244141</ele>
        <time>2018-03-24T08:15:56.000Z</time>
      </trkpt>
      <trkpt lat="45.96413" lon="6.59895">
        <ele>1171.4000244141</ele>
        <time>2018-03-24T08:16:03.000Z</time>
      </trkpt>
      <trkpt lat="45.96424" lon="6.59884">
        <ele>1171.5999755859</ele>
        <time>2018-03-24T08:16:15.000Z</time>
      </trkpt>
      <trkpt lat="45.9643" lon="6.5988">
        <ele>1171.8000488281</ele>
        <time>2018-03-24T08:16:21.000Z</time>
      </trkpt>
      <trkpt lat="45.96434" lon="6.5988">
        <ele>1172.1999511719</ele>
        <time>2018-03-24T08:16:23.000Z</time>
      </trkpt>
      <trkpt lat="45.96438" lon="6.59882">
        <ele>1172.5999755859</ele>
        <time>2018-03-24T08:16:28.000Z</time>
      </trkpt>
      <trkpt lat="45.96444" lon="6.59879">
        <ele>1173.5999755859</ele>
        <time>2018-03-24T08:16:37.000Z</time>
      </trkpt>
      <trkpt lat="45.96454" lon="6.59871">
        <ele>1174.5999755859</ele>
        <time>2018-03-24T08:16:46.000Z</time>
      </trkpt>
      <trkpt lat="45.96456" lon="6.59872">
        <ele>1175</ele>
        <time>2018-03-24T08:16:48.000Z</time>
      </trkpt>
      <trkpt lat="45.96459" lon="6.59867">
        <ele>1175.8000488281</ele>
        <time>2018-03-24T08:16:53.000Z</time>
      </trkpt>
      <trkpt lat="45.96461" lon="6.59865">
        <ele>1176.1999511719</ele>
        <time>2018-03-24T08:16:56.000Z</time>
      </trkpt>
      <trkpt lat="45.96464" lon="6.59865">
        <ele>1176.5999755859</ele>
        <time>2018-03-24T08:16:59.000Z</time>
      </trkpt>
      <trkpt lat="45.96466" lon="6.59865">
        <ele>1176.8000488281</ele>
        <time>2018-03-24T08:17:01.000Z</time>
      </trkpt>
      <trkpt lat="45.96467" lon="6.59865">
        <ele>1177.1999511719</ele>
        <time>2018-03-24T08:17:03.000Z</time>
      </trkpt>
      <trkpt lat="45.96471" lon="6.59865">
        <ele>1177.5999755859</ele>
        <time>2018-03-24T08:17:07.000Z</time>
      </trkpt>
      <trkpt lat="45.96472" lon="6.59865">
        <ele>1177.8000488281</ele>
        <time>2018-03-24T08:17:09.000Z</time>
      </trkpt>
      <trkpt lat="45.96476" lon="6.59862">
        <ele>1178.8000488281</ele>
        <time>2018-03-24T08:17:18.000Z</time>
      </trkpt>
      <trkpt lat="45.96479" lon="6.5986">
        <ele>1180</ele>
        <time>2018-03-24T08:17:30.000Z</time>
      </trkpt>
      <trkpt lat="45.96486" lon="6.59855">
        <ele>1181</ele>
        <time>2018-03-24T08:17:40.000Z</time>
      </trkpt>
      <trkpt lat="45.96486" lon="6.59855">
        <ele>1181.1999511719</ele>
        <time>2018-03-24T08:17:41.000Z</time>
      </trkpt>
      <trkpt lat="45.96488" lon="6.59854">
        <ele>1182.4000244141</ele>
        <time>2018-03-24T08:17:48.000Z</time>
      </trkpt>
      <trkpt lat="45.96492" lon="6.59854">
        <ele>1183.4000244141</ele>
        <time>2018-03-24T08:17:54.000Z</time>
      </trkpt>
      <trkpt lat="45.96495" lon="6.59853">
        <ele>1184.5999755859</ele>
        <time>2018-03-24T08:18:00.000Z</time>
      </trkpt>
      <trkpt lat="45.96498" lon="6.59852">
        <ele>1185.8000488281</ele>
        <time>2018-03-24T08:18:05.000Z</time>
      </trkpt>
      <trkpt lat="45.96505" lon="6.59849">
        <ele>1186.8000488281</ele>
        <time>2018-03-24T08:18:14.000Z</time>
      </trkpt>
      <trkpt lat="45.9651" lon="6.5985">
        <ele>1187.8000488281</ele>
        <time>2018-03-24T08:18:20.000Z</time>
      </trkpt>
      <trkpt lat="45.96514" lon="6.59847">
        <ele>1189.1999511719</ele>
        <time>2018-03-24T08:18:27.000Z</time>
      </trkpt>
      <trkpt lat="45.96518" lon="6.59847">
        <ele>1190.1999511719</ele>
        <time>2018-03-24T08:18:35.000Z</time>
      </trkpt>
      <trkpt lat="45.96524" lon="6.59848">
        <ele>1191.5999755859</ele>
        <time>2018-03-24T08:18:42.000Z</time>
      </trkpt>
      <trkpt lat="45.96527" lon="6.59852">
        <ele>1192.5999755859</ele>
        <time>2018-03-24T08:18:49.000Z</time>
      </trkpt>
      <trkpt lat="45.9653" lon="6.59853">
        <ele>1193.8000488281</ele>
        <time>2018-03-24T08:18:55.000Z</time>
      </trkpt>
      <trkpt lat="45.96534" lon="6.59852">
        <ele>1194.5999755859</ele>
        <time>2018-03-24T08:19:01.000Z</time>
      </trkpt>
      <trkpt lat="45.96535" lon="6.59851">
        <ele>1194.8000488281</ele>
        <time>2018-03-24T08:19:02.000Z</time>
      </trkpt>
      <trkpt lat="45.96536" lon="6.59849">
        <ele>1195.1999511719</ele>
        <time>2018-03-24T08:19:04.000Z</time>
      </trkpt>
      <trkpt lat="45.96539" lon="6.59848">
        <ele>1196</ele>
        <time>2018-03-24T08:19:08.000Z</time>
      </trkpt>
      <trkpt lat="45.96547" lon="6.59847">
        <ele>1197</ele>
        <time>2018-03-24T08:19:16.000Z</time>
      </trkpt>
      <trkpt lat="45.96552" lon="6.59843">
        <ele>1198.1999511719</ele>
        <time>2018-03-24T08:19:22.000Z</time>
      </trkpt>
      <trkpt lat="45.9655" lon="6.59842">
        <ele>1199.1999511719</ele>
        <time>2018-03-24T08:19:34.000Z</time>
      </trkpt>
      <trkpt lat="45.96554" lon="6.59845">
        <ele>1200.1999511719</ele>
        <time>2018-03-24T08:19:52.000Z</time>
      </trkpt>
      <trkpt lat="45.9656" lon="6.5985">
        <ele>1199.5999755859</ele>
        <time>2018-03-24T08:20:01.000Z</time>
      </trkpt>
      <trkpt lat="45.9657" lon="6.59849">
        <ele>1201</ele>
        <time>2018-03-24T08:20:22.000Z</time>
      </trkpt>
      <trkpt lat="45.96572" lon="6.59849">
        <ele>1201.4000244141</ele>
        <time>2018-03-24T08:20:24.000Z</time>
      </trkpt>
      <trkpt lat="45.96574" lon="6.59849">
        <ele>1202</ele>
        <time>2018-03-24T08:20:27.000Z</time>
      </trkpt>
      <trkpt lat="45.96577" lon="6.59847">
        <ele>1202.4000244141</ele>
        <time>2018-03-24T08:20:31.000Z</time>
      </trkpt>
      <trkpt lat="45.9658" lon="6.59846">
        <ele>1203.5999755859</ele>
        <time>2018-03-24T08:20:37.000Z</time>
      </trkpt>
      <trkpt lat="45.96583" lon="6.59844">
        <ele>1204.5999755859</ele>
        <time>2018-03-24T08:20:43.000Z</time>
      </trkpt>
      <trkpt lat="45.96587" lon="6.59843">
        <ele>1205.5999755859</ele>
        <time>2018-03-24T08:20:49.000Z</time>
      </trkpt>
      <trkpt lat="45.96588" lon="6.59843">
        <ele>1206</ele>
        <time>2018-03-24T08:20:51.000Z</time>
      </trkpt>
      <trkpt lat="45.96593" lon="6.59843">
        <ele>1206.8000488281</ele>
        <time>2018-03-24T08:20:57.000Z</time>
      </trkpt>
      <trkpt lat="45.96598" lon="6.59843">
        <ele>1207.8000488281</ele>
        <time>2018-03-24T08:21:03.000Z</time>
      </trkpt>
      <trkpt lat="45.96601" lon="6.59843">
        <ele>1209</ele>
        <time>2018-03-24T08:21:09.000Z</time>
      </trkpt>
      <trkpt lat="45.96605" lon="6.59843">
        <ele>1210</ele>
        <time>2018-03-24T08:21:17.000Z</time>
      </trkpt>
      <trkpt lat="45.96607" lon="6.5984">
        <ele>1211</ele>
        <time>2018-03-24T08:21:23.000Z</time>
      </trkpt>
      <trkpt lat="45.96612" lon="6.59836">
        <ele>1212</ele>
        <time>2018-03-24T08:21:29.000Z</time>
      </trkpt>
      <trkpt lat="45.96615" lon="6.59833">
        <ele>1213.1999511719</ele>
        <time>2018-03-24T08:21:36.000Z</time>
      </trkpt>
      <trkpt lat="45.9662" lon="6.59831">
        <ele>1214.1999511719</ele>
        <time>2018-03-24T08:21:41.000Z</time>
      </trkpt>
      <trkpt lat="45.96623" lon="6.59829">
        <ele>1215.1999511719</ele>
        <time>2018-03-24T08:21:51.000Z</time>
      </trkpt>
      <trkpt lat="45.96626" lon="6.59826">
        <ele>1216.1999511719</ele>
        <time>2018-03-24T08:21:57.000Z</time>
      </trkpt>
      <trkpt lat="45.96631" lon="6.59828">
        <ele>1217</ele>
        <time>2018-03-24T08:22:02.000Z</time>
      </trkpt>
      <trkpt lat="45.96633" lon="6.59828">
        <ele>1217.4000244141</ele>
        <time>2018-03-24T08:22:04.000Z</time>
      </trkpt>
      <trkpt lat="45.96633" lon="6.59829">
        <ele>1217.8000488281</ele>
        <time>2018-03-24T08:22:06.000Z</time>
      </trkpt>
      <trkpt lat="45.96637" lon="6.59829">
        <ele>1218.5999755859</ele>
        <time>2018-03-24T08:22:11.000Z</time>
      </trkpt>
      <trkpt lat="45.96639" lon="6.5983">
        <ele>1219</ele>
        <time>2018-03-24T08:22:13.000Z</time>
      </trkpt>
      <trkpt lat="45.96639" lon="6.59828">
        <ele>1219.4000244141</ele>
        <time>2018-03-24T08:22:17.000Z</time>
      </trkpt>
      <trkpt lat="45.96639" lon="6.59827">
        <ele>1219.5999755859</ele>
        <time>2018-03-24T08:22:18.000Z</time>
      </trkpt>
      <trkpt lat="45.96639" lon="6.59826">
        <ele>1219.8000488281</ele>
        <time>2018-03-24T08:22:19.000Z</time>
      </trkpt>
      <trkpt lat="45.9664" lon="6.59825">
        <ele>1220</ele>
        <time>2018-03-24T08:22:20.000Z</time>
      </trkpt>
      <trkpt lat="45.96641" lon="6.59824">
        <ele>1220.8000488281</ele>
        <time>2018-03-24T08:22:25.000Z</time>
      </trkpt>
      <trkpt lat="45.96642" lon="6.59822">
        <ele>1221.8000488281</ele>
        <time>2018-03-24T08:22:32.000Z</time>
      </trkpt>
      <trkpt lat="45.96648" lon="6.59818">
        <ele>1222.8000488281</ele>
        <time>2018-03-24T08:22:41.000Z</time>
      </trkpt>
      <trkpt lat="45.96653" lon="6.59816">
        <ele>1224</ele>
        <time>2018-03-24T08:22:47.000Z</time>
      </trkpt>
      <trkpt lat="45.96659" lon="6.59811">
        <ele>1225</ele>
        <time>2018-03-24T08:22:57.000Z</time>
      </trkpt>
      <trkpt lat="45.96662" lon="6.59809">
        <ele>1226</ele>
        <time>2018-03-24T08:23:02.000Z</time>
      </trkpt>
      <trkpt lat="45.96665" lon="6.59802">
        <ele>1227.1999511719</ele>
        <time>2018-03-24T08:23:11.000Z</time>
      </trkpt>
      <trkpt lat="45.96675" lon="6.598">
        <ele>1228.4000244141</ele>
        <time>2018-03-24T08:23:18.000Z</time>
      </trkpt>
      <trkpt lat="45.96679" lon="6.59799">
        <ele>1229.4000244141</ele>
        <time>2018-03-24T08:23:24.000Z</time>
      </trkpt>
      <trkpt lat="45.96686" lon="6.59795">
        <ele>1230.4000244141</ele>
        <time>2018-03-24T08:23:32.000Z</time>
      </trkpt>
      <trkpt lat="45.96692" lon="6.59793">
        <ele>1231.8000488281</ele>
        <time>2018-03-24T08:23:38.000Z</time>
      </trkpt>
      <trkpt lat="45.96692" lon="6.59794">
        <ele>1232.1999511719</ele>
        <time>2018-03-24T08:23:41.000Z</time>
      </trkpt>
      <trkpt lat="45.96693" lon="6.59791">
        <ele>1232.8000488281</ele>
        <time>2018-03-24T08:23:44.000Z</time>
      </trkpt>
      <trkpt lat="45.9669" lon="6.5979">
        <ele>1233.8000488281</ele>
        <time>2018-03-24T08:23:49.000Z</time>
      </trkpt>
      <trkpt lat="45.96688" lon="6.59791">
        <ele>1234.8000488281</ele>
        <time>2018-03-24T08:23:55.000Z</time>
      </trkpt>
      <trkpt lat="45.96685" lon="6.59795">
        <ele>1236</ele>
        <time>2018-03-24T08:24:02.000Z</time>
      </trkpt>
      <trkpt lat="45.96683" lon="6.59801">
        <ele>1237</ele>
        <time>2018-03-24T08:24:10.000Z</time>
      </trkpt>
      <trkpt lat="45.96678" lon="6.59801">
        <ele>1238.1999511719</ele>
        <time>2018-03-24T08:24:19.000Z</time>
      </trkpt>
      <trkpt lat="45.96676" lon="6.59802">
        <ele>1239.1999511719</ele>
        <time>2018-03-24T08:24:26.000Z</time>
      </trkpt>
      <trkpt lat="45.9667" lon="6.59797">
        <ele>1240.1999511719</ele>
        <time>2018-03-24T08:24:34.000Z</time>
      </trkpt>
      <trkpt lat="45.96667" lon="6.59798">
        <ele>1241.4000244141</ele>
        <time>2018-03-24T08:24:40.000Z</time>
      </trkpt>
      <trkpt lat="45.96662" lon="6.59799">
        <ele>1242.4000244141</ele>
        <time>2018-03-24T08:24:46.000Z</time>
      </trkpt>
      <trkpt lat="45.96657" lon="6.59789">
        <ele>1243.5999755859</ele>
        <time>2018-03-24T08:24:56.000Z</time>
      </trkpt>
      <trkpt lat="45.96654" lon="6.59782">
        <ele>1244.5999755859</ele>
        <time>2018-03-24T08:25:02.000Z</time>
      </trkpt>
      <trkpt lat="45.96648" lon="6.59778">
        <ele>1245.8000488281</ele>
        <time>2018-03-24T08:25:09.000Z</time>
      </trkpt>
      <trkpt lat="45.96642" lon="6.59775">
        <ele>1247</ele>
        <time>2018-03-24T08:25:17.000Z</time>
      </trkpt>
      <trkpt lat="45.96638" lon="6.59776">
        <ele>1248.1999511719</ele>
        <time>2018-03-24T08:25:23.000Z</time>
      </trkpt>
      <trkpt lat="45.96633" lon="6.5977">
        <ele>1249.4000244141</ele>
        <time>2018-03-24T08:25:32.000Z</time>
      </trkpt>
      <trkpt lat="45.96629" lon="6.59771">
        <ele>1250.5999755859</ele>
        <time>2018-03-24T08:25:37.000Z</time>
      </trkpt>
      <trkpt lat="45.96623" lon="6.59768">
        <ele>1251.5999755859</ele>
        <time>2018-03-24T08:25:45.000Z</time>
      </trkpt>
      <trkpt lat="45.96619" lon="6.59765">
        <ele>1252.8000488281</ele>
        <time>2018-03-24T08:25:52.000Z</time>
      </trkpt>
      <trkpt lat="45.96617" lon="6.59761">
        <ele>1254</ele>
        <time>2018-03-24T08:25:57.000Z</time>
      </trkpt>
      <trkpt lat="45.96615" lon="6.59758">
        <ele>1255.1999511719</ele>
        <time>2018-03-24T08:26:02.000Z</time>
      </trkpt>
      <trkpt lat="45.96614" lon="6.59753">
        <ele>1256.1999511719</ele>
        <time>2018-03-24T08:26:07.000Z</time>
      </trkpt>
      <trkpt lat="45.96611" lon="6.59748">
        <ele>1257.1999511719</ele>
        <time>2018-03-24T08:26:16.000Z</time>
      </trkpt>
      <trkpt lat="45.96607" lon="6.59743">
        <ele>1258.4000244141</ele>
        <time>2018-03-24T08:26:25.000Z</time>
      </trkpt>
      <trkpt lat="45.96605" lon="6.59738">
        <ele>1259.4000244141</ele>
        <time>2018-03-24T08:26:31.000Z</time>
      </trkpt>
      <trkpt lat="45.96602" lon="6.59733">
        <ele>1260.5999755859</ele>
        <time>2018-03-24T08:26:38.000Z</time>
      </trkpt>
      <trkpt lat="45.96606" lon="6.59729">
        <ele>1261.5999755859</ele>
        <time>2018-03-24T08:26:47.000Z</time>
      </trkpt>
      <trkpt lat="45.96614" lon="6.59727">
        <ele>1262.5999755859</ele>
        <time>2018-03-24T08:26:59.000Z</time>
      </trkpt>
      <trkpt lat="45.96622" lon="6.59732">
        <ele>1263.4000244141</ele>
        <time>2018-03-24T08:27:07.000Z</time>
      </trkpt>
      <trkpt lat="45.96624" lon="6.59732">
        <ele>1263.5999755859</ele>
        <time>2018-03-24T08:27:09.000Z</time>
      </trkpt>
      <trkpt lat="45.96625" lon="6.59732">
        <ele>1263.5999755859</ele>
        <time>2018-03-24T08:27:10.000Z</time>
      </trkpt>
      <trkpt lat="45.96626" lon="6.59732">
        <ele>1263.5999755859</ele>
        <time>2018-03-24T08:27:11.000Z</time>
      </trkpt>
      <trkpt lat="45.96635" lon="6.5973">
        <ele>1264.8000488281</ele>
        <time>2018-03-24T08:27:24.000Z</time>
      </trkpt>
      <trkpt lat="45.9664" lon="6.59726">
        <ele>1265.8000488281</ele>
        <time>2018-03-24T08:27:34.000Z</time>
      </trkpt>
      <trkpt lat="45.96645" lon="6.59724">
        <ele>1266.8000488281</ele>
        <time>2018-03-24T08:27:43.000Z</time>
      </trkpt>
      <trkpt lat="45.96647" lon="6.59724">
        <ele>1268</ele>
        <time>2018-03-24T08:27:50.000Z</time>
      </trkpt>
      <trkpt lat="45.96646" lon="6.59723">
        <ele>1269.1999511719</ele>
        <time>2018-03-24T08:27:57.000Z</time>
      </trkpt>
      <trkpt lat="45.96653" lon="6.59722">
        <ele>1270.1999511719</ele>
        <time>2018-03-24T08:28:10.000Z</time>
      </trkpt>
      <trkpt lat="45.96654" lon="6.59722">
        <ele>1270.4000244141</ele>
        <time>2018-03-24T08:28:11.000Z</time>
      </trkpt>
      <trkpt lat="45.96659" lon="6.59722">
        <ele>1271.5999755859</ele>
        <time>2018-03-24T08:28:18.000Z</time>
      </trkpt>
      <trkpt lat="45.96663" lon="6.5972">
        <ele>1272.8000488281</ele>
        <time>2018-03-24T08:28:27.000Z</time>
      </trkpt>
      <trkpt lat="45.96667" lon="6.5972">
        <ele>1273.8000488281</ele>
        <time>2018-03-24T08:28:33.000Z</time>
      </trkpt>
      <trkpt lat="45.96674" lon="6.5972">
        <ele>1275</ele>
        <time>2018-03-24T08:28:41.000Z</time>
      </trkpt>
      <trkpt lat="45.96679" lon="6.59718">
        <ele>1276.1999511719</ele>
        <time>2018-03-24T08:28:48.000Z</time>
      </trkpt>
      <trkpt lat="45.9668" lon="6.59719">
        <ele>1277.4000244141</ele>
        <time>2018-03-24T08:28:55.000Z</time>
      </trkpt>
      <trkpt lat="45.96682" lon="6.59718">
        <ele>1278.4000244141</ele>
        <time>2018-03-24T08:29:01.000Z</time>
      </trkpt>
      <trkpt lat="45.96682" lon="6.59715">
        <ele>1279.4000244141</ele>
        <time>2018-03-24T08:29:06.000Z</time>
      </trkpt>
      <trkpt lat="45.96679" lon="6.5971">
        <ele>1280.4000244141</ele>
        <time>2018-03-24T08:29:14.000Z</time>
      </trkpt>
      <trkpt lat="45.96677" lon="6.5971">
        <ele>1281.5999755859</ele>
        <time>2018-03-24T08:29:19.000Z</time>
      </trkpt>
      <trkpt lat="45.96672" lon="6.59714">
        <ele>1282.5999755859</ele>
        <time>2018-03-24T08:29:27.000Z</time>
      </trkpt>
      <trkpt lat="45.9667" lon="6.59713">
        <ele>1283.5999755859</ele>
        <time>2018-03-24T08:29:32.000Z</time>
      </trkpt>
      <trkpt lat="45.96667" lon="6.59705">
        <ele>1284.8000488281</ele>
        <time>2018-03-24T08:29:39.000Z</time>
      </trkpt>
      <trkpt lat="45.96664" lon="6.59704">
        <ele>1285.8000488281</ele>
        <time>2018-03-24T08:29:44.000Z</time>
      </trkpt>
      <trkpt lat="45.9666" lon="6.59706">
        <ele>1286.5999755859</ele>
        <time>2018-03-24T08:29:50.000Z</time>
      </trkpt>
      <trkpt lat="45.96659" lon="6.59703">
        <ele>1286.8000488281</ele>
        <time>2018-03-24T08:29:52.000Z</time>
      </trkpt>
      <trkpt lat="45.96656" lon="6.597">
        <ele>1287.4000244141</ele>
        <time>2018-03-24T08:29:59.000Z</time>
      </trkpt>
      <trkpt lat="45.96654" lon="6.59697">
        <ele>1288</ele>
        <time>2018-03-24T08:30:03.000Z</time>
      </trkpt>
      <trkpt lat="45.9665" lon="6.59693">
        <ele>1289</ele>
        <time>2018-03-24T08:30:10.000Z</time>
      </trkpt>
      <trkpt lat="45.96645" lon="6.5969">
        <ele>1290.1999511719</ele>
        <time>2018-03-24T08:30:18.000Z</time>
      </trkpt>
      <trkpt lat="45.96642" lon="6.59688">
        <ele>1291.1999511719</ele>
        <time>2018-03-24T08:30:24.000Z</time>
      </trkpt>
      <trkpt lat="45.96639" lon="6.59684">
        <ele>1292.1999511719</ele>
        <time>2018-03-24T08:30:29.000Z</time>
      </trkpt>
      <trkpt lat="45.96639" lon="6.5968">
        <ele>1293.1999511719</ele>
        <time>2018-03-24T08:30:35.000Z</time>
      </trkpt>
      <trkpt lat="45.96638" lon="6.59672">
        <ele>1294.4000244141</ele>
        <time>2018-03-24T08:30:49.000Z</time>
      </trkpt>
      <trkpt lat="45.96637" lon="6.59672">
        <ele>1295.5999755859</ele>
        <time>2018-03-24T08:30:53.000Z</time>
      </trkpt>
      <trkpt lat="45.96634" lon="6.59671">
        <ele>1296.5999755859</ele>
        <time>2018-03-24T08:31:03.000Z</time>
      </trkpt>
      <trkpt lat="45.96632" lon="6.59667">
        <ele>1297.8000488281</ele>
        <time>2018-03-24T08:31:10.000Z</time>
      </trkpt>
      <trkpt lat="45.96632" lon="6.59663">
        <ele>1298.8000488281</ele>
        <time>2018-03-24T08:31:21.000Z</time>
      </trkpt>
      <trkpt lat="45.96637" lon="6.59661">
        <ele>1299.8000488281</ele>
        <time>2018-03-24T08:31:30.000Z</time>
      </trkpt>
      <trkpt lat="45.96637" lon="6.5966">
        <ele>1300</ele>
        <time>2018-03-24T08:31:34.000Z</time>
      </trkpt>
      <trkpt lat="45.96639" lon="6.59657">
        <ele>1301</ele>
        <time>2018-03-24T08:31:44.000Z</time>
      </trkpt>
      <trkpt lat="45.9664" lon="6.59656">
        <ele>1302</ele>
        <time>2018-03-24T08:31:53.000Z</time>
      </trkpt>
      <trkpt lat="45.96649" lon="6.59659">
        <ele>1303.1999511719</ele>
        <time>2018-03-24T08:32:03.000Z</time>
      </trkpt>
      <trkpt lat="45.9665" lon="6.59659">
        <ele>1303.4000244141</ele>
        <time>2018-03-24T08:32:04.000Z</time>
      </trkpt>
      <trkpt lat="45.96654" lon="6.59661">
        <ele>1304.4000244141</ele>
        <time>2018-03-24T08:32:09.000Z</time>
      </trkpt>
      <trkpt lat="45.96655" lon="6.59664">
        <ele>1305.4000244141</ele>
        <time>2018-03-24T08:32:14.000Z</time>
      </trkpt>
      <trkpt lat="45.96659" lon="6.59665">
        <ele>1306.4000244141</ele>
        <time>2018-03-24T08:32:21.000Z</time>
      </trkpt>
      <trkpt lat="45.9666" lon="6.59666">
        <ele>1307.5999755859</ele>
        <time>2018-03-24T08:32:26.000Z</time>
      </trkpt>
      <trkpt lat="45.96663" lon="6.59667">
        <ele>1308.5999755859</ele>
        <time>2018-03-24T08:32:33.000Z</time>
      </trkpt>
      <trkpt lat="45.96665" lon="6.59668">
        <ele>1309.5999755859</ele>
        <time>2018-03-24T08:32:38.000Z</time>
      </trkpt>
      <trkpt lat="45.96667" lon="6.59666">
        <ele>1310.5999755859</ele>
        <time>2018-03-24T08:32:43.000Z</time>
      </trkpt>
      <trkpt lat="45.9667" lon="6.59664">
        <ele>1311.8000488281</ele>
        <time>2018-03-24T08:32:50.000Z</time>
      </trkpt>
      <trkpt lat="45.96675" lon="6.59663">
        <ele>1313</ele>
        <time>2018-03-24T08:32:57.000Z</time>
      </trkpt>
      <trkpt lat="45.9668" lon="6.59658">
        <ele>1314.1999511719</ele>
        <time>2018-03-24T08:33:08.000Z</time>
      </trkpt>
      <trkpt lat="45.9668" lon="6.59652">
        <ele>1315.4000244141</ele>
        <time>2018-03-24T08:33:14.000Z</time>
      </trkpt>
      <trkpt lat="45.96679" lon="6.59648">
        <ele>1316.4000244141</ele>
        <time>2018-03-24T08:33:20.000Z</time>
      </trkpt>
      <trkpt lat="45.96679" lon="6.59643">
        <ele>1317.4000244141</ele>
        <time>2018-03-24T08:33:28.000Z</time>
      </trkpt>
      <trkpt lat="45.96681" lon="6.5964">
        <ele>1318.8000488281</ele>
        <time>2018-03-24T08:33:33.000Z</time>
      </trkpt>
      <trkpt lat="45.96683" lon="6.59638">
        <ele>1319.8000488281</ele>
        <time>2018-03-24T08:33:39.000Z</time>
      </trkpt>
      <trkpt lat="45.96687" lon="6.59635">
        <ele>1320.8000488281</ele>
        <time>2018-03-24T08:33:45.000Z</time>
      </trkpt>
      <trkpt lat="45.96691" lon="6.59633">
        <ele>1322</ele>
        <time>2018-03-24T08:33:53.000Z</time>
      </trkpt>
      <trkpt lat="45.96693" lon="6.59632">
        <ele>1323.1999511719</ele>
        <time>2018-03-24T08:33:58.000Z</time>
      </trkpt>
      <trkpt lat="45.96705" lon="6.59629">
        <ele>1324.1999511719</ele>
        <time>2018-03-24T08:34:12.000Z</time>
      </trkpt>
      <trkpt lat="45.96711" lon="6.59629">
        <ele>1325.1999511719</ele>
        <time>2018-03-24T08:34:21.000Z</time>
      </trkpt>
      <trkpt lat="45.96712" lon="6.5963">
        <ele>1326.4000244141</ele>
        <time>2018-03-24T08:34:25.000Z</time>
      </trkpt>
      <trkpt lat="45.96712" lon="6.59636">
        <ele>1327.4000244141</ele>
        <time>2018-03-24T08:34:33.000Z</time>
      </trkpt>
      <trkpt lat="45.96718" lon="6.59636">
        <ele>1328.5999755859</ele>
        <time>2018-03-24T08:34:40.000Z</time>
      </trkpt>
      <trkpt lat="45.96722" lon="6.59639">
        <ele>1329.5999755859</ele>
        <time>2018-03-24T08:34:49.000Z</time>
      </trkpt>
      <trkpt lat="45.96726" lon="6.59642">
        <ele>1330.8000488281</ele>
        <time>2018-03-24T08:34:55.000Z</time>
      </trkpt>
      <trkpt lat="45.96731" lon="6.59646">
        <ele>1331.5999755859</ele>
        <time>2018-03-24T08:35:01.000Z</time>
      </trkpt>
      <trkpt lat="45.96732" lon="6.59646">
        <ele>1331.8000488281</ele>
        <time>2018-03-24T08:35:02.000Z</time>
      </trkpt>
      <trkpt lat="45.96735" lon="6.59647">
        <ele>1333</ele>
        <time>2018-03-24T08:35:07.000Z</time>
      </trkpt>
      <trkpt lat="45.96749" lon="6.59659">
        <ele>1334</ele>
        <time>2018-03-24T08:35:37.000Z</time>
      </trkpt>
      <trkpt lat="45.96759" lon="6.59659">
        <ele>1335.1999511719</ele>
        <time>2018-03-24T08:35:51.000Z</time>
      </trkpt>
      <trkpt lat="45.96763" lon="6.59666">
        <ele>1336.1999511719</ele>
        <time>2018-03-24T08:36:14.000Z</time>
      </trkpt>
      <trkpt lat="45.96767" lon="6.59664">
        <ele>1337.1999511719</ele>
        <time>2018-03-24T08:36:23.000Z</time>
      </trkpt>
      <trkpt lat="45.96771" lon="6.59666">
        <ele>1338.1999511719</ele>
        <time>2018-03-24T08:36:36.000Z</time>
      </trkpt>
      <trkpt lat="45.96775" lon="6.59669">
        <ele>1339.1999511719</ele>
        <time>2018-03-24T08:36:53.000Z</time>
      </trkpt>
      <trkpt lat="45.9677" lon="6.59676">
        <ele>1340.4000244141</ele>
        <time>2018-03-24T08:37:09.000Z</time>
      </trkpt>
      <trkpt lat="45.96776" lon="6.59672">
        <ele>1341.5999755859</ele>
        <time>2018-03-24T08:37:29.000Z</time>
      </trkpt>
      <trkpt lat="45.96785" lon="6.59667">
        <ele>1342.8000488281</ele>
        <time>2018-03-24T08:37:40.000Z</time>
      </trkpt>
      <trkpt lat="45.96787" lon="6.59667">
        <ele>1343.1999511719</ele>
        <time>2018-03-24T08:37:42.000Z</time>
      </trkpt>
      <trkpt lat="45.96789" lon="6.59668">
        <ele>1343.8000488281</ele>
        <time>2018-03-24T08:37:46.000Z</time>
      </trkpt>
      <trkpt lat="45.96792" lon="6.59667">
        <ele>1344.8000488281</ele>
        <time>2018-03-24T08:37:57.000Z</time>
      </trkpt>
      <trkpt lat="45.96793" lon="6.59669">
        <ele>1345.8000488281</ele>
        <time>2018-03-24T08:38:04.000Z</time>
      </trkpt>
      <trkpt lat="45.96796" lon="6.5967">
        <ele>1347</ele>
        <time>2018-03-24T08:38:10.000Z</time>
      </trkpt>
      <trkpt lat="45.96801" lon="6.59672">
        <ele>1348.1999511719</ele>
        <time>2018-03-24T08:38:17.000Z</time>
      </trkpt>
      <trkpt lat="45.96804" lon="6.59674">
        <ele>1349.1999511719</ele>
        <time>2018-03-24T08:38:24.000Z</time>
      </trkpt>
      <trkpt lat="45.9681" lon="6.59675">
        <ele>1350.1999511719</ele>
        <time>2018-03-24T08:38:29.000Z</time>
      </trkpt>
      <trkpt lat="45.96811" lon="6.59675">
        <ele>1350.4000244141</ele>
        <time>2018-03-24T08:38:30.000Z</time>
      </trkpt>
      <trkpt lat="45.96812" lon="6.59675">
        <ele>1351.1999511719</ele>
        <time>2018-03-24T08:38:37.000Z</time>
      </trkpt>
      <trkpt lat="45.96817" lon="6.59677">
        <ele>1352.4000244141</ele>
        <time>2018-03-24T08:38:44.000Z</time>
      </trkpt>
      <trkpt lat="45.9682" lon="6.59681">
        <ele>1353.5999755859</ele>
        <time>2018-03-24T08:38:53.000Z</time>
      </trkpt>
      <trkpt lat="45.96822" lon="6.59682">
        <ele>1354.5999755859</ele>
        <time>2018-03-24T08:38:58.000Z</time>
      </trkpt>
      <trkpt lat="45.96823" lon="6.59682">
        <ele>1355.5999755859</ele>
        <time>2018-03-24T08:39:05.000Z</time>
      </trkpt>
      <trkpt lat="45.96828" lon="6.5968">
        <ele>1356.8000488281</ele>
        <time>2018-03-24T08:39:12.000Z</time>
      </trkpt>
      <trkpt lat="45.96832" lon="6.59678">
        <ele>1357.8000488281</ele>
        <time>2018-03-24T08:39:20.000Z</time>
      </trkpt>
      <trkpt lat="45.96837" lon="6.59677">
        <ele>1359</ele>
        <time>2018-03-24T08:39:27.000Z</time>
      </trkpt>
      <trkpt lat="45.96839" lon="6.59677">
        <ele>1360.1999511719</ele>
        <time>2018-03-24T08:39:33.000Z</time>
      </trkpt>
      <trkpt lat="45.96841" lon="6.59673">
        <ele>1361.4000244141</ele>
        <time>2018-03-24T08:39:41.000Z</time>
      </trkpt>
      <trkpt lat="45.96843" lon="6.59669">
        <ele>1362.4000244141</ele>
        <time>2018-03-24T08:39:47.000Z</time>
      </trkpt>
      <trkpt lat="45.96847" lon="6.59664">
        <ele>1363.5999755859</ele>
        <time>2018-03-24T08:39:57.000Z</time>
      </trkpt>
      <trkpt lat="45.96846" lon="6.59662">
        <ele>1364.5999755859</ele>
        <time>2018-03-24T08:40:05.000Z</time>
      </trkpt>
      <trkpt lat="45.96844" lon="6.59661">
        <ele>1365.8000488281</ele>
        <time>2018-03-24T08:40:12.000Z</time>
      </trkpt>
      <trkpt lat="45.9684" lon="6.59664">
        <ele>1366.8000488281</ele>
        <time>2018-03-24T08:40:18.000Z</time>
      </trkpt>
      <trkpt lat="45.96838" lon="6.59664">
        <ele>1367.8000488281</ele>
        <time>2018-03-24T08:40:25.000Z</time>
      </trkpt>
      <trkpt lat="45.96835" lon="6.59664">
        <ele>1369</ele>
        <time>2018-03-24T08:40:30.000Z</time>
      </trkpt>
      <trkpt lat="45.96833" lon="6.59661">
        <ele>1370</ele>
        <time>2018-03-24T08:40:37.000Z</time>
      </trkpt>
      <trkpt lat="45.96828" lon="6.5966">
        <ele>1371</ele>
        <time>2018-03-24T08:41:38.000Z</time>
      </trkpt>
      <trkpt lat="45.96825" lon="6.59659">
        <ele>1370</ele>
        <time>2018-03-24T08:42:01.000Z</time>
      </trkpt>
      <trkpt lat="45.96827" lon="6.59662">
        <ele>1370.1999511719</ele>
        <time>2018-03-24T08:42:17.000Z</time>
      </trkpt>
      <trkpt lat="45.96825" lon="6.59653">
        <ele>1370.1999511719</ele>
        <time>2018-03-24T08:42:58.000Z</time>
      </trkpt>
      <trkpt lat="45.96824" lon="6.5965">
        <ele>1371.4000244141</ele>
        <time>2018-03-24T08:43:01.000Z</time>
      </trkpt>
      <trkpt lat="45.96823" lon="6.59647">
        <ele>1372</ele>
        <time>2018-03-24T08:43:04.000Z</time>
      </trkpt>
      <trkpt lat="45.96822" lon="6.59647">
        <ele>1372.5999755859</ele>
        <time>2018-03-24T08:43:05.000Z</time>
      </trkpt>
      <trkpt lat="45.96821" lon="6.59644">
        <ele>1373</ele>
        <time>2018-03-24T08:43:09.000Z</time>
      </trkpt>
      <trkpt lat="45.9682" lon="6.5964">
        <ele>1373.8000488281</ele>
        <time>2018-03-24T08:43:13.000Z</time>
      </trkpt>
      <trkpt lat="45.9682" lon="6.59636">
        <ele>1375</ele>
        <time>2018-03-24T08:43:18.000Z</time>
      </trkpt>
      <trkpt lat="45.96818" lon="6.59633">
        <ele>1376</ele>
        <time>2018-03-24T08:43:24.000Z</time>
      </trkpt>
      <trkpt lat="45.96817" lon="6.59631">
        <ele>1377.4000244141</ele>
        <time>2018-03-24T08:43:27.000Z</time>
      </trkpt>
      <trkpt lat="45.96814" lon="6.59628">
        <ele>1378.4000244141</ele>
        <time>2018-03-24T08:43:32.000Z</time>
      </trkpt>
      <trkpt lat="45.96812" lon="6.59625">
        <ele>1379.8000488281</ele>
        <time>2018-03-24T08:43:36.000Z</time>
      </trkpt>
      <trkpt lat="45.96809" lon="6.59619">
        <ele>1380.8000488281</ele>
        <time>2018-03-24T08:43:43.000Z</time>
      </trkpt>
      <trkpt lat="45.96807" lon="6.59616">
        <ele>1382</ele>
        <time>2018-03-24T08:43:48.000Z</time>
      </trkpt>
      <trkpt lat="45.96807" lon="6.59613">
        <ele>1383.1999511719</ele>
        <time>2018-03-24T08:43:53.000Z</time>
      </trkpt>
      <trkpt lat="45.96807" lon="6.59609">
        <ele>1384.4000244141</ele>
        <time>2018-03-24T08:43:59.000Z</time>
      </trkpt>
      <trkpt lat="45.96808" lon="6.59609">
        <ele>1385.5999755859</ele>
        <time>2018-03-24T08:44:05.000Z</time>
      </trkpt>
      <trkpt lat="45.96816" lon="6.59607">
        <ele>1386.5999755859</ele>
        <time>2018-03-24T08:44:14.000Z</time>
      </trkpt>
      <trkpt lat="45.96823" lon="6.59612">
        <ele>1387.8000488281</ele>
        <time>2018-03-24T08:44:22.000Z</time>
      </trkpt>
      <trkpt lat="45.96827" lon="6.59611">
        <ele>1388.8000488281</ele>
        <time>2018-03-24T08:44:28.000Z</time>
      </trkpt>
      <trkpt lat="45.96832" lon="6.59608">
        <ele>1389.8000488281</ele>
        <time>2018-03-24T08:44:35.000Z</time>
      </trkpt>
      <trkpt lat="45.96831" lon="6.59604">
        <ele>1391</ele>
        <time>2018-03-24T08:44:42.000Z</time>
      </trkpt>
      <trkpt lat="45.96829" lon="6.59603">
        <ele>1392.1999511719</ele>
        <time>2018-03-24T08:44:46.000Z</time>
      </trkpt>
      <trkpt lat="45.96827" lon="6.59599">
        <ele>1393.1999511719</ele>
        <time>2018-03-24T08:44:51.000Z</time>
      </trkpt>
      <trkpt lat="45.96825" lon="6.59599">
        <ele>1394.4000244141</ele>
        <time>2018-03-24T08:44:58.000Z</time>
      </trkpt>
      <trkpt lat="45.9682" lon="6.59596">
        <ele>1395.4000244141</ele>
        <time>2018-03-24T08:45:06.000Z</time>
      </trkpt>
      <trkpt lat="45.96817" lon="6.59591">
        <ele>1396.5999755859</ele>
        <time>2018-03-24T08:45:13.000Z</time>
      </trkpt>
      <trkpt lat="45.96812" lon="6.59586">
        <ele>1397.5999755859</ele>
        <time>2018-03-24T08:45:22.000Z</time>
      </trkpt>
      <trkpt lat="45.96809" lon="6.59581">
        <ele>1398.8000488281</ele>
        <time>2018-03-24T08:45:30.000Z</time>
      </trkpt>
      <trkpt lat="45.96803" lon="6.59579">
        <ele>1399.8000488281</ele>
        <time>2018-03-24T08:45:37.000Z</time>
      </trkpt>
      <trkpt lat="45.96799" lon="6.5958">
        <ele>1401</ele>
        <time>2018-03-24T08:45:45.000Z</time>
      </trkpt>
      <trkpt lat="45.96798" lon="6.59582">
        <ele>1402</ele>
        <time>2018-03-24T08:45:49.000Z</time>
      </trkpt>
      <trkpt lat="45.96795" lon="6.59582">
        <ele>1403</ele>
        <time>2018-03-24T08:45:55.000Z</time>
      </trkpt>
      <trkpt lat="45.96793" lon="6.59579">
        <ele>1404.1999511719</ele>
        <time>2018-03-24T08:46:00.000Z</time>
      </trkpt>
      <trkpt lat="45.96788" lon="6.59575">
        <ele>1405.1999511719</ele>
        <time>2018-03-24T08:46:07.000Z</time>
      </trkpt>
      <trkpt lat="45.96785" lon="6.59574">
        <ele>1405.5999755859</ele>
        <time>2018-03-24T08:46:10.000Z</time>
      </trkpt>
      <trkpt lat="45.96781" lon="6.59571">
        <ele>1406.4000244141</ele>
        <time>2018-03-24T08:46:14.000Z</time>
      </trkpt>
      <trkpt lat="45.96779" lon="6.59568">
        <ele>1407.4000244141</ele>
        <time>2018-03-24T08:46:18.000Z</time>
      </trkpt>
      <trkpt lat="45.96778" lon="6.59562">
        <ele>1408.5999755859</ele>
        <time>2018-03-24T08:46:26.000Z</time>
      </trkpt>
      <trkpt lat="45.96778" lon="6.59555">
        <ele>1409.5999755859</ele>
        <time>2018-03-24T08:46:35.000Z</time>
      </trkpt>
      <trkpt lat="45.96779" lon="6.59541">
        <ele>1410.8000488281</ele>
        <time>2018-03-24T08:46:49.000Z</time>
      </trkpt>
      <trkpt lat="45.96781" lon="6.5954">
        <ele>1412</ele>
        <time>2018-03-24T08:46:56.000Z</time>
      </trkpt>
      <trkpt lat="45.96785" lon="6.59537">
        <ele>1413</ele>
        <time>2018-03-24T08:47:04.000Z</time>
      </trkpt>
      <trkpt lat="45.96792" lon="6.59533">
        <ele>1414.1999511719</ele>
        <time>2018-03-24T08:47:10.000Z</time>
      </trkpt>
      <trkpt lat="45.96796" lon="6.59534">
        <ele>1415.4000244141</ele>
        <time>2018-03-24T08:47:15.000Z</time>
      </trkpt>
      <trkpt lat="45.968" lon="6.59534">
        <ele>1416.4000244141</ele>
        <time>2018-03-24T08:47:20.000Z</time>
      </trkpt>
      <trkpt lat="45.96803" lon="6.59531">
        <ele>1417.5999755859</ele>
        <time>2018-03-24T08:47:25.000Z</time>
      </trkpt>
      <trkpt lat="45.96805" lon="6.59531">
        <ele>1418.5999755859</ele>
        <time>2018-03-24T08:47:36.000Z</time>
      </trkpt>
      <trkpt lat="45.96804" lon="6.59528">
        <ele>1419.5999755859</ele>
        <time>2018-03-24T08:47:41.000Z</time>
      </trkpt>
      <trkpt lat="45.96802" lon="6.59525">
        <ele>1420.8000488281</ele>
        <time>2018-03-24T08:47:48.000Z</time>
      </trkpt>
      <trkpt lat="45.96801" lon="6.59521">
        <ele>1421.8000488281</ele>
        <time>2018-03-24T08:47:55.000Z</time>
      </trkpt>
      <trkpt lat="45.96799" lon="6.59522">
        <ele>1422.8000488281</ele>
        <time>2018-03-24T08:47:59.000Z</time>
      </trkpt>
      <trkpt lat="45.96795" lon="6.59517">
        <ele>1424</ele>
        <time>2018-03-24T08:48:06.000Z</time>
      </trkpt>
      <trkpt lat="45.96791" lon="6.59514">
        <ele>1425</ele>
        <time>2018-03-24T08:48:10.000Z</time>
      </trkpt>
      <trkpt lat="45.96784" lon="6.59507">
        <ele>1426</ele>
        <time>2018-03-24T08:48:22.000Z</time>
      </trkpt>
      <trkpt lat="45.96779" lon="6.595">
        <ele>1427.1999511719</ele>
        <time>2018-03-24T08:48:30.000Z</time>
      </trkpt>
      <trkpt lat="45.96775" lon="6.59496">
        <ele>1428.1999511719</ele>
        <time>2018-03-24T08:48:38.000Z</time>
      </trkpt>
      <trkpt lat="45.96771" lon="6.59495">
        <ele>1429.5999755859</ele>
        <time>2018-03-24T08:48:44.000Z</time>
      </trkpt>
      <trkpt lat="45.96768" lon="6.59496">
        <ele>1430.8000488281</ele>
        <time>2018-03-24T08:48:48.000Z</time>
      </trkpt>
      <trkpt lat="45.96764" lon="6.59494">
        <ele>1432.1999511719</ele>
        <time>2018-03-24T08:48:59.000Z</time>
      </trkpt>
      <trkpt lat="45.9676" lon="6.59491">
        <ele>1433.1999511719</ele>
        <time>2018-03-24T08:49:05.000Z</time>
      </trkpt>
      <trkpt lat="45.96758" lon="6.5949">
        <ele>1434.5999755859</ele>
        <time>2018-03-24T08:49:09.000Z</time>
      </trkpt>
      <trkpt lat="45.96754" lon="6.59488">
        <ele>1435.5999755859</ele>
        <time>2018-03-24T08:49:14.000Z</time>
      </trkpt>
      <trkpt lat="45.9675" lon="6.59485">
        <ele>1436.8000488281</ele>
        <time>2018-03-24T08:49:21.000Z</time>
      </trkpt>
      <trkpt lat="45.96748" lon="6.59482">
        <ele>1437.8000488281</ele>
        <time>2018-03-24T08:49:26.000Z</time>
      </trkpt>
      <trkpt lat="45.96745" lon="6.5948">
        <ele>1439</ele>
        <time>2018-03-24T08:49:31.000Z</time>
      </trkpt>
      <trkpt lat="45.96741" lon="6.59475">
        <ele>1440</ele>
        <time>2018-03-24T08:49:39.000Z</time>
      </trkpt>
      <trkpt lat="45.96745" lon="6.5947">
        <ele>1440.5999755859</ele>
        <time>2018-03-24T08:49:45.000Z</time>
      </trkpt>
      <trkpt lat="45.96746" lon="6.59468">
        <ele>1440.8000488281</ele>
        <time>2018-03-24T08:49:47.000Z</time>
      </trkpt>
      <trkpt lat="45.96749" lon="6.59466">
        <ele>1441</ele>
        <time>2018-03-24T08:49:50.000Z</time>
      </trkpt>
      <trkpt lat="45.96752" lon="6.59465">
        <ele>1442</ele>
        <time>2018-03-24T08:49:57.000Z</time>
      </trkpt>
      <trkpt lat="45.96757" lon="6.59461">
        <ele>1443.1999511719</ele>
        <time>2018-03-24T08:50:06.000Z</time>
      </trkpt>
      <trkpt lat="45.96763" lon="6.59461">
        <ele>1444.4000244141</ele>
        <time>2018-03-24T08:50:14.000Z</time>
      </trkpt>
      <trkpt lat="45.9677" lon="6.59464">
        <ele>1445.5999755859</ele>
        <time>2018-03-24T08:50:21.000Z</time>
      </trkpt>
      <trkpt lat="45.96774" lon="6.59463">
        <ele>1446.5999755859</ele>
        <time>2018-03-24T08:50:30.000Z</time>
      </trkpt>
      <trkpt lat="45.96779" lon="6.5946">
        <ele>1447.5999755859</ele>
        <time>2018-03-24T08:50:43.000Z</time>
      </trkpt>
      <trkpt lat="45.96781" lon="6.59461">
        <ele>1448.8000488281</ele>
        <time>2018-03-24T08:50:49.000Z</time>
      </trkpt>
      <trkpt lat="45.96792" lon="6.59458">
        <ele>1449.8000488281</ele>
        <time>2018-03-24T08:50:59.000Z</time>
      </trkpt>
      <trkpt lat="45.96794" lon="6.59458">
        <ele>1450.8000488281</ele>
        <time>2018-03-24T08:51:07.000Z</time>
      </trkpt>
      <trkpt lat="45.96794" lon="6.59457">
        <ele>1451.8000488281</ele>
        <time>2018-03-24T08:51:12.000Z</time>
      </trkpt>
      <trkpt lat="45.968" lon="6.59454">
        <ele>1452.8000488281</ele>
        <time>2018-03-24T08:51:20.000Z</time>
      </trkpt>
      <trkpt lat="45.96807" lon="6.59454">
        <ele>1454</ele>
        <time>2018-03-24T08:51:30.000Z</time>
      </trkpt>
      <trkpt lat="45.96813" lon="6.59456">
        <ele>1455.1999511719</ele>
        <time>2018-03-24T08:51:38.000Z</time>
      </trkpt>
      <trkpt lat="45.96814" lon="6.5946">
        <ele>1456.4000244141</ele>
        <time>2018-03-24T08:51:46.000Z</time>
      </trkpt>
      <trkpt lat="45.96817" lon="6.5946">
        <ele>1457.4000244141</ele>
        <time>2018-03-24T08:51:52.000Z</time>
      </trkpt>
      <trkpt lat="45.96822" lon="6.59458">
        <ele>1458.5999755859</ele>
        <time>2018-03-24T08:51:58.000Z</time>
      </trkpt>
      <trkpt lat="45.96825" lon="6.59457">
        <ele>1459.5999755859</ele>
        <time>2018-03-24T08:52:04.000Z</time>
      </trkpt>
      <trkpt lat="45.96829" lon="6.59454">
        <ele>1460.5999755859</ele>
        <time>2018-03-24T08:52:12.000Z</time>
      </trkpt>
      <trkpt lat="45.96831" lon="6.59454">
        <ele>1461.8000488281</ele>
        <time>2018-03-24T08:52:16.000Z</time>
      </trkpt>
      <trkpt lat="45.96835" lon="6.59452">
        <ele>1462.8000488281</ele>
        <time>2018-03-24T08:52:21.000Z</time>
      </trkpt>
      <trkpt lat="45.9684" lon="6.59445">
        <ele>1463.8000488281</ele>
        <time>2018-03-24T08:52:30.000Z</time>
      </trkpt>
      <trkpt lat="45.96845" lon="6.59441">
        <ele>1465</ele>
        <time>2018-03-24T08:52:41.000Z</time>
      </trkpt>
      <trkpt lat="45.96849" lon="6.59435">
        <ele>1466</ele>
        <time>2018-03-24T08:52:47.000Z</time>
      </trkpt>
      <trkpt lat="45.96851" lon="6.5943">
        <ele>1467.1999511719</ele>
        <time>2018-03-24T08:52:55.000Z</time>
      </trkpt>
      <trkpt lat="45.96852" lon="6.59428">
        <ele>1468.1999511719</ele>
        <time>2018-03-24T08:53:01.000Z</time>
      </trkpt>
      <trkpt lat="45.96853" lon="6.59422">
        <ele>1469.4000244141</ele>
        <time>2018-03-24T08:53:08.000Z</time>
      </trkpt>
      <trkpt lat="45.96858" lon="6.59411">
        <ele>1469.4000244141</ele>
        <time>2018-03-24T08:53:17.000Z</time>
      </trkpt>
      <trkpt lat="45.96858" lon="6.59401">
        <ele>1470.4000244141</ele>
        <time>2018-03-24T08:53:25.000Z</time>
      </trkpt>
      <trkpt lat="45.96859" lon="6.59398">
        <ele>1470.4000244141</ele>
        <time>2018-03-24T08:53:27.000Z</time>
      </trkpt>
      <trkpt lat="45.96859" lon="6.59395">
        <ele>1470.5999755859</ele>
        <time>2018-03-24T08:53:29.000Z</time>
      </trkpt>
      <trkpt lat="45.96861" lon="6.59376">
        <ele>1471.4000244141</ele>
        <time>2018-03-24T08:53:45.000Z</time>
      </trkpt>
      <trkpt lat="45.96862" lon="6.59371">
        <ele>1472.5999755859</ele>
        <time>2018-03-24T08:53:51.000Z</time>
      </trkpt>
      <trkpt lat="45.96864" lon="6.59365">
        <ele>1473.5999755859</ele>
        <time>2018-03-24T08:53:56.000Z</time>
      </trkpt>
      <trkpt lat="45.96864" lon="6.59362">
        <ele>1474</ele>
        <time>2018-03-24T08:53:59.000Z</time>
      </trkpt>
      <trkpt lat="45.96863" lon="6.59357">
        <ele>1474.8000488281</ele>
        <time>2018-03-24T08:54:04.000Z</time>
      </trkpt>
      <trkpt lat="45.9686" lon="6.5935">
        <ele>1475.8000488281</ele>
        <time>2018-03-24T08:54:11.000Z</time>
      </trkpt>
      <trkpt lat="45.96859" lon="6.59348">
        <ele>1476</ele>
        <time>2018-03-24T08:54:13.000Z</time>
      </trkpt>
      <trkpt lat="45.96858" lon="6.59343">
        <ele>1476.4000244141</ele>
        <time>2018-03-24T08:54:20.000Z</time>
      </trkpt>
      <trkpt lat="45.96856" lon="6.59334">
        <ele>1476.8000488281</ele>
        <time>2018-03-24T08:54:27.000Z</time>
      </trkpt>
      <trkpt lat="45.96854" lon="6.59323">
        <ele>1477.4000244141</ele>
        <time>2018-03-24T08:54:34.000Z</time>
      </trkpt>
      <trkpt lat="45.96854" lon="6.59318">
        <ele>1477.5999755859</ele>
        <time>2018-03-24T08:54:37.000Z</time>
      </trkpt>
      <trkpt lat="45.96854" lon="6.5931">
        <ele>1477.8000488281</ele>
        <time>2018-03-24T08:54:43.000Z</time>
      </trkpt>
      <trkpt lat="45.96854" lon="6.59309">
        <ele>1477.8000488281</ele>
        <time>2018-03-24T08:54:44.000Z</time>
      </trkpt>
      <trkpt lat="45.96854" lon="6.59305">
        <ele>1478.1999511719</ele>
        <time>2018-03-24T08:54:48.000Z</time>
      </trkpt>
      <trkpt lat="45.96852" lon="6.593">
        <ele>1479</ele>
        <time>2018-03-24T08:54:53.000Z</time>
      </trkpt>
      <trkpt lat="45.9685" lon="6.59294">
        <ele>1480.1999511719</ele>
        <time>2018-03-24T08:55:00.000Z</time>
      </trkpt>
      <trkpt lat="45.96848" lon="6.59281">
        <ele>1480.5999755859</ele>
        <time>2018-03-24T08:55:10.000Z</time>
      </trkpt>
      <trkpt lat="45.96847" lon="6.59276">
        <ele>1480.8000488281</ele>
        <time>2018-03-24T08:55:15.000Z</time>
      </trkpt>
      <trkpt lat="45.96846" lon="6.59273">
        <ele>1481</ele>
        <time>2018-03-24T08:55:17.000Z</time>
      </trkpt>
      <trkpt lat="45.96845" lon="6.59268">
        <ele>1481</ele>
        <time>2018-03-24T08:55:21.000Z</time>
      </trkpt>
      <trkpt lat="45.96844" lon="6.59264">
        <ele>1481.1999511719</ele>
        <time>2018-03-24T08:55:25.000Z</time>
      </trkpt>
      <trkpt lat="45.96838" lon="6.59241">
        <ele>1482.1999511719</ele>
        <time>2018-03-24T08:55:56.000Z</time>
      </trkpt>
      <trkpt lat="45.96836" lon="6.59236">
        <ele>1482.8000488281</ele>
        <time>2018-03-24T08:56:00.000Z</time>
      </trkpt>
      <trkpt lat="45.96834" lon="6.59229">
        <ele>1483</ele>
        <time>2018-03-24T08:56:06.000Z</time>
      </trkpt>
      <trkpt lat="45.96833" lon="6.59223">
        <ele>1483.4000244141</ele>
        <time>2018-03-24T08:56:10.000Z</time>
      </trkpt>
      <trkpt lat="45.96832" lon="6.59212">
        <ele>1483.4000244141</ele>
        <time>2018-03-24T08:56:18.000Z</time>
      </trkpt>
      <trkpt lat="45.96832" lon="6.5921">
        <ele>1483.5999755859</ele>
        <time>2018-03-24T08:56:20.000Z</time>
      </trkpt>
      <trkpt lat="45.96831" lon="6.592">
        <ele>1483.8000488281</ele>
        <time>2018-03-24T08:56:28.000Z</time>
      </trkpt>
      <trkpt lat="45.96831" lon="6.592">
        <ele>1484</ele>
        <time>2018-03-24T08:56:31.000Z</time>
      </trkpt>
      <trkpt lat="45.9683" lon="6.59199">
        <ele>1484.4000244141</ele>
        <time>2018-03-24T08:56:35.000Z</time>
      </trkpt>
      <trkpt lat="45.9683" lon="6.59195">
        <ele>1484.4000244141</ele>
        <time>2018-03-24T08:56:45.000Z</time>
      </trkpt>
      <trkpt lat="45.9683" lon="6.59194">
        <ele>1485</ele>
        <time>2018-03-24T08:57:16.000Z</time>
      </trkpt>
      <trkpt lat="45.9683" lon="6.59186">
        <ele>1485</ele>
        <time>2018-03-24T08:57:31.000Z</time>
      </trkpt>
      <trkpt lat="45.9683" lon="6.59178">
        <ele>1485.1999511719</ele>
        <time>2018-03-24T08:57:37.000Z</time>
      </trkpt>
      <trkpt lat="45.96831" lon="6.59175">
        <ele>1485.1999511719</ele>
        <time>2018-03-24T08:57:39.000Z</time>
      </trkpt>
      <trkpt lat="45.96832" lon="6.59173">
        <ele>1485.5999755859</ele>
        <time>2018-03-24T08:57:41.000Z</time>
      </trkpt>
      <trkpt lat="45.96832" lon="6.59167">
        <ele>1486.5999755859</ele>
        <time>2018-03-24T08:57:47.000Z</time>
      </trkpt>
      <trkpt lat="45.96833" lon="6.5916">
        <ele>1487.5999755859</ele>
        <time>2018-03-24T08:57:52.000Z</time>
      </trkpt>
      <trkpt lat="45.96833" lon="6.59159">
        <ele>1487.8000488281</ele>
        <time>2018-03-24T08:57:53.000Z</time>
      </trkpt>
      <trkpt lat="45.96834" lon="6.59155">
        <ele>1488.1999511719</ele>
        <time>2018-03-24T08:57:56.000Z</time>
      </trkpt>
      <trkpt lat="45.96835" lon="6.59149">
        <ele>1488.8000488281</ele>
        <time>2018-03-24T08:58:01.000Z</time>
      </trkpt>
      <trkpt lat="45.96837" lon="6.59145">
        <ele>1489.4000244141</ele>
        <time>2018-03-24T08:58:04.000Z</time>
      </trkpt>
      <trkpt lat="45.96837" lon="6.59144">
        <ele>1489.8000488281</ele>
        <time>2018-03-24T08:58:06.000Z</time>
      </trkpt>
      <trkpt lat="45.96837" lon="6.59141">
        <ele>1490.1999511719</ele>
        <time>2018-03-24T08:58:08.000Z</time>
      </trkpt>
      <trkpt lat="45.96838" lon="6.59139">
        <ele>1490.4000244141</ele>
        <time>2018-03-24T08:58:10.000Z</time>
      </trkpt>
      <trkpt lat="45.96838" lon="6.59136">
        <ele>1490.8000488281</ele>
        <time>2018-03-24T08:58:12.000Z</time>
      </trkpt>
      <trkpt lat="45.96838" lon="6.59135">
        <ele>1491</ele>
        <time>2018-03-24T08:58:14.000Z</time>
      </trkpt>
      <trkpt lat="45.96839" lon="6.59129">
        <ele>1491.8000488281</ele>
        <time>2018-03-24T08:58:19.000Z</time>
      </trkpt>
      <trkpt lat="45.96839" lon="6.59128">
        <ele>1491.8000488281</ele>
        <time>2018-03-24T08:58:20.000Z</time>
      </trkpt>
      <trkpt lat="45.96839" lon="6.59122">
        <ele>1492.1999511719</ele>
        <time>2018-03-24T08:58:25.000Z</time>
      </trkpt>
      <trkpt lat="45.9684" lon="6.59116">
        <ele>1493</ele>
        <time>2018-03-24T08:58:31.000Z</time>
      </trkpt>
      <trkpt lat="45.9684" lon="6.59111">
        <ele>1494</ele>
        <time>2018-03-24T08:58:37.000Z</time>
      </trkpt>
      <trkpt lat="45.9684" lon="6.59103">
        <ele>1495.4000244141</ele>
        <time>2018-03-24T08:58:45.000Z</time>
      </trkpt>
      <trkpt lat="45.9684" lon="6.59099">
        <ele>1496.5999755859</ele>
        <time>2018-03-24T08:58:50.000Z</time>
      </trkpt>
      <trkpt lat="45.96837" lon="6.59094">
        <ele>1497.5999755859</ele>
        <time>2018-03-24T08:58:57.000Z</time>
      </trkpt>
      <trkpt lat="45.96836" lon="6.59091">
        <ele>1498</ele>
        <time>2018-03-24T08:59:00.000Z</time>
      </trkpt>
      <trkpt lat="45.96834" lon="6.59086">
        <ele>1498.8000488281</ele>
        <time>2018-03-24T08:59:05.000Z</time>
      </trkpt>
      <trkpt lat="45.96833" lon="6.59078">
        <ele>1499.8000488281</ele>
        <time>2018-03-24T08:59:13.000Z</time>
      </trkpt>
      <trkpt lat="45.9683" lon="6.59065">
        <ele>1500.8000488281</ele>
        <time>2018-03-24T08:59:28.000Z</time>
      </trkpt>
      <trkpt lat="45.96827" lon="6.59057">
        <ele>1501.4000244141</ele>
        <time>2018-03-24T08:59:35.000Z</time>
      </trkpt>
      <trkpt lat="45.96822" lon="6.59047">
        <ele>1501.4000244141</ele>
        <time>2018-03-24T08:59:43.000Z</time>
      </trkpt>
      <trkpt lat="45.96819" lon="6.59039">
        <ele>1501.8000488281</ele>
        <time>2018-03-24T08:59:48.000Z</time>
      </trkpt>
      <trkpt lat="45.96819" lon="6.59035">
        <ele>1501.8000488281</ele>
        <time>2018-03-24T08:59:54.000Z</time>
      </trkpt>
      <trkpt lat="45.96818" lon="6.59031">
        <ele>1501.8000488281</ele>
        <time>2018-03-24T08:59:57.000Z</time>
      </trkpt>
      <trkpt lat="45.96818" lon="6.5903">
        <ele>1502</ele>
        <time>2018-03-24T08:59:58.000Z</time>
      </trkpt>
      <trkpt lat="45.96814" lon="6.59021">
        <ele>1502.4000244141</ele>
        <time>2018-03-24T09:00:04.000Z</time>
      </trkpt>
      <trkpt lat="45.96814" lon="6.59018">
        <ele>1502.8000488281</ele>
        <time>2018-03-24T09:00:06.000Z</time>
      </trkpt>
      <trkpt lat="45.96812" lon="6.59013">
        <ele>1503</ele>
        <time>2018-03-24T09:00:09.000Z</time>
      </trkpt>
      <trkpt lat="45.96811" lon="6.59011">
        <ele>1503.1999511719</ele>
        <time>2018-03-24T09:00:11.000Z</time>
      </trkpt>
      <trkpt lat="45.96809" lon="6.58999">
        <ele>1504</ele>
        <time>2018-03-24T09:00:24.000Z</time>
      </trkpt>
      <trkpt lat="45.96805" lon="6.58978">
        <ele>1504.5999755859</ele>
        <time>2018-03-24T09:00:43.000Z</time>
      </trkpt>
      <trkpt lat="45.96804" lon="6.58974">
        <ele>1504.5999755859</ele>
        <time>2018-03-24T09:00:46.000Z</time>
      </trkpt>
      <trkpt lat="45.96807" lon="6.58957">
        <ele>1504.8000488281</ele>
        <time>2018-03-24T09:00:58.000Z</time>
      </trkpt>
      <trkpt lat="45.96808" lon="6.58955">
        <ele>1505</ele>
        <time>2018-03-24T09:01:00.000Z</time>
      </trkpt>
      <trkpt lat="45.96809" lon="6.58954">
        <ele>1505.1999511719</ele>
        <time>2018-03-24T09:01:01.000Z</time>
      </trkpt>
      <trkpt lat="45.96811" lon="6.5895">
        <ele>1505.5999755859</ele>
        <time>2018-03-24T09:01:04.000Z</time>
      </trkpt>
      <trkpt lat="45.96814" lon="6.58942">
        <ele>1506.1999511719</ele>
        <time>2018-03-24T09:01:11.000Z</time>
      </trkpt>
      <trkpt lat="45.96816" lon="6.58938">
        <ele>1506.5999755859</ele>
        <time>2018-03-24T09:01:14.000Z</time>
      </trkpt>
      <trkpt lat="45.96817" lon="6.58937">
        <ele>1506.8000488281</ele>
        <time>2018-03-24T09:01:16.000Z</time>
      </trkpt>
      <trkpt lat="45.96818" lon="6.58934">
        <ele>1507.1999511719</ele>
        <time>2018-03-24T09:01:19.000Z</time>
      </trkpt>
      <trkpt lat="45.96819" lon="6.58931">
        <ele>1508.4000244141</ele>
        <time>2018-03-24T09:01:23.000Z</time>
      </trkpt>
      <trkpt lat="45.96817" lon="6.58915">
        <ele>1509.4000244141</ele>
        <time>2018-03-24T09:02:10.000Z</time>
      </trkpt>
      <trkpt lat="45.96816" lon="6.58914">
        <ele>1508.4000244141</ele>
        <time>2018-03-24T09:02:58.000Z</time>
      </trkpt>
      <trkpt lat="45.96815" lon="6.58915">
        <ele>1508.4000244141</ele>
        <time>2018-03-24T09:02:59.000Z</time>
      </trkpt>
      <trkpt lat="45.96812" lon="6.58921">
        <ele>1507.5999755859</ele>
        <time>2018-03-24T09:03:48.000Z</time>
      </trkpt>
      <trkpt lat="45.96813" lon="6.58921">
        <ele>1507.1999511719</ele>
        <time>2018-03-24T09:03:51.000Z</time>
      </trkpt>
      <trkpt lat="45.96817" lon="6.5892">
        <ele>1507</ele>
        <time>2018-03-24T09:05:42.000Z</time>
      </trkpt>
      <trkpt lat="45.96817" lon="6.58921">
        <ele>1507</ele>
        <time>2018-03-24T09:05:43.000Z</time>
      </trkpt>
      <trkpt lat="45.96814" lon="6.58914">
        <ele>1507</ele>
        <time>2018-03-24T09:06:31.000Z</time>
      </trkpt>
      <trkpt lat="45.96813" lon="6.5891">
        <ele>1507</ele>
        <time>2018-03-24T09:07:03.000Z</time>
      </trkpt>
      <trkpt lat="45.96814" lon="6.58904">
        <ele>1508.1999511719</ele>
        <time>2018-03-24T09:07:09.000Z</time>
      </trkpt>
      <trkpt lat="45.96814" lon="6.58898">
        <ele>1508</ele>
        <time>2018-03-24T09:07:14.000Z</time>
      </trkpt>
      <trkpt lat="45.96814" lon="6.5888">
        <ele>1508.1999511719</ele>
        <time>2018-03-24T09:07:26.000Z</time>
      </trkpt>
      <trkpt lat="45.96814" lon="6.58868">
        <ele>1508.5999755859</ele>
        <time>2018-03-24T09:07:34.000Z</time>
      </trkpt>
      <trkpt lat="45.96816" lon="6.58858">
        <ele>1509</ele>
        <time>2018-03-24T09:07:41.000Z</time>
      </trkpt>
      <trkpt lat="45.96819" lon="6.58845">
        <ele>1509.1999511719</ele>
        <time>2018-03-24T09:07:51.000Z</time>
      </trkpt>
      <trkpt lat="45.96819" lon="6.58844">
        <ele>1509.4000244141</ele>
        <time>2018-03-24T09:07:52.000Z</time>
      </trkpt>
      <trkpt lat="45.9682" lon="6.58841">
        <ele>1509.5999755859</ele>
        <time>2018-03-24T09:07:54.000Z</time>
      </trkpt>
      <trkpt lat="45.96821" lon="6.58835">
        <ele>1510.4000244141</ele>
        <time>2018-03-24T09:07:59.000Z</time>
      </trkpt>
      <trkpt lat="45.96821" lon="6.58832">
        <ele>1510.8000488281</ele>
        <time>2018-03-24T09:08:02.000Z</time>
      </trkpt>
      <trkpt lat="45.96822" lon="6.58829">
        <ele>1511.4000244141</ele>
        <time>2018-03-24T09:08:05.000Z</time>
      </trkpt>
      <trkpt lat="45.96824" lon="6.58821">
        <ele>1512.4000244141</ele>
        <time>2018-03-24T09:08:11.000Z</time>
      </trkpt>
      <trkpt lat="45.96824" lon="6.5882">
        <ele>1512.4000244141</ele>
        <time>2018-03-24T09:08:12.000Z</time>
      </trkpt>
      <trkpt lat="45.96825" lon="6.58818">
        <ele>1512.8000488281</ele>
        <time>2018-03-24T09:08:14.000Z</time>
      </trkpt>
      <trkpt lat="45.96824" lon="6.58807">
        <ele>1513.4000244141</ele>
        <time>2018-03-24T09:08:24.000Z</time>
      </trkpt>
      <trkpt lat="45.96823" lon="6.58804">
        <ele>1513.5999755859</ele>
        <time>2018-03-24T09:08:26.000Z</time>
      </trkpt>
      <trkpt lat="45.96821" lon="6.58803">
        <ele>1513.5999755859</ele>
        <time>2018-03-24T09:08:29.000Z</time>
      </trkpt>
      <trkpt lat="45.96818" lon="6.58799">
        <ele>1513.4000244141</ele>
        <time>2018-03-24T09:08:32.000Z</time>
      </trkpt>
      <trkpt lat="45.96813" lon="6.58795">
        <ele>1513.5999755859</ele>
        <time>2018-03-24T09:08:37.000Z</time>
      </trkpt>
      <trkpt lat="45.96801" lon="6.58776">
        <ele>1512.8000488281</ele>
        <time>2018-03-24T09:08:54.000Z</time>
      </trkpt>
      <trkpt lat="45.96798" lon="6.58768">
        <ele>1512.5999755859</ele>
        <time>2018-03-24T09:09:02.000Z</time>
      </trkpt>
      <trkpt lat="45.96797" lon="6.5876">
        <ele>1512.4000244141</ele>
        <time>2018-03-24T09:09:08.000Z</time>
      </trkpt>
      <trkpt lat="45.96794" lon="6.58752">
        <ele>1512</ele>
        <time>2018-03-24T09:09:13.000Z</time>
      </trkpt>
      <trkpt lat="45.96794" lon="6.58748">
        <ele>1511.4000244141</ele>
        <time>2018-03-24T09:09:16.000Z</time>
      </trkpt>
      <trkpt lat="45.96793" lon="6.58736">
        <ele>1511</ele>
        <time>2018-03-24T09:09:26.000Z</time>
      </trkpt>
      <trkpt lat="45.96787" lon="6.58715">
        <ele>1510.4000244141</ele>
        <time>2018-03-24T09:09:48.000Z</time>
      </trkpt>
      <trkpt lat="45.96786" lon="6.58712">
        <ele>1510.1999511719</ele>
        <time>2018-03-24T09:09:51.000Z</time>
      </trkpt>
      <trkpt lat="45.96785" lon="6.58711">
        <ele>1509.8000488281</ele>
        <time>2018-03-24T09:09:53.000Z</time>
      </trkpt>
      <trkpt lat="45.96784" lon="6.58708">
        <ele>1509.4000244141</ele>
        <time>2018-03-24T09:09:57.000Z</time>
      </trkpt>
      <trkpt lat="45.96784" lon="6.58699">
        <ele>1508.4000244141</ele>
        <time>2018-03-24T09:10:08.000Z</time>
      </trkpt>
      <trkpt lat="45.96782" lon="6.5869">
        <ele>1507.1999511719</ele>
        <time>2018-03-24T09:10:12.000Z</time>
      </trkpt>
      <trkpt lat="45.9678" lon="6.58683">
        <ele>1505.8000488281</ele>
        <time>2018-03-24T09:10:15.000Z</time>
      </trkpt>
      <trkpt lat="45.9678" lon="6.58682">
        <ele>1505.1999511719</ele>
        <time>2018-03-24T09:10:16.000Z</time>
      </trkpt>
      <trkpt lat="45.9678" lon="6.58681">
        <ele>1504.8000488281</ele>
        <time>2018-03-24T09:10:17.000Z</time>
      </trkpt>
      <trkpt lat="45.9678" lon="6.58677">
        <ele>1504.1999511719</ele>
        <time>2018-03-24T09:10:20.000Z</time>
      </trkpt>
      <trkpt lat="45.96779" lon="6.58657">
        <ele>1503.8000488281</ele>
        <time>2018-03-24T09:10:34.000Z</time>
      </trkpt>
      <trkpt lat="45.96777" lon="6.58646">
        <ele>1503.5999755859</ele>
        <time>2018-03-24T09:10:41.000Z</time>
      </trkpt>
      <trkpt lat="45.96776" lon="6.5864">
        <ele>1503.5999755859</ele>
        <time>2018-03-24T09:10:46.000Z</time>
      </trkpt>
      <trkpt lat="45.96775" lon="6.58636">
        <ele>1503.5999755859</ele>
        <time>2018-03-24T09:10:49.000Z</time>
      </trkpt>
      <trkpt lat="45.96771" lon="6.5861">
        <ele>1504.1999511719</ele>
        <time>2018-03-24T09:11:09.000Z</time>
      </trkpt>
      <trkpt lat="45.9677" lon="6.58602">
        <ele>1504.8000488281</ele>
        <time>2018-03-24T09:11:15.000Z</time>
      </trkpt>
      <trkpt lat="45.96769" lon="6.58601">
        <ele>1504.8000488281</ele>
        <time>2018-03-24T09:11:16.000Z</time>
      </trkpt>
      <trkpt lat="45.96768" lon="6.58594">
        <ele>1505.5999755859</ele>
        <time>2018-03-24T09:11:21.000Z</time>
      </trkpt>
      <trkpt lat="45.96768" lon="6.58591">
        <ele>1505.8000488281</ele>
        <time>2018-03-24T09:11:23.000Z</time>
      </trkpt>
      <trkpt lat="45.96767" lon="6.58586">
        <ele>1506.4000244141</ele>
        <time>2018-03-24T09:11:27.000Z</time>
      </trkpt>
      <trkpt lat="45.96767" lon="6.58579">
        <ele>1506.5999755859</ele>
        <time>2018-03-24T09:11:31.000Z</time>
      </trkpt>
      <trkpt lat="45.96767" lon="6.58574">
        <ele>1507</ele>
        <time>2018-03-24T09:11:34.000Z</time>
      </trkpt>
      <trkpt lat="45.96765" lon="6.58554">
        <ele>1508</ele>
        <time>2018-03-24T09:11:48.000Z</time>
      </trkpt>
      <trkpt lat="45.96763" lon="6.58546">
        <ele>1508.8000488281</ele>
        <time>2018-03-24T09:11:54.000Z</time>
      </trkpt>
      <trkpt lat="45.96762" lon="6.58542">
        <ele>1509</ele>
        <time>2018-03-24T09:11:57.000Z</time>
      </trkpt>
      <trkpt lat="45.96761" lon="6.58539">
        <ele>1509.5999755859</ele>
        <time>2018-03-24T09:11:59.000Z</time>
      </trkpt>
      <trkpt lat="45.9676" lon="6.58537">
        <ele>1509.8000488281</ele>
        <time>2018-03-24T09:12:01.000Z</time>
      </trkpt>
      <trkpt lat="45.96759" lon="6.58534">
        <ele>1510.1999511719</ele>
        <time>2018-03-24T09:12:04.000Z</time>
      </trkpt>
      <trkpt lat="45.96759" lon="6.58529">
        <ele>1510.5999755859</ele>
        <time>2018-03-24T09:12:08.000Z</time>
      </trkpt>
      <trkpt lat="45.96759" lon="6.58526">
        <ele>1510.8000488281</ele>
        <time>2018-03-24T09:12:10.000Z</time>
      </trkpt>
      <trkpt lat="45.96757" lon="6.5852">
        <ele>1511</ele>
        <time>2018-03-24T09:12:15.000Z</time>
      </trkpt>
      <trkpt lat="45.96757" lon="6.58518">
        <ele>1511.1999511719</ele>
        <time>2018-03-24T09:12:17.000Z</time>
      </trkpt>
      <trkpt lat="45.96756" lon="6.58513">
        <ele>1511.8000488281</ele>
        <time>2018-03-24T09:12:21.000Z</time>
      </trkpt>
      <trkpt lat="45.96755" lon="6.5851">
        <ele>1511.8000488281</ele>
        <time>2018-03-24T09:12:24.000Z</time>
      </trkpt>
      <trkpt lat="45.96755" lon="6.58508">
        <ele>1512.4000244141</ele>
        <time>2018-03-24T09:12:27.000Z</time>
      </trkpt>
      <trkpt lat="45.96753" lon="6.58498">
        <ele>1513.4000244141</ele>
        <time>2018-03-24T09:12:36.000Z</time>
      </trkpt>
      <trkpt lat="45.96753" lon="6.58496">
        <ele>1513.5999755859</ele>
        <time>2018-03-24T09:12:37.000Z</time>
      </trkpt>
      <trkpt lat="45.96749" lon="6.58488">
        <ele>1514.1999511719</ele>
        <time>2018-03-24T09:12:43.000Z</time>
      </trkpt>
      <trkpt lat="45.96749" lon="6.58485">
        <ele>1514.1999511719</ele>
        <time>2018-03-24T09:12:45.000Z</time>
      </trkpt>
      <trkpt lat="45.96748" lon="6.58483">
        <ele>1514.4000244141</ele>
        <time>2018-03-24T09:12:47.000Z</time>
      </trkpt>
      <trkpt lat="45.96747" lon="6.58479">
        <ele>1515</ele>
        <time>2018-03-24T09:12:51.000Z</time>
      </trkpt>
      <trkpt lat="45.96746" lon="6.58477">
        <ele>1515.1999511719</ele>
        <time>2018-03-24T09:12:53.000Z</time>
      </trkpt>
      <trkpt lat="45.96746" lon="6.58475">
        <ele>1515.4000244141</ele>
        <time>2018-03-24T09:12:54.000Z</time>
      </trkpt>
      <trkpt lat="45.96742" lon="6.58471">
        <ele>1516</ele>
        <time>2018-03-24T09:12:59.000Z</time>
      </trkpt>
      <trkpt lat="45.96735" lon="6.58461">
        <ele>1516.4000244141</ele>
        <time>2018-03-24T09:13:09.000Z</time>
      </trkpt>
      <trkpt lat="45.96734" lon="6.58459">
        <ele>1516.4000244141</ele>
        <time>2018-03-24T09:13:11.000Z</time>
      </trkpt>
      <trkpt lat="45.96733" lon="6.58457">
        <ele>1516.5999755859</ele>
        <time>2018-03-24T09:13:13.000Z</time>
      </trkpt>
      <trkpt lat="45.96733" lon="6.58455">
        <ele>1516.8000488281</ele>
        <time>2018-03-24T09:13:15.000Z</time>
      </trkpt>
      <trkpt lat="45.96724" lon="6.58433">
        <ele>1517.5999755859</ele>
        <time>2018-03-24T09:13:37.000Z</time>
      </trkpt>
      <trkpt lat="45.96723" lon="6.58425">
        <ele>1518.5999755859</ele>
        <time>2018-03-24T09:13:44.000Z</time>
      </trkpt>
      <trkpt lat="45.96722" lon="6.58415">
        <ele>1519.8000488281</ele>
        <time>2018-03-24T09:13:52.000Z</time>
      </trkpt>
      <trkpt lat="45.96722" lon="6.58409">
        <ele>1521</ele>
        <time>2018-03-24T09:13:59.000Z</time>
      </trkpt>
      <trkpt lat="45.96723" lon="6.58401">
        <ele>1522</ele>
        <time>2018-03-24T09:14:04.000Z</time>
      </trkpt>
      <trkpt lat="45.96723" lon="6.58397">
        <ele>1522.4000244141</ele>
        <time>2018-03-24T09:14:07.000Z</time>
      </trkpt>
      <trkpt lat="45.96722" lon="6.5839">
        <ele>1523</ele>
        <time>2018-03-24T09:14:12.000Z</time>
      </trkpt>
      <trkpt lat="45.96721" lon="6.58383">
        <ele>1523.8000488281</ele>
        <time>2018-03-24T09:14:18.000Z</time>
      </trkpt>
      <trkpt lat="45.9672" lon="6.58382">
        <ele>1524</ele>
        <time>2018-03-24T09:14:19.000Z</time>
      </trkpt>
      <trkpt lat="45.9672" lon="6.58377">
        <ele>1524.1999511719</ele>
        <time>2018-03-24T09:14:23.000Z</time>
      </trkpt>
      <trkpt lat="45.96717" lon="6.58369">
        <ele>1524.4000244141</ele>
        <time>2018-03-24T09:14:30.000Z</time>
      </trkpt>
      <trkpt lat="45.96717" lon="6.58367">
        <ele>1525</ele>
        <time>2018-03-24T09:14:32.000Z</time>
      </trkpt>
      <trkpt lat="45.96716" lon="6.58366">
        <ele>1525</ele>
        <time>2018-03-24T09:14:33.000Z</time>
      </trkpt>
      <trkpt lat="45.96716" lon="6.5836">
        <ele>1525.4000244141</ele>
        <time>2018-03-24T09:14:39.000Z</time>
      </trkpt>
      <trkpt lat="45.96714" lon="6.58354">
        <ele>1525.8000488281</ele>
        <time>2018-03-24T09:14:44.000Z</time>
      </trkpt>
      <trkpt lat="45.96712" lon="6.58348">
        <ele>1526</ele>
        <time>2018-03-24T09:14:49.000Z</time>
      </trkpt>
      <trkpt lat="45.96712" lon="6.58347">
        <ele>1526.1999511719</ele>
        <time>2018-03-24T09:14:51.000Z</time>
      </trkpt>
      <trkpt lat="45.96711" lon="6.58346">
        <ele>1526.1999511719</ele>
        <time>2018-03-24T09:14:52.000Z</time>
      </trkpt>
      <trkpt lat="45.96711" lon="6.5834">
        <ele>1526.1999511719</ele>
        <time>2018-03-24T09:14:57.000Z</time>
      </trkpt>
      <trkpt lat="45.96709" lon="6.58323">
        <ele>1527.1999511719</ele>
        <time>2018-03-24T09:15:09.000Z</time>
      </trkpt>
      <trkpt lat="45.96709" lon="6.58322">
        <ele>1527.4000244141</ele>
        <time>2018-03-24T09:15:10.000Z</time>
      </trkpt>
      <trkpt lat="45.9671" lon="6.58313">
        <ele>1528.1999511719</ele>
        <time>2018-03-24T09:15:18.000Z</time>
      </trkpt>
      <trkpt lat="45.96708" lon="6.58303">
        <ele>1529.4000244141</ele>
        <time>2018-03-24T09:15:29.000Z</time>
      </trkpt>
      <trkpt lat="45.96705" lon="6.58295">
        <ele>1530.4000244141</ele>
        <time>2018-03-24T09:15:38.000Z</time>
      </trkpt>
      <trkpt lat="45.96705" lon="6.58293">
        <ele>1530.5999755859</ele>
        <time>2018-03-24T09:15:39.000Z</time>
      </trkpt>
      <trkpt lat="45.96701" lon="6.58287">
        <ele>1531.1999511719</ele>
        <time>2018-03-24T09:15:46.000Z</time>
      </trkpt>
      <trkpt lat="45.96699" lon="6.58284">
        <ele>1531.5999755859</ele>
        <time>2018-03-24T09:15:49.000Z</time>
      </trkpt>
      <trkpt lat="45.96699" lon="6.58283">
        <ele>1531.5999755859</ele>
        <time>2018-03-24T09:15:50.000Z</time>
      </trkpt>
      <trkpt lat="45.96699" lon="6.58269">
        <ele>1532.5999755859</ele>
        <time>2018-03-24T09:16:01.000Z</time>
      </trkpt>
      <trkpt lat="45.96699" lon="6.58267">
        <ele>1533</ele>
        <time>2018-03-24T09:16:03.000Z</time>
      </trkpt>
      <trkpt lat="45.967" lon="6.58264">
        <ele>1533.8000488281</ele>
        <time>2018-03-24T09:16:06.000Z</time>
      </trkpt>
      <trkpt lat="45.96699" lon="6.58259">
        <ele>1534.8000488281</ele>
        <time>2018-03-24T09:16:11.000Z</time>
      </trkpt>
      <trkpt lat="45.96698" lon="6.58252">
        <ele>1535.5999755859</ele>
        <time>2018-03-24T09:16:17.000Z</time>
      </trkpt>
      <trkpt lat="45.96697" lon="6.5825">
        <ele>1535.8000488281</ele>
        <time>2018-03-24T09:16:19.000Z</time>
      </trkpt>
      <trkpt lat="45.96695" lon="6.58239">
        <ele>1536.5999755859</ele>
        <time>2018-03-24T09:16:27.000Z</time>
      </trkpt>
      <trkpt lat="45.96695" lon="6.58238">
        <ele>1537</ele>
        <time>2018-03-24T09:16:29.000Z</time>
      </trkpt>
      <trkpt lat="45.96691" lon="6.58222">
        <ele>1538</ele>
        <time>2018-03-24T09:16:44.000Z</time>
      </trkpt>
      <trkpt lat="45.9669" lon="6.58214">
        <ele>1539.1999511719</ele>
        <time>2018-03-24T09:16:52.000Z</time>
      </trkpt>
      <trkpt lat="45.96689" lon="6.58207">
        <ele>1540.1999511719</ele>
        <time>2018-03-24T09:17:00.000Z</time>
      </trkpt>
      <trkpt lat="45.96687" lon="6.58199">
        <ele>1541.4000244141</ele>
        <time>2018-03-24T09:17:08.000Z</time>
      </trkpt>
      <trkpt lat="45.96683" lon="6.58186">
        <ele>1542.4000244141</ele>
        <time>2018-03-24T09:17:21.000Z</time>
      </trkpt>
      <trkpt lat="45.96682" lon="6.58175">
        <ele>1543.4000244141</ele>
        <time>2018-03-24T09:17:30.000Z</time>
      </trkpt>
      <trkpt lat="45.9668" lon="6.58168">
        <ele>1544.4000244141</ele>
        <time>2018-03-24T09:17:37.000Z</time>
      </trkpt>
      <trkpt lat="45.9668" lon="6.58167">
        <ele>1544.4000244141</ele>
        <time>2018-03-24T09:17:38.000Z</time>
      </trkpt>
      <trkpt lat="45.96678" lon="6.58158">
        <ele>1545.5999755859</ele>
        <time>2018-03-24T09:17:46.000Z</time>
      </trkpt>
      <trkpt lat="45.96676" lon="6.5815">
        <ele>1546.8000488281</ele>
        <time>2018-03-24T09:17:54.000Z</time>
      </trkpt>
      <trkpt lat="45.96673" lon="6.58144">
        <ele>1547.8000488281</ele>
        <time>2018-03-24T09:18:03.000Z</time>
      </trkpt>
      <trkpt lat="45.9667" lon="6.5814">
        <ele>1548.8000488281</ele>
        <time>2018-03-24T09:18:10.000Z</time>
      </trkpt>
      <trkpt lat="45.96668" lon="6.58133">
        <ele>1550</ele>
        <time>2018-03-24T09:18:18.000Z</time>
      </trkpt>
      <trkpt lat="45.96665" lon="6.58125">
        <ele>1551</ele>
        <time>2018-03-24T09:18:27.000Z</time>
      </trkpt>
      <trkpt lat="45.96664" lon="6.58119">
        <ele>1552</ele>
        <time>2018-03-24T09:18:33.000Z</time>
      </trkpt>
      <trkpt lat="45.96661" lon="6.58114">
        <ele>1553</ele>
        <time>2018-03-24T09:18:40.000Z</time>
      </trkpt>
      <trkpt lat="45.96659" lon="6.58109">
        <ele>1554</ele>
        <time>2018-03-24T09:18:48.000Z</time>
      </trkpt>
      <trkpt lat="45.96657" lon="6.581">
        <ele>1555.1999511719</ele>
        <time>2018-03-24T09:18:57.000Z</time>
      </trkpt>
      <trkpt lat="45.96656" lon="6.58097">
        <ele>1555.4000244141</ele>
        <time>2018-03-24T09:19:00.000Z</time>
      </trkpt>
      <trkpt lat="45.96654" lon="6.58092">
        <ele>1556</ele>
        <time>2018-03-24T09:19:04.000Z</time>
      </trkpt>
      <trkpt lat="45.96654" lon="6.58092">
        <ele>1556.1999511719</ele>
        <time>2018-03-24T09:19:05.000Z</time>
      </trkpt>
      <trkpt lat="45.96651" lon="6.58085">
        <ele>1557.1999511719</ele>
        <time>2018-03-24T09:19:12.000Z</time>
      </trkpt>
      <trkpt lat="45.9665" lon="6.58084">
        <ele>1557.1999511719</ele>
        <time>2018-03-24T09:19:13.000Z</time>
      </trkpt>
      <trkpt lat="45.96649" lon="6.58083">
        <ele>1557.5999755859</ele>
        <time>2018-03-24T09:19:14.000Z</time>
      </trkpt>
      <trkpt lat="45.96646" lon="6.58078">
        <ele>1558.4000244141</ele>
        <time>2018-03-24T09:19:21.000Z</time>
      </trkpt>
      <trkpt lat="45.96646" lon="6.5807">
        <ele>1559.4000244141</ele>
        <time>2018-03-24T09:19:28.000Z</time>
      </trkpt>
      <trkpt lat="45.96645" lon="6.58066">
        <ele>1560.5999755859</ele>
        <time>2018-03-24T09:19:33.000Z</time>
      </trkpt>
      <trkpt lat="45.96645" lon="6.58061">
        <ele>1561.5999755859</ele>
        <time>2018-03-24T09:19:39.000Z</time>
      </trkpt>
      <trkpt lat="45.96643" lon="6.58051">
        <ele>1562.8000488281</ele>
        <time>2018-03-24T09:19:48.000Z</time>
      </trkpt>
      <trkpt lat="45.96641" lon="6.58045">
        <ele>1563.8000488281</ele>
        <time>2018-03-24T09:19:55.000Z</time>
      </trkpt>
      <trkpt lat="45.96637" lon="6.58031">
        <ele>1564.8000488281</ele>
        <time>2018-03-24T09:20:10.000Z</time>
      </trkpt>
      <trkpt lat="45.96633" lon="6.58024">
        <ele>1565.8000488281</ele>
        <time>2018-03-24T09:20:19.000Z</time>
      </trkpt>
      <trkpt lat="45.96628" lon="6.58015">
        <ele>1566.8000488281</ele>
        <time>2018-03-24T09:20:31.000Z</time>
      </trkpt>
      <trkpt lat="45.96622" lon="6.58008">
        <ele>1568</ele>
        <time>2018-03-24T09:20:42.000Z</time>
      </trkpt>
      <trkpt lat="45.96617" lon="6.58002">
        <ele>1569.1999511719</ele>
        <time>2018-03-24T09:20:51.000Z</time>
      </trkpt>
      <trkpt lat="45.96614" lon="6.57996">
        <ele>1570.1999511719</ele>
        <time>2018-03-24T09:20:58.000Z</time>
      </trkpt>
      <trkpt lat="45.96612" lon="6.57989">
        <ele>1571.4000244141</ele>
        <time>2018-03-24T09:21:06.000Z</time>
      </trkpt>
      <trkpt lat="45.9661" lon="6.57985">
        <ele>1571.8000488281</ele>
        <time>2018-03-24T09:21:11.000Z</time>
      </trkpt>
      <trkpt lat="45.96608" lon="6.57977">
        <ele>1572.4000244141</ele>
        <time>2018-03-24T09:21:19.000Z</time>
      </trkpt>
      <trkpt lat="45.96606" lon="6.57968">
        <ele>1573.5999755859</ele>
        <time>2018-03-24T09:21:28.000Z</time>
      </trkpt>
      <trkpt lat="45.96604" lon="6.57962">
        <ele>1574.8000488281</ele>
        <time>2018-03-24T09:21:35.000Z</time>
      </trkpt>
      <trkpt lat="45.96601" lon="6.57956">
        <ele>1575.8000488281</ele>
        <time>2018-03-24T09:21:45.000Z</time>
      </trkpt>
      <trkpt lat="45.96599" lon="6.57951">
        <ele>1577</ele>
        <time>2018-03-24T09:21:51.000Z</time>
      </trkpt>
      <trkpt lat="45.96597" lon="6.57945">
        <ele>1578</ele>
        <time>2018-03-24T09:21:59.000Z</time>
      </trkpt>
      <trkpt lat="45.96595" lon="6.57938">
        <ele>1579</ele>
        <time>2018-03-24T09:22:06.000Z</time>
      </trkpt>
      <trkpt lat="45.96592" lon="6.5793">
        <ele>1579.8000488281</ele>
        <time>2018-03-24T09:22:13.000Z</time>
      </trkpt>
      <trkpt lat="45.96591" lon="6.57927">
        <ele>1580.1999511719</ele>
        <time>2018-03-24T09:22:17.000Z</time>
      </trkpt>
      <trkpt lat="45.96587" lon="6.5792">
        <ele>1581.1999511719</ele>
        <time>2018-03-24T09:22:25.000Z</time>
      </trkpt>
      <trkpt lat="45.96584" lon="6.57914">
        <ele>1582.4000244141</ele>
        <time>2018-03-24T09:22:33.000Z</time>
      </trkpt>
      <trkpt lat="45.96583" lon="6.57909">
        <ele>1583.4000244141</ele>
        <time>2018-03-24T09:22:39.000Z</time>
      </trkpt>
      <trkpt lat="45.96578" lon="6.579">
        <ele>1584.4000244141</ele>
        <time>2018-03-24T09:22:51.000Z</time>
      </trkpt>
      <trkpt lat="45.96576" lon="6.57896">
        <ele>1585.5999755859</ele>
        <time>2018-03-24T09:22:57.000Z</time>
      </trkpt>
      <trkpt lat="45.96572" lon="6.57889">
        <ele>1586.8000488281</ele>
        <time>2018-03-24T09:23:06.000Z</time>
      </trkpt>
      <trkpt lat="45.96569" lon="6.5788">
        <ele>1587.8000488281</ele>
        <time>2018-03-24T09:23:15.000Z</time>
      </trkpt>
      <trkpt lat="45.96565" lon="6.57875">
        <ele>1588.8000488281</ele>
        <time>2018-03-24T09:23:23.000Z</time>
      </trkpt>
      <trkpt lat="45.96561" lon="6.57868">
        <ele>1590</ele>
        <time>2018-03-24T09:23:33.000Z</time>
      </trkpt>
      <trkpt lat="45.96558" lon="6.57861">
        <ele>1591.1999511719</ele>
        <time>2018-03-24T09:23:42.000Z</time>
      </trkpt>
      <trkpt lat="45.96555" lon="6.57854">
        <ele>1592.1999511719</ele>
        <time>2018-03-24T09:23:51.000Z</time>
      </trkpt>
      <trkpt lat="45.96553" lon="6.57848">
        <ele>1593.1999511719</ele>
        <time>2018-03-24T09:23:56.000Z</time>
      </trkpt>
      <trkpt lat="45.9655" lon="6.57841">
        <ele>1594.1999511719</ele>
        <time>2018-03-24T09:24:06.000Z</time>
      </trkpt>
      <trkpt lat="45.96547" lon="6.57834">
        <ele>1595.4000244141</ele>
        <time>2018-03-24T09:24:15.000Z</time>
      </trkpt>
      <trkpt lat="45.96546" lon="6.57831">
        <ele>1596.5999755859</ele>
        <time>2018-03-24T09:24:20.000Z</time>
      </trkpt>
      <trkpt lat="45.96543" lon="6.57827">
        <ele>1597.5999755859</ele>
        <time>2018-03-24T09:24:26.000Z</time>
      </trkpt>
      <trkpt lat="45.96539" lon="6.57821">
        <ele>1598.8000488281</ele>
        <time>2018-03-24T09:24:34.000Z</time>
      </trkpt>
      <trkpt lat="45.96537" lon="6.57814">
        <ele>1600</ele>
        <time>2018-03-24T09:24:43.000Z</time>
      </trkpt>
      <trkpt lat="45.96535" lon="6.57805">
        <ele>1601</ele>
        <time>2018-03-24T09:24:54.000Z</time>
      </trkpt>
      <trkpt lat="45.96535" lon="6.57799">
        <ele>1602</ele>
        <time>2018-03-24T09:25:01.000Z</time>
      </trkpt>
      <trkpt lat="45.96535" lon="6.57794">
        <ele>1603.1999511719</ele>
        <time>2018-03-24T09:25:07.000Z</time>
      </trkpt>
      <trkpt lat="45.96534" lon="6.57789">
        <ele>1604.1999511719</ele>
        <time>2018-03-24T09:25:13.000Z</time>
      </trkpt>
      <trkpt lat="45.96533" lon="6.57785">
        <ele>1605.1999511719</ele>
        <time>2018-03-24T09:25:19.000Z</time>
      </trkpt>
      <trkpt lat="45.96531" lon="6.57782">
        <ele>1606.4000244141</ele>
        <time>2018-03-24T09:25:24.000Z</time>
      </trkpt>
      <trkpt lat="45.96528" lon="6.57776">
        <ele>1607.4000244141</ele>
        <time>2018-03-24T09:25:33.000Z</time>
      </trkpt>
      <trkpt lat="45.96528" lon="6.57768">
        <ele>1608.4000244141</ele>
        <time>2018-03-24T09:25:41.000Z</time>
      </trkpt>
      <trkpt lat="45.96526" lon="6.57763">
        <ele>1609.5999755859</ele>
        <time>2018-03-24T09:25:48.000Z</time>
      </trkpt>
      <trkpt lat="45.96526" lon="6.57758">
        <ele>1610.8000488281</ele>
        <time>2018-03-24T09:25:57.000Z</time>
      </trkpt>
      <trkpt lat="45.96524" lon="6.57754">
        <ele>1611.8000488281</ele>
        <time>2018-03-24T09:26:03.000Z</time>
      </trkpt>
      <trkpt lat="45.96522" lon="6.57748">
        <ele>1612.8000488281</ele>
        <time>2018-03-24T09:26:11.000Z</time>
      </trkpt>
      <trkpt lat="45.96521" lon="6.57745">
        <ele>1613.4000244141</ele>
        <time>2018-03-24T09:26:15.000Z</time>
      </trkpt>
      <trkpt lat="45.96521" lon="6.57741">
        <ele>1614</ele>
        <time>2018-03-24T09:26:19.000Z</time>
      </trkpt>
      <trkpt lat="45.9652" lon="6.57735">
        <ele>1615</ele>
        <time>2018-03-24T09:26:28.000Z</time>
      </trkpt>
      <trkpt lat="45.96519" lon="6.57729">
        <ele>1616</ele>
        <time>2018-03-24T09:26:37.000Z</time>
      </trkpt>
      <trkpt lat="45.96518" lon="6.57725">
        <ele>1617.1999511719</ele>
        <time>2018-03-24T09:26:44.000Z</time>
      </trkpt>
      <trkpt lat="45.96515" lon="6.57714">
        <ele>1618.1999511719</ele>
        <time>2018-03-24T09:26:54.000Z</time>
      </trkpt>
      <trkpt lat="45.96514" lon="6.57706">
        <ele>1619.1999511719</ele>
        <time>2018-03-24T09:27:03.000Z</time>
      </trkpt>
      <trkpt lat="45.96514" lon="6.57701">
        <ele>1620.1999511719</ele>
        <time>2018-03-24T09:27:09.000Z</time>
      </trkpt>
      <trkpt lat="45.96512" lon="6.57696">
        <ele>1621.4000244141</ele>
        <time>2018-03-24T09:27:16.000Z</time>
      </trkpt>
      <trkpt lat="45.9651" lon="6.5769">
        <ele>1622.4000244141</ele>
        <time>2018-03-24T09:27:23.000Z</time>
      </trkpt>
      <trkpt lat="45.96507" lon="6.57687">
        <ele>1623.4000244141</ele>
        <time>2018-03-24T09:27:30.000Z</time>
      </trkpt>
      <trkpt lat="45.96504" lon="6.57683">
        <ele>1624.5999755859</ele>
        <time>2018-03-24T09:27:38.000Z</time>
      </trkpt>
      <trkpt lat="45.96502" lon="6.57673">
        <ele>1625.5999755859</ele>
        <time>2018-03-24T09:27:48.000Z</time>
      </trkpt>
      <trkpt lat="45.965" lon="6.57666">
        <ele>1626.5999755859</ele>
        <time>2018-03-24T09:27:55.000Z</time>
      </trkpt>
      <trkpt lat="45.96498" lon="6.57661">
        <ele>1627.8000488281</ele>
        <time>2018-03-24T09:28:01.000Z</time>
      </trkpt>
      <trkpt lat="45.96495" lon="6.57652">
        <ele>1628.8000488281</ele>
        <time>2018-03-24T09:28:11.000Z</time>
      </trkpt>
      <trkpt lat="45.96494" lon="6.57649">
        <ele>1630</ele>
        <time>2018-03-24T09:28:16.000Z</time>
      </trkpt>
      <trkpt lat="45.96492" lon="6.57643">
        <ele>1631</ele>
        <time>2018-03-24T09:28:23.000Z</time>
      </trkpt>
      <trkpt lat="45.96488" lon="6.57636">
        <ele>1632</ele>
        <time>2018-03-24T09:28:32.000Z</time>
      </trkpt>
      <trkpt lat="45.96484" lon="6.5763">
        <ele>1633</ele>
        <time>2018-03-24T09:28:40.000Z</time>
      </trkpt>
      <trkpt lat="45.96481" lon="6.57619">
        <ele>1634</ele>
        <time>2018-03-24T09:28:54.000Z</time>
      </trkpt>
      <trkpt lat="45.96479" lon="6.57613">
        <ele>1635.1999511719</ele>
        <time>2018-03-24T09:29:01.000Z</time>
      </trkpt>
      <trkpt lat="45.96477" lon="6.57606">
        <ele>1636.4000244141</ele>
        <time>2018-03-24T09:29:08.000Z</time>
      </trkpt>
      <trkpt lat="45.96475" lon="6.57598">
        <ele>1637.5999755859</ele>
        <time>2018-03-24T09:29:19.000Z</time>
      </trkpt>
      <trkpt lat="45.96473" lon="6.57594">
        <ele>1638.5999755859</ele>
        <time>2018-03-24T09:29:26.000Z</time>
      </trkpt>
      <trkpt lat="45.96471" lon="6.57585">
        <ele>1639.8000488281</ele>
        <time>2018-03-24T09:29:37.000Z</time>
      </trkpt>
      <trkpt lat="45.96468" lon="6.57581">
        <ele>1641</ele>
        <time>2018-03-24T09:29:45.000Z</time>
      </trkpt>
      <trkpt lat="45.96465" lon="6.57577">
        <ele>1642</ele>
        <time>2018-03-24T09:29:51.000Z</time>
      </trkpt>
      <trkpt lat="45.96465" lon="6.57572">
        <ele>1643</ele>
        <time>2018-03-24T09:29:58.000Z</time>
      </trkpt>
      <trkpt lat="45.96464" lon="6.57567">
        <ele>1644.1999511719</ele>
        <time>2018-03-24T09:30:04.000Z</time>
      </trkpt>
      <trkpt lat="45.96464" lon="6.57557">
        <ele>1645.1999511719</ele>
        <time>2018-03-24T09:30:16.000Z</time>
      </trkpt>
      <trkpt lat="45.96462" lon="6.57547">
        <ele>1646.4000244141</ele>
        <time>2018-03-24T09:30:28.000Z</time>
      </trkpt>
      <trkpt lat="45.96458" lon="6.57539">
        <ele>1647.5999755859</ele>
        <time>2018-03-24T09:30:38.000Z</time>
      </trkpt>
      <trkpt lat="45.96455" lon="6.57532">
        <ele>1648.8000488281</ele>
        <time>2018-03-24T09:30:48.000Z</time>
      </trkpt>
      <trkpt lat="45.96453" lon="6.57529">
        <ele>1649.8000488281</ele>
        <time>2018-03-24T09:30:53.000Z</time>
      </trkpt>
      <trkpt lat="45.96451" lon="6.57523">
        <ele>1650.8000488281</ele>
        <time>2018-03-24T09:31:01.000Z</time>
      </trkpt>
      <trkpt lat="45.9645" lon="6.57516">
        <ele>1652</ele>
        <time>2018-03-24T09:31:10.000Z</time>
      </trkpt>
      <trkpt lat="45.96447" lon="6.5751">
        <ele>1653</ele>
        <time>2018-03-24T09:31:18.000Z</time>
      </trkpt>
      <trkpt lat="45.96445" lon="6.57504">
        <ele>1654</ele>
        <time>2018-03-24T09:31:26.000Z</time>
      </trkpt>
      <trkpt lat="45.96445" lon="6.57497">
        <ele>1655</ele>
        <time>2018-03-24T09:31:34.000Z</time>
      </trkpt>
      <trkpt lat="45.96442" lon="6.5749">
        <ele>1656.1999511719</ele>
        <time>2018-03-24T09:31:42.000Z</time>
      </trkpt>
      <trkpt lat="45.96444" lon="6.57476">
        <ele>1657.1999511719</ele>
        <time>2018-03-24T09:31:52.000Z</time>
      </trkpt>
      <trkpt lat="45.96442" lon="6.57474">
        <ele>1658.1999511719</ele>
        <time>2018-03-24T09:31:58.000Z</time>
      </trkpt>
      <trkpt lat="45.96442" lon="6.5747">
        <ele>1659.4000244141</ele>
        <time>2018-03-24T09:32:06.000Z</time>
      </trkpt>
      <trkpt lat="45.96441" lon="6.57465">
        <ele>1660.5999755859</ele>
        <time>2018-03-24T09:32:12.000Z</time>
      </trkpt>
      <trkpt lat="45.96438" lon="6.57462">
        <ele>1661.8000488281</ele>
        <time>2018-03-24T09:32:22.000Z</time>
      </trkpt>
      <trkpt lat="45.96434" lon="6.57455">
        <ele>1662.8000488281</ele>
        <time>2018-03-24T09:32:34.000Z</time>
      </trkpt>
      <trkpt lat="45.96431" lon="6.57451">
        <ele>1663.8000488281</ele>
        <time>2018-03-24T09:32:39.000Z</time>
      </trkpt>
      <trkpt lat="45.96428" lon="6.57444">
        <ele>1665</ele>
        <time>2018-03-24T09:32:48.000Z</time>
      </trkpt>
      <trkpt lat="45.96424" lon="6.57435">
        <ele>1666</ele>
        <time>2018-03-24T09:32:58.000Z</time>
      </trkpt>
      <trkpt lat="45.96422" lon="6.5743">
        <ele>1667</ele>
        <time>2018-03-24T09:33:04.000Z</time>
      </trkpt>
      <trkpt lat="45.96421" lon="6.57426">
        <ele>1668</ele>
        <time>2018-03-24T09:33:10.000Z</time>
      </trkpt>
      <trkpt lat="45.9642" lon="6.57423">
        <ele>1668.5999755859</ele>
        <time>2018-03-24T09:33:17.000Z</time>
      </trkpt>
      <trkpt lat="45.96418" lon="6.57418">
        <ele>1669.1999511719</ele>
        <time>2018-03-24T09:33:23.000Z</time>
      </trkpt>
      <trkpt lat="45.96416" lon="6.57412">
        <ele>1670.1999511719</ele>
        <time>2018-03-24T09:33:29.000Z</time>
      </trkpt>
      <trkpt lat="45.96414" lon="6.5741">
        <ele>1671.1999511719</ele>
        <time>2018-03-24T09:33:36.000Z</time>
      </trkpt>
      <trkpt lat="45.96411" lon="6.57405">
        <ele>1672.1999511719</ele>
        <time>2018-03-24T09:33:44.000Z</time>
      </trkpt>
      <trkpt lat="45.96407" lon="6.57396">
        <ele>1673.4000244141</ele>
        <time>2018-03-24T09:33:57.000Z</time>
      </trkpt>
      <trkpt lat="45.96402" lon="6.57394">
        <ele>1674.4000244141</ele>
        <time>2018-03-24T09:34:08.000Z</time>
      </trkpt>
      <trkpt lat="45.96399" lon="6.57392">
        <ele>1675.5999755859</ele>
        <time>2018-03-24T09:34:14.000Z</time>
      </trkpt>
      <trkpt lat="45.96393" lon="6.57387">
        <ele>1676.5999755859</ele>
        <time>2018-03-24T09:34:28.000Z</time>
      </trkpt>
      <trkpt lat="45.96391" lon="6.57381">
        <ele>1677.8000488281</ele>
        <time>2018-03-24T09:34:35.000Z</time>
      </trkpt>
      <trkpt lat="45.9639" lon="6.57376">
        <ele>1678.8000488281</ele>
        <time>2018-03-24T09:34:43.000Z</time>
      </trkpt>
      <trkpt lat="45.96388" lon="6.57371">
        <ele>1679.8000488281</ele>
        <time>2018-03-24T09:34:50.000Z</time>
      </trkpt>
      <trkpt lat="45.96383" lon="6.57366">
        <ele>1681</ele>
        <time>2018-03-24T09:35:00.000Z</time>
      </trkpt>
      <trkpt lat="45.96379" lon="6.57364">
        <ele>1682.1999511719</ele>
        <time>2018-03-24T09:35:08.000Z</time>
      </trkpt>
      <trkpt lat="45.96377" lon="6.57357">
        <ele>1683.1999511719</ele>
        <time>2018-03-24T09:35:16.000Z</time>
      </trkpt>
      <trkpt lat="45.96375" lon="6.57348">
        <ele>1684.1999511719</ele>
        <time>2018-03-24T09:35:23.000Z</time>
      </trkpt>
      <trkpt lat="45.96375" lon="6.57342">
        <ele>1685.1999511719</ele>
        <time>2018-03-24T09:35:29.000Z</time>
      </trkpt>
      <trkpt lat="45.96374" lon="6.57338">
        <ele>1686.4000244141</ele>
        <time>2018-03-24T09:35:35.000Z</time>
      </trkpt>
      <trkpt lat="45.96374" lon="6.57336">
        <ele>1686.5999755859</ele>
        <time>2018-03-24T09:35:37.000Z</time>
      </trkpt>
      <trkpt lat="45.96372" lon="6.57333">
        <ele>1687.5999755859</ele>
        <time>2018-03-24T09:35:43.000Z</time>
      </trkpt>
      <trkpt lat="45.96368" lon="6.5733">
        <ele>1688.5999755859</ele>
        <time>2018-03-24T09:35:52.000Z</time>
      </trkpt>
      <trkpt lat="45.96365" lon="6.57326">
        <ele>1689.8000488281</ele>
        <time>2018-03-24T09:36:00.000Z</time>
      </trkpt>
      <trkpt lat="45.96362" lon="6.5732">
        <ele>1690.8000488281</ele>
        <time>2018-03-24T09:36:07.000Z</time>
      </trkpt>
      <trkpt lat="45.96358" lon="6.57313">
        <ele>1691.8000488281</ele>
        <time>2018-03-24T09:36:17.000Z</time>
      </trkpt>
      <trkpt lat="45.96356" lon="6.57308">
        <ele>1692.8000488281</ele>
        <time>2018-03-24T09:36:24.000Z</time>
      </trkpt>
      <trkpt lat="45.96352" lon="6.57305">
        <ele>1693.8000488281</ele>
        <time>2018-03-24T09:36:33.000Z</time>
      </trkpt>
      <trkpt lat="45.96347" lon="6.573">
        <ele>1695</ele>
        <time>2018-03-24T09:36:44.000Z</time>
      </trkpt>
      <trkpt lat="45.96342" lon="6.57296">
        <ele>1696</ele>
        <time>2018-03-24T09:36:53.000Z</time>
      </trkpt>
      <trkpt lat="45.96338" lon="6.57292">
        <ele>1697</ele>
        <time>2018-03-24T09:37:03.000Z</time>
      </trkpt>
      <trkpt lat="45.96335" lon="6.57289">
        <ele>1698</ele>
        <time>2018-03-24T09:37:11.000Z</time>
      </trkpt>
      <trkpt lat="45.96332" lon="6.57287">
        <ele>1699</ele>
        <time>2018-03-24T09:37:18.000Z</time>
      </trkpt>
      <trkpt lat="45.96328" lon="6.57283">
        <ele>1700</ele>
        <time>2018-03-24T09:37:27.000Z</time>
      </trkpt>
      <trkpt lat="45.96324" lon="6.57281">
        <ele>1701.1999511719</ele>
        <time>2018-03-24T09:37:36.000Z</time>
      </trkpt>
      <trkpt lat="45.96321" lon="6.57277">
        <ele>1702.1999511719</ele>
        <time>2018-03-24T09:37:43.000Z</time>
      </trkpt>
      <trkpt lat="45.96317" lon="6.5727">
        <ele>1703.4000244141</ele>
        <time>2018-03-24T09:37:51.000Z</time>
      </trkpt>
      <trkpt lat="45.96315" lon="6.57264">
        <ele>1704.4000244141</ele>
        <time>2018-03-24T09:37:58.000Z</time>
      </trkpt>
      <trkpt lat="45.96311" lon="6.57261">
        <ele>1705.4000244141</ele>
        <time>2018-03-24T09:38:05.000Z</time>
      </trkpt>
      <trkpt lat="45.9631" lon="6.57255">
        <ele>1706.4000244141</ele>
        <time>2018-03-24T09:38:13.000Z</time>
      </trkpt>
      <trkpt lat="45.96309" lon="6.57251">
        <ele>1707.8000488281</ele>
        <time>2018-03-24T09:38:20.000Z</time>
      </trkpt>
      <trkpt lat="45.96307" lon="6.57245">
        <ele>1708.8000488281</ele>
        <time>2018-03-24T09:38:28.000Z</time>
      </trkpt>
      <trkpt lat="45.96304" lon="6.57241">
        <ele>1709.8000488281</ele>
        <time>2018-03-24T09:38:34.000Z</time>
      </trkpt>
      <trkpt lat="45.96303" lon="6.57236">
        <ele>1710.8000488281</ele>
        <time>2018-03-24T09:38:41.000Z</time>
      </trkpt>
      <trkpt lat="45.96301" lon="6.57231">
        <ele>1711.8000488281</ele>
        <time>2018-03-24T09:38:48.000Z</time>
      </trkpt>
      <trkpt lat="45.963" lon="6.57227">
        <ele>1713</ele>
        <time>2018-03-24T09:38:56.000Z</time>
      </trkpt>
      <trkpt lat="45.96296" lon="6.57222">
        <ele>1714</ele>
        <time>2018-03-24T09:39:04.000Z</time>
      </trkpt>
      <trkpt lat="45.96293" lon="6.57219">
        <ele>1715.1999511719</ele>
        <time>2018-03-24T09:39:12.000Z</time>
      </trkpt>
      <trkpt lat="45.96293" lon="6.57218">
        <ele>1715.1999511719</ele>
        <time>2018-03-24T09:39:13.000Z</time>
      </trkpt>
      <trkpt lat="45.96291" lon="6.57213">
        <ele>1716.1999511719</ele>
        <time>2018-03-24T09:39:20.000Z</time>
      </trkpt>
      <trkpt lat="45.96288" lon="6.5721">
        <ele>1717.1999511719</ele>
        <time>2018-03-24T09:39:28.000Z</time>
      </trkpt>
      <trkpt lat="45.96283" lon="6.57204">
        <ele>1718.4000244141</ele>
        <time>2018-03-24T09:39:40.000Z</time>
      </trkpt>
      <trkpt lat="45.9628" lon="6.572">
        <ele>1719.4000244141</ele>
        <time>2018-03-24T09:39:47.000Z</time>
      </trkpt>
      <trkpt lat="45.96277" lon="6.57194">
        <ele>1720.4000244141</ele>
        <time>2018-03-24T09:39:54.000Z</time>
      </trkpt>
      <trkpt lat="45.96275" lon="6.57188">
        <ele>1721.5999755859</ele>
        <time>2018-03-24T09:40:02.000Z</time>
      </trkpt>
      <trkpt lat="45.96272" lon="6.57183">
        <ele>1722.5999755859</ele>
        <time>2018-03-24T09:40:12.000Z</time>
      </trkpt>
      <trkpt lat="45.96269" lon="6.57181">
        <ele>1723.8000488281</ele>
        <time>2018-03-24T09:40:18.000Z</time>
      </trkpt>
      <trkpt lat="45.96266" lon="6.5718">
        <ele>1724.8000488281</ele>
        <time>2018-03-24T09:40:27.000Z</time>
      </trkpt>
      <trkpt lat="45.96264" lon="6.57175">
        <ele>1726</ele>
        <time>2018-03-24T09:40:34.000Z</time>
      </trkpt>
      <trkpt lat="45.96262" lon="6.57171">
        <ele>1727</ele>
        <time>2018-03-24T09:40:40.000Z</time>
      </trkpt>
      <trkpt lat="45.96259" lon="6.57167">
        <ele>1728</ele>
        <time>2018-03-24T09:40:48.000Z</time>
      </trkpt>
      <trkpt lat="45.96257" lon="6.57162">
        <ele>1729</ele>
        <time>2018-03-24T09:40:54.000Z</time>
      </trkpt>
      <trkpt lat="45.96257" lon="6.57161">
        <ele>1729.1999511719</ele>
        <time>2018-03-24T09:40:56.000Z</time>
      </trkpt>
      <trkpt lat="45.96255" lon="6.57153">
        <ele>1730.1999511719</ele>
        <time>2018-03-24T09:41:04.000Z</time>
      </trkpt>
      <trkpt lat="45.96252" lon="6.57144">
        <ele>1731.4000244141</ele>
        <time>2018-03-24T09:41:14.000Z</time>
      </trkpt>
      <trkpt lat="45.96251" lon="6.57139">
        <ele>1732.5999755859</ele>
        <time>2018-03-24T09:41:21.000Z</time>
      </trkpt>
      <trkpt lat="45.96251" lon="6.57134">
        <ele>1733.5999755859</ele>
        <time>2018-03-24T09:41:27.000Z</time>
      </trkpt>
      <trkpt lat="45.96251" lon="6.57129">
        <ele>1734.8000488281</ele>
        <time>2018-03-24T09:41:33.000Z</time>
      </trkpt>
      <trkpt lat="45.96251" lon="6.57123">
        <ele>1736</ele>
        <time>2018-03-24T09:41:44.000Z</time>
      </trkpt>
      <trkpt lat="45.96251" lon="6.57118">
        <ele>1737.1999511719</ele>
        <time>2018-03-24T09:41:50.000Z</time>
      </trkpt>
      <trkpt lat="45.96251" lon="6.57112">
        <ele>1738.4000244141</ele>
        <time>2018-03-24T09:41:58.000Z</time>
      </trkpt>
      <trkpt lat="45.96251" lon="6.57106">
        <ele>1739.4000244141</ele>
        <time>2018-03-24T09:42:04.000Z</time>
      </trkpt>
      <trkpt lat="45.9625" lon="6.57102">
        <ele>1740.4000244141</ele>
        <time>2018-03-24T09:42:09.000Z</time>
      </trkpt>
      <trkpt lat="45.96246" lon="6.57096">
        <ele>1741.4000244141</ele>
        <time>2018-03-24T09:42:20.000Z</time>
      </trkpt>
      <trkpt lat="45.96246" lon="6.57093">
        <ele>1742.4000244141</ele>
        <time>2018-03-24T09:42:28.000Z</time>
      </trkpt>
      <trkpt lat="45.96244" lon="6.57095">
        <ele>1743.4000244141</ele>
        <time>2018-03-24T09:42:56.000Z</time>
      </trkpt>
      <trkpt lat="45.96243" lon="6.57095">
        <ele>1743.8000488281</ele>
        <time>2018-03-24T09:44:31.000Z</time>
      </trkpt>
      <trkpt lat="45.96245" lon="6.57088">
        <ele>1743.8000488281</ele>
        <time>2018-03-24T09:46:12.000Z</time>
      </trkpt>
      <trkpt lat="45.96242" lon="6.57086">
        <ele>1744.5999755859</ele>
        <time>2018-03-24T09:47:12.000Z</time>
      </trkpt>
      <trkpt lat="45.96241" lon="6.57079">
        <ele>1745.5999755859</ele>
        <time>2018-03-24T09:47:19.000Z</time>
      </trkpt>
      <trkpt lat="45.9624" lon="6.57074">
        <ele>1746.8000488281</ele>
        <time>2018-03-24T09:47:24.000Z</time>
      </trkpt>
      <trkpt lat="45.96241" lon="6.57066">
        <ele>1747.4000244141</ele>
        <time>2018-03-24T09:47:31.000Z</time>
      </trkpt>
      <trkpt lat="45.96241" lon="6.57064">
        <ele>1748</ele>
        <time>2018-03-24T09:47:34.000Z</time>
      </trkpt>
      <trkpt lat="45.9624" lon="6.57059">
        <ele>1749</ele>
        <time>2018-03-24T09:47:41.000Z</time>
      </trkpt>
      <trkpt lat="45.96238" lon="6.57057">
        <ele>1750.1999511719</ele>
        <time>2018-03-24T09:47:49.000Z</time>
      </trkpt>
      <trkpt lat="45.96235" lon="6.57053">
        <ele>1750.5999755859</ele>
        <time>2018-03-24T09:47:56.000Z</time>
      </trkpt>
      <trkpt lat="45.96233" lon="6.5705">
        <ele>1751.4000244141</ele>
        <time>2018-03-24T09:48:01.000Z</time>
      </trkpt>
      <trkpt lat="45.96232" lon="6.57043">
        <ele>1752.4000244141</ele>
        <time>2018-03-24T09:48:09.000Z</time>
      </trkpt>
      <trkpt lat="45.96231" lon="6.57038">
        <ele>1753.5999755859</ele>
        <time>2018-03-24T09:48:16.000Z</time>
      </trkpt>
      <trkpt lat="45.96229" lon="6.57031">
        <ele>1754.5999755859</ele>
        <time>2018-03-24T09:48:27.000Z</time>
      </trkpt>
      <trkpt lat="45.96228" lon="6.57026">
        <ele>1755.5999755859</ele>
        <time>2018-03-24T09:48:34.000Z</time>
      </trkpt>
      <trkpt lat="45.96226" lon="6.57021">
        <ele>1756.8000488281</ele>
        <time>2018-03-24T09:48:43.000Z</time>
      </trkpt>
      <trkpt lat="45.96226" lon="6.57015">
        <ele>1757.8000488281</ele>
        <time>2018-03-24T09:48:50.000Z</time>
      </trkpt>
      <trkpt lat="45.96226" lon="6.57009">
        <ele>1758.8000488281</ele>
        <time>2018-03-24T09:48:57.000Z</time>
      </trkpt>
      <trkpt lat="45.96225" lon="6.57002">
        <ele>1760</ele>
        <time>2018-03-24T09:49:05.000Z</time>
      </trkpt>
      <trkpt lat="45.96226" lon="6.56998">
        <ele>1761</ele>
        <time>2018-03-24T09:49:12.000Z</time>
      </trkpt>
      <trkpt lat="45.96225" lon="6.56989">
        <ele>1762.1999511719</ele>
        <time>2018-03-24T09:49:24.000Z</time>
      </trkpt>
      <trkpt lat="45.96223" lon="6.56986">
        <ele>1763.1999511719</ele>
        <time>2018-03-24T09:49:30.000Z</time>
      </trkpt>
      <trkpt lat="45.9622" lon="6.56981">
        <ele>1764.1999511719</ele>
        <time>2018-03-24T09:49:39.000Z</time>
      </trkpt>
      <trkpt lat="45.96218" lon="6.56978">
        <ele>1765.4000244141</ele>
        <time>2018-03-24T09:49:47.000Z</time>
      </trkpt>
      <trkpt lat="45.96216" lon="6.56974">
        <ele>1766.4000244141</ele>
        <time>2018-03-24T09:50:01.000Z</time>
      </trkpt>
      <trkpt lat="45.96214" lon="6.56968">
        <ele>1767.4000244141</ele>
        <time>2018-03-24T09:50:09.000Z</time>
      </trkpt>
      <trkpt lat="45.96213" lon="6.56963">
        <ele>1768.5999755859</ele>
        <time>2018-03-24T09:50:15.000Z</time>
      </trkpt>
      <trkpt lat="45.96212" lon="6.56957">
        <ele>1769.8000488281</ele>
        <time>2018-03-24T09:50:23.000Z</time>
      </trkpt>
      <trkpt lat="45.96211" lon="6.5695">
        <ele>1771</ele>
        <time>2018-03-24T09:50:32.000Z</time>
      </trkpt>
      <trkpt lat="45.9621" lon="6.56947">
        <ele>1772</ele>
        <time>2018-03-24T09:50:38.000Z</time>
      </trkpt>
      <trkpt lat="45.96209" lon="6.56939">
        <ele>1773</ele>
        <time>2018-03-24T09:50:47.000Z</time>
      </trkpt>
      <trkpt lat="45.96204" lon="6.56937">
        <ele>1774.1999511719</ele>
        <time>2018-03-24T09:50:56.000Z</time>
      </trkpt>
      <trkpt lat="45.96202" lon="6.56931">
        <ele>1775.1999511719</ele>
        <time>2018-03-24T09:51:05.000Z</time>
      </trkpt>
      <trkpt lat="45.962" lon="6.56922">
        <ele>1776.1999511719</ele>
        <time>2018-03-24T09:51:16.000Z</time>
      </trkpt>
      <trkpt lat="45.962" lon="6.56917">
        <ele>1777.4000244141</ele>
        <time>2018-03-24T09:51:22.000Z</time>
      </trkpt>
      <trkpt lat="45.962" lon="6.56913">
        <ele>1778.4000244141</ele>
        <time>2018-03-24T09:51:29.000Z</time>
      </trkpt>
      <trkpt lat="45.962" lon="6.56908">
        <ele>1779.5999755859</ele>
        <time>2018-03-24T09:51:37.000Z</time>
      </trkpt>
      <trkpt lat="45.96198" lon="6.56902">
        <ele>1780.8000488281</ele>
        <time>2018-03-24T09:51:46.000Z</time>
      </trkpt>
      <trkpt lat="45.96196" lon="6.56901">
        <ele>1781.8000488281</ele>
        <time>2018-03-24T09:51:53.000Z</time>
      </trkpt>
      <trkpt lat="45.96192" lon="6.569">
        <ele>1782.8000488281</ele>
        <time>2018-03-24T09:52:00.000Z</time>
      </trkpt>
      <trkpt lat="45.96187" lon="6.56899">
        <ele>1784</ele>
        <time>2018-03-24T09:52:10.000Z</time>
      </trkpt>
      <trkpt lat="45.96181" lon="6.56899">
        <ele>1785</ele>
        <time>2018-03-24T09:52:20.000Z</time>
      </trkpt>
      <trkpt lat="45.96176" lon="6.56899">
        <ele>1786.1999511719</ele>
        <time>2018-03-24T09:52:31.000Z</time>
      </trkpt>
      <trkpt lat="45.96171" lon="6.56898">
        <ele>1787.1999511719</ele>
        <time>2018-03-24T09:52:40.000Z</time>
      </trkpt>
      <trkpt lat="45.96165" lon="6.56896">
        <ele>1788.4000244141</ele>
        <time>2018-03-24T09:52:51.000Z</time>
      </trkpt>
      <trkpt lat="45.96158" lon="6.56893">
        <ele>1789.5999755859</ele>
        <time>2018-03-24T09:53:01.000Z</time>
      </trkpt>
      <trkpt lat="45.96155" lon="6.56891">
        <ele>1790.5999755859</ele>
        <time>2018-03-24T09:53:08.000Z</time>
      </trkpt>
      <trkpt lat="45.96149" lon="6.56889">
        <ele>1791.8000488281</ele>
        <time>2018-03-24T09:53:17.000Z</time>
      </trkpt>
      <trkpt lat="45.96146" lon="6.56886">
        <ele>1792.8000488281</ele>
        <time>2018-03-24T09:53:25.000Z</time>
      </trkpt>
      <trkpt lat="45.96142" lon="6.56884">
        <ele>1793.8000488281</ele>
        <time>2018-03-24T09:53:34.000Z</time>
      </trkpt>
      <trkpt lat="45.96137" lon="6.56883">
        <ele>1795</ele>
        <time>2018-03-24T09:53:43.000Z</time>
      </trkpt>
      <trkpt lat="45.96134" lon="6.56883">
        <ele>1796.1999511719</ele>
        <time>2018-03-24T09:53:50.000Z</time>
      </trkpt>
      <trkpt lat="45.96132" lon="6.56883">
        <ele>1797.4000244141</ele>
        <time>2018-03-24T09:53:54.000Z</time>
      </trkpt>
      <trkpt lat="45.96128" lon="6.56882">
        <ele>1798.4000244141</ele>
        <time>2018-03-24T09:54:03.000Z</time>
      </trkpt>
      <trkpt lat="45.96125" lon="6.56878">
        <ele>1799.4000244141</ele>
        <time>2018-03-24T09:54:12.000Z</time>
      </trkpt>
      <trkpt lat="45.96123" lon="6.56872">
        <ele>1800.5999755859</ele>
        <time>2018-03-24T09:54:20.000Z</time>
      </trkpt>
      <trkpt lat="45.96122" lon="6.56866">
        <ele>1801.5999755859</ele>
        <time>2018-03-24T09:54:28.000Z</time>
      </trkpt>
      <trkpt lat="45.96121" lon="6.56861">
        <ele>1802.5999755859</ele>
        <time>2018-03-24T09:54:34.000Z</time>
      </trkpt>
      <trkpt lat="45.96119" lon="6.56857">
        <ele>1803.8000488281</ele>
        <time>2018-03-24T09:54:41.000Z</time>
      </trkpt>
      <trkpt lat="45.96118" lon="6.56852">
        <ele>1804.8000488281</ele>
        <time>2018-03-24T09:54:50.000Z</time>
      </trkpt>
      <trkpt lat="45.96116" lon="6.56847">
        <ele>1805.8000488281</ele>
        <time>2018-03-24T09:54:59.000Z</time>
      </trkpt>
      <trkpt lat="45.96114" lon="6.56845">
        <ele>1807</ele>
        <time>2018-03-24T09:55:04.000Z</time>
      </trkpt>
      <trkpt lat="45.96108" lon="6.56843">
        <ele>1808.1999511719</ele>
        <time>2018-03-24T09:55:17.000Z</time>
      </trkpt>
      <trkpt lat="45.96103" lon="6.56841">
        <ele>1809.1999511719</ele>
        <time>2018-03-24T09:55:26.000Z</time>
      </trkpt>
      <trkpt lat="45.961" lon="6.5684">
        <ele>1810.4000244141</ele>
        <time>2018-03-24T09:55:32.000Z</time>
      </trkpt>
      <trkpt lat="45.96095" lon="6.56837">
        <ele>1811.4000244141</ele>
        <time>2018-03-24T09:55:41.000Z</time>
      </trkpt>
      <trkpt lat="45.96091" lon="6.56836">
        <ele>1812.4000244141</ele>
        <time>2018-03-24T09:55:48.000Z</time>
      </trkpt>
      <trkpt lat="45.96091" lon="6.56833">
        <ele>1812.8000488281</ele>
        <time>2018-03-24T09:55:52.000Z</time>
      </trkpt>
      <trkpt lat="45.9609" lon="6.56831">
        <ele>1813.5999755859</ele>
        <time>2018-03-24T09:55:57.000Z</time>
      </trkpt>
      <trkpt lat="45.96088" lon="6.56829">
        <ele>1814.5999755859</ele>
        <time>2018-03-24T09:56:03.000Z</time>
      </trkpt>
      <trkpt lat="45.96083" lon="6.5683">
        <ele>1815.5999755859</ele>
        <time>2018-03-24T09:56:11.000Z</time>
      </trkpt>
      <trkpt lat="45.96078" lon="6.56833">
        <ele>1816.5999755859</ele>
        <time>2018-03-24T09:56:19.000Z</time>
      </trkpt>
      <trkpt lat="45.96074" lon="6.56832">
        <ele>1817.5999755859</ele>
        <time>2018-03-24T09:56:29.000Z</time>
      </trkpt>
      <trkpt lat="45.96072" lon="6.5683">
        <ele>1818.5999755859</ele>
        <time>2018-03-24T09:56:37.000Z</time>
      </trkpt>
      <trkpt lat="45.96069" lon="6.56827">
        <ele>1819.8000488281</ele>
        <time>2018-03-24T09:56:45.000Z</time>
      </trkpt>
      <trkpt lat="45.96067" lon="6.56821">
        <ele>1820.8000488281</ele>
        <time>2018-03-24T09:56:54.000Z</time>
      </trkpt>
      <trkpt lat="45.96067" lon="6.56818">
        <ele>1822</ele>
        <time>2018-03-24T09:56:59.000Z</time>
      </trkpt>
      <trkpt lat="45.96067" lon="6.56814">
        <ele>1823</ele>
        <time>2018-03-24T09:57:06.000Z</time>
      </trkpt>
      <trkpt lat="45.96068" lon="6.56808">
        <ele>1824</ele>
        <time>2018-03-24T09:57:14.000Z</time>
      </trkpt>
      <trkpt lat="45.96069" lon="6.56803">
        <ele>1825</ele>
        <time>2018-03-24T09:57:23.000Z</time>
      </trkpt>
      <trkpt lat="45.96069" lon="6.56799">
        <ele>1826</ele>
        <time>2018-03-24T09:57:31.000Z</time>
      </trkpt>
      <trkpt lat="45.9607" lon="6.56794">
        <ele>1827</ele>
        <time>2018-03-24T09:57:37.000Z</time>
      </trkpt>
      <trkpt lat="45.96069" lon="6.56788">
        <ele>1827.5999755859</ele>
        <time>2018-03-24T09:57:43.000Z</time>
      </trkpt>
      <trkpt lat="45.96069" lon="6.56786">
        <ele>1828.4000244141</ele>
        <time>2018-03-24T09:57:47.000Z</time>
      </trkpt>
      <trkpt lat="45.96067" lon="6.56783">
        <ele>1829.4000244141</ele>
        <time>2018-03-24T09:58:01.000Z</time>
      </trkpt>
      <trkpt lat="45.96064" lon="6.5678">
        <ele>1830.5999755859</ele>
        <time>2018-03-24T09:58:12.000Z</time>
      </trkpt>
      <trkpt lat="45.96064" lon="6.56776">
        <ele>1831.5999755859</ele>
        <time>2018-03-24T09:58:27.000Z</time>
      </trkpt>
      <trkpt lat="45.96065" lon="6.56776">
        <ele>1831</ele>
        <time>2018-03-24T09:58:56.000Z</time>
      </trkpt>
      <trkpt lat="45.96063" lon="6.56777">
        <ele>1830.8000488281</ele>
        <time>2018-03-24T09:59:57.000Z</time>
      </trkpt>
      <trkpt lat="45.96065" lon="6.5676">
        <ele>1835.1999511719</ele>
        <time>2018-03-24T10:01:03.000Z</time>
      </trkpt>
      <trkpt lat="45.96064" lon="6.56758">
        <ele>1836.4000244141</ele>
        <time>2018-03-24T10:01:07.000Z</time>
      </trkpt>
      <trkpt lat="45.9606" lon="6.56758">
        <ele>1837.5999755859</ele>
        <time>2018-03-24T10:01:16.000Z</time>
      </trkpt>
      <trkpt lat="45.96057" lon="6.56761">
        <ele>1838.5999755859</ele>
        <time>2018-03-24T10:01:22.000Z</time>
      </trkpt>
      <trkpt lat="45.96053" lon="6.56763">
        <ele>1839.5999755859</ele>
        <time>2018-03-24T10:01:29.000Z</time>
      </trkpt>
      <trkpt lat="45.96049" lon="6.56762">
        <ele>1840.5999755859</ele>
        <time>2018-03-24T10:01:38.000Z</time>
      </trkpt>
      <trkpt lat="45.96043" lon="6.56762">
        <ele>1841.8000488281</ele>
        <time>2018-03-24T10:01:47.000Z</time>
      </trkpt>
      <trkpt lat="45.96041" lon="6.56764">
        <ele>1842.8000488281</ele>
        <time>2018-03-24T10:01:52.000Z</time>
      </trkpt>
      <trkpt lat="45.96037" lon="6.56769">
        <ele>1843.8000488281</ele>
        <time>2018-03-24T10:02:01.000Z</time>
      </trkpt>
      <trkpt lat="45.96034" lon="6.56772">
        <ele>1845</ele>
        <time>2018-03-24T10:02:08.000Z</time>
      </trkpt>
      <trkpt lat="45.96034" lon="6.56775">
        <ele>1846</ele>
        <time>2018-03-24T10:02:17.000Z</time>
      </trkpt>
      <trkpt lat="45.96031" lon="6.56778">
        <ele>1847.1999511719</ele>
        <time>2018-03-24T10:02:23.000Z</time>
      </trkpt>
      <trkpt lat="45.9603" lon="6.56781">
        <ele>1848.4000244141</ele>
        <time>2018-03-24T10:02:29.000Z</time>
      </trkpt>
      <trkpt lat="45.96028" lon="6.56787">
        <ele>1849.5999755859</ele>
        <time>2018-03-24T10:02:38.000Z</time>
      </trkpt>
      <trkpt lat="45.96027" lon="6.56788">
        <ele>1850.5999755859</ele>
        <time>2018-03-24T10:02:43.000Z</time>
      </trkpt>
      <trkpt lat="45.96024" lon="6.56789">
        <ele>1851.8000488281</ele>
        <time>2018-03-24T10:02:52.000Z</time>
      </trkpt>
      <trkpt lat="45.96019" lon="6.56791">
        <ele>1852.8000488281</ele>
        <time>2018-03-24T10:03:01.000Z</time>
      </trkpt>
      <trkpt lat="45.96013" lon="6.56792">
        <ele>1854</ele>
        <time>2018-03-24T10:03:09.000Z</time>
      </trkpt>
      <trkpt lat="45.96009" lon="6.56794">
        <ele>1855</ele>
        <time>2018-03-24T10:03:17.000Z</time>
      </trkpt>
      <trkpt lat="45.96005" lon="6.56793">
        <ele>1856</ele>
        <time>2018-03-24T10:03:28.000Z</time>
      </trkpt>
      <trkpt lat="45.96001" lon="6.56797">
        <ele>1857</ele>
        <time>2018-03-24T10:03:35.000Z</time>
      </trkpt>
      <trkpt lat="45.95997" lon="6.56801">
        <ele>1858.1999511719</ele>
        <time>2018-03-24T10:03:42.000Z</time>
      </trkpt>
      <trkpt lat="45.95994" lon="6.56803">
        <ele>1859.4000244141</ele>
        <time>2018-03-24T10:03:48.000Z</time>
      </trkpt>
      <trkpt lat="45.95992" lon="6.56804">
        <ele>1860.5999755859</ele>
        <time>2018-03-24T10:03:55.000Z</time>
      </trkpt>
      <trkpt lat="45.95988" lon="6.56805">
        <ele>1861.4000244141</ele>
        <time>2018-03-24T10:04:01.000Z</time>
      </trkpt>
      <trkpt lat="45.95988" lon="6.56805">
        <ele>1861.5999755859</ele>
        <time>2018-03-24T10:04:02.000Z</time>
      </trkpt>
      <trkpt lat="45.95981" lon="6.56808">
        <ele>1862.5999755859</ele>
        <time>2018-03-24T10:04:11.000Z</time>
      </trkpt>
      <trkpt lat="45.95978" lon="6.56809">
        <ele>1863.5999755859</ele>
        <time>2018-03-24T10:04:17.000Z</time>
      </trkpt>
      <trkpt lat="45.95975" lon="6.56811">
        <ele>1864.8000488281</ele>
        <time>2018-03-24T10:04:24.000Z</time>
      </trkpt>
      <trkpt lat="45.95974" lon="6.56811">
        <ele>1865.8000488281</ele>
        <time>2018-03-24T10:04:30.000Z</time>
      </trkpt>
      <trkpt lat="45.95971" lon="6.56813">
        <ele>1867</ele>
        <time>2018-03-24T10:04:40.000Z</time>
      </trkpt>
      <trkpt lat="45.95971" lon="6.56804">
        <ele>1868.1999511719</ele>
        <time>2018-03-24T10:04:48.000Z</time>
      </trkpt>
      <trkpt lat="45.95971" lon="6.56798">
        <ele>1869.1999511719</ele>
        <time>2018-03-24T10:04:55.000Z</time>
      </trkpt>
      <trkpt lat="45.9597" lon="6.56796">
        <ele>1870.4000244141</ele>
        <time>2018-03-24T10:05:00.000Z</time>
      </trkpt>
      <trkpt lat="45.95969" lon="6.56795">
        <ele>1870.5999755859</ele>
        <time>2018-03-24T10:05:02.000Z</time>
      </trkpt>
      <trkpt lat="45.95969" lon="6.56789">
        <ele>1871.5999755859</ele>
        <time>2018-03-24T10:05:09.000Z</time>
      </trkpt>
      <trkpt lat="45.9597" lon="6.56784">
        <ele>1872.5999755859</ele>
        <time>2018-03-24T10:05:16.000Z</time>
      </trkpt>
      <trkpt lat="45.95968" lon="6.56779">
        <ele>1873.8000488281</ele>
        <time>2018-03-24T10:05:25.000Z</time>
      </trkpt>
      <trkpt lat="45.95967" lon="6.56774">
        <ele>1874.8000488281</ele>
        <time>2018-03-24T10:05:33.000Z</time>
      </trkpt>
      <trkpt lat="45.95965" lon="6.5677">
        <ele>1875.8000488281</ele>
        <time>2018-03-24T10:05:44.000Z</time>
      </trkpt>
      <trkpt lat="45.95963" lon="6.56768">
        <ele>1876.8000488281</ele>
        <time>2018-03-24T10:05:50.000Z</time>
      </trkpt>
      <trkpt lat="45.95961" lon="6.56765">
        <ele>1878</ele>
        <time>2018-03-24T10:05:58.000Z</time>
      </trkpt>
      <trkpt lat="45.95959" lon="6.56761">
        <ele>1879</ele>
        <time>2018-03-24T10:06:05.000Z</time>
      </trkpt>
      <trkpt lat="45.95958" lon="6.56756">
        <ele>1880.1999511719</ele>
        <time>2018-03-24T10:06:15.000Z</time>
      </trkpt>
      <trkpt lat="45.95959" lon="6.56752">
        <ele>1881.1999511719</ele>
        <time>2018-03-24T10:06:22.000Z</time>
      </trkpt>
      <trkpt lat="45.9596" lon="6.56744">
        <ele>1882.1999511719</ele>
        <time>2018-03-24T10:06:32.000Z</time>
      </trkpt>
      <trkpt lat="45.95959" lon="6.5674">
        <ele>1883.4000244141</ele>
        <time>2018-03-24T10:06:39.000Z</time>
      </trkpt>
      <trkpt lat="45.95958" lon="6.56734">
        <ele>1884.4000244141</ele>
        <time>2018-03-24T10:06:47.000Z</time>
      </trkpt>
      <trkpt lat="45.95958" lon="6.5673">
        <ele>1885.4000244141</ele>
        <time>2018-03-24T10:06:53.000Z</time>
      </trkpt>
      <trkpt lat="45.95958" lon="6.56726">
        <ele>1886.5999755859</ele>
        <time>2018-03-24T10:07:02.000Z</time>
      </trkpt>
      <trkpt lat="45.95958" lon="6.56718">
        <ele>1887.5999755859</ele>
        <time>2018-03-24T10:07:14.000Z</time>
      </trkpt>
      <trkpt lat="45.95957" lon="6.56714">
        <ele>1888.8000488281</ele>
        <time>2018-03-24T10:07:22.000Z</time>
      </trkpt>
      <trkpt lat="45.95956" lon="6.56711">
        <ele>1889.8000488281</ele>
        <time>2018-03-24T10:07:30.000Z</time>
      </trkpt>
      <trkpt lat="45.95957" lon="6.56705">
        <ele>1890.8000488281</ele>
        <time>2018-03-24T10:07:38.000Z</time>
      </trkpt>
      <trkpt lat="45.95957" lon="6.56699">
        <ele>1892</ele>
        <time>2018-03-24T10:07:46.000Z</time>
      </trkpt>
      <trkpt lat="45.95956" lon="6.56693">
        <ele>1893.1999511719</ele>
        <time>2018-03-24T10:07:55.000Z</time>
      </trkpt>
      <trkpt lat="45.95956" lon="6.56693">
        <ele>1894.4000244141</ele>
        <time>2018-03-24T10:08:03.000Z</time>
      </trkpt>
      <trkpt lat="45.95955" lon="6.56699">
        <ele>1895.4000244141</ele>
        <time>2018-03-24T10:08:11.000Z</time>
      </trkpt>
      <trkpt lat="45.95952" lon="6.56702">
        <ele>1896.4000244141</ele>
        <time>2018-03-24T10:08:24.000Z</time>
      </trkpt>
      <trkpt lat="45.95948" lon="6.56703">
        <ele>1897.4000244141</ele>
        <time>2018-03-24T10:08:33.000Z</time>
      </trkpt>
      <trkpt lat="45.95947" lon="6.56705">
        <ele>1898.4000244141</ele>
        <time>2018-03-24T10:08:38.000Z</time>
      </trkpt>
      <trkpt lat="45.95943" lon="6.56709">
        <ele>1898.8000488281</ele>
        <time>2018-03-24T10:08:43.000Z</time>
      </trkpt>
      <trkpt lat="45.95939" lon="6.56713">
        <ele>1899.5999755859</ele>
        <time>2018-03-24T10:08:50.000Z</time>
      </trkpt>
      <trkpt lat="45.95936" lon="6.56714">
        <ele>1900.8000488281</ele>
        <time>2018-03-24T10:09:00.000Z</time>
      </trkpt>
      <trkpt lat="45.95933" lon="6.56717">
        <ele>1901.8000488281</ele>
        <time>2018-03-24T10:09:10.000Z</time>
      </trkpt>
      <trkpt lat="45.95931" lon="6.56719">
        <ele>1902.8000488281</ele>
        <time>2018-03-24T10:09:15.000Z</time>
      </trkpt>
      <trkpt lat="45.95925" lon="6.56723">
        <ele>1903.8000488281</ele>
        <time>2018-03-24T10:09:25.000Z</time>
      </trkpt>
      <trkpt lat="45.95921" lon="6.56722">
        <ele>1905</ele>
        <time>2018-03-24T10:09:36.000Z</time>
      </trkpt>
      <trkpt lat="45.9592" lon="6.5672">
        <ele>1906</ele>
        <time>2018-03-24T10:09:43.000Z</time>
      </trkpt>
      <trkpt lat="45.95915" lon="6.56721">
        <ele>1907</ele>
        <time>2018-03-24T10:09:54.000Z</time>
      </trkpt>
      <trkpt lat="45.95913" lon="6.56721">
        <ele>1908</ele>
        <time>2018-03-24T10:10:00.000Z</time>
      </trkpt>
      <trkpt lat="45.9591" lon="6.56723">
        <ele>1909.1999511719</ele>
        <time>2018-03-24T10:10:10.000Z</time>
      </trkpt>
      <trkpt lat="45.95904" lon="6.56726">
        <ele>1910.1999511719</ele>
        <time>2018-03-24T10:10:21.000Z</time>
      </trkpt>
      <trkpt lat="45.959" lon="6.5673">
        <ele>1911.4000244141</ele>
        <time>2018-03-24T10:10:29.000Z</time>
      </trkpt>
      <trkpt lat="45.95895" lon="6.56733">
        <ele>1912.4000244141</ele>
        <time>2018-03-24T10:10:41.000Z</time>
      </trkpt>
      <trkpt lat="45.95892" lon="6.56735">
        <ele>1913</ele>
        <time>2018-03-24T10:10:44.000Z</time>
      </trkpt>
      <trkpt lat="45.9589" lon="6.56735">
        <ele>1913.4000244141</ele>
        <time>2018-03-24T10:10:46.000Z</time>
      </trkpt>
      <trkpt lat="45.9589" lon="6.56734">
        <ele>1913.4000244141</ele>
        <time>2018-03-24T10:10:47.000Z</time>
      </trkpt>
      <trkpt lat="45.95888" lon="6.56736">
        <ele>1914.5999755859</ele>
        <time>2018-03-24T10:10:56.000Z</time>
      </trkpt>
      <trkpt lat="45.95887" lon="6.56735">
        <ele>1915.5999755859</ele>
        <time>2018-03-24T10:11:03.000Z</time>
      </trkpt>
      <trkpt lat="45.95884" lon="6.56735">
        <ele>1916.5999755859</ele>
        <time>2018-03-24T10:11:08.000Z</time>
      </trkpt>
      <trkpt lat="45.95881" lon="6.56735">
        <ele>1917.4000244141</ele>
        <time>2018-03-24T10:11:13.000Z</time>
      </trkpt>
      <trkpt lat="45.9588" lon="6.56734">
        <ele>1917.8000488281</ele>
        <time>2018-03-24T10:11:15.000Z</time>
      </trkpt>
      <trkpt lat="45.95879" lon="6.56733">
        <ele>1918.8000488281</ele>
        <time>2018-03-24T10:11:22.000Z</time>
      </trkpt>
      <trkpt lat="45.95873" lon="6.56739">
        <ele>1920</ele>
        <time>2018-03-24T10:11:32.000Z</time>
      </trkpt>
      <trkpt lat="45.9587" lon="6.56743">
        <ele>1921</ele>
        <time>2018-03-24T10:11:41.000Z</time>
      </trkpt>
      <trkpt lat="45.95869" lon="6.56744">
        <ele>1922.1999511719</ele>
        <time>2018-03-24T10:11:45.000Z</time>
      </trkpt>
      <trkpt lat="45.95867" lon="6.56742">
        <ele>1923.1999511719</ele>
        <time>2018-03-24T10:11:53.000Z</time>
      </trkpt>
      <trkpt lat="45.95862" lon="6.56744">
        <ele>1924.4000244141</ele>
        <time>2018-03-24T10:12:02.000Z</time>
      </trkpt>
      <trkpt lat="45.9586" lon="6.56745">
        <ele>1925.4000244141</ele>
        <time>2018-03-24T10:12:10.000Z</time>
      </trkpt>
      <trkpt lat="45.95859" lon="6.56745">
        <ele>1926</ele>
        <time>2018-03-24T10:12:13.000Z</time>
      </trkpt>
      <trkpt lat="45.95857" lon="6.56743">
        <ele>1926.4000244141</ele>
        <time>2018-03-24T10:12:17.000Z</time>
      </trkpt>
      <trkpt lat="45.95857" lon="6.56735">
        <ele>1927.4000244141</ele>
        <time>2018-03-24T10:12:26.000Z</time>
      </trkpt>
      <trkpt lat="45.95857" lon="6.56731">
        <ele>1928.5999755859</ele>
        <time>2018-03-24T10:12:32.000Z</time>
      </trkpt>
      <trkpt lat="45.95856" lon="6.56725">
        <ele>1929.5999755859</ele>
        <time>2018-03-24T10:12:39.000Z</time>
      </trkpt>
      <trkpt lat="45.95857" lon="6.56718">
        <ele>1930.5999755859</ele>
        <time>2018-03-24T10:12:46.000Z</time>
      </trkpt>
      <trkpt lat="45.95856" lon="6.56715">
        <ele>1931.4000244141</ele>
        <time>2018-03-24T10:12:51.000Z</time>
      </trkpt>
      <trkpt lat="45.95856" lon="6.56714">
        <ele>1931.5999755859</ele>
        <time>2018-03-24T10:12:52.000Z</time>
      </trkpt>
      <trkpt lat="45.95857" lon="6.56707">
        <ele>1932.8000488281</ele>
        <time>2018-03-24T10:13:02.000Z</time>
      </trkpt>
      <trkpt lat="45.95857" lon="6.56704">
        <ele>1933.8000488281</ele>
        <time>2018-03-24T10:13:10.000Z</time>
      </trkpt>
      <trkpt lat="45.95857" lon="6.567">
        <ele>1934.8000488281</ele>
        <time>2018-03-24T10:13:16.000Z</time>
      </trkpt>
      <trkpt lat="45.95857" lon="6.56693">
        <ele>1936</ele>
        <time>2018-03-24T10:13:27.000Z</time>
      </trkpt>
      <trkpt lat="45.95858" lon="6.5669">
        <ele>1937</ele>
        <time>2018-03-24T10:13:35.000Z</time>
      </trkpt>
      <trkpt lat="45.95859" lon="6.56685">
        <ele>1938</ele>
        <time>2018-03-24T10:13:44.000Z</time>
      </trkpt>
      <trkpt lat="45.9586" lon="6.5668">
        <ele>1939.1999511719</ele>
        <time>2018-03-24T10:13:50.000Z</time>
      </trkpt>
      <trkpt lat="45.95861" lon="6.56674">
        <ele>1940.1999511719</ele>
        <time>2018-03-24T10:13:59.000Z</time>
      </trkpt>
      <trkpt lat="45.95862" lon="6.56673">
        <ele>1941</ele>
        <time>2018-03-24T10:14:04.000Z</time>
      </trkpt>
      <trkpt lat="45.95862" lon="6.56673">
        <ele>1941.4000244141</ele>
        <time>2018-03-24T10:14:08.000Z</time>
      </trkpt>
      <trkpt lat="45.95859" lon="6.56677">
        <ele>1942.5999755859</ele>
        <time>2018-03-24T10:14:19.000Z</time>
      </trkpt>
      <trkpt lat="45.95855" lon="6.56679">
        <ele>1943.5999755859</ele>
        <time>2018-03-24T10:14:29.000Z</time>
      </trkpt>
      <trkpt lat="45.95851" lon="6.56683">
        <ele>1944.8000488281</ele>
        <time>2018-03-24T10:14:38.000Z</time>
      </trkpt>
      <trkpt lat="45.95846" lon="6.56686">
        <ele>1945.8000488281</ele>
        <time>2018-03-24T10:14:47.000Z</time>
      </trkpt>
      <trkpt lat="45.95843" lon="6.56684">
        <ele>1947</ele>
        <time>2018-03-24T10:14:57.000Z</time>
      </trkpt>
      <trkpt lat="45.95844" lon="6.56677">
        <ele>1948.1999511719</ele>
        <time>2018-03-24T10:15:07.000Z</time>
      </trkpt>
      <trkpt lat="45.95843" lon="6.56678">
        <ele>1949.1999511719</ele>
        <time>2018-03-24T10:15:14.000Z</time>
      </trkpt>
      <trkpt lat="45.95839" lon="6.56678">
        <ele>1950.4000244141</ele>
        <time>2018-03-24T10:15:23.000Z</time>
      </trkpt>
      <trkpt lat="45.95841" lon="6.56677">
        <ele>1951.4000244141</ele>
        <time>2018-03-24T10:15:33.000Z</time>
      </trkpt>
      <trkpt lat="45.95832" lon="6.56684">
        <ele>1952.5999755859</ele>
        <time>2018-03-24T10:15:49.000Z</time>
      </trkpt>
      <trkpt lat="45.95838" lon="6.56697">
        <ele>1953.5999755859</ele>
        <time>2018-03-24T10:16:00.000Z</time>
      </trkpt>
      <trkpt lat="45.95839" lon="6.56699">
        <ele>1953.8000488281</ele>
        <time>2018-03-24T10:16:01.000Z</time>
      </trkpt>
      <trkpt lat="45.95841" lon="6.56701">
        <ele>1953.8000488281</ele>
        <time>2018-03-24T10:16:03.000Z</time>
      </trkpt>
      <trkpt lat="45.95842" lon="6.56703">
        <ele>1954</ele>
        <time>2018-03-24T10:16:05.000Z</time>
      </trkpt>
      <trkpt lat="45.95842" lon="6.56706">
        <ele>1954.4000244141</ele>
        <time>2018-03-24T10:16:07.000Z</time>
      </trkpt>
      <trkpt lat="45.95843" lon="6.56707">
        <ele>1954.8000488281</ele>
        <time>2018-03-24T10:16:10.000Z</time>
      </trkpt>
      <trkpt lat="45.95844" lon="6.56707">
        <ele>1954.8000488281</ele>
        <time>2018-03-24T10:16:11.000Z</time>
      </trkpt>
      <trkpt lat="45.9585" lon="6.56706">
        <ele>1955</ele>
        <time>2018-03-24T10:16:13.000Z</time>
      </trkpt>
      <trkpt lat="45.9585" lon="6.56705">
        <ele>1955.5999755859</ele>
        <time>2018-03-24T10:16:17.000Z</time>
      </trkpt>
      <trkpt lat="45.95848" lon="6.56705">
        <ele>1955.8000488281</ele>
        <time>2018-03-24T10:16:18.000Z</time>
      </trkpt>
      <trkpt lat="45.95836" lon="6.56697">
        <ele>1956.8000488281</ele>
        <time>2018-03-24T10:16:25.000Z</time>
      </trkpt>
      <trkpt lat="45.95821" lon="6.56685">
        <ele>1958</ele>
        <time>2018-03-24T10:16:33.000Z</time>
      </trkpt>
      <trkpt lat="45.9582" lon="6.56685">
        <ele>1958</ele>
        <time>2018-03-24T10:16:34.000Z</time>
      </trkpt>
      <trkpt lat="45.95816" lon="6.56687">
        <ele>1958.4000244141</ele>
        <time>2018-03-24T10:16:38.000Z</time>
      </trkpt>
      <trkpt lat="45.95814" lon="6.56689">
        <ele>1959</ele>
        <time>2018-03-24T10:16:43.000Z</time>
      </trkpt>
      <trkpt lat="45.9581" lon="6.56691">
        <ele>1960</ele>
        <time>2018-03-24T10:16:49.000Z</time>
      </trkpt>
      <trkpt lat="45.95808" lon="6.56693">
        <ele>1961</ele>
        <time>2018-03-24T10:16:58.000Z</time>
      </trkpt>
      <trkpt lat="45.95807" lon="6.56697">
        <ele>1962</ele>
        <time>2018-03-24T10:17:08.000Z</time>
      </trkpt>
      <trkpt lat="45.95805" lon="6.567">
        <ele>1963.1999511719</ele>
        <time>2018-03-24T10:17:16.000Z</time>
      </trkpt>
      <trkpt lat="45.95801" lon="6.56698">
        <ele>1964.1999511719</ele>
        <time>2018-03-24T10:17:23.000Z</time>
      </trkpt>
      <trkpt lat="45.95796" lon="6.56697">
        <ele>1965.1999511719</ele>
        <time>2018-03-24T10:17:30.000Z</time>
      </trkpt>
      <trkpt lat="45.95794" lon="6.56703">
        <ele>1966.1999511719</ele>
        <time>2018-03-24T10:17:37.000Z</time>
      </trkpt>
      <trkpt lat="45.95793" lon="6.56703">
        <ele>1966.4000244141</ele>
        <time>2018-03-24T10:17:38.000Z</time>
      </trkpt>
      <trkpt lat="45.95792" lon="6.56702">
        <ele>1967.4000244141</ele>
        <time>2018-03-24T10:17:44.000Z</time>
      </trkpt>
      <trkpt lat="45.95791" lon="6.56704">
        <ele>1968.4000244141</ele>
        <time>2018-03-24T10:17:51.000Z</time>
      </trkpt>
      <trkpt lat="45.95792" lon="6.56709">
        <ele>1969.4000244141</ele>
        <time>2018-03-24T10:18:00.000Z</time>
      </trkpt>
      <trkpt lat="45.95788" lon="6.56705">
        <ele>1970.5999755859</ele>
        <time>2018-03-24T10:18:17.000Z</time>
      </trkpt>
      <trkpt lat="45.95786" lon="6.56699">
        <ele>1971.8000488281</ele>
        <time>2018-03-24T10:18:24.000Z</time>
      </trkpt>
      <trkpt lat="45.95781" lon="6.56694">
        <ele>1972.8000488281</ele>
        <time>2018-03-24T10:18:31.000Z</time>
      </trkpt>
      <trkpt lat="45.95774" lon="6.56684">
        <ele>1973.8000488281</ele>
        <time>2018-03-24T10:18:40.000Z</time>
      </trkpt>
      <trkpt lat="45.95772" lon="6.56681">
        <ele>1974.5999755859</ele>
        <time>2018-03-24T10:18:43.000Z</time>
      </trkpt>
      <trkpt lat="45.95772" lon="6.56681">
        <ele>1974.8000488281</ele>
        <time>2018-03-24T10:18:45.000Z</time>
      </trkpt>
      <trkpt lat="45.95779" lon="6.56683">
        <ele>1974.8000488281</ele>
        <time>2018-03-24T10:18:52.000Z</time>
      </trkpt>
      <trkpt lat="45.9578" lon="6.56675">
        <ele>1976</ele>
        <time>2018-03-24T10:19:05.000Z</time>
      </trkpt>
      <trkpt lat="45.9578" lon="6.56675">
        <ele>1976.4000244141</ele>
        <time>2018-03-24T10:19:07.000Z</time>
      </trkpt>
      <trkpt lat="45.95782" lon="6.56674">
        <ele>1976.1999511719</ele>
        <time>2018-03-24T10:19:25.000Z</time>
      </trkpt>
      <trkpt lat="45.95777" lon="6.56673">
        <ele>1977</ele>
        <time>2018-03-24T10:19:31.000Z</time>
      </trkpt>
      <trkpt lat="45.95771" lon="6.56667">
        <ele>1977.5999755859</ele>
        <time>2018-03-24T10:19:37.000Z</time>
      </trkpt>
      <trkpt lat="45.95771" lon="6.56663">
        <ele>1978.1999511719</ele>
        <time>2018-03-24T10:19:42.000Z</time>
      </trkpt>
      <trkpt lat="45.95772" lon="6.5665">
        <ele>1979.1999511719</ele>
        <time>2018-03-24T10:19:51.000Z</time>
      </trkpt>
      <trkpt lat="45.95771" lon="6.56648">
        <ele>1979.5999755859</ele>
        <time>2018-03-24T10:19:53.000Z</time>
      </trkpt>
      <trkpt lat="45.95772" lon="6.56646">
        <ele>1980</ele>
        <time>2018-03-24T10:19:57.000Z</time>
      </trkpt>
      <trkpt lat="45.95772" lon="6.56644">
        <ele>1980.4000244141</ele>
        <time>2018-03-24T10:20:00.000Z</time>
      </trkpt>
      <trkpt lat="45.95776" lon="6.56638">
        <ele>1981.4000244141</ele>
        <time>2018-03-24T10:20:08.000Z</time>
      </trkpt>
      <trkpt lat="45.95781" lon="6.56635">
        <ele>1982.5999755859</ele>
        <time>2018-03-24T10:20:16.000Z</time>
      </trkpt>
      <trkpt lat="45.95782" lon="6.56628">
        <ele>1983.5999755859</ele>
        <time>2018-03-24T10:20:26.000Z</time>
      </trkpt>
      <trkpt lat="45.95779" lon="6.56624">
        <ele>1984.5999755859</ele>
        <time>2018-03-24T10:20:35.000Z</time>
      </trkpt>
      <trkpt lat="45.95778" lon="6.5662">
        <ele>1985.4000244141</ele>
        <time>2018-03-24T10:20:41.000Z</time>
      </trkpt>
      <trkpt lat="45.95778" lon="6.56619">
        <ele>1985.8000488281</ele>
        <time>2018-03-24T10:20:43.000Z</time>
      </trkpt>
      <trkpt lat="45.9578" lon="6.56615">
        <ele>1986.8000488281</ele>
        <time>2018-03-24T10:20:50.000Z</time>
      </trkpt>
      <trkpt lat="45.9578" lon="6.56635">
        <ele>1987.1999511719</ele>
        <time>2018-03-24T10:21:11.000Z</time>
      </trkpt>
      <trkpt lat="45.95774" lon="6.56635">
        <ele>1986.8000488281</ele>
        <time>2018-03-24T10:21:22.000Z</time>
      </trkpt>
      <trkpt lat="45.95773" lon="6.56635">
        <ele>1987</ele>
        <time>2018-03-24T10:21:26.000Z</time>
      </trkpt>
      <trkpt lat="45.95765" lon="6.56636">
        <ele>1987</ele>
        <time>2018-03-24T10:21:41.000Z</time>
      </trkpt>
      <trkpt lat="45.95764" lon="6.56636">
        <ele>1987</ele>
        <time>2018-03-24T10:21:43.000Z</time>
      </trkpt>
      <trkpt lat="45.95766" lon="6.56636">
        <ele>1987</ele>
        <time>2018-03-24T10:21:44.000Z</time>
      </trkpt>
      <trkpt lat="45.95771" lon="6.56641">
        <ele>1987.1999511719</ele>
        <time>2018-03-24T10:21:49.000Z</time>
      </trkpt>
      <trkpt lat="45.95776" lon="6.56625">
        <ele>1986.8000488281</ele>
        <time>2018-03-24T10:22:19.000Z</time>
      </trkpt>
      <trkpt lat="45.95774" lon="6.56623">
        <ele>1986.8000488281</ele>
        <time>2018-03-24T10:22:21.000Z</time>
      </trkpt>
      <trkpt lat="45.95775" lon="6.56626">
        <ele>1986.5999755859</ele>
        <time>2018-03-24T10:22:27.000Z</time>
      </trkpt>
      <trkpt lat="45.95783" lon="6.56618">
        <ele>1985.8000488281</ele>
        <time>2018-03-24T10:23:04.000Z</time>
      </trkpt>
      <trkpt lat="45.95784" lon="6.56631">
        <ele>1985.8000488281</ele>
        <time>2018-03-24T10:23:10.000Z</time>
      </trkpt>
      <trkpt lat="45.95784" lon="6.56642">
        <ele>1986</ele>
        <time>2018-03-24T10:23:20.000Z</time>
      </trkpt>
      <trkpt lat="45.95794" lon="6.56647">
        <ele>1986.4000244141</ele>
        <time>2018-03-24T10:23:24.000Z</time>
      </trkpt>
      <trkpt lat="45.958" lon="6.56624">
        <ele>1986.8000488281</ele>
        <time>2018-03-24T10:23:32.000Z</time>
      </trkpt>
      <trkpt lat="45.95795" lon="6.56623">
        <ele>1987.1999511719</ele>
        <time>2018-03-24T10:23:35.000Z</time>
      </trkpt>
      <trkpt lat="45.95786" lon="6.56625">
        <ele>1988</ele>
        <time>2018-03-24T10:23:40.000Z</time>
      </trkpt>
      <trkpt lat="45.95778" lon="6.56636">
        <ele>1989</ele>
        <time>2018-03-24T10:23:57.000Z</time>
      </trkpt>
      <trkpt lat="45.95773" lon="6.56635">
        <ele>1990.1999511719</ele>
        <time>2018-03-24T10:24:03.000Z</time>
      </trkpt>
      <trkpt lat="45.95771" lon="6.56637">
        <ele>1991</ele>
        <time>2018-03-24T10:24:08.000Z</time>
      </trkpt>
      <trkpt lat="45.95772" lon="6.56638">
        <ele>1991.1999511719</ele>
        <time>2018-03-24T10:24:09.000Z</time>
      </trkpt>
      <trkpt lat="45.9577" lon="6.56637">
        <ele>1992.1999511719</ele>
        <time>2018-03-24T10:24:21.000Z</time>
      </trkpt>
      <trkpt lat="45.95761" lon="6.56633">
        <ele>1993.4000244141</ele>
        <time>2018-03-24T10:24:28.000Z</time>
      </trkpt>
      <trkpt lat="45.95755" lon="6.56632">
        <ele>1994.4000244141</ele>
        <time>2018-03-24T10:24:36.000Z</time>
      </trkpt>
      <trkpt lat="45.95754" lon="6.56632">
        <ele>1994.5999755859</ele>
        <time>2018-03-24T10:24:37.000Z</time>
      </trkpt>
      <trkpt lat="45.95754" lon="6.5663">
        <ele>1994.8000488281</ele>
        <time>2018-03-24T10:24:39.000Z</time>
      </trkpt>
      <trkpt lat="45.95753" lon="6.56632">
        <ele>1995.5999755859</ele>
        <time>2018-03-24T10:24:45.000Z</time>
      </trkpt>
      <trkpt lat="45.95751" lon="6.56634">
        <ele>1996.5999755859</ele>
        <time>2018-03-24T10:24:51.000Z</time>
      </trkpt>
      <trkpt lat="45.95748" lon="6.56635">
        <ele>1997.8000488281</ele>
        <time>2018-03-24T10:25:01.000Z</time>
      </trkpt>
      <trkpt lat="45.95748" lon="6.56634">
        <ele>1998.8000488281</ele>
        <time>2018-03-24T10:25:06.000Z</time>
      </trkpt>
      <trkpt lat="45.95745" lon="6.5664">
        <ele>1999.8000488281</ele>
        <time>2018-03-24T10:25:12.000Z</time>
      </trkpt>
      <trkpt lat="45.95743" lon="6.56648">
        <ele>2000.5999755859</ele>
        <time>2018-03-24T10:25:17.000Z</time>
      </trkpt>
      <trkpt lat="45.95745" lon="6.56649">
        <ele>2001</ele>
        <time>2018-03-24T10:25:19.000Z</time>
      </trkpt>
      <trkpt lat="45.95741" lon="6.56648">
        <ele>2002.1999511719</ele>
        <time>2018-03-24T10:25:26.000Z</time>
      </trkpt>
      <trkpt lat="45.95734" lon="6.56643">
        <ele>2003</ele>
        <time>2018-03-24T10:25:33.000Z</time>
      </trkpt>
      <trkpt lat="45.95733" lon="6.56643">
        <ele>2003.1999511719</ele>
        <time>2018-03-24T10:25:34.000Z</time>
      </trkpt>
      <trkpt lat="45.95729" lon="6.56641">
        <ele>2004.4000244141</ele>
        <time>2018-03-24T10:25:39.000Z</time>
      </trkpt>
      <trkpt lat="45.95724" lon="6.56648">
        <ele>2005.4000244141</ele>
        <time>2018-03-24T10:25:53.000Z</time>
      </trkpt>
      <trkpt lat="45.95722" lon="6.56651">
        <ele>2006.4000244141</ele>
        <time>2018-03-24T10:26:00.000Z</time>
      </trkpt>
      <trkpt lat="45.95719" lon="6.56653">
        <ele>2007.5999755859</ele>
        <time>2018-03-24T10:26:10.000Z</time>
      </trkpt>
      <trkpt lat="45.95717" lon="6.56659">
        <ele>2008.5999755859</ele>
        <time>2018-03-24T10:26:16.000Z</time>
      </trkpt>
      <trkpt lat="45.95713" lon="6.56667">
        <ele>2009.8000488281</ele>
        <time>2018-03-24T10:26:22.000Z</time>
      </trkpt>
      <trkpt lat="45.95711" lon="6.56671">
        <ele>2011</ele>
        <time>2018-03-24T10:26:27.000Z</time>
      </trkpt>
      <trkpt lat="45.95709" lon="6.56673">
        <ele>2012.1999511719</ele>
        <time>2018-03-24T10:26:33.000Z</time>
      </trkpt>
      <trkpt lat="45.95707" lon="6.56671">
        <ele>2013.1999511719</ele>
        <time>2018-03-24T10:26:40.000Z</time>
      </trkpt>
      <trkpt lat="45.95703" lon="6.56668">
        <ele>2014.5999755859</ele>
        <time>2018-03-24T10:26:47.000Z</time>
      </trkpt>
      <trkpt lat="45.95702" lon="6.56668">
        <ele>2015.5999755859</ele>
        <time>2018-03-24T10:26:54.000Z</time>
      </trkpt>
      <trkpt lat="45.95698" lon="6.56656">
        <ele>2016.8000488281</ele>
        <time>2018-03-24T10:27:04.000Z</time>
      </trkpt>
      <trkpt lat="45.957" lon="6.56646">
        <ele>2017.8000488281</ele>
        <time>2018-03-24T10:27:13.000Z</time>
      </trkpt>
      <trkpt lat="45.95698" lon="6.56641">
        <ele>2019</ele>
        <time>2018-03-24T10:27:20.000Z</time>
      </trkpt>
      <trkpt lat="45.95697" lon="6.56641">
        <ele>2019.5999755859</ele>
        <time>2018-03-24T10:27:22.000Z</time>
      </trkpt>
      <trkpt lat="45.95696" lon="6.56638">
        <ele>2020</ele>
        <time>2018-03-24T10:27:27.000Z</time>
      </trkpt>
      <trkpt lat="45.95694" lon="6.56629">
        <ele>2021.1999511719</ele>
        <time>2018-03-24T10:27:37.000Z</time>
      </trkpt>
      <trkpt lat="45.95697" lon="6.56619">
        <ele>2022.1999511719</ele>
        <time>2018-03-24T10:27:48.000Z</time>
      </trkpt>
      <trkpt lat="45.95697" lon="6.56616">
        <ele>2023.4000244141</ele>
        <time>2018-03-24T10:27:53.000Z</time>
      </trkpt>
      <trkpt lat="45.95696" lon="6.56612">
        <ele>2024.4000244141</ele>
        <time>2018-03-24T10:27:59.000Z</time>
      </trkpt>
      <trkpt lat="45.95697" lon="6.56604">
        <ele>2025.4000244141</ele>
        <time>2018-03-24T10:28:10.000Z</time>
      </trkpt>
      <trkpt lat="45.95697" lon="6.56602">
        <ele>2026.5999755859</ele>
        <time>2018-03-24T10:28:17.000Z</time>
      </trkpt>
      <trkpt lat="45.95695" lon="6.56598">
        <ele>2027.1999511719</ele>
        <time>2018-03-24T10:28:22.000Z</time>
      </trkpt>
      <trkpt lat="45.95696" lon="6.56597">
        <ele>2027.5999755859</ele>
        <time>2018-03-24T10:28:25.000Z</time>
      </trkpt>
      <trkpt lat="45.95698" lon="6.56591">
        <ele>2028.8000488281</ele>
        <time>2018-03-24T10:28:33.000Z</time>
      </trkpt>
      <trkpt lat="45.95697" lon="6.56588">
        <ele>2029.8000488281</ele>
        <time>2018-03-24T10:28:41.000Z</time>
      </trkpt>
      <trkpt lat="45.95699" lon="6.56583">
        <ele>2031</ele>
        <time>2018-03-24T10:28:50.000Z</time>
      </trkpt>
      <trkpt lat="45.95699" lon="6.56576">
        <ele>2032</ele>
        <time>2018-03-24T10:28:58.000Z</time>
      </trkpt>
      <trkpt lat="45.957" lon="6.5657">
        <ele>2033</ele>
        <time>2018-03-24T10:29:05.000Z</time>
      </trkpt>
      <trkpt lat="45.95703" lon="6.56566">
        <ele>2034</ele>
        <time>2018-03-24T10:29:15.000Z</time>
      </trkpt>
      <trkpt lat="45.95704" lon="6.56561">
        <ele>2035.1999511719</ele>
        <time>2018-03-24T10:29:22.000Z</time>
      </trkpt>
      <trkpt lat="45.95703" lon="6.56568">
        <ele>2036.4000244141</ele>
        <time>2018-03-24T10:29:30.000Z</time>
      </trkpt>
      <trkpt lat="45.95697" lon="6.56585">
        <ele>2037.5999755859</ele>
        <time>2018-03-24T10:29:48.000Z</time>
      </trkpt>
      <trkpt lat="45.9569" lon="6.56585">
        <ele>2038.5999755859</ele>
        <time>2018-03-24T10:29:58.000Z</time>
      </trkpt>
      <trkpt lat="45.95688" lon="6.56583">
        <ele>2039.8000488281</ele>
        <time>2018-03-24T10:30:03.000Z</time>
      </trkpt>
      <trkpt lat="45.95686" lon="6.5658">
        <ele>2040.8000488281</ele>
        <time>2018-03-24T10:30:11.000Z</time>
      </trkpt>
      <trkpt lat="45.95679" lon="6.56577">
        <ele>2042</ele>
        <time>2018-03-24T10:30:19.000Z</time>
      </trkpt>
      <trkpt lat="45.95676" lon="6.5658">
        <ele>2043.1999511719</ele>
        <time>2018-03-24T10:30:27.000Z</time>
      </trkpt>
      <trkpt lat="45.95673" lon="6.56583">
        <ele>2044.4000244141</ele>
        <time>2018-03-24T10:30:35.000Z</time>
      </trkpt>
      <trkpt lat="45.95673" lon="6.56587">
        <ele>2045.4000244141</ele>
        <time>2018-03-24T10:30:40.000Z</time>
      </trkpt>
      <trkpt lat="45.95671" lon="6.56588">
        <ele>2046.4000244141</ele>
        <time>2018-03-24T10:30:50.000Z</time>
      </trkpt>
      <trkpt lat="45.95671" lon="6.56589">
        <ele>2047.4000244141</ele>
        <time>2018-03-24T10:30:57.000Z</time>
      </trkpt>
      <trkpt lat="45.95671" lon="6.5659">
        <ele>2048.6000976562</ele>
        <time>2018-03-24T10:31:01.000Z</time>
      </trkpt>
      <trkpt lat="45.95667" lon="6.56592">
        <ele>2049.3999023438</ele>
        <time>2018-03-24T10:31:08.000Z</time>
      </trkpt>
      <trkpt lat="45.95667" lon="6.56592">
        <ele>2049.6000976562</ele>
        <time>2018-03-24T10:31:09.000Z</time>
      </trkpt>
      <trkpt lat="45.95659" lon="6.56601">
        <ele>2050.6000976562</ele>
        <time>2018-03-24T10:31:20.000Z</time>
      </trkpt>
      <trkpt lat="45.95657" lon="6.56604">
        <ele>2050.6000976562</ele>
        <time>2018-03-24T10:31:23.000Z</time>
      </trkpt>
      <trkpt lat="45.95657" lon="6.56604">
        <ele>2050.6000976562</ele>
        <time>2018-03-24T10:31:24.000Z</time>
      </trkpt>
      <trkpt lat="45.95657" lon="6.56606">
        <ele>2051.8000488281</ele>
        <time>2018-03-24T10:31:32.000Z</time>
      </trkpt>
      <trkpt lat="45.95653" lon="6.56599">
        <ele>2053</ele>
        <time>2018-03-24T10:31:38.000Z</time>
      </trkpt>
      <trkpt lat="45.95649" lon="6.56596">
        <ele>2054</ele>
        <time>2018-03-24T10:31:45.000Z</time>
      </trkpt>
      <trkpt lat="45.95645" lon="6.566">
        <ele>2055.1999511719</ele>
        <time>2018-03-24T10:31:53.000Z</time>
      </trkpt>
      <trkpt lat="45.95647" lon="6.56604">
        <ele>2056.1999511719</ele>
        <time>2018-03-24T10:31:59.000Z</time>
      </trkpt>
      <trkpt lat="45.95644" lon="6.56611">
        <ele>2057.1999511719</ele>
        <time>2018-03-24T10:32:06.000Z</time>
      </trkpt>
      <trkpt lat="45.9564" lon="6.56615">
        <ele>2058.1999511719</ele>
        <time>2018-03-24T10:32:13.000Z</time>
      </trkpt>
      <trkpt lat="45.95636" lon="6.56618">
        <ele>2059.3999023438</ele>
        <time>2018-03-24T10:32:23.000Z</time>
      </trkpt>
      <trkpt lat="45.95628" lon="6.56615">
        <ele>2060.3999023438</ele>
        <time>2018-03-24T10:32:32.000Z</time>
      </trkpt>
      <trkpt lat="45.95627" lon="6.56602">
        <ele>2061.3999023438</ele>
        <time>2018-03-24T10:32:40.000Z</time>
      </trkpt>
      <trkpt lat="45.95627" lon="6.566">
        <ele>2061.6000976562</ele>
        <time>2018-03-24T10:32:41.000Z</time>
      </trkpt>
      <trkpt lat="45.95628" lon="6.56596">
        <ele>2062.3999023438</ele>
        <time>2018-03-24T10:32:49.000Z</time>
      </trkpt>
      <trkpt lat="45.95628" lon="6.56596">
        <ele>2062.3999023438</ele>
        <time>2018-03-24T10:32:50.000Z</time>
      </trkpt>
      <trkpt lat="45.95627" lon="6.56592">
        <ele>2063.6000976562</ele>
        <time>2018-03-24T10:32:59.000Z</time>
      </trkpt>
      <trkpt lat="45.95627" lon="6.56591">
        <ele>2064.6000976562</ele>
        <time>2018-03-24T10:33:03.000Z</time>
      </trkpt>
      <trkpt lat="45.95625" lon="6.56583">
        <ele>2065.8000488281</ele>
        <time>2018-03-24T10:33:13.000Z</time>
      </trkpt>
      <trkpt lat="45.95621" lon="6.56577">
        <ele>2067</ele>
        <time>2018-03-24T10:33:23.000Z</time>
      </trkpt>
      <trkpt lat="45.9562" lon="6.56571">
        <ele>2068</ele>
        <time>2018-03-24T10:33:31.000Z</time>
      </trkpt>
      <trkpt lat="45.9562" lon="6.56563">
        <ele>2069.1999511719</ele>
        <time>2018-03-24T10:33:38.000Z</time>
      </trkpt>
      <trkpt lat="45.9562" lon="6.56554">
        <ele>2070.3999023438</ele>
        <time>2018-03-24T10:33:45.000Z</time>
      </trkpt>
      <trkpt lat="45.95621" lon="6.56547">
        <ele>2071.3999023438</ele>
        <time>2018-03-24T10:33:53.000Z</time>
      </trkpt>
      <trkpt lat="45.95626" lon="6.56537">
        <ele>2072.6000976562</ele>
        <time>2018-03-24T10:33:59.000Z</time>
      </trkpt>
      <trkpt lat="45.95624" lon="6.56536">
        <ele>2073.8000488281</ele>
        <time>2018-03-24T10:34:07.000Z</time>
      </trkpt>
      <trkpt lat="45.95623" lon="6.56546">
        <ele>2074.8000488281</ele>
        <time>2018-03-24T10:34:17.000Z</time>
      </trkpt>
      <trkpt lat="45.95622" lon="6.56553">
        <ele>2075.3999023438</ele>
        <time>2018-03-24T10:34:21.000Z</time>
      </trkpt>
      <trkpt lat="45.9562" lon="6.56556">
        <ele>2076</ele>
        <time>2018-03-24T10:34:24.000Z</time>
      </trkpt>
      <trkpt lat="45.95616" lon="6.5656">
        <ele>2077</ele>
        <time>2018-03-24T10:34:37.000Z</time>
      </trkpt>
      <trkpt lat="45.95611" lon="6.56558">
        <ele>2078.1999511719</ele>
        <time>2018-03-24T10:34:44.000Z</time>
      </trkpt>
      <trkpt lat="45.95608" lon="6.56557">
        <ele>2079.1999511719</ele>
        <time>2018-03-24T10:34:49.000Z</time>
      </trkpt>
      <trkpt lat="45.95605" lon="6.56555">
        <ele>2080.1999511719</ele>
        <time>2018-03-24T10:34:58.000Z</time>
      </trkpt>
      <trkpt lat="45.95602" lon="6.56554">
        <ele>2081.3999023438</ele>
        <time>2018-03-24T10:35:04.000Z</time>
      </trkpt>
      <trkpt lat="45.95599" lon="6.56558">
        <ele>2082.3999023438</ele>
        <time>2018-03-24T10:35:13.000Z</time>
      </trkpt>
      <trkpt lat="45.95598" lon="6.5656">
        <ele>2083.3999023438</ele>
        <time>2018-03-24T10:35:21.000Z</time>
      </trkpt>
      <trkpt lat="45.95597" lon="6.56559">
        <ele>2084.3999023438</ele>
        <time>2018-03-24T10:35:27.000Z</time>
      </trkpt>
      <trkpt lat="45.95591" lon="6.56546">
        <ele>2085.6000976562</ele>
        <time>2018-03-24T10:35:40.000Z</time>
      </trkpt>
      <trkpt lat="45.9559" lon="6.56538">
        <ele>2086.6000976562</ele>
        <time>2018-03-24T10:35:47.000Z</time>
      </trkpt>
      <trkpt lat="45.95588" lon="6.56529">
        <ele>2087.8000488281</ele>
        <time>2018-03-24T10:35:58.000Z</time>
      </trkpt>
      <trkpt lat="45.95585" lon="6.56526">
        <ele>2088.8000488281</ele>
        <time>2018-03-24T10:36:05.000Z</time>
      </trkpt>
      <trkpt lat="45.95583" lon="6.56532">
        <ele>2089.8000488281</ele>
        <time>2018-03-24T10:36:16.000Z</time>
      </trkpt>
      <trkpt lat="45.95583" lon="6.56535">
        <ele>2091</ele>
        <time>2018-03-24T10:36:21.000Z</time>
      </trkpt>
      <trkpt lat="45.95583" lon="6.56545">
        <ele>2092.1999511719</ele>
        <time>2018-03-24T10:36:30.000Z</time>
      </trkpt>
      <trkpt lat="45.95577" lon="6.56549">
        <ele>2093.3999023438</ele>
        <time>2018-03-24T10:36:37.000Z</time>
      </trkpt>
      <trkpt lat="45.95576" lon="6.56547">
        <ele>2094.3999023438</ele>
        <time>2018-03-24T10:36:46.000Z</time>
      </trkpt>
      <trkpt lat="45.9556" lon="6.56548">
        <ele>2095.1999511719</ele>
        <time>2018-03-24T10:37:15.000Z</time>
      </trkpt>
      <trkpt lat="45.95567" lon="6.56539">
        <ele>2095.3999023438</ele>
        <time>2018-03-24T10:37:26.000Z</time>
      </trkpt>
      <trkpt lat="45.95569" lon="6.56529">
        <ele>2095.6000976562</ele>
        <time>2018-03-24T10:37:55.000Z</time>
      </trkpt>
      <trkpt lat="45.95568" lon="6.56539">
        <ele>2095.3999023438</ele>
        <time>2018-03-24T10:38:00.000Z</time>
      </trkpt>
      <trkpt lat="45.95569" lon="6.56543">
        <ele>2095.1999511719</ele>
        <time>2018-03-24T10:38:03.000Z</time>
      </trkpt>
      <trkpt lat="45.95565" lon="6.56552">
        <ele>2094.1999511719</ele>
        <time>2018-03-24T10:38:11.000Z</time>
      </trkpt>
      <trkpt lat="45.95562" lon="6.56554">
        <ele>2094</ele>
        <time>2018-03-24T10:38:14.000Z</time>
      </trkpt>
      <trkpt lat="45.95563" lon="6.56538">
        <ele>2095.3999023438</ele>
        <time>2018-03-24T10:38:47.000Z</time>
      </trkpt>
      <trkpt lat="45.95564" lon="6.56544">
        <ele>2096.6000976562</ele>
        <time>2018-03-24T10:38:53.000Z</time>
      </trkpt>
      <trkpt lat="45.9556" lon="6.56547">
        <ele>2097.6000976562</ele>
        <time>2018-03-24T10:39:00.000Z</time>
      </trkpt>
      <trkpt lat="45.95559" lon="6.56547">
        <ele>2098.6000976562</ele>
        <time>2018-03-24T10:39:05.000Z</time>
      </trkpt>
      <trkpt lat="45.95557" lon="6.56549">
        <ele>2099.8000488281</ele>
        <time>2018-03-24T10:39:13.000Z</time>
      </trkpt>
      <trkpt lat="45.95551" lon="6.56559">
        <ele>2100.8000488281</ele>
        <time>2018-03-24T10:39:23.000Z</time>
      </trkpt>
      <trkpt lat="45.95546" lon="6.56564">
        <ele>2102</ele>
        <time>2018-03-24T10:39:34.000Z</time>
      </trkpt>
      <trkpt lat="45.95544" lon="6.56564">
        <ele>2103</ele>
        <time>2018-03-24T10:39:40.000Z</time>
      </trkpt>
      <trkpt lat="45.95539" lon="6.56565">
        <ele>2104</ele>
        <time>2018-03-24T10:39:48.000Z</time>
      </trkpt>
      <trkpt lat="45.95535" lon="6.56566">
        <ele>2105.1999511719</ele>
        <time>2018-03-24T10:39:59.000Z</time>
      </trkpt>
      <trkpt lat="45.95532" lon="6.56569">
        <ele>2106.3999023438</ele>
        <time>2018-03-24T10:40:10.000Z</time>
      </trkpt>
      <trkpt lat="45.9553" lon="6.56563">
        <ele>2107.3999023438</ele>
        <time>2018-03-24T10:40:18.000Z</time>
      </trkpt>
      <trkpt lat="45.95525" lon="6.56553">
        <ele>2108.3999023438</ele>
        <time>2018-03-24T10:40:29.000Z</time>
      </trkpt>
      <trkpt lat="45.95526" lon="6.56543">
        <ele>2109.3999023438</ele>
        <time>2018-03-24T10:40:39.000Z</time>
      </trkpt>
      <trkpt lat="45.95523" lon="6.56538">
        <ele>2110.6000976562</ele>
        <time>2018-03-24T10:40:52.000Z</time>
      </trkpt>
      <trkpt lat="45.95523" lon="6.56533">
        <ele>2111.3999023438</ele>
        <time>2018-03-24T10:40:59.000Z</time>
      </trkpt>
      <trkpt lat="45.95523" lon="6.56531">
        <ele>2111.8000488281</ele>
        <time>2018-03-24T10:41:02.000Z</time>
      </trkpt>
      <trkpt lat="45.95522" lon="6.56527">
        <ele>2112.8000488281</ele>
        <time>2018-03-24T10:41:10.000Z</time>
      </trkpt>
      <trkpt lat="45.95521" lon="6.56521">
        <ele>2114</ele>
        <time>2018-03-24T10:41:16.000Z</time>
      </trkpt>
      <trkpt lat="45.95509" lon="6.56531">
        <ele>2114.8000488281</ele>
        <time>2018-03-24T10:41:57.000Z</time>
      </trkpt>
      <trkpt lat="45.95512" lon="6.56529">
        <ele>2114.8000488281</ele>
        <time>2018-03-24T10:42:12.000Z</time>
      </trkpt>
      <trkpt lat="45.95512" lon="6.56528">
        <ele>2115</ele>
        <time>2018-03-24T10:42:13.000Z</time>
      </trkpt>
      <trkpt lat="45.95511" lon="6.56535">
        <ele>2114.8000488281</ele>
        <time>2018-03-24T10:43:02.000Z</time>
      </trkpt>
      <trkpt lat="45.95515" lon="6.56529">
        <ele>2114.1999511719</ele>
        <time>2018-03-24T10:43:21.000Z</time>
      </trkpt>
      <trkpt lat="45.95516" lon="6.56527">
        <ele>2114.1999511719</ele>
        <time>2018-03-24T10:43:23.000Z</time>
      </trkpt>
      <trkpt lat="45.95518" lon="6.56533">
        <ele>2115</ele>
        <time>2018-03-24T10:43:52.000Z</time>
      </trkpt>
      <trkpt lat="45.95517" lon="6.56537">
        <ele>2115.6000976562</ele>
        <time>2018-03-24T10:43:55.000Z</time>
      </trkpt>
      <trkpt lat="45.95517" lon="6.56539">
        <ele>2115.8000488281</ele>
        <time>2018-03-24T10:43:57.000Z</time>
      </trkpt>
      <trkpt lat="45.95516" lon="6.56539">
        <ele>2116</ele>
        <time>2018-03-24T10:43:58.000Z</time>
      </trkpt>
      <trkpt lat="45.95513" lon="6.56544">
        <ele>2117</ele>
        <time>2018-03-24T10:44:07.000Z</time>
      </trkpt>
      <trkpt lat="45.95512" lon="6.56546">
        <ele>2118.1999511719</ele>
        <time>2018-03-24T10:44:13.000Z</time>
      </trkpt>
      <trkpt lat="45.9551" lon="6.56548">
        <ele>2119.3999023438</ele>
        <time>2018-03-24T10:44:23.000Z</time>
      </trkpt>
      <trkpt lat="45.95508" lon="6.56553">
        <ele>2120.3999023438</ele>
        <time>2018-03-24T10:44:33.000Z</time>
      </trkpt>
      <trkpt lat="45.95506" lon="6.56555">
        <ele>2121.6000976562</ele>
        <time>2018-03-24T10:44:40.000Z</time>
      </trkpt>
      <trkpt lat="45.95503" lon="6.56558">
        <ele>2122.6000976562</ele>
        <time>2018-03-24T10:44:52.000Z</time>
      </trkpt>
      <trkpt lat="45.955" lon="6.56552">
        <ele>2123.6000976562</ele>
        <time>2018-03-24T10:45:02.000Z</time>
      </trkpt>
      <trkpt lat="45.95497" lon="6.5655">
        <ele>2124.8000488281</ele>
        <time>2018-03-24T10:45:07.000Z</time>
      </trkpt>
      <trkpt lat="45.95492" lon="6.56546">
        <ele>2125.8000488281</ele>
        <time>2018-03-24T10:45:17.000Z</time>
      </trkpt>
      <trkpt lat="45.95493" lon="6.56544">
        <ele>2126.8000488281</ele>
        <time>2018-03-24T10:45:25.000Z</time>
      </trkpt>
      <trkpt lat="45.95491" lon="6.56542">
        <ele>2128</ele>
        <time>2018-03-24T10:45:33.000Z</time>
      </trkpt>
      <trkpt lat="45.95491" lon="6.56548">
        <ele>2129</ele>
        <time>2018-03-24T10:45:48.000Z</time>
      </trkpt>
      <trkpt lat="45.95491" lon="6.56555">
        <ele>2130.1999511719</ele>
        <time>2018-03-24T10:45:58.000Z</time>
      </trkpt>
      <trkpt lat="45.95491" lon="6.5656">
        <ele>2131.1999511719</ele>
        <time>2018-03-24T10:46:05.000Z</time>
      </trkpt>
      <trkpt lat="45.9549" lon="6.56565">
        <ele>2132.3999023438</ele>
        <time>2018-03-24T10:46:15.000Z</time>
      </trkpt>
      <trkpt lat="45.95489" lon="6.56569">
        <ele>2133.3999023438</ele>
        <time>2018-03-24T10:46:24.000Z</time>
      </trkpt>
      <trkpt lat="45.95487" lon="6.56574">
        <ele>2134.3999023438</ele>
        <time>2018-03-24T10:46:31.000Z</time>
      </trkpt>
      <trkpt lat="45.95483" lon="6.56571">
        <ele>2135.6000976562</ele>
        <time>2018-03-24T10:46:45.000Z</time>
      </trkpt>
      <trkpt lat="45.95479" lon="6.56568">
        <ele>2136.6000976562</ele>
        <time>2018-03-24T10:46:52.000Z</time>
      </trkpt>
      <trkpt lat="45.95477" lon="6.56564">
        <ele>2137.6000976562</ele>
        <time>2018-03-24T10:47:01.000Z</time>
      </trkpt>
      <trkpt lat="45.95474" lon="6.56561">
        <ele>2138.8000488281</ele>
        <time>2018-03-24T10:47:09.000Z</time>
      </trkpt>
      <trkpt lat="45.95471" lon="6.56559">
        <ele>2139.8000488281</ele>
        <time>2018-03-24T10:47:15.000Z</time>
      </trkpt>
      <trkpt lat="45.95471" lon="6.56566">
        <ele>2140.8000488281</ele>
        <time>2018-03-24T10:47:29.000Z</time>
      </trkpt>
      <trkpt lat="45.9547" lon="6.56571">
        <ele>2142</ele>
        <time>2018-03-24T10:47:38.000Z</time>
      </trkpt>
      <trkpt lat="45.95468" lon="6.56579">
        <ele>2143.1999511719</ele>
        <time>2018-03-24T10:47:49.000Z</time>
      </trkpt>
      <trkpt lat="45.95468" lon="6.56586">
        <ele>2144.1999511719</ele>
        <time>2018-03-24T10:47:55.000Z</time>
      </trkpt>
      <trkpt lat="45.95465" lon="6.56591">
        <ele>2145.3999023438</ele>
        <time>2018-03-24T10:48:04.000Z</time>
      </trkpt>
      <trkpt lat="45.95464" lon="6.56586">
        <ele>2146.3999023438</ele>
        <time>2018-03-24T10:48:16.000Z</time>
      </trkpt>
      <trkpt lat="45.95462" lon="6.56582">
        <ele>2147.6000976562</ele>
        <time>2018-03-24T10:48:21.000Z</time>
      </trkpt>
      <trkpt lat="45.9546" lon="6.56578">
        <ele>2148.8000488281</ele>
        <time>2018-03-24T10:48:28.000Z</time>
      </trkpt>
      <trkpt lat="45.95458" lon="6.56575">
        <ele>2149.8000488281</ele>
        <time>2018-03-24T10:48:34.000Z</time>
      </trkpt>
      <trkpt lat="45.95456" lon="6.56573">
        <ele>2150.8000488281</ele>
        <time>2018-03-24T10:48:40.000Z</time>
      </trkpt>
      <trkpt lat="45.95453" lon="6.56571">
        <ele>2152</ele>
        <time>2018-03-24T10:48:48.000Z</time>
      </trkpt>
      <trkpt lat="45.95452" lon="6.56571">
        <ele>2153.1999511719</ele>
        <time>2018-03-24T10:48:55.000Z</time>
      </trkpt>
      <trkpt lat="45.95451" lon="6.56576">
        <ele>2154.1999511719</ele>
        <time>2018-03-24T10:49:10.000Z</time>
      </trkpt>
      <trkpt lat="45.95451" lon="6.56582">
        <ele>2155.3999023438</ele>
        <time>2018-03-24T10:49:20.000Z</time>
      </trkpt>
      <trkpt lat="45.95451" lon="6.56587">
        <ele>2156.3999023438</ele>
        <time>2018-03-24T10:49:27.000Z</time>
      </trkpt>
      <trkpt lat="45.9545" lon="6.56593">
        <ele>2157.6000976562</ele>
        <time>2018-03-24T10:49:38.000Z</time>
      </trkpt>
      <trkpt lat="45.95447" lon="6.56589">
        <ele>2158.6000976562</ele>
        <time>2018-03-24T10:49:51.000Z</time>
      </trkpt>
      <trkpt lat="45.95444" lon="6.56584">
        <ele>2159.8000488281</ele>
        <time>2018-03-24T10:50:02.000Z</time>
      </trkpt>
      <trkpt lat="45.95441" lon="6.56581">
        <ele>2161</ele>
        <time>2018-03-24T10:50:09.000Z</time>
      </trkpt>
      <trkpt lat="45.95438" lon="6.5658">
        <ele>2162</ele>
        <time>2018-03-24T10:50:16.000Z</time>
      </trkpt>
      <trkpt lat="45.95438" lon="6.56581">
        <ele>2163</ele>
        <time>2018-03-24T10:50:23.000Z</time>
      </trkpt>
      <trkpt lat="45.95437" lon="6.56585">
        <ele>2164.1999511719</ele>
        <time>2018-03-24T10:50:38.000Z</time>
      </trkpt>
      <trkpt lat="45.95436" lon="6.56596">
        <ele>2165.1999511719</ele>
        <time>2018-03-24T10:51:18.000Z</time>
      </trkpt>
      <trkpt lat="45.95435" lon="6.56599">
        <ele>2166.1999511719</ele>
        <time>2018-03-24T10:51:28.000Z</time>
      </trkpt>
      <trkpt lat="45.95433" lon="6.56595">
        <ele>2167.1999511719</ele>
        <time>2018-03-24T10:51:39.000Z</time>
      </trkpt>
      <trkpt lat="45.95432" lon="6.56595">
        <ele>2168.3999023438</ele>
        <time>2018-03-24T10:51:53.000Z</time>
      </trkpt>
      <trkpt lat="45.9543" lon="6.56597">
        <ele>2169.3999023438</ele>
        <time>2018-03-24T10:52:01.000Z</time>
      </trkpt>
      <trkpt lat="45.95429" lon="6.56603">
        <ele>2170.3999023438</ele>
        <time>2018-03-24T10:52:09.000Z</time>
      </trkpt>
      <trkpt lat="45.95427" lon="6.56611">
        <ele>2171.6000976562</ele>
        <time>2018-03-24T10:52:18.000Z</time>
      </trkpt>
      <trkpt lat="45.95426" lon="6.56615">
        <ele>2172.6000976562</ele>
        <time>2018-03-24T10:52:25.000Z</time>
      </trkpt>
      <trkpt lat="45.95424" lon="6.56619">
        <ele>2173.8000488281</ele>
        <time>2018-03-24T10:52:33.000Z</time>
      </trkpt>
      <trkpt lat="45.95424" lon="6.5662">
        <ele>2174.8000488281</ele>
        <time>2018-03-24T10:52:42.000Z</time>
      </trkpt>
      <trkpt lat="45.95421" lon="6.56615">
        <ele>2175.8000488281</ele>
        <time>2018-03-24T10:52:57.000Z</time>
      </trkpt>
      <trkpt lat="45.95419" lon="6.56612">
        <ele>2176.8000488281</ele>
        <time>2018-03-24T10:53:05.000Z</time>
      </trkpt>
      <trkpt lat="45.95417" lon="6.56607">
        <ele>2177.8000488281</ele>
        <time>2018-03-24T10:53:18.000Z</time>
      </trkpt>
      <trkpt lat="45.95415" lon="6.56603">
        <ele>2179</ele>
        <time>2018-03-24T10:53:30.000Z</time>
      </trkpt>
      <trkpt lat="45.95413" lon="6.566">
        <ele>2180</ele>
        <time>2018-03-24T10:53:41.000Z</time>
      </trkpt>
      <trkpt lat="45.95413" lon="6.56605">
        <ele>2181</ele>
        <time>2018-03-24T10:54:03.000Z</time>
      </trkpt>
      <trkpt lat="45.95414" lon="6.56609">
        <ele>2182.1999511719</ele>
        <time>2018-03-24T10:54:33.000Z</time>
      </trkpt>
      <trkpt lat="45.95409" lon="6.56602">
        <ele>2183.1999511719</ele>
        <time>2018-03-24T10:55:13.000Z</time>
      </trkpt>
      <trkpt lat="45.95408" lon="6.56601">
        <ele>2184.3999023438</ele>
        <time>2018-03-24T10:55:17.000Z</time>
      </trkpt>
      <trkpt lat="45.95408" lon="6.56605">
        <ele>2185.3999023438</ele>
        <time>2018-03-24T10:55:23.000Z</time>
      </trkpt>
      <trkpt lat="45.95408" lon="6.56612">
        <ele>2186.3999023438</ele>
        <time>2018-03-24T10:55:32.000Z</time>
      </trkpt>
      <trkpt lat="45.95408" lon="6.56618">
        <ele>2187.3999023438</ele>
        <time>2018-03-24T10:55:40.000Z</time>
      </trkpt>
      <trkpt lat="45.95407" lon="6.5662">
        <ele>2188.3999023438</ele>
        <time>2018-03-24T10:55:44.000Z</time>
      </trkpt>
      <trkpt lat="45.95406" lon="6.56631">
        <ele>2189.6000976562</ele>
        <time>2018-03-24T10:56:24.000Z</time>
      </trkpt>
      <trkpt lat="45.95404" lon="6.56637">
        <ele>2190.6000976562</ele>
        <time>2018-03-24T10:56:30.000Z</time>
      </trkpt>
      <trkpt lat="45.95404" lon="6.56638">
        <ele>2190.6000976562</ele>
        <time>2018-03-24T10:56:31.000Z</time>
      </trkpt>
      <trkpt lat="45.95405" lon="6.56641">
        <ele>2191.6000976562</ele>
        <time>2018-03-24T10:56:37.000Z</time>
      </trkpt>
      <trkpt lat="45.95404" lon="6.56648">
        <ele>2192.8000488281</ele>
        <time>2018-03-24T10:56:45.000Z</time>
      </trkpt>
      <trkpt lat="45.95403" lon="6.56651">
        <ele>2193.8000488281</ele>
        <time>2018-03-24T10:56:52.000Z</time>
      </trkpt>
      <trkpt lat="45.95403" lon="6.56654">
        <ele>2194.3999023438</ele>
        <time>2018-03-24T10:57:02.000Z</time>
      </trkpt>
      <trkpt lat="45.95404" lon="6.56656">
        <ele>2194.8000488281</ele>
        <time>2018-03-24T10:57:08.000Z</time>
      </trkpt>
      <trkpt lat="45.95403" lon="6.56665">
        <ele>2196</ele>
        <time>2018-03-24T10:57:18.000Z</time>
      </trkpt>
      <trkpt lat="45.95403" lon="6.56671">
        <ele>2197.1999511719</ele>
        <time>2018-03-24T10:57:24.000Z</time>
      </trkpt>
      <trkpt lat="45.95403" lon="6.56686">
        <ele>2198.1999511719</ele>
        <time>2018-03-24T10:57:38.000Z</time>
      </trkpt>
      <trkpt lat="45.95405" lon="6.56701">
        <ele>2199.1999511719</ele>
        <time>2018-03-24T10:57:58.000Z</time>
      </trkpt>
      <trkpt lat="45.95406" lon="6.56707">
        <ele>2200.3999023438</ele>
        <time>2018-03-24T10:58:05.000Z</time>
      </trkpt>
      <trkpt lat="45.95406" lon="6.56711">
        <ele>2201.6000976562</ele>
        <time>2018-03-24T10:58:12.000Z</time>
      </trkpt>
      <trkpt lat="45.95405" lon="6.56719">
        <ele>2202.6000976562</ele>
        <time>2018-03-24T10:58:22.000Z</time>
      </trkpt>
      <trkpt lat="45.95406" lon="6.56722">
        <ele>2203.6000976562</ele>
        <time>2018-03-24T10:58:27.000Z</time>
      </trkpt>
      <trkpt lat="45.95405" lon="6.56728">
        <ele>2204.6000976562</ele>
        <time>2018-03-24T10:58:34.000Z</time>
      </trkpt>
      <trkpt lat="45.95404" lon="6.56732">
        <ele>2205.6000976562</ele>
        <time>2018-03-24T10:58:40.000Z</time>
      </trkpt>
      <trkpt lat="45.95404" lon="6.56736">
        <ele>2206.8000488281</ele>
        <time>2018-03-24T10:58:48.000Z</time>
      </trkpt>
      <trkpt lat="45.95403" lon="6.56741">
        <ele>2208</ele>
        <time>2018-03-24T10:58:58.000Z</time>
      </trkpt>
      <trkpt lat="45.95403" lon="6.56747">
        <ele>2209.1999511719</ele>
        <time>2018-03-24T10:59:08.000Z</time>
      </trkpt>
      <trkpt lat="45.95402" lon="6.56751">
        <ele>2210.1999511719</ele>
        <time>2018-03-24T10:59:14.000Z</time>
      </trkpt>
      <trkpt lat="45.95401" lon="6.56756">
        <ele>2211.1999511719</ele>
        <time>2018-03-24T10:59:23.000Z</time>
      </trkpt>
      <trkpt lat="45.954" lon="6.56763">
        <ele>2212.1999511719</ele>
        <time>2018-03-24T10:59:33.000Z</time>
      </trkpt>
      <trkpt lat="45.954" lon="6.56769">
        <ele>2213.3999023438</ele>
        <time>2018-03-24T10:59:41.000Z</time>
      </trkpt>
      <trkpt lat="45.95399" lon="6.56774">
        <ele>2214.3999023438</ele>
        <time>2018-03-24T10:59:48.000Z</time>
      </trkpt>
      <trkpt lat="45.95399" lon="6.56776">
        <ele>2215.6000976562</ele>
        <time>2018-03-24T10:59:54.000Z</time>
      </trkpt>
      <trkpt lat="45.954" lon="6.56782">
        <ele>2216.6000976562</ele>
        <time>2018-03-24T11:00:05.000Z</time>
      </trkpt>
      <trkpt lat="45.954" lon="6.56784">
        <ele>2217.3999023438</ele>
        <time>2018-03-24T11:00:08.000Z</time>
      </trkpt>
      <trkpt lat="45.954" lon="6.56785">
        <ele>2217.8000488281</ele>
        <time>2018-03-24T11:00:10.000Z</time>
      </trkpt>
      <trkpt lat="45.95398" lon="6.56787">
        <ele>2219</ele>
        <time>2018-03-24T11:00:17.000Z</time>
      </trkpt>
      <trkpt lat="45.95398" lon="6.56792">
        <ele>2220.1999511719</ele>
        <time>2018-03-24T11:00:26.000Z</time>
      </trkpt>
      <trkpt lat="45.95397" lon="6.56796">
        <ele>2221.1999511719</ele>
        <time>2018-03-24T11:00:34.000Z</time>
      </trkpt>
      <trkpt lat="45.95397" lon="6.56801">
        <ele>2222.3999023438</ele>
        <time>2018-03-24T11:00:43.000Z</time>
      </trkpt>
      <trkpt lat="45.95397" lon="6.56804">
        <ele>2223.3999023438</ele>
        <time>2018-03-24T11:00:49.000Z</time>
      </trkpt>
      <trkpt lat="45.95396" lon="6.56809">
        <ele>2224.6000976562</ele>
        <time>2018-03-24T11:00:59.000Z</time>
      </trkpt>
      <trkpt lat="45.95396" lon="6.56813">
        <ele>2225.6000976562</ele>
        <time>2018-03-24T11:01:07.000Z</time>
      </trkpt>
      <trkpt lat="45.95395" lon="6.56815">
        <ele>2226.8000488281</ele>
        <time>2018-03-24T11:01:17.000Z</time>
      </trkpt>
      <trkpt lat="45.95393" lon="6.5682">
        <ele>2228</ele>
        <time>2018-03-24T11:01:26.000Z</time>
      </trkpt>
      <trkpt lat="45.95393" lon="6.56825">
        <ele>2229</ele>
        <time>2018-03-24T11:01:33.000Z</time>
      </trkpt>
      <trkpt lat="45.95393" lon="6.56828">
        <ele>2230.1999511719</ele>
        <time>2018-03-24T11:01:39.000Z</time>
      </trkpt>
      <trkpt lat="45.95393" lon="6.56828">
        <ele>2231.1999511719</ele>
        <time>2018-03-24T11:02:35.000Z</time>
      </trkpt>
      <trkpt lat="45.95392" lon="6.56831">
        <ele>2231.3999023438</ele>
        <time>2018-03-24T11:02:41.000Z</time>
      </trkpt>
      <trkpt lat="45.95392" lon="6.56835">
        <ele>2232.3999023438</ele>
        <time>2018-03-24T11:02:47.000Z</time>
      </trkpt>
      <trkpt lat="45.95392" lon="6.5684">
        <ele>2233.6000976562</ele>
        <time>2018-03-24T11:02:56.000Z</time>
      </trkpt>
      <trkpt lat="45.95393" lon="6.56846">
        <ele>2234.6000976562</ele>
        <time>2018-03-24T11:03:03.000Z</time>
      </trkpt>
      <trkpt lat="45.95393" lon="6.5685">
        <ele>2235.6000976562</ele>
        <time>2018-03-24T11:03:09.000Z</time>
      </trkpt>
      <trkpt lat="45.95392" lon="6.5686">
        <ele>2236.6000976562</ele>
        <time>2018-03-24T11:03:21.000Z</time>
      </trkpt>
      <trkpt lat="45.95392" lon="6.56866">
        <ele>2237.8000488281</ele>
        <time>2018-03-24T11:03:29.000Z</time>
      </trkpt>
      <trkpt lat="45.95391" lon="6.56869">
        <ele>2238.8000488281</ele>
        <time>2018-03-24T11:03:35.000Z</time>
      </trkpt>
      <trkpt lat="45.95391" lon="6.56875">
        <ele>2239.8000488281</ele>
        <time>2018-03-24T11:03:44.000Z</time>
      </trkpt>
      <trkpt lat="45.95392" lon="6.56879">
        <ele>2241</ele>
        <time>2018-03-24T11:03:52.000Z</time>
      </trkpt>
      <trkpt lat="45.95391" lon="6.56885">
        <ele>2242.1999511719</ele>
        <time>2018-03-24T11:04:01.000Z</time>
      </trkpt>
      <trkpt lat="45.95391" lon="6.5689">
        <ele>2243.1999511719</ele>
        <time>2018-03-24T11:04:08.000Z</time>
      </trkpt>
      <trkpt lat="45.9539" lon="6.56896">
        <ele>2244.3999023438</ele>
        <time>2018-03-24T11:04:20.000Z</time>
      </trkpt>
      <trkpt lat="45.9539" lon="6.569">
        <ele>2245.3999023438</ele>
        <time>2018-03-24T11:04:31.000Z</time>
      </trkpt>
      <trkpt lat="45.9539" lon="6.56903">
        <ele>2246.6000976562</ele>
        <time>2018-03-24T11:04:41.000Z</time>
      </trkpt>
      <trkpt lat="45.95388" lon="6.56909">
        <ele>2247.6000976562</ele>
        <time>2018-03-24T11:04:58.000Z</time>
      </trkpt>
      <trkpt lat="45.95388" lon="6.56913">
        <ele>2248.6000976562</ele>
        <time>2018-03-24T11:05:05.000Z</time>
      </trkpt>
      <trkpt lat="45.95388" lon="6.56918">
        <ele>2249.8000488281</ele>
        <time>2018-03-24T11:05:24.000Z</time>
      </trkpt>
      <trkpt lat="45.95387" lon="6.56924">
        <ele>2250.8000488281</ele>
        <time>2018-03-24T11:05:35.000Z</time>
      </trkpt>
      <trkpt lat="45.95386" lon="6.56928">
        <ele>2252</ele>
        <time>2018-03-24T11:05:44.000Z</time>
      </trkpt>
      <trkpt lat="45.95385" lon="6.56935">
        <ele>2253</ele>
        <time>2018-03-24T11:05:55.000Z</time>
      </trkpt>
      <trkpt lat="45.95385" lon="6.56937">
        <ele>2254.1999511719</ele>
        <time>2018-03-24T11:06:02.000Z</time>
      </trkpt>
      <trkpt lat="45.95386" lon="6.56942">
        <ele>2255.1999511719</ele>
        <time>2018-03-24T11:06:13.000Z</time>
      </trkpt>
      <trkpt lat="45.95386" lon="6.56948">
        <ele>2256.1999511719</ele>
        <time>2018-03-24T11:06:27.000Z</time>
      </trkpt>
      <trkpt lat="45.95387" lon="6.56953">
        <ele>2257.1999511719</ele>
        <time>2018-03-24T11:06:35.000Z</time>
      </trkpt>
      <trkpt lat="45.95386" lon="6.56957">
        <ele>2258.3999023438</ele>
        <time>2018-03-24T11:06:42.000Z</time>
      </trkpt>
      <trkpt lat="45.95386" lon="6.56965">
        <ele>2259.3999023438</ele>
        <time>2018-03-24T11:06:53.000Z</time>
      </trkpt>
      <trkpt lat="45.95386" lon="6.56967">
        <ele>2260.6000976562</ele>
        <time>2018-03-24T11:06:59.000Z</time>
      </trkpt>
      <trkpt lat="45.95387" lon="6.56972">
        <ele>2261.6000976562</ele>
        <time>2018-03-24T11:07:10.000Z</time>
      </trkpt>
      <trkpt lat="45.95387" lon="6.56975">
        <ele>2262.6000976562</ele>
        <time>2018-03-24T11:07:16.000Z</time>
      </trkpt>
      <trkpt lat="45.95387" lon="6.56978">
        <ele>2263.6000976562</ele>
        <time>2018-03-24T11:07:23.000Z</time>
      </trkpt>
      <trkpt lat="45.95387" lon="6.56982">
        <ele>2264.8000488281</ele>
        <time>2018-03-24T11:07:30.000Z</time>
      </trkpt>
      <trkpt lat="45.95387" lon="6.56987">
        <ele>2266</ele>
        <time>2018-03-24T11:07:41.000Z</time>
      </trkpt>
      <trkpt lat="45.95387" lon="6.5699">
        <ele>2267</ele>
        <time>2018-03-24T11:07:47.000Z</time>
      </trkpt>
      <trkpt lat="45.95386" lon="6.56996">
        <ele>2268</ele>
        <time>2018-03-24T11:07:56.000Z</time>
      </trkpt>
      <trkpt lat="45.95387" lon="6.56999">
        <ele>2269.1999511719</ele>
        <time>2018-03-24T11:08:03.000Z</time>
      </trkpt>
      <trkpt lat="45.95386" lon="6.57003">
        <ele>2270.1999511719</ele>
        <time>2018-03-24T11:08:10.000Z</time>
      </trkpt>
      <trkpt lat="45.95386" lon="6.57009">
        <ele>2271.3999023438</ele>
        <time>2018-03-24T11:08:21.000Z</time>
      </trkpt>
      <trkpt lat="45.95387" lon="6.57013">
        <ele>2272.3999023438</ele>
        <time>2018-03-24T11:08:28.000Z</time>
      </trkpt>
      <trkpt lat="45.95387" lon="6.57017">
        <ele>2273.6000976562</ele>
        <time>2018-03-24T11:08:36.000Z</time>
      </trkpt>
      <trkpt lat="45.95387" lon="6.57021">
        <ele>2274.6000976562</ele>
        <time>2018-03-24T11:08:45.000Z</time>
      </trkpt>
      <trkpt lat="45.95387" lon="6.57025">
        <ele>2275.8000488281</ele>
        <time>2018-03-24T11:08:53.000Z</time>
      </trkpt>
      <trkpt lat="45.95387" lon="6.57026">
        <ele>2275.8000488281</ele>
        <time>2018-03-24T11:08:54.000Z</time>
      </trkpt>
      <trkpt lat="45.95386" lon="6.5703">
        <ele>2276.8000488281</ele>
        <time>2018-03-24T11:09:02.000Z</time>
      </trkpt>
      <trkpt lat="45.95385" lon="6.57034">
        <ele>2278</ele>
        <time>2018-03-24T11:09:11.000Z</time>
      </trkpt>
      <trkpt lat="45.95385" lon="6.57038">
        <ele>2279.1999511719</ele>
        <time>2018-03-24T11:09:19.000Z</time>
      </trkpt>
      <trkpt lat="45.95386" lon="6.57041">
        <ele>2280.1999511719</ele>
        <time>2018-03-24T11:09:26.000Z</time>
      </trkpt>
      <trkpt lat="45.95386" lon="6.57046">
        <ele>2281.3999023438</ele>
        <time>2018-03-24T11:09:35.000Z</time>
      </trkpt>
      <trkpt lat="45.95386" lon="6.57051">
        <ele>2282.3999023438</ele>
        <time>2018-03-24T11:09:44.000Z</time>
      </trkpt>
      <trkpt lat="45.95386" lon="6.57055">
        <ele>2283.6000976562</ele>
        <time>2018-03-24T11:09:52.000Z</time>
      </trkpt>
      <trkpt lat="45.95385" lon="6.57059">
        <ele>2284.6000976562</ele>
        <time>2018-03-24T11:10:00.000Z</time>
      </trkpt>
      <trkpt lat="45.95384" lon="6.57063">
        <ele>2285.8000488281</ele>
        <time>2018-03-24T11:10:08.000Z</time>
      </trkpt>
      <trkpt lat="45.95384" lon="6.57067">
        <ele>2286.8000488281</ele>
        <time>2018-03-24T11:10:16.000Z</time>
      </trkpt>
      <trkpt lat="45.95384" lon="6.57071">
        <ele>2287.8000488281</ele>
        <time>2018-03-24T11:10:22.000Z</time>
      </trkpt>
      <trkpt lat="45.95382" lon="6.57077">
        <ele>2288.8000488281</ele>
        <time>2018-03-24T11:10:32.000Z</time>
      </trkpt>
      <trkpt lat="45.95381" lon="6.57081">
        <ele>2290</ele>
        <time>2018-03-24T11:10:41.000Z</time>
      </trkpt>
      <trkpt lat="45.95378" lon="6.57085">
        <ele>2291.1999511719</ele>
        <time>2018-03-24T11:11:06.000Z</time>
      </trkpt>
      <trkpt lat="45.95378" lon="6.5709">
        <ele>2292.1999511719</ele>
        <time>2018-03-24T11:11:13.000Z</time>
      </trkpt>
      <trkpt lat="45.95378" lon="6.57094">
        <ele>2293.1999511719</ele>
        <time>2018-03-24T11:11:20.000Z</time>
      </trkpt>
      <trkpt lat="45.9538" lon="6.57098">
        <ele>2294.3999023438</ele>
        <time>2018-03-24T11:11:27.000Z</time>
      </trkpt>
      <trkpt lat="45.9538" lon="6.57101">
        <ele>2295.3999023438</ele>
        <time>2018-03-24T11:11:33.000Z</time>
      </trkpt>
      <trkpt lat="45.95378" lon="6.57105">
        <ele>2296.6000976562</ele>
        <time>2018-03-24T11:11:41.000Z</time>
      </trkpt>
      <trkpt lat="45.95377" lon="6.57109">
        <ele>2297.6000976562</ele>
        <time>2018-03-24T11:11:49.000Z</time>
      </trkpt>
      <trkpt lat="45.95376" lon="6.57113">
        <ele>2298.6000976562</ele>
        <time>2018-03-24T11:11:56.000Z</time>
      </trkpt>
      <trkpt lat="45.95374" lon="6.57116">
        <ele>2299.8000488281</ele>
        <time>2018-03-24T11:12:05.000Z</time>
      </trkpt>
      <trkpt lat="45.95376" lon="6.57119">
        <ele>2300.8000488281</ele>
        <time>2018-03-24T11:12:13.000Z</time>
      </trkpt>
      <trkpt lat="45.95377" lon="6.57122">
        <ele>2302</ele>
        <time>2018-03-24T11:12:22.000Z</time>
      </trkpt>
      <trkpt lat="45.9538" lon="6.57125">
        <ele>2303.1999511719</ele>
        <time>2018-03-24T11:12:30.000Z</time>
      </trkpt>
      <trkpt lat="45.95382" lon="6.57128">
        <ele>2304.1999511719</ele>
        <time>2018-03-24T11:12:37.000Z</time>
      </trkpt>
      <trkpt lat="45.95382" lon="6.5713">
        <ele>2305.1999511719</ele>
        <time>2018-03-24T11:12:44.000Z</time>
      </trkpt>
      <trkpt lat="45.9538" lon="6.57133">
        <ele>2306.3999023438</ele>
        <time>2018-03-24T11:12:49.000Z</time>
      </trkpt>
      <trkpt lat="45.95378" lon="6.57138">
        <ele>2307.6000976562</ele>
        <time>2018-03-24T11:12:59.000Z</time>
      </trkpt>
      <trkpt lat="45.95377" lon="6.5714">
        <ele>2308.6000976562</ele>
        <time>2018-03-24T11:13:06.000Z</time>
      </trkpt>
      <trkpt lat="45.95376" lon="6.57143">
        <ele>2309.6000976562</ele>
        <time>2018-03-24T11:13:12.000Z</time>
      </trkpt>
      <trkpt lat="45.95373" lon="6.57148">
        <ele>2310.6000976562</ele>
        <time>2018-03-24T11:13:41.000Z</time>
      </trkpt>
      <trkpt lat="45.95372" lon="6.57151">
        <ele>2311.6000976562</ele>
        <time>2018-03-24T11:13:50.000Z</time>
      </trkpt>
      <trkpt lat="45.95373" lon="6.57153">
        <ele>2312.6000976562</ele>
        <time>2018-03-24T11:14:03.000Z</time>
      </trkpt>
      <trkpt lat="45.95375" lon="6.57156">
        <ele>2313.8000488281</ele>
        <time>2018-03-24T11:14:11.000Z</time>
      </trkpt>
      <trkpt lat="45.95376" lon="6.5716">
        <ele>2315</ele>
        <time>2018-03-24T11:14:17.000Z</time>
      </trkpt>
      <trkpt lat="45.95378" lon="6.57164">
        <ele>2316</ele>
        <time>2018-03-24T11:14:39.000Z</time>
      </trkpt>
      <trkpt lat="45.95379" lon="6.5717">
        <ele>2317</ele>
        <time>2018-03-24T11:14:48.000Z</time>
      </trkpt>
      <trkpt lat="45.9538" lon="6.57174">
        <ele>2318</ele>
        <time>2018-03-24T11:14:57.000Z</time>
      </trkpt>
      <trkpt lat="45.95382" lon="6.57178">
        <ele>2319</ele>
        <time>2018-03-24T11:15:04.000Z</time>
      </trkpt>
      <trkpt lat="45.95384" lon="6.57183">
        <ele>2320.1999511719</ele>
        <time>2018-03-24T11:15:14.000Z</time>
      </trkpt>
      <trkpt lat="45.95386" lon="6.57189">
        <ele>2321.3999023438</ele>
        <time>2018-03-24T11:15:25.000Z</time>
      </trkpt>
      <trkpt lat="45.95388" lon="6.57193">
        <ele>2322.3999023438</ele>
        <time>2018-03-24T11:15:33.000Z</time>
      </trkpt>
      <trkpt lat="45.9539" lon="6.57199">
        <ele>2323.3999023438</ele>
        <time>2018-03-24T11:15:45.000Z</time>
      </trkpt>
      <trkpt lat="45.95385" lon="6.57198">
        <ele>2324.6000976562</ele>
        <time>2018-03-24T11:16:06.000Z</time>
      </trkpt>
      <trkpt lat="45.95382" lon="6.57198">
        <ele>2325.6000976562</ele>
        <time>2018-03-24T11:16:16.000Z</time>
      </trkpt>
      <trkpt lat="45.95385" lon="6.57201">
        <ele>2326.8000488281</ele>
        <time>2018-03-24T11:16:33.000Z</time>
      </trkpt>
      <trkpt lat="45.95388" lon="6.57205">
        <ele>2327.8000488281</ele>
        <time>2018-03-24T11:16:40.000Z</time>
      </trkpt>
      <trkpt lat="45.95389" lon="6.57209">
        <ele>2328.8000488281</ele>
        <time>2018-03-24T11:16:49.000Z</time>
      </trkpt>
      <trkpt lat="45.95384" lon="6.57209">
        <ele>2329.8000488281</ele>
        <time>2018-03-24T11:17:05.000Z</time>
      </trkpt>
      <trkpt lat="45.95386" lon="6.57211">
        <ele>2330.8000488281</ele>
        <time>2018-03-24T11:17:16.000Z</time>
      </trkpt>
      <trkpt lat="45.95388" lon="6.57216">
        <ele>2332</ele>
        <time>2018-03-24T11:17:25.000Z</time>
      </trkpt>
      <trkpt lat="45.95389" lon="6.57219">
        <ele>2333</ele>
        <time>2018-03-24T11:17:32.000Z</time>
      </trkpt>
      <trkpt lat="45.95392" lon="6.57223">
        <ele>2334.1999511719</ele>
        <time>2018-03-24T11:18:00.000Z</time>
      </trkpt>
      <trkpt lat="45.95394" lon="6.57228">
        <ele>2335.3999023438</ele>
        <time>2018-03-24T11:18:09.000Z</time>
      </trkpt>
      <trkpt lat="45.95396" lon="6.57231">
        <ele>2336.3999023438</ele>
        <time>2018-03-24T11:18:16.000Z</time>
      </trkpt>
      <trkpt lat="45.95397" lon="6.57234">
        <ele>2337.3999023438</ele>
        <time>2018-03-24T11:18:22.000Z</time>
      </trkpt>
      <trkpt lat="45.95398" lon="6.57239">
        <ele>2338.6000976562</ele>
        <time>2018-03-24T11:18:30.000Z</time>
      </trkpt>
      <trkpt lat="45.95399" lon="6.57243">
        <ele>2339.6000976562</ele>
        <time>2018-03-24T11:18:38.000Z</time>
      </trkpt>
      <trkpt lat="45.954" lon="6.57247">
        <ele>2340.8000488281</ele>
        <time>2018-03-24T11:18:45.000Z</time>
      </trkpt>
      <trkpt lat="45.95401" lon="6.57252">
        <ele>2342</ele>
        <time>2018-03-24T11:18:53.000Z</time>
      </trkpt>
      <trkpt lat="45.954" lon="6.57256">
        <ele>2343</ele>
        <time>2018-03-24T11:18:59.000Z</time>
      </trkpt>
      <trkpt lat="45.95398" lon="6.5726">
        <ele>2344.1999511719</ele>
        <time>2018-03-24T11:19:07.000Z</time>
      </trkpt>
      <trkpt lat="45.95396" lon="6.57261">
        <ele>2345.1999511719</ele>
        <time>2018-03-24T11:19:14.000Z</time>
      </trkpt>
      <trkpt lat="45.95395" lon="6.57261">
        <ele>2346.1999511719</ele>
        <time>2018-03-24T11:19:26.000Z</time>
      </trkpt>
      <trkpt lat="45.95391" lon="6.57261">
        <ele>2347.1999511719</ele>
        <time>2018-03-24T11:19:34.000Z</time>
      </trkpt>
      <trkpt lat="45.95389" lon="6.5726">
        <ele>2348.3999023438</ele>
        <time>2018-03-24T11:19:39.000Z</time>
      </trkpt>
      <trkpt lat="45.95384" lon="6.57259">
        <ele>2349.6000976562</ele>
        <time>2018-03-24T11:19:48.000Z</time>
      </trkpt>
      <trkpt lat="45.95381" lon="6.5726">
        <ele>2350.6000976562</ele>
        <time>2018-03-24T11:19:54.000Z</time>
      </trkpt>
      <trkpt lat="45.9538" lon="6.57262">
        <ele>2351.8000488281</ele>
        <time>2018-03-24T11:20:00.000Z</time>
      </trkpt>
      <trkpt lat="45.95381" lon="6.57264">
        <ele>2352.8000488281</ele>
        <time>2018-03-24T11:20:08.000Z</time>
      </trkpt>
      <trkpt lat="45.95383" lon="6.57268">
        <ele>2353.1999511719</ele>
        <time>2018-03-24T11:20:15.000Z</time>
      </trkpt>
      <trkpt lat="45.95385" lon="6.57272">
        <ele>2353.3999023438</ele>
        <time>2018-03-24T11:20:18.000Z</time>
      </trkpt>
      <trkpt lat="45.95388" lon="6.57275">
        <ele>2353.8000488281</ele>
        <time>2018-03-24T11:20:22.000Z</time>
      </trkpt>
      <trkpt lat="45.95388" lon="6.57275">
        <ele>2354</ele>
        <time>2018-03-24T11:20:23.000Z</time>
      </trkpt>
      <trkpt lat="45.95393" lon="6.5728">
        <ele>2354.6000976562</ele>
        <time>2018-03-24T11:20:29.000Z</time>
      </trkpt>
      <trkpt lat="45.95394" lon="6.57282">
        <ele>2354.8000488281</ele>
        <time>2018-03-24T11:20:31.000Z</time>
      </trkpt>
      <trkpt lat="45.95396" lon="6.57284">
        <ele>2355.1999511719</ele>
        <time>2018-03-24T11:20:35.000Z</time>
      </trkpt>
      <trkpt lat="45.95396" lon="6.57286">
        <ele>2355.6000976562</ele>
        <time>2018-03-24T11:21:16.000Z</time>
      </trkpt>
      <trkpt lat="45.95396" lon="6.57286">
        <ele>2356.1999511719</ele>
        <time>2018-03-24T11:21:29.000Z</time>
      </trkpt>
      <trkpt lat="45.95395" lon="6.57285">
        <ele>2357.3999023438</ele>
        <time>2018-03-24T11:21:48.000Z</time>
      </trkpt>
      <trkpt lat="45.95395" lon="6.57285">
        <ele>2358.3999023438</ele>
        <time>2018-03-24T11:23:00.000Z</time>
      </trkpt>
      <trkpt lat="45.95395" lon="6.57285">
        <ele>2358.3999023438</ele>
        <time>2018-03-24T11:23:58.000Z</time>
      </trkpt>
      <trkpt lat="45.95395" lon="6.57284">
        <ele>2358.3999023438</ele>
        <time>2018-03-24T11:26:52.000Z</time>
      </trkpt>
      <trkpt lat="45.95396" lon="6.57284">
        <ele>2358.3999023438</ele>
        <time>2018-03-24T11:30:57.000Z</time>
      </trkpt>
      <trkpt lat="45.95395" lon="6.57282">
        <ele>2358.3999023438</ele>
        <time>2018-03-24T11:31:42.000Z</time>
      </trkpt>
      <trkpt lat="45.95396" lon="6.57283">
        <ele>2358.3999023438</ele>
        <time>2018-03-24T11:31:58.000Z</time>
      </trkpt>
      <trkpt lat="45.95395" lon="6.57284">
        <ele>2358.3999023438</ele>
        <time>2018-03-24T11:32:18.000Z</time>
      </trkpt>
      <trkpt lat="45.95396" lon="6.57287">
        <ele>2358.3999023438</ele>
        <time>2018-03-24T11:33:06.000Z</time>
      </trkpt>
      <trkpt lat="45.95394" lon="6.57285">
        <ele>2358.3999023438</ele>
        <time>2018-03-24T11:34:47.000Z</time>
      </trkpt>
      <trkpt lat="45.95394" lon="6.57315">
        <ele>2358.3999023438</ele>
        <time>2018-03-24T11:35:40.000Z</time>
      </trkpt>
      <trkpt lat="45.95395" lon="6.57325">
        <ele>2355.6000976562</ele>
        <time>2018-03-24T11:35:41.000Z</time>
      </trkpt>
      <trkpt lat="45.95395" lon="6.57335">
        <ele>2353</ele>
        <time>2018-03-24T11:35:42.000Z</time>
      </trkpt>
      <trkpt lat="45.95397" lon="6.57345">
        <ele>2350.6000976562</ele>
        <time>2018-03-24T11:35:43.000Z</time>
      </trkpt>
      <trkpt lat="45.954" lon="6.57368">
        <ele>2349.6000976562</ele>
        <time>2018-03-24T11:35:45.000Z</time>
      </trkpt>
      <trkpt lat="45.95403" lon="6.5739">
        <ele>2348.3999023438</ele>
        <time>2018-03-24T11:35:51.000Z</time>
      </trkpt>
      <trkpt lat="45.95403" lon="6.57393">
        <ele>2348.1999511719</ele>
        <time>2018-03-24T11:35:57.000Z</time>
      </trkpt>
      <trkpt lat="45.95406" lon="6.57407">
        <ele>2348.8000488281</ele>
        <time>2018-03-24T11:36:18.000Z</time>
      </trkpt>
      <trkpt lat="45.9541" lon="6.57413">
        <ele>2347.1999511719</ele>
        <time>2018-03-24T11:36:21.000Z</time>
      </trkpt>
      <trkpt lat="45.95412" lon="6.57412">
        <ele>2345.8000488281</ele>
        <time>2018-03-24T11:36:23.000Z</time>
      </trkpt>
      <trkpt lat="45.95413" lon="6.57407">
        <ele>2344.1999511719</ele>
        <time>2018-03-24T11:36:25.000Z</time>
      </trkpt>
      <trkpt lat="45.95414" lon="6.57405">
        <ele>2343.6000976562</ele>
        <time>2018-03-24T11:36:26.000Z</time>
      </trkpt>
      <trkpt lat="45.95416" lon="6.57404">
        <ele>2343</ele>
        <time>2018-03-24T11:36:27.000Z</time>
      </trkpt>
      <trkpt lat="45.9542" lon="6.57406">
        <ele>2340.8000488281</ele>
        <time>2018-03-24T11:36:29.000Z</time>
      </trkpt>
      <trkpt lat="45.95422" lon="6.57406">
        <ele>2339.6000976562</ele>
        <time>2018-03-24T11:36:30.000Z</time>
      </trkpt>
      <trkpt lat="45.95423" lon="6.57404">
        <ele>2338.6000976562</ele>
        <time>2018-03-24T11:36:31.000Z</time>
      </trkpt>
      <trkpt lat="45.95423" lon="6.574">
        <ele>2337.3999023438</ele>
        <time>2018-03-24T11:36:32.000Z</time>
      </trkpt>
      <trkpt lat="45.95422" lon="6.57397">
        <ele>2336.1999511719</ele>
        <time>2018-03-24T11:36:33.000Z</time>
      </trkpt>
      <trkpt lat="45.95421" lon="6.57393">
        <ele>2334.8000488281</ele>
        <time>2018-03-24T11:36:35.000Z</time>
      </trkpt>
      <trkpt lat="45.95421" lon="6.57386">
        <ele>2333.8000488281</ele>
        <time>2018-03-24T11:36:38.000Z</time>
      </trkpt>
      <trkpt lat="45.95426" lon="6.57387">
        <ele>2332.6000976562</ele>
        <time>2018-03-24T11:36:40.000Z</time>
      </trkpt>
      <trkpt lat="45.95427" lon="6.57388">
        <ele>2331.3999023438</ele>
        <time>2018-03-24T11:36:41.000Z</time>
      </trkpt>
      <trkpt lat="45.95429" lon="6.57389">
        <ele>2330</ele>
        <time>2018-03-24T11:36:42.000Z</time>
      </trkpt>
      <trkpt lat="45.9543" lon="6.57391">
        <ele>2329</ele>
        <time>2018-03-24T11:36:43.000Z</time>
      </trkpt>
      <trkpt lat="45.95434" lon="6.57393">
        <ele>2327.8000488281</ele>
        <time>2018-03-24T11:36:45.000Z</time>
      </trkpt>
      <trkpt lat="45.95435" lon="6.57389">
        <ele>2326.1999511719</ele>
        <time>2018-03-24T11:36:47.000Z</time>
      </trkpt>
      <trkpt lat="45.95435" lon="6.57387">
        <ele>2325</ele>
        <time>2018-03-24T11:36:48.000Z</time>
      </trkpt>
      <trkpt lat="45.95434" lon="6.57384">
        <ele>2324</ele>
        <time>2018-03-24T11:36:49.000Z</time>
      </trkpt>
      <trkpt lat="45.95432" lon="6.57379">
        <ele>2322.6000976562</ele>
        <time>2018-03-24T11:36:51.000Z</time>
      </trkpt>
      <trkpt lat="45.9543" lon="6.57369">
        <ele>2321.1999511719</ele>
        <time>2018-03-24T11:36:54.000Z</time>
      </trkpt>
      <trkpt lat="45.95428" lon="6.57361">
        <ele>2319.8000488281</ele>
        <time>2018-03-24T11:36:57.000Z</time>
      </trkpt>
      <trkpt lat="45.95427" lon="6.57354">
        <ele>2319</ele>
        <time>2018-03-24T11:37:01.000Z</time>
      </trkpt>
      <trkpt lat="45.95429" lon="6.57349">
        <ele>2318.6000976562</ele>
        <time>2018-03-24T11:37:03.000Z</time>
      </trkpt>
      <trkpt lat="45.95432" lon="6.5735">
        <ele>2316.3999023438</ele>
        <time>2018-03-24T11:37:05.000Z</time>
      </trkpt>
      <trkpt lat="45.95433" lon="6.5735">
        <ele>2315</ele>
        <time>2018-03-24T11:37:06.000Z</time>
      </trkpt>
      <trkpt lat="45.95435" lon="6.5735">
        <ele>2313.6000976562</ele>
        <time>2018-03-24T11:37:07.000Z</time>
      </trkpt>
      <trkpt lat="45.95436" lon="6.57347">
        <ele>2312.3999023438</ele>
        <time>2018-03-24T11:37:08.000Z</time>
      </trkpt>
      <trkpt lat="45.95437" lon="6.57342">
        <ele>2311.1999511719</ele>
        <time>2018-03-24T11:37:09.000Z</time>
      </trkpt>
      <trkpt lat="45.95437" lon="6.57338">
        <ele>2309.8000488281</ele>
        <time>2018-03-24T11:37:10.000Z</time>
      </trkpt>
      <trkpt lat="45.95437" lon="6.57335">
        <ele>2308.6000976562</ele>
        <time>2018-03-24T11:37:11.000Z</time>
      </trkpt>
      <trkpt lat="45.95437" lon="6.57334">
        <ele>2307.6000976562</ele>
        <time>2018-03-24T11:37:12.000Z</time>
      </trkpt>
      <trkpt lat="45.95437" lon="6.57334">
        <ele>2307.1999511719</ele>
        <time>2018-03-24T11:37:13.000Z</time>
      </trkpt>
      <trkpt lat="45.95442" lon="6.57335">
        <ele>2306.6000976562</ele>
        <time>2018-03-24T11:37:15.000Z</time>
      </trkpt>
      <trkpt lat="45.95444" lon="6.57338">
        <ele>2305.8000488281</ele>
        <time>2018-03-24T11:37:16.000Z</time>
      </trkpt>
      <trkpt lat="45.95446" lon="6.57339">
        <ele>2304.8000488281</ele>
        <time>2018-03-24T11:37:17.000Z</time>
      </trkpt>
      <trkpt lat="45.95447" lon="6.5734">
        <ele>2303.1999511719</ele>
        <time>2018-03-24T11:37:18.000Z</time>
      </trkpt>
      <trkpt lat="45.95447" lon="6.57341">
        <ele>2302.1999511719</ele>
        <time>2018-03-24T11:37:19.000Z</time>
      </trkpt>
      <trkpt lat="45.95449" lon="6.57341">
        <ele>2301.3999023438</ele>
        <time>2018-03-24T11:37:20.000Z</time>
      </trkpt>
      <trkpt lat="45.95451" lon="6.57339">
        <ele>2300.6000976562</ele>
        <time>2018-03-24T11:37:21.000Z</time>
      </trkpt>
      <trkpt lat="45.95452" lon="6.57335">
        <ele>2299.6000976562</ele>
        <time>2018-03-24T11:37:22.000Z</time>
      </trkpt>
      <trkpt lat="45.95452" lon="6.57331">
        <ele>2298</ele>
        <time>2018-03-24T11:37:23.000Z</time>
      </trkpt>
      <trkpt lat="45.95452" lon="6.57329">
        <ele>2296.3999023438</ele>
        <time>2018-03-24T11:37:24.000Z</time>
      </trkpt>
      <trkpt lat="45.95453" lon="6.57328">
        <ele>2295.3999023438</ele>
        <time>2018-03-24T11:37:25.000Z</time>
      </trkpt>
      <trkpt lat="45.95458" lon="6.57331">
        <ele>2293.3999023438</ele>
        <time>2018-03-24T11:37:27.000Z</time>
      </trkpt>
      <trkpt lat="45.95459" lon="6.57333">
        <ele>2292.1999511719</ele>
        <time>2018-03-24T11:37:28.000Z</time>
      </trkpt>
      <trkpt lat="45.9546" lon="6.57334">
        <ele>2291</ele>
        <time>2018-03-24T11:37:29.000Z</time>
      </trkpt>
      <trkpt lat="45.95461" lon="6.57335">
        <ele>2290</ele>
        <time>2018-03-24T11:37:30.000Z</time>
      </trkpt>
      <trkpt lat="45.95461" lon="6.57334">
        <ele>2289.1999511719</ele>
        <time>2018-03-24T11:37:31.000Z</time>
      </trkpt>
      <trkpt lat="45.95462" lon="6.57331">
        <ele>2288.3999023438</ele>
        <time>2018-03-24T11:37:32.000Z</time>
      </trkpt>
      <trkpt lat="45.95464" lon="6.57325">
        <ele>2286.1999511719</ele>
        <time>2018-03-24T11:37:34.000Z</time>
      </trkpt>
      <trkpt lat="45.95465" lon="6.57323">
        <ele>2285</ele>
        <time>2018-03-24T11:37:35.000Z</time>
      </trkpt>
      <trkpt lat="45.95469" lon="6.57326">
        <ele>2282.8000488281</ele>
        <time>2018-03-24T11:37:37.000Z</time>
      </trkpt>
      <trkpt lat="45.95471" lon="6.57327">
        <ele>2281.3999023438</ele>
        <time>2018-03-24T11:37:38.000Z</time>
      </trkpt>
      <trkpt lat="45.95471" lon="6.57327">
        <ele>2280</ele>
        <time>2018-03-24T11:37:39.000Z</time>
      </trkpt>
      <trkpt lat="45.95471" lon="6.57327">
        <ele>2278.8000488281</ele>
        <time>2018-03-24T11:37:40.000Z</time>
      </trkpt>
      <trkpt lat="45.95471" lon="6.57328">
        <ele>2277.8000488281</ele>
        <time>2018-03-24T11:37:42.000Z</time>
      </trkpt>
      <trkpt lat="45.95475" lon="6.57327">
        <ele>2277</ele>
        <time>2018-03-24T11:37:46.000Z</time>
      </trkpt>
      <trkpt lat="45.95477" lon="6.57325">
        <ele>2276.8000488281</ele>
        <time>2018-03-24T11:37:47.000Z</time>
      </trkpt>
      <trkpt lat="45.95477" lon="6.57321">
        <ele>2275.8000488281</ele>
        <time>2018-03-24T11:37:48.000Z</time>
      </trkpt>
      <trkpt lat="45.95478" lon="6.57319">
        <ele>2274.6000976562</ele>
        <time>2018-03-24T11:37:49.000Z</time>
      </trkpt>
      <trkpt lat="45.9548" lon="6.57318">
        <ele>2273.3999023438</ele>
        <time>2018-03-24T11:37:50.000Z</time>
      </trkpt>
      <trkpt lat="45.95484" lon="6.57321">
        <ele>2271.1999511719</ele>
        <time>2018-03-24T11:37:52.000Z</time>
      </trkpt>
      <trkpt lat="45.95486" lon="6.57323">
        <ele>2269.6000976562</ele>
        <time>2018-03-24T11:37:53.000Z</time>
      </trkpt>
      <trkpt lat="45.95487" lon="6.57323">
        <ele>2268.1999511719</ele>
        <time>2018-03-24T11:37:54.000Z</time>
      </trkpt>
      <trkpt lat="45.95489" lon="6.5732">
        <ele>2267</ele>
        <time>2018-03-24T11:37:55.000Z</time>
      </trkpt>
      <trkpt lat="45.9549" lon="6.57317">
        <ele>2265.8000488281</ele>
        <time>2018-03-24T11:37:56.000Z</time>
      </trkpt>
      <trkpt lat="45.95492" lon="6.57316">
        <ele>2264.6000976562</ele>
        <time>2018-03-24T11:37:57.000Z</time>
      </trkpt>
      <trkpt lat="45.95495" lon="6.57317">
        <ele>2263</ele>
        <time>2018-03-24T11:37:58.000Z</time>
      </trkpt>
      <trkpt lat="45.95496" lon="6.57318">
        <ele>2261.3999023438</ele>
        <time>2018-03-24T11:37:59.000Z</time>
      </trkpt>
      <trkpt lat="45.95498" lon="6.57317">
        <ele>2259.8000488281</ele>
        <time>2018-03-24T11:38:00.000Z</time>
      </trkpt>
      <trkpt lat="45.95499" lon="6.57314">
        <ele>2258.3999023438</ele>
        <time>2018-03-24T11:38:01.000Z</time>
      </trkpt>
      <trkpt lat="45.955" lon="6.5731">
        <ele>2257</ele>
        <time>2018-03-24T11:38:02.000Z</time>
      </trkpt>
      <trkpt lat="45.95502" lon="6.57307">
        <ele>2255.6000976562</ele>
        <time>2018-03-24T11:38:03.000Z</time>
      </trkpt>
      <trkpt lat="45.95505" lon="6.57307">
        <ele>2253.8000488281</ele>
        <time>2018-03-24T11:38:04.000Z</time>
      </trkpt>
      <trkpt lat="45.95508" lon="6.57309">
        <ele>2252</ele>
        <time>2018-03-24T11:38:05.000Z</time>
      </trkpt>
      <trkpt lat="45.95509" lon="6.5731">
        <ele>2250.1999511719</ele>
        <time>2018-03-24T11:38:06.000Z</time>
      </trkpt>
      <trkpt lat="45.95509" lon="6.5731">
        <ele>2248.8000488281</ele>
        <time>2018-03-24T11:38:07.000Z</time>
      </trkpt>
      <trkpt lat="45.95509" lon="6.57309">
        <ele>2247.3999023438</ele>
        <time>2018-03-24T11:38:09.000Z</time>
      </trkpt>
      <trkpt lat="45.95512" lon="6.57304">
        <ele>2246.1999511719</ele>
        <time>2018-03-24T11:38:18.000Z</time>
      </trkpt>
      <trkpt lat="45.95518" lon="6.573">
        <ele>2244.6000976562</ele>
        <time>2018-03-24T11:38:20.000Z</time>
      </trkpt>
      <trkpt lat="45.95521" lon="6.573">
        <ele>2243.1999511719</ele>
        <time>2018-03-24T11:38:21.000Z</time>
      </trkpt>
      <trkpt lat="45.95523" lon="6.57301">
        <ele>2241.8000488281</ele>
        <time>2018-03-24T11:38:22.000Z</time>
      </trkpt>
      <trkpt lat="45.95525" lon="6.57299">
        <ele>2240</ele>
        <time>2018-03-24T11:38:23.000Z</time>
      </trkpt>
      <trkpt lat="45.95527" lon="6.57296">
        <ele>2238.3999023438</ele>
        <time>2018-03-24T11:38:24.000Z</time>
      </trkpt>
      <trkpt lat="45.95529" lon="6.57293">
        <ele>2236.6000976562</ele>
        <time>2018-03-24T11:38:25.000Z</time>
      </trkpt>
      <trkpt lat="45.95532" lon="6.57293">
        <ele>2235</ele>
        <time>2018-03-24T11:38:26.000Z</time>
      </trkpt>
      <trkpt lat="45.95534" lon="6.57294">
        <ele>2233.3999023438</ele>
        <time>2018-03-24T11:38:27.000Z</time>
      </trkpt>
      <trkpt lat="45.95536" lon="6.57295">
        <ele>2231.8000488281</ele>
        <time>2018-03-24T11:38:28.000Z</time>
      </trkpt>
      <trkpt lat="45.95538" lon="6.57295">
        <ele>2230.1999511719</ele>
        <time>2018-03-24T11:38:29.000Z</time>
      </trkpt>
      <trkpt lat="45.9554" lon="6.57293">
        <ele>2228.6000976562</ele>
        <time>2018-03-24T11:38:30.000Z</time>
      </trkpt>
      <trkpt lat="45.9554" lon="6.5729">
        <ele>2227</ele>
        <time>2018-03-24T11:38:31.000Z</time>
      </trkpt>
      <trkpt lat="45.95542" lon="6.57288">
        <ele>2225.6000976562</ele>
        <time>2018-03-24T11:38:32.000Z</time>
      </trkpt>
      <trkpt lat="45.95545" lon="6.57287">
        <ele>2224.1999511719</ele>
        <time>2018-03-24T11:38:33.000Z</time>
      </trkpt>
      <trkpt lat="45.95546" lon="6.57287">
        <ele>2222.8000488281</ele>
        <time>2018-03-24T11:38:34.000Z</time>
      </trkpt>
      <trkpt lat="45.95547" lon="6.57287">
        <ele>2221</ele>
        <time>2018-03-24T11:38:35.000Z</time>
      </trkpt>
      <trkpt lat="45.95549" lon="6.57285">
        <ele>2219.6000976562</ele>
        <time>2018-03-24T11:38:36.000Z</time>
      </trkpt>
      <trkpt lat="45.95549" lon="6.57283">
        <ele>2218.1999511719</ele>
        <time>2018-03-24T11:38:37.000Z</time>
      </trkpt>
      <trkpt lat="45.95549" lon="6.57282">
        <ele>2217</ele>
        <time>2018-03-24T11:38:38.000Z</time>
      </trkpt>
      <trkpt lat="45.95548" lon="6.57281">
        <ele>2216</ele>
        <time>2018-03-24T11:38:39.000Z</time>
      </trkpt>
      <trkpt lat="45.95548" lon="6.57281">
        <ele>2214.8000488281</ele>
        <time>2018-03-24T11:38:41.000Z</time>
      </trkpt>
      <trkpt lat="45.95554" lon="6.57279">
        <ele>2213.6000976562</ele>
        <time>2018-03-24T11:38:52.000Z</time>
      </trkpt>
      <trkpt lat="45.95559" lon="6.5728">
        <ele>2211.1999511719</ele>
        <time>2018-03-24T11:38:54.000Z</time>
      </trkpt>
      <trkpt lat="45.95561" lon="6.5728">
        <ele>2210.1999511719</ele>
        <time>2018-03-24T11:38:55.000Z</time>
      </trkpt>
      <trkpt lat="45.95562" lon="6.57274">
        <ele>2208.1999511719</ele>
        <time>2018-03-24T11:38:57.000Z</time>
      </trkpt>
      <trkpt lat="45.95561" lon="6.5727">
        <ele>2207</ele>
        <time>2018-03-24T11:38:58.000Z</time>
      </trkpt>
      <trkpt lat="45.95562" lon="6.57267">
        <ele>2205.8000488281</ele>
        <time>2018-03-24T11:38:59.000Z</time>
      </trkpt>
      <trkpt lat="45.95565" lon="6.57265">
        <ele>2204.6000976562</ele>
        <time>2018-03-24T11:39:00.000Z</time>
      </trkpt>
      <trkpt lat="45.95568" lon="6.57264">
        <ele>2203.3999023438</ele>
        <time>2018-03-24T11:39:01.000Z</time>
      </trkpt>
      <trkpt lat="45.95571" lon="6.57264">
        <ele>2201.8000488281</ele>
        <time>2018-03-24T11:39:02.000Z</time>
      </trkpt>
      <trkpt lat="45.95573" lon="6.57263">
        <ele>2200.1999511719</ele>
        <time>2018-03-24T11:39:03.000Z</time>
      </trkpt>
      <trkpt lat="45.95574" lon="6.5726">
        <ele>2198.8000488281</ele>
        <time>2018-03-24T11:39:04.000Z</time>
      </trkpt>
      <trkpt lat="45.95575" lon="6.57256">
        <ele>2197.1999511719</ele>
        <time>2018-03-24T11:39:05.000Z</time>
      </trkpt>
      <trkpt lat="45.95574" lon="6.57251">
        <ele>2196</ele>
        <time>2018-03-24T11:39:06.000Z</time>
      </trkpt>
      <trkpt lat="45.95574" lon="6.57247">
        <ele>2194.8000488281</ele>
        <time>2018-03-24T11:39:07.000Z</time>
      </trkpt>
      <trkpt lat="45.95576" lon="6.57244">
        <ele>2193.3999023438</ele>
        <time>2018-03-24T11:39:08.000Z</time>
      </trkpt>
      <trkpt lat="45.95579" lon="6.57242">
        <ele>2191.8000488281</ele>
        <time>2018-03-24T11:39:09.000Z</time>
      </trkpt>
      <trkpt lat="45.95582" lon="6.5724">
        <ele>2190.1999511719</ele>
        <time>2018-03-24T11:39:10.000Z</time>
      </trkpt>
      <trkpt lat="45.95584" lon="6.57236">
        <ele>2188.3999023438</ele>
        <time>2018-03-24T11:39:11.000Z</time>
      </trkpt>
      <trkpt lat="45.95583" lon="6.5723">
        <ele>2186.6000976562</ele>
        <time>2018-03-24T11:39:12.000Z</time>
      </trkpt>
      <trkpt lat="45.95582" lon="6.57224">
        <ele>2185</ele>
        <time>2018-03-24T11:39:13.000Z</time>
      </trkpt>
      <trkpt lat="45.95581" lon="6.5722">
        <ele>2183.1999511719</ele>
        <time>2018-03-24T11:39:14.000Z</time>
      </trkpt>
      <trkpt lat="45.95583" lon="6.57217">
        <ele>2181.8000488281</ele>
        <time>2018-03-24T11:39:15.000Z</time>
      </trkpt>
      <trkpt lat="45.95586" lon="6.57216">
        <ele>2180.1999511719</ele>
        <time>2018-03-24T11:39:16.000Z</time>
      </trkpt>
      <trkpt lat="45.95589" lon="6.57214">
        <ele>2178.8000488281</ele>
        <time>2018-03-24T11:39:17.000Z</time>
      </trkpt>
      <trkpt lat="45.95589" lon="6.5721">
        <ele>2177</ele>
        <time>2018-03-24T11:39:18.000Z</time>
      </trkpt>
      <trkpt lat="45.9559" lon="6.57207">
        <ele>2175.3999023438</ele>
        <time>2018-03-24T11:39:19.000Z</time>
      </trkpt>
      <trkpt lat="45.95592" lon="6.57204">
        <ele>2173.8000488281</ele>
        <time>2018-03-24T11:39:20.000Z</time>
      </trkpt>
      <trkpt lat="45.95595" lon="6.57203">
        <ele>2172</ele>
        <time>2018-03-24T11:39:21.000Z</time>
      </trkpt>
      <trkpt lat="45.95596" lon="6.57203">
        <ele>2170.1999511719</ele>
        <time>2018-03-24T11:39:22.000Z</time>
      </trkpt>
      <trkpt lat="45.95596" lon="6.57203">
        <ele>2168.6000976562</ele>
        <time>2018-03-24T11:39:23.000Z</time>
      </trkpt>
      <trkpt lat="45.95596" lon="6.57202">
        <ele>2167.6000976562</ele>
        <time>2018-03-24T11:39:24.000Z</time>
      </trkpt>
      <trkpt lat="45.95596" lon="6.57202">
        <ele>2166.6000976562</ele>
        <time>2018-03-24T11:39:33.000Z</time>
      </trkpt>
      <trkpt lat="45.95601" lon="6.57201">
        <ele>2165.8000488281</ele>
        <time>2018-03-24T11:39:37.000Z</time>
      </trkpt>
      <trkpt lat="45.95601" lon="6.57198">
        <ele>2165</ele>
        <time>2018-03-24T11:39:38.000Z</time>
      </trkpt>
      <trkpt lat="45.956" lon="6.57195">
        <ele>2164</ele>
        <time>2018-03-24T11:39:39.000Z</time>
      </trkpt>
      <trkpt lat="45.956" lon="6.57194">
        <ele>2162.8000488281</ele>
        <time>2018-03-24T11:39:40.000Z</time>
      </trkpt>
      <trkpt lat="45.956" lon="6.57195">
        <ele>2161.3999023438</ele>
        <time>2018-03-24T11:39:42.000Z</time>
      </trkpt>
      <trkpt lat="45.95599" lon="6.5719">
        <ele>2160.3999023438</ele>
        <time>2018-03-24T11:39:49.000Z</time>
      </trkpt>
      <trkpt lat="45.956" lon="6.57187">
        <ele>2160.1999511719</ele>
        <time>2018-03-24T11:39:50.000Z</time>
      </trkpt>
      <trkpt lat="45.95606" lon="6.57185">
        <ele>2158.8000488281</ele>
        <time>2018-03-24T11:39:52.000Z</time>
      </trkpt>
      <trkpt lat="45.95608" lon="6.57185">
        <ele>2157.8000488281</ele>
        <time>2018-03-24T11:39:53.000Z</time>
      </trkpt>
      <trkpt lat="45.9561" lon="6.57186">
        <ele>2156.6000976562</ele>
        <time>2018-03-24T11:39:54.000Z</time>
      </trkpt>
      <trkpt lat="45.95612" lon="6.57184">
        <ele>2155.3999023438</ele>
        <time>2018-03-24T11:39:55.000Z</time>
      </trkpt>
      <trkpt lat="45.95611" lon="6.5718">
        <ele>2154.1999511719</ele>
        <time>2018-03-24T11:39:56.000Z</time>
      </trkpt>
      <trkpt lat="45.9561" lon="6.57174">
        <ele>2153</ele>
        <time>2018-03-24T11:39:57.000Z</time>
      </trkpt>
      <trkpt lat="45.95608" lon="6.5717">
        <ele>2152</ele>
        <time>2018-03-24T11:39:58.000Z</time>
      </trkpt>
      <trkpt lat="45.95605" lon="6.57164">
        <ele>2150.3999023438</ele>
        <time>2018-03-24T11:40:00.000Z</time>
      </trkpt>
      <trkpt lat="45.95605" lon="6.57163">
        <ele>2150.1999511719</ele>
        <time>2018-03-24T11:40:01.000Z</time>
      </trkpt>
      <trkpt lat="45.95605" lon="6.57164">
        <ele>2149.3999023438</ele>
        <time>2018-03-24T11:40:04.000Z</time>
      </trkpt>
      <trkpt lat="45.95605" lon="6.57159">
        <ele>2149</ele>
        <time>2018-03-24T11:40:10.000Z</time>
      </trkpt>
      <trkpt lat="45.9561" lon="6.57157">
        <ele>2148.1999511719</ele>
        <time>2018-03-24T11:40:12.000Z</time>
      </trkpt>
      <trkpt lat="45.95612" lon="6.57157">
        <ele>2147.1999511719</ele>
        <time>2018-03-24T11:40:13.000Z</time>
      </trkpt>
      <trkpt lat="45.95613" lon="6.57158">
        <ele>2146</ele>
        <time>2018-03-24T11:40:14.000Z</time>
      </trkpt>
      <trkpt lat="45.95617" lon="6.57158">
        <ele>2144.3999023438</ele>
        <time>2018-03-24T11:40:16.000Z</time>
      </trkpt>
      <trkpt lat="45.95618" lon="6.57157">
        <ele>2143.3999023438</ele>
        <time>2018-03-24T11:40:18.000Z</time>
      </trkpt>
      <trkpt lat="45.95617" lon="6.57151">
        <ele>2142</ele>
        <time>2018-03-24T11:40:20.000Z</time>
      </trkpt>
      <trkpt lat="45.95618" lon="6.57148">
        <ele>2141.1999511719</ele>
        <time>2018-03-24T11:40:21.000Z</time>
      </trkpt>
      <trkpt lat="45.9562" lon="6.57146">
        <ele>2140.1999511719</ele>
        <time>2018-03-24T11:40:22.000Z</time>
      </trkpt>
      <trkpt lat="45.95622" lon="6.57146">
        <ele>2139.1999511719</ele>
        <time>2018-03-24T11:40:23.000Z</time>
      </trkpt>
      <trkpt lat="45.95622" lon="6.57146">
        <ele>2138.1999511719</ele>
        <time>2018-03-24T11:40:24.000Z</time>
      </trkpt>
      <trkpt lat="45.95622" lon="6.57146">
        <ele>2137</ele>
        <time>2018-03-24T11:40:25.000Z</time>
      </trkpt>
      <trkpt lat="45.95622" lon="6.57146">
        <ele>2136</ele>
        <time>2018-03-24T11:40:27.000Z</time>
      </trkpt>
      <trkpt lat="45.95623" lon="6.57144">
        <ele>2135</ele>
        <time>2018-03-24T11:40:31.000Z</time>
      </trkpt>
      <trkpt lat="45.95621" lon="6.57136">
        <ele>2133.8000488281</ele>
        <time>2018-03-24T11:40:33.000Z</time>
      </trkpt>
      <trkpt lat="45.95619" lon="6.57129">
        <ele>2132</ele>
        <time>2018-03-24T11:40:35.000Z</time>
      </trkpt>
      <trkpt lat="45.95617" lon="6.57123">
        <ele>2130.6000976562</ele>
        <time>2018-03-24T11:40:37.000Z</time>
      </trkpt>
      <trkpt lat="45.95617" lon="6.57114">
        <ele>2129.6000976562</ele>
        <time>2018-03-24T11:40:40.000Z</time>
      </trkpt>
      <trkpt lat="45.95619" lon="6.57113">
        <ele>2129.1999511719</ele>
        <time>2018-03-24T11:40:41.000Z</time>
      </trkpt>
      <trkpt lat="45.95625" lon="6.57113">
        <ele>2127.3999023438</ele>
        <time>2018-03-24T11:40:43.000Z</time>
      </trkpt>
      <trkpt lat="45.95627" lon="6.57112">
        <ele>2126.3999023438</ele>
        <time>2018-03-24T11:40:44.000Z</time>
      </trkpt>
      <trkpt lat="45.95628" lon="6.5711">
        <ele>2125.1999511719</ele>
        <time>2018-03-24T11:40:45.000Z</time>
      </trkpt>
      <trkpt lat="45.95629" lon="6.57106">
        <ele>2124</ele>
        <time>2018-03-24T11:40:46.000Z</time>
      </trkpt>
      <trkpt lat="45.95632" lon="6.57103">
        <ele>2122.8000488281</ele>
        <time>2018-03-24T11:40:47.000Z</time>
      </trkpt>
      <trkpt lat="45.95635" lon="6.57103">
        <ele>2121.3999023438</ele>
        <time>2018-03-24T11:40:48.000Z</time>
      </trkpt>
      <trkpt lat="45.95637" lon="6.57101">
        <ele>2119.8000488281</ele>
        <time>2018-03-24T11:40:49.000Z</time>
      </trkpt>
      <trkpt lat="45.95637" lon="6.57097">
        <ele>2118.1999511719</ele>
        <time>2018-03-24T11:40:50.000Z</time>
      </trkpt>
      <trkpt lat="45.95637" lon="6.57093">
        <ele>2116.6000976562</ele>
        <time>2018-03-24T11:40:51.000Z</time>
      </trkpt>
      <trkpt lat="45.95638" lon="6.5709">
        <ele>2115</ele>
        <time>2018-03-24T11:40:52.000Z</time>
      </trkpt>
      <trkpt lat="45.95641" lon="6.57089">
        <ele>2113.6000976562</ele>
        <time>2018-03-24T11:40:53.000Z</time>
      </trkpt>
      <trkpt lat="45.95644" lon="6.57088">
        <ele>2112.3999023438</ele>
        <time>2018-03-24T11:40:54.000Z</time>
      </trkpt>
      <trkpt lat="45.95646" lon="6.57086">
        <ele>2111</ele>
        <time>2018-03-24T11:40:55.000Z</time>
      </trkpt>
      <trkpt lat="45.95646" lon="6.57083">
        <ele>2109.3999023438</ele>
        <time>2018-03-24T11:40:56.000Z</time>
      </trkpt>
      <trkpt lat="45.95646" lon="6.57078">
        <ele>2108</ele>
        <time>2018-03-24T11:40:57.000Z</time>
      </trkpt>
      <trkpt lat="45.95648" lon="6.57075">
        <ele>2106.6000976562</ele>
        <time>2018-03-24T11:40:58.000Z</time>
      </trkpt>
      <trkpt lat="45.95651" lon="6.57074">
        <ele>2105.3999023438</ele>
        <time>2018-03-24T11:40:59.000Z</time>
      </trkpt>
      <trkpt lat="45.95654" lon="6.57074">
        <ele>2104.1999511719</ele>
        <time>2018-03-24T11:41:00.000Z</time>
      </trkpt>
      <trkpt lat="45.95656" lon="6.57071">
        <ele>2102.8000488281</ele>
        <time>2018-03-24T11:41:01.000Z</time>
      </trkpt>
      <trkpt lat="45.95656" lon="6.57066">
        <ele>2101.1999511719</ele>
        <time>2018-03-24T11:41:02.000Z</time>
      </trkpt>
      <trkpt lat="45.95655" lon="6.57062">
        <ele>2099.8000488281</ele>
        <time>2018-03-24T11:41:03.000Z</time>
      </trkpt>
      <trkpt lat="45.95656" lon="6.57057">
        <ele>2098.1999511719</ele>
        <time>2018-03-24T11:41:04.000Z</time>
      </trkpt>
      <trkpt lat="45.95659" lon="6.57055">
        <ele>2096.6000976562</ele>
        <time>2018-03-24T11:41:05.000Z</time>
      </trkpt>
      <trkpt lat="45.95662" lon="6.57054">
        <ele>2095.1999511719</ele>
        <time>2018-03-24T11:41:06.000Z</time>
      </trkpt>
      <trkpt lat="45.95664" lon="6.57051">
        <ele>2093.8000488281</ele>
        <time>2018-03-24T11:41:07.000Z</time>
      </trkpt>
      <trkpt lat="45.95664" lon="6.57047">
        <ele>2092.1999511719</ele>
        <time>2018-03-24T11:41:08.000Z</time>
      </trkpt>
      <trkpt lat="45.95664" lon="6.57045">
        <ele>2090.3999023438</ele>
        <time>2018-03-24T11:41:09.000Z</time>
      </trkpt>
      <trkpt lat="45.95664" lon="6.57045">
        <ele>2089</ele>
        <time>2018-03-24T11:41:10.000Z</time>
      </trkpt>
      <trkpt lat="45.95664" lon="6.57045">
        <ele>2088</ele>
        <time>2018-03-24T11:41:11.000Z</time>
      </trkpt>
      <trkpt lat="45.95663" lon="6.57045">
        <ele>2087</ele>
        <time>2018-03-24T11:41:14.000Z</time>
      </trkpt>
      <trkpt lat="45.95662" lon="6.57038">
        <ele>2086.3999023438</ele>
        <time>2018-03-24T11:41:24.000Z</time>
      </trkpt>
      <trkpt lat="45.95667" lon="6.57033">
        <ele>2085.3999023438</ele>
        <time>2018-03-24T11:41:26.000Z</time>
      </trkpt>
      <trkpt lat="45.9567" lon="6.57033">
        <ele>2084.3999023438</ele>
        <time>2018-03-24T11:41:27.000Z</time>
      </trkpt>
      <trkpt lat="45.95672" lon="6.57033">
        <ele>2083</ele>
        <time>2018-03-24T11:41:28.000Z</time>
      </trkpt>
      <trkpt lat="45.95674" lon="6.57033">
        <ele>2082.1999511719</ele>
        <time>2018-03-24T11:41:29.000Z</time>
      </trkpt>
      <trkpt lat="45.95675" lon="6.5703">
        <ele>2081.1999511719</ele>
        <time>2018-03-24T11:41:30.000Z</time>
      </trkpt>
      <trkpt lat="45.95674" lon="6.57026">
        <ele>2080.1999511719</ele>
        <time>2018-03-24T11:41:31.000Z</time>
      </trkpt>
      <trkpt lat="45.95673" lon="6.57023">
        <ele>2078.8000488281</ele>
        <time>2018-03-24T11:41:32.000Z</time>
      </trkpt>
      <trkpt lat="45.95672" lon="6.57022">
        <ele>2077.8000488281</ele>
        <time>2018-03-24T11:41:33.000Z</time>
      </trkpt>
      <trkpt lat="45.95672" lon="6.57022">
        <ele>2077</ele>
        <time>2018-03-24T11:41:34.000Z</time>
      </trkpt>
      <trkpt lat="45.95672" lon="6.57022">
        <ele>2076.3999023438</ele>
        <time>2018-03-24T11:41:35.000Z</time>
      </trkpt>
      <trkpt lat="45.95671" lon="6.57015">
        <ele>2076</ele>
        <time>2018-03-24T11:41:49.000Z</time>
      </trkpt>
      <trkpt lat="45.95677" lon="6.57013">
        <ele>2074.8000488281</ele>
        <time>2018-03-24T11:41:51.000Z</time>
      </trkpt>
      <trkpt lat="45.95679" lon="6.57014">
        <ele>2073.8000488281</ele>
        <time>2018-03-24T11:41:52.000Z</time>
      </trkpt>
      <trkpt lat="45.9568" lon="6.57013">
        <ele>2072.6000976562</ele>
        <time>2018-03-24T11:41:53.000Z</time>
      </trkpt>
      <trkpt lat="45.95683" lon="6.5701">
        <ele>2070.6000976562</ele>
        <time>2018-03-24T11:41:55.000Z</time>
      </trkpt>
      <trkpt lat="45.95683" lon="6.57006">
        <ele>2069.6000976562</ele>
        <time>2018-03-24T11:41:56.000Z</time>
      </trkpt>
      <trkpt lat="45.95682" lon="6.57003">
        <ele>2068.1999511719</ele>
        <time>2018-03-24T11:41:57.000Z</time>
      </trkpt>
      <trkpt lat="45.95682" lon="6.57001">
        <ele>2066.8000488281</ele>
        <time>2018-03-24T11:41:58.000Z</time>
      </trkpt>
      <trkpt lat="45.95684" lon="6.56998">
        <ele>2065.8000488281</ele>
        <time>2018-03-24T11:41:59.000Z</time>
      </trkpt>
      <trkpt lat="45.95687" lon="6.56995">
        <ele>2064.3999023438</ele>
        <time>2018-03-24T11:42:01.000Z</time>
      </trkpt>
      <trkpt lat="45.95689" lon="6.56994">
        <ele>2062.8000488281</ele>
        <time>2018-03-24T11:42:03.000Z</time>
      </trkpt>
      <trkpt lat="45.9569" lon="6.56989">
        <ele>2061.3999023438</ele>
        <time>2018-03-24T11:42:05.000Z</time>
      </trkpt>
      <trkpt lat="45.95692" lon="6.56986">
        <ele>2060.1999511719</ele>
        <time>2018-03-24T11:42:06.000Z</time>
      </trkpt>
      <trkpt lat="45.95695" lon="6.56986">
        <ele>2059.1999511719</ele>
        <time>2018-03-24T11:42:07.000Z</time>
      </trkpt>
      <trkpt lat="45.95697" lon="6.56987">
        <ele>2058</ele>
        <time>2018-03-24T11:42:08.000Z</time>
      </trkpt>
      <trkpt lat="45.95698" lon="6.56988">
        <ele>2056.1999511719</ele>
        <time>2018-03-24T11:42:10.000Z</time>
      </trkpt>
      <trkpt lat="45.95698" lon="6.56989">
        <ele>2055.1999511719</ele>
        <time>2018-03-24T11:42:14.000Z</time>
      </trkpt>
      <trkpt lat="45.957" lon="6.56984">
        <ele>2054.1999511719</ele>
        <time>2018-03-24T11:42:20.000Z</time>
      </trkpt>
      <trkpt lat="45.95699" lon="6.56981">
        <ele>2053.8000488281</ele>
        <time>2018-03-24T11:42:21.000Z</time>
      </trkpt>
      <trkpt lat="45.95698" lon="6.56978">
        <ele>2053.1999511719</ele>
        <time>2018-03-24T11:42:22.000Z</time>
      </trkpt>
      <trkpt lat="45.95697" lon="6.56976">
        <ele>2052.6000976562</ele>
        <time>2018-03-24T11:42:23.000Z</time>
      </trkpt>
      <trkpt lat="45.95694" lon="6.56969">
        <ele>2051.6000976562</ele>
        <time>2018-03-24T11:42:26.000Z</time>
      </trkpt>
      <trkpt lat="45.95692" lon="6.56964">
        <ele>2050.8000488281</ele>
        <time>2018-03-24T11:42:29.000Z</time>
      </trkpt>
      <trkpt lat="45.95692" lon="6.56964">
        <ele>2050.3999023438</ele>
        <time>2018-03-24T11:42:30.000Z</time>
      </trkpt>
      <trkpt lat="45.95692" lon="6.56955">
        <ele>2049.8000488281</ele>
        <time>2018-03-24T11:42:51.000Z</time>
      </trkpt>
      <trkpt lat="45.95694" lon="6.56952">
        <ele>2049.3999023438</ele>
        <time>2018-03-24T11:42:52.000Z</time>
      </trkpt>
      <trkpt lat="45.95699" lon="6.56952">
        <ele>2047.8000488281</ele>
        <time>2018-03-24T11:42:54.000Z</time>
      </trkpt>
      <trkpt lat="45.95701" lon="6.56952">
        <ele>2046.8000488281</ele>
        <time>2018-03-24T11:42:55.000Z</time>
      </trkpt>
      <trkpt lat="45.95702" lon="6.5695">
        <ele>2045.5999755859</ele>
        <time>2018-03-24T11:42:56.000Z</time>
      </trkpt>
      <trkpt lat="45.95702" lon="6.56947">
        <ele>2044.4000244141</ele>
        <time>2018-03-24T11:42:57.000Z</time>
      </trkpt>
      <trkpt lat="45.95701" lon="6.56944">
        <ele>2043.1999511719</ele>
        <time>2018-03-24T11:42:58.000Z</time>
      </trkpt>
      <trkpt lat="45.95702" lon="6.56942">
        <ele>2042.4000244141</ele>
        <time>2018-03-24T11:42:59.000Z</time>
      </trkpt>
      <trkpt lat="45.95704" lon="6.5694">
        <ele>2041.5999755859</ele>
        <time>2018-03-24T11:43:00.000Z</time>
      </trkpt>
      <trkpt lat="45.95706" lon="6.56938">
        <ele>2040</ele>
        <time>2018-03-24T11:43:02.000Z</time>
      </trkpt>
      <trkpt lat="45.95706" lon="6.56934">
        <ele>2039</ele>
        <time>2018-03-24T11:43:03.000Z</time>
      </trkpt>
      <trkpt lat="45.95705" lon="6.56929">
        <ele>2037.8000488281</ele>
        <time>2018-03-24T11:43:04.000Z</time>
      </trkpt>
      <trkpt lat="45.95704" lon="6.56927">
        <ele>2036.5999755859</ele>
        <time>2018-03-24T11:43:05.000Z</time>
      </trkpt>
      <trkpt lat="45.95703" lon="6.56926">
        <ele>2035.1999511719</ele>
        <time>2018-03-24T11:43:07.000Z</time>
      </trkpt>
      <trkpt lat="45.95703" lon="6.56922">
        <ele>2034.5999755859</ele>
        <time>2018-03-24T11:43:10.000Z</time>
      </trkpt>
      <trkpt lat="45.95704" lon="6.56916">
        <ele>2034.1999511719</ele>
        <time>2018-03-24T11:43:12.000Z</time>
      </trkpt>
      <trkpt lat="45.95706" lon="6.56914">
        <ele>2033.8000488281</ele>
        <time>2018-03-24T11:43:13.000Z</time>
      </trkpt>
      <trkpt lat="45.95712" lon="6.56913">
        <ele>2031.8000488281</ele>
        <time>2018-03-24T11:43:15.000Z</time>
      </trkpt>
      <trkpt lat="45.95714" lon="6.56913">
        <ele>2030.5999755859</ele>
        <time>2018-03-24T11:43:16.000Z</time>
      </trkpt>
      <trkpt lat="45.95715" lon="6.56909">
        <ele>2029.1999511719</ele>
        <time>2018-03-24T11:43:17.000Z</time>
      </trkpt>
      <trkpt lat="45.95715" lon="6.56905">
        <ele>2027.8000488281</ele>
        <time>2018-03-24T11:43:18.000Z</time>
      </trkpt>
      <trkpt lat="45.95714" lon="6.56902">
        <ele>2026.1999511719</ele>
        <time>2018-03-24T11:43:19.000Z</time>
      </trkpt>
      <trkpt lat="45.95713" lon="6.569">
        <ele>2025.1999511719</ele>
        <time>2018-03-24T11:43:20.000Z</time>
      </trkpt>
      <trkpt lat="45.95712" lon="6.56897">
        <ele>2024</ele>
        <time>2018-03-24T11:43:22.000Z</time>
      </trkpt>
      <trkpt lat="45.95711" lon="6.56886">
        <ele>2022.5999755859</ele>
        <time>2018-03-24T11:43:26.000Z</time>
      </trkpt>
      <trkpt lat="45.95717" lon="6.56887">
        <ele>2021.4000244141</ele>
        <time>2018-03-24T11:43:28.000Z</time>
      </trkpt>
      <trkpt lat="45.95719" lon="6.56889">
        <ele>2020.4000244141</ele>
        <time>2018-03-24T11:43:29.000Z</time>
      </trkpt>
      <trkpt lat="45.95719" lon="6.56889">
        <ele>2019.4000244141</ele>
        <time>2018-03-24T11:43:30.000Z</time>
      </trkpt>
      <trkpt lat="45.95719" lon="6.56889">
        <ele>2018.8000488281</ele>
        <time>2018-03-24T11:43:31.000Z</time>
      </trkpt>
      <trkpt lat="45.95719" lon="6.5689">
        <ele>2017.8000488281</ele>
        <time>2018-03-24T11:43:35.000Z</time>
      </trkpt>
      <trkpt lat="45.95719" lon="6.56886">
        <ele>2016.4000244141</ele>
        <time>2018-03-24T11:44:15.000Z</time>
      </trkpt>
      <trkpt lat="45.95718" lon="6.5688">
        <ele>2015.1999511719</ele>
        <time>2018-03-24T11:44:17.000Z</time>
      </trkpt>
      <trkpt lat="45.95717" lon="6.56874">
        <ele>2013.8000488281</ele>
        <time>2018-03-24T11:44:19.000Z</time>
      </trkpt>
      <trkpt lat="45.95716" lon="6.56865">
        <ele>2012.8000488281</ele>
        <time>2018-03-24T11:44:22.000Z</time>
      </trkpt>
      <trkpt lat="45.95715" lon="6.56856">
        <ele>2011.5999755859</ele>
        <time>2018-03-24T11:44:25.000Z</time>
      </trkpt>
      <trkpt lat="45.95715" lon="6.56847">
        <ele>2010.5999755859</ele>
        <time>2018-03-24T11:44:29.000Z</time>
      </trkpt>
      <trkpt lat="45.95717" lon="6.56842">
        <ele>2010.1999511719</ele>
        <time>2018-03-24T11:44:33.000Z</time>
      </trkpt>
      <trkpt lat="45.95723" lon="6.56847">
        <ele>2008.5999755859</ele>
        <time>2018-03-24T11:44:36.000Z</time>
      </trkpt>
      <trkpt lat="45.95725" lon="6.56847">
        <ele>2007.4000244141</ele>
        <time>2018-03-24T11:44:37.000Z</time>
      </trkpt>
      <trkpt lat="45.95726" lon="6.56846">
        <ele>2006</ele>
        <time>2018-03-24T11:44:38.000Z</time>
      </trkpt>
      <trkpt lat="45.95727" lon="6.56843">
        <ele>2004.5999755859</ele>
        <time>2018-03-24T11:44:39.000Z</time>
      </trkpt>
      <trkpt lat="45.95729" lon="6.5684">
        <ele>2003</ele>
        <time>2018-03-24T11:44:40.000Z</time>
      </trkpt>
      <trkpt lat="45.9573" lon="6.56839">
        <ele>2002</ele>
        <time>2018-03-24T11:44:41.000Z</time>
      </trkpt>
      <trkpt lat="45.95733" lon="6.56841">
        <ele>2001.4000244141</ele>
        <time>2018-03-24T11:44:42.000Z</time>
      </trkpt>
      <trkpt lat="45.95736" lon="6.56846">
        <ele>1999.4000244141</ele>
        <time>2018-03-24T11:44:44.000Z</time>
      </trkpt>
      <trkpt lat="45.95736" lon="6.56847">
        <ele>1998.1999511719</ele>
        <time>2018-03-24T11:44:45.000Z</time>
      </trkpt>
      <trkpt lat="45.95735" lon="6.56847">
        <ele>1997.1999511719</ele>
        <time>2018-03-24T11:44:47.000Z</time>
      </trkpt>
      <trkpt lat="45.95737" lon="6.56852">
        <ele>1996</ele>
        <time>2018-03-24T11:44:55.000Z</time>
      </trkpt>
      <trkpt lat="45.95739" lon="6.56853">
        <ele>1994.8000488281</ele>
        <time>2018-03-24T11:44:57.000Z</time>
      </trkpt>
      <trkpt lat="45.95739" lon="6.56853">
        <ele>1994.4000244141</ele>
        <time>2018-03-24T11:44:58.000Z</time>
      </trkpt>
      <trkpt lat="45.9574" lon="6.56853">
        <ele>1993.8000488281</ele>
        <time>2018-03-24T11:44:59.000Z</time>
      </trkpt>
      <trkpt lat="45.95741" lon="6.56852">
        <ele>1993.1999511719</ele>
        <time>2018-03-24T11:45:00.000Z</time>
      </trkpt>
      <trkpt lat="45.95742" lon="6.56849">
        <ele>1992.5999755859</ele>
        <time>2018-03-24T11:45:01.000Z</time>
      </trkpt>
      <trkpt lat="45.95744" lon="6.56842">
        <ele>1990.5999755859</ele>
        <time>2018-03-24T11:45:03.000Z</time>
      </trkpt>
      <trkpt lat="45.95747" lon="6.56842">
        <ele>1989.5999755859</ele>
        <time>2018-03-24T11:45:04.000Z</time>
      </trkpt>
      <trkpt lat="45.9575" lon="6.56842">
        <ele>1988.4000244141</ele>
        <time>2018-03-24T11:45:05.000Z</time>
      </trkpt>
      <trkpt lat="45.95752" lon="6.56844">
        <ele>1987</ele>
        <time>2018-03-24T11:45:06.000Z</time>
      </trkpt>
      <trkpt lat="45.95753" lon="6.56844">
        <ele>1985.5999755859</ele>
        <time>2018-03-24T11:45:07.000Z</time>
      </trkpt>
      <trkpt lat="45.95755" lon="6.56842">
        <ele>1984.4000244141</ele>
        <time>2018-03-24T11:45:08.000Z</time>
      </trkpt>
      <trkpt lat="45.95756" lon="6.56839">
        <ele>1983.1999511719</ele>
        <time>2018-03-24T11:45:09.000Z</time>
      </trkpt>
      <trkpt lat="45.95758" lon="6.56836">
        <ele>1981.8000488281</ele>
        <time>2018-03-24T11:45:10.000Z</time>
      </trkpt>
      <trkpt lat="45.95761" lon="6.56835">
        <ele>1980.5999755859</ele>
        <time>2018-03-24T11:45:11.000Z</time>
      </trkpt>
      <trkpt lat="45.95764" lon="6.56837">
        <ele>1979</ele>
        <time>2018-03-24T11:45:12.000Z</time>
      </trkpt>
      <trkpt lat="45.95767" lon="6.56839">
        <ele>1977.4000244141</ele>
        <time>2018-03-24T11:45:13.000Z</time>
      </trkpt>
      <trkpt lat="45.9577" lon="6.5684">
        <ele>1975.5999755859</ele>
        <time>2018-03-24T11:45:14.000Z</time>
      </trkpt>
      <trkpt lat="45.95771" lon="6.56839">
        <ele>1974</ele>
        <time>2018-03-24T11:45:15.000Z</time>
      </trkpt>
      <trkpt lat="45.9577" lon="6.56837">
        <ele>1972.4000244141</ele>
        <time>2018-03-24T11:45:16.000Z</time>
      </trkpt>
      <trkpt lat="45.95771" lon="6.56837">
        <ele>1971.1999511719</ele>
        <time>2018-03-24T11:45:17.000Z</time>
      </trkpt>
      <trkpt lat="45.95774" lon="6.56836">
        <ele>1969.8000488281</ele>
        <time>2018-03-24T11:45:19.000Z</time>
      </trkpt>
      <trkpt lat="45.95777" lon="6.56839">
        <ele>1968.5999755859</ele>
        <time>2018-03-24T11:45:21.000Z</time>
      </trkpt>
      <trkpt lat="45.95778" lon="6.56839">
        <ele>1967.1999511719</ele>
        <time>2018-03-24T11:45:23.000Z</time>
      </trkpt>
      <trkpt lat="45.95777" lon="6.56837">
        <ele>1966</ele>
        <time>2018-03-24T11:45:26.000Z</time>
      </trkpt>
      <trkpt lat="45.95777" lon="6.56834">
        <ele>1965.5999755859</ele>
        <time>2018-03-24T11:45:29.000Z</time>
      </trkpt>
      <trkpt lat="45.95778" lon="6.56831">
        <ele>1965</ele>
        <time>2018-03-24T11:45:30.000Z</time>
      </trkpt>
      <trkpt lat="45.95782" lon="6.56826">
        <ele>1963</ele>
        <time>2018-03-24T11:45:32.000Z</time>
      </trkpt>
      <trkpt lat="45.95785" lon="6.56826">
        <ele>1961.8000488281</ele>
        <time>2018-03-24T11:45:33.000Z</time>
      </trkpt>
      <trkpt lat="45.95788" lon="6.56826">
        <ele>1960.5999755859</ele>
        <time>2018-03-24T11:45:34.000Z</time>
      </trkpt>
      <trkpt lat="45.95789" lon="6.56823">
        <ele>1959.1999511719</ele>
        <time>2018-03-24T11:45:35.000Z</time>
      </trkpt>
      <trkpt lat="45.95791" lon="6.56819">
        <ele>1957.5999755859</ele>
        <time>2018-03-24T11:45:36.000Z</time>
      </trkpt>
      <trkpt lat="45.95793" lon="6.56817">
        <ele>1956</ele>
        <time>2018-03-24T11:45:37.000Z</time>
      </trkpt>
      <trkpt lat="45.95796" lon="6.56818">
        <ele>1954.1999511719</ele>
        <time>2018-03-24T11:45:38.000Z</time>
      </trkpt>
      <trkpt lat="45.95797" lon="6.56818">
        <ele>1952.5999755859</ele>
        <time>2018-03-24T11:45:39.000Z</time>
      </trkpt>
      <trkpt lat="45.95798" lon="6.56817">
        <ele>1951.1999511719</ele>
        <time>2018-03-24T11:45:40.000Z</time>
      </trkpt>
      <trkpt lat="45.95798" lon="6.56817">
        <ele>1950</ele>
        <time>2018-03-24T11:45:41.000Z</time>
      </trkpt>
      <trkpt lat="45.95798" lon="6.56816">
        <ele>1948.8000488281</ele>
        <time>2018-03-24T11:45:44.000Z</time>
      </trkpt>
      <trkpt lat="45.95802" lon="6.56815">
        <ele>1947.8000488281</ele>
        <time>2018-03-24T11:45:57.000Z</time>
      </trkpt>
      <trkpt lat="45.95802" lon="6.56809">
        <ele>1946.1999511719</ele>
        <time>2018-03-24T11:45:59.000Z</time>
      </trkpt>
      <trkpt lat="45.95803" lon="6.56802">
        <ele>1944.1999511719</ele>
        <time>2018-03-24T11:46:01.000Z</time>
      </trkpt>
      <trkpt lat="45.95809" lon="6.56801">
        <ele>1942.4000244141</ele>
        <time>2018-03-24T11:46:03.000Z</time>
      </trkpt>
      <trkpt lat="45.95811" lon="6.56802">
        <ele>1941.4000244141</ele>
        <time>2018-03-24T11:46:04.000Z</time>
      </trkpt>
      <trkpt lat="45.95813" lon="6.56802">
        <ele>1940.1999511719</ele>
        <time>2018-03-24T11:46:05.000Z</time>
      </trkpt>
      <trkpt lat="45.95814" lon="6.56797">
        <ele>1938.8000488281</ele>
        <time>2018-03-24T11:46:06.000Z</time>
      </trkpt>
      <trkpt lat="45.95815" lon="6.56792">
        <ele>1937.4000244141</ele>
        <time>2018-03-24T11:46:07.000Z</time>
      </trkpt>
      <trkpt lat="45.95817" lon="6.5679">
        <ele>1936</ele>
        <time>2018-03-24T11:46:08.000Z</time>
      </trkpt>
      <trkpt lat="45.95821" lon="6.56789">
        <ele>1934.5999755859</ele>
        <time>2018-03-24T11:46:09.000Z</time>
      </trkpt>
      <trkpt lat="45.95823" lon="6.56786">
        <ele>1933</ele>
        <time>2018-03-24T11:46:10.000Z</time>
      </trkpt>
      <trkpt lat="45.95825" lon="6.5678">
        <ele>1931.4000244141</ele>
        <time>2018-03-24T11:46:11.000Z</time>
      </trkpt>
      <trkpt lat="45.95826" lon="6.56774">
        <ele>1930</ele>
        <time>2018-03-24T11:46:12.000Z</time>
      </trkpt>
      <trkpt lat="45.95828" lon="6.5677">
        <ele>1928.8000488281</ele>
        <time>2018-03-24T11:46:13.000Z</time>
      </trkpt>
      <trkpt lat="45.95835" lon="6.56766">
        <ele>1927.4000244141</ele>
        <time>2018-03-24T11:46:15.000Z</time>
      </trkpt>
      <trkpt lat="45.95838" lon="6.56773">
        <ele>1926</ele>
        <time>2018-03-24T11:46:17.000Z</time>
      </trkpt>
      <trkpt lat="45.95838" lon="6.56774">
        <ele>1925</ele>
        <time>2018-03-24T11:46:18.000Z</time>
      </trkpt>
      <trkpt lat="45.95838" lon="6.56773">
        <ele>1923.4000244141</ele>
        <time>2018-03-24T11:46:20.000Z</time>
      </trkpt>
      <trkpt lat="45.95841" lon="6.56777">
        <ele>1922.8000488281</ele>
        <time>2018-03-24T11:46:29.000Z</time>
      </trkpt>
      <trkpt lat="45.95843" lon="6.56779">
        <ele>1922.4000244141</ele>
        <time>2018-03-24T11:46:30.000Z</time>
      </trkpt>
      <trkpt lat="45.95845" lon="6.56779">
        <ele>1921.8000488281</ele>
        <time>2018-03-24T11:46:31.000Z</time>
      </trkpt>
      <trkpt lat="45.95847" lon="6.56776">
        <ele>1920.8000488281</ele>
        <time>2018-03-24T11:46:32.000Z</time>
      </trkpt>
      <trkpt lat="45.9585" lon="6.56772">
        <ele>1919.8000488281</ele>
        <time>2018-03-24T11:46:33.000Z</time>
      </trkpt>
      <trkpt lat="45.95853" lon="6.56768">
        <ele>1918.8000488281</ele>
        <time>2018-03-24T11:46:34.000Z</time>
      </trkpt>
      <trkpt lat="45.95859" lon="6.56759">
        <ele>1917.1999511719</ele>
        <time>2018-03-24T11:46:36.000Z</time>
      </trkpt>
      <trkpt lat="45.95861" lon="6.56753">
        <ele>1916.1999511719</ele>
        <time>2018-03-24T11:46:38.000Z</time>
      </trkpt>
      <trkpt lat="45.95861" lon="6.56752">
        <ele>1916</ele>
        <time>2018-03-24T11:46:39.000Z</time>
      </trkpt>
      <trkpt lat="45.95869" lon="6.56742">
        <ele>1915</ele>
        <time>2018-03-24T11:47:01.000Z</time>
      </trkpt>
      <trkpt lat="45.95871" lon="6.56739">
        <ele>1914.5999755859</ele>
        <time>2018-03-24T11:47:02.000Z</time>
      </trkpt>
      <trkpt lat="45.95876" lon="6.56733">
        <ele>1913.4000244141</ele>
        <time>2018-03-24T11:47:06.000Z</time>
      </trkpt>
      <trkpt lat="45.95881" lon="6.56727">
        <ele>1912.1999511719</ele>
        <time>2018-03-24T11:47:10.000Z</time>
      </trkpt>
      <trkpt lat="45.95888" lon="6.56717">
        <ele>1911</ele>
        <time>2018-03-24T11:47:14.000Z</time>
      </trkpt>
      <trkpt lat="45.95889" lon="6.56715">
        <ele>1910.4000244141</ele>
        <time>2018-03-24T11:47:15.000Z</time>
      </trkpt>
      <trkpt lat="45.95892" lon="6.5671">
        <ele>1909.5999755859</ele>
        <time>2018-03-24T11:47:17.000Z</time>
      </trkpt>
      <trkpt lat="45.95896" lon="6.56706">
        <ele>1908.8000488281</ele>
        <time>2018-03-24T11:47:20.000Z</time>
      </trkpt>
      <trkpt lat="45.95897" lon="6.56703">
        <ele>1908.4000244141</ele>
        <time>2018-03-24T11:47:22.000Z</time>
      </trkpt>
      <trkpt lat="45.95903" lon="6.56699">
        <ele>1907.5999755859</ele>
        <time>2018-03-24T11:47:25.000Z</time>
      </trkpt>
      <trkpt lat="45.95906" lon="6.56702">
        <ele>1907.1999511719</ele>
        <time>2018-03-24T11:47:26.000Z</time>
      </trkpt>
      <trkpt lat="45.95907" lon="6.56713">
        <ele>1905.1999511719</ele>
        <time>2018-03-24T11:47:28.000Z</time>
      </trkpt>
      <trkpt lat="45.95906" lon="6.56717">
        <ele>1904.1999511719</ele>
        <time>2018-03-24T11:47:29.000Z</time>
      </trkpt>
      <trkpt lat="45.95904" lon="6.56724">
        <ele>1902.8000488281</ele>
        <time>2018-03-24T11:47:31.000Z</time>
      </trkpt>
      <trkpt lat="45.95903" lon="6.56731">
        <ele>1901.5999755859</ele>
        <time>2018-03-24T11:47:34.000Z</time>
      </trkpt>
      <trkpt lat="45.95904" lon="6.56745">
        <ele>1900</ele>
        <time>2018-03-24T11:47:38.000Z</time>
      </trkpt>
      <trkpt lat="45.95908" lon="6.56745">
        <ele>1899</ele>
        <time>2018-03-24T11:47:39.000Z</time>
      </trkpt>
      <trkpt lat="45.95912" lon="6.56744">
        <ele>1897.8000488281</ele>
        <time>2018-03-24T11:47:40.000Z</time>
      </trkpt>
      <trkpt lat="45.95915" lon="6.56743">
        <ele>1896.5999755859</ele>
        <time>2018-03-24T11:47:41.000Z</time>
      </trkpt>
      <trkpt lat="45.9592" lon="6.5674">
        <ele>1895</ele>
        <time>2018-03-24T11:47:43.000Z</time>
      </trkpt>
      <trkpt lat="45.95927" lon="6.56736">
        <ele>1893.8000488281</ele>
        <time>2018-03-24T11:47:45.000Z</time>
      </trkpt>
      <trkpt lat="45.9593" lon="6.56736">
        <ele>1893.4000244141</ele>
        <time>2018-03-24T11:47:46.000Z</time>
      </trkpt>
      <trkpt lat="45.95932" lon="6.5674">
        <ele>1892.8000488281</ele>
        <time>2018-03-24T11:47:47.000Z</time>
      </trkpt>
      <trkpt lat="45.9593" lon="6.5675">
        <ele>1891</ele>
        <time>2018-03-24T11:47:49.000Z</time>
      </trkpt>
      <trkpt lat="45.95927" lon="6.56754">
        <ele>1889.1999511719</ele>
        <time>2018-03-24T11:47:51.000Z</time>
      </trkpt>
      <trkpt lat="45.95928" lon="6.56753">
        <ele>1887.8000488281</ele>
        <time>2018-03-24T11:47:53.000Z</time>
      </trkpt>
      <trkpt lat="45.95935" lon="6.56755">
        <ele>1886.5999755859</ele>
        <time>2018-03-24T11:48:06.000Z</time>
      </trkpt>
      <trkpt lat="45.95939" lon="6.56752">
        <ele>1885.1999511719</ele>
        <time>2018-03-24T11:48:08.000Z</time>
      </trkpt>
      <trkpt lat="45.95943" lon="6.56747">
        <ele>1884</ele>
        <time>2018-03-24T11:48:11.000Z</time>
      </trkpt>
      <trkpt lat="45.95952" lon="6.56739">
        <ele>1882.8000488281</ele>
        <time>2018-03-24T11:48:15.000Z</time>
      </trkpt>
      <trkpt lat="45.95956" lon="6.5673">
        <ele>1881.4000244141</ele>
        <time>2018-03-24T11:48:18.000Z</time>
      </trkpt>
      <trkpt lat="45.95958" lon="6.5673">
        <ele>1881</ele>
        <time>2018-03-24T11:48:19.000Z</time>
      </trkpt>
      <trkpt lat="45.95959" lon="6.56733">
        <ele>1880.1999511719</ele>
        <time>2018-03-24T11:48:20.000Z</time>
      </trkpt>
      <trkpt lat="45.95959" lon="6.56739">
        <ele>1878.8000488281</ele>
        <time>2018-03-24T11:48:22.000Z</time>
      </trkpt>
      <trkpt lat="45.95958" lon="6.56744">
        <ele>1877.5999755859</ele>
        <time>2018-03-24T11:48:24.000Z</time>
      </trkpt>
      <trkpt lat="45.95957" lon="6.56751">
        <ele>1876.1999511719</ele>
        <time>2018-03-24T11:48:27.000Z</time>
      </trkpt>
      <trkpt lat="45.95955" lon="6.56761">
        <ele>1874.5999755859</ele>
        <time>2018-03-24T11:48:30.000Z</time>
      </trkpt>
      <trkpt lat="45.95956" lon="6.56766">
        <ele>1873.5999755859</ele>
        <time>2018-03-24T11:48:32.000Z</time>
      </trkpt>
      <trkpt lat="45.9596" lon="6.5677">
        <ele>1872.5999755859</ele>
        <time>2018-03-24T11:48:34.000Z</time>
      </trkpt>
      <trkpt lat="45.95963" lon="6.56768">
        <ele>1871.8000488281</ele>
        <time>2018-03-24T11:48:35.000Z</time>
      </trkpt>
      <trkpt lat="45.95966" lon="6.56766">
        <ele>1870.5999755859</ele>
        <time>2018-03-24T11:48:36.000Z</time>
      </trkpt>
      <trkpt lat="45.95968" lon="6.56763">
        <ele>1869.4000244141</ele>
        <time>2018-03-24T11:48:37.000Z</time>
      </trkpt>
      <trkpt lat="45.95973" lon="6.56756">
        <ele>1868</ele>
        <time>2018-03-24T11:48:39.000Z</time>
      </trkpt>
      <trkpt lat="45.95977" lon="6.56753">
        <ele>1867.4000244141</ele>
        <time>2018-03-24T11:48:41.000Z</time>
      </trkpt>
      <trkpt lat="45.95979" lon="6.56763">
        <ele>1866.5999755859</ele>
        <time>2018-03-24T11:48:43.000Z</time>
      </trkpt>
      <trkpt lat="45.95978" lon="6.56769">
        <ele>1864.8000488281</ele>
        <time>2018-03-24T11:48:45.000Z</time>
      </trkpt>
      <trkpt lat="45.95978" lon="6.5677">
        <ele>1864.1999511719</ele>
        <time>2018-03-24T11:48:46.000Z</time>
      </trkpt>
      <trkpt lat="45.95978" lon="6.5677">
        <ele>1863.8000488281</ele>
        <time>2018-03-24T11:48:47.000Z</time>
      </trkpt>
      <trkpt lat="45.95983" lon="6.5677">
        <ele>1862.5999755859</ele>
        <time>2018-03-24T11:48:56.000Z</time>
      </trkpt>
      <trkpt lat="45.95986" lon="6.56768">
        <ele>1862.1999511719</ele>
        <time>2018-03-24T11:48:57.000Z</time>
      </trkpt>
      <trkpt lat="45.95988" lon="6.56766">
        <ele>1861.5999755859</ele>
        <time>2018-03-24T11:48:58.000Z</time>
      </trkpt>
      <trkpt lat="45.95991" lon="6.56763">
        <ele>1860.5999755859</ele>
        <time>2018-03-24T11:49:00.000Z</time>
      </trkpt>
      <trkpt lat="45.95992" lon="6.56762">
        <ele>1860.4000244141</ele>
        <time>2018-03-24T11:49:01.000Z</time>
      </trkpt>
      <trkpt lat="45.96001" lon="6.56751">
        <ele>1859.1999511719</ele>
        <time>2018-03-24T11:49:06.000Z</time>
      </trkpt>
      <trkpt lat="45.96005" lon="6.56757">
        <ele>1857.8000488281</ele>
        <time>2018-03-24T11:49:08.000Z</time>
      </trkpt>
      <trkpt lat="45.96005" lon="6.56762">
        <ele>1856.5999755859</ele>
        <time>2018-03-24T11:49:09.000Z</time>
      </trkpt>
      <trkpt lat="45.96004" lon="6.56769">
        <ele>1855</ele>
        <time>2018-03-24T11:49:11.000Z</time>
      </trkpt>
      <trkpt lat="45.96005" lon="6.56781">
        <ele>1853.8000488281</ele>
        <time>2018-03-24T11:49:14.000Z</time>
      </trkpt>
      <trkpt lat="45.96004" lon="6.56788">
        <ele>1852.4000244141</ele>
        <time>2018-03-24T11:49:16.000Z</time>
      </trkpt>
      <trkpt lat="45.96005" lon="6.56792">
        <ele>1852</ele>
        <time>2018-03-24T11:49:17.000Z</time>
      </trkpt>
      <trkpt lat="45.9601" lon="6.56794">
        <ele>1850.8000488281</ele>
        <time>2018-03-24T11:49:19.000Z</time>
      </trkpt>
      <trkpt lat="45.96012" lon="6.56793">
        <ele>1849.5999755859</ele>
        <time>2018-03-24T11:49:20.000Z</time>
      </trkpt>
      <trkpt lat="45.96018" lon="6.56789">
        <ele>1848</ele>
        <time>2018-03-24T11:49:22.000Z</time>
      </trkpt>
      <trkpt lat="45.96022" lon="6.5679">
        <ele>1847.1999511719</ele>
        <time>2018-03-24T11:49:23.000Z</time>
      </trkpt>
      <trkpt lat="45.96026" lon="6.56794">
        <ele>1846.1999511719</ele>
        <time>2018-03-24T11:49:24.000Z</time>
      </trkpt>
      <trkpt lat="45.96027" lon="6.568">
        <ele>1845</ele>
        <time>2018-03-24T11:49:25.000Z</time>
      </trkpt>
      <trkpt lat="45.96026" lon="6.56803">
        <ele>1844</ele>
        <time>2018-03-24T11:49:26.000Z</time>
      </trkpt>
      <trkpt lat="45.96024" lon="6.56805">
        <ele>1842.5999755859</ele>
        <time>2018-03-24T11:49:28.000Z</time>
      </trkpt>
      <trkpt lat="45.96024" lon="6.56804">
        <ele>1841.4000244141</ele>
        <time>2018-03-24T11:49:31.000Z</time>
      </trkpt>
      <trkpt lat="45.9603" lon="6.56809">
        <ele>1840.4000244141</ele>
        <time>2018-03-24T11:49:47.000Z</time>
      </trkpt>
      <trkpt lat="45.96034" lon="6.56804">
        <ele>1838.5999755859</ele>
        <time>2018-03-24T11:49:49.000Z</time>
      </trkpt>
      <trkpt lat="45.96039" lon="6.568">
        <ele>1837.1999511719</ele>
        <time>2018-03-24T11:49:51.000Z</time>
      </trkpt>
      <trkpt lat="45.96043" lon="6.56801">
        <ele>1836.5999755859</ele>
        <time>2018-03-24T11:49:52.000Z</time>
      </trkpt>
      <trkpt lat="45.96045" lon="6.56806">
        <ele>1835.8000488281</ele>
        <time>2018-03-24T11:49:53.000Z</time>
      </trkpt>
      <trkpt lat="45.96046" lon="6.5681">
        <ele>1834.4000244141</ele>
        <time>2018-03-24T11:49:54.000Z</time>
      </trkpt>
      <trkpt lat="45.96045" lon="6.56814">
        <ele>1833.1999511719</ele>
        <time>2018-03-24T11:49:55.000Z</time>
      </trkpt>
      <trkpt lat="45.96044" lon="6.56821">
        <ele>1831.8000488281</ele>
        <time>2018-03-24T11:49:57.000Z</time>
      </trkpt>
      <trkpt lat="45.96039" lon="6.56835">
        <ele>1830.4000244141</ele>
        <time>2018-03-24T11:50:01.000Z</time>
      </trkpt>
      <trkpt lat="45.96035" lon="6.56848">
        <ele>1829</ele>
        <time>2018-03-24T11:50:03.000Z</time>
      </trkpt>
      <trkpt lat="45.96032" lon="6.56861">
        <ele>1827.1999511719</ele>
        <time>2018-03-24T11:50:05.000Z</time>
      </trkpt>
      <trkpt lat="45.96031" lon="6.56874">
        <ele>1826</ele>
        <time>2018-03-24T11:50:07.000Z</time>
      </trkpt>
      <trkpt lat="45.96031" lon="6.56885">
        <ele>1824.8000488281</ele>
        <time>2018-03-24T11:50:09.000Z</time>
      </trkpt>
      <trkpt lat="45.96033" lon="6.56891">
        <ele>1824</ele>
        <time>2018-03-24T11:50:10.000Z</time>
      </trkpt>
      <trkpt lat="45.96037" lon="6.56895">
        <ele>1823</ele>
        <time>2018-03-24T11:50:11.000Z</time>
      </trkpt>
      <trkpt lat="45.96041" lon="6.569">
        <ele>1821.8000488281</ele>
        <time>2018-03-24T11:50:12.000Z</time>
      </trkpt>
      <trkpt lat="45.96044" lon="6.56907">
        <ele>1820.1999511719</ele>
        <time>2018-03-24T11:50:13.000Z</time>
      </trkpt>
      <trkpt lat="45.96049" lon="6.56912">
        <ele>1818.4000244141</ele>
        <time>2018-03-24T11:50:14.000Z</time>
      </trkpt>
      <trkpt lat="45.96055" lon="6.56917">
        <ele>1816.5999755859</ele>
        <time>2018-03-24T11:50:15.000Z</time>
      </trkpt>
      <trkpt lat="45.96058" lon="6.56923">
        <ele>1814.8000488281</ele>
        <time>2018-03-24T11:50:16.000Z</time>
      </trkpt>
      <trkpt lat="45.96061" lon="6.56928">
        <ele>1813</ele>
        <time>2018-03-24T11:50:17.000Z</time>
      </trkpt>
      <trkpt lat="45.96063" lon="6.5693">
        <ele>1811.1999511719</ele>
        <time>2018-03-24T11:50:18.000Z</time>
      </trkpt>
      <trkpt lat="45.96064" lon="6.56928">
        <ele>1809.8000488281</ele>
        <time>2018-03-24T11:50:19.000Z</time>
      </trkpt>
      <trkpt lat="45.96065" lon="6.56926">
        <ele>1808.5999755859</ele>
        <time>2018-03-24T11:50:20.000Z</time>
      </trkpt>
      <trkpt lat="45.96065" lon="6.56924">
        <ele>1808</ele>
        <time>2018-03-24T11:50:21.000Z</time>
      </trkpt>
      <trkpt lat="45.96065" lon="6.56924">
        <ele>1807.5999755859</ele>
        <time>2018-03-24T11:50:22.000Z</time>
      </trkpt>
      <trkpt lat="45.96075" lon="6.56912">
        <ele>1806.8000488281</ele>
        <time>2018-03-24T11:50:38.000Z</time>
      </trkpt>
      <trkpt lat="45.96078" lon="6.56912">
        <ele>1806.1999511719</ele>
        <time>2018-03-24T11:50:39.000Z</time>
      </trkpt>
      <trkpt lat="45.96082" lon="6.5692">
        <ele>1804.8000488281</ele>
        <time>2018-03-24T11:50:41.000Z</time>
      </trkpt>
      <trkpt lat="45.96083" lon="6.5693">
        <ele>1803.5999755859</ele>
        <time>2018-03-24T11:50:43.000Z</time>
      </trkpt>
      <trkpt lat="45.96085" lon="6.56934">
        <ele>1803</ele>
        <time>2018-03-24T11:50:44.000Z</time>
      </trkpt>
      <trkpt lat="45.96088" lon="6.56935">
        <ele>1802.4000244141</ele>
        <time>2018-03-24T11:50:45.000Z</time>
      </trkpt>
      <trkpt lat="45.96096" lon="6.56931">
        <ele>1800.4000244141</ele>
        <time>2018-03-24T11:50:47.000Z</time>
      </trkpt>
      <trkpt lat="45.961" lon="6.56933">
        <ele>1799.4000244141</ele>
        <time>2018-03-24T11:50:48.000Z</time>
      </trkpt>
      <trkpt lat="45.96103" lon="6.56937">
        <ele>1798.4000244141</ele>
        <time>2018-03-24T11:50:49.000Z</time>
      </trkpt>
      <trkpt lat="45.96103" lon="6.56941">
        <ele>1797.5999755859</ele>
        <time>2018-03-24T11:50:50.000Z</time>
      </trkpt>
      <trkpt lat="45.96103" lon="6.56946">
        <ele>1796.8000488281</ele>
        <time>2018-03-24T11:50:51.000Z</time>
      </trkpt>
      <trkpt lat="45.96105" lon="6.5695">
        <ele>1796.1999511719</ele>
        <time>2018-03-24T11:50:52.000Z</time>
      </trkpt>
      <trkpt lat="45.96108" lon="6.5695">
        <ele>1795.5999755859</ele>
        <time>2018-03-24T11:50:53.000Z</time>
      </trkpt>
      <trkpt lat="45.96116" lon="6.5695">
        <ele>1793.8000488281</ele>
        <time>2018-03-24T11:50:55.000Z</time>
      </trkpt>
      <trkpt lat="45.9612" lon="6.56958">
        <ele>1792</ele>
        <time>2018-03-24T11:50:57.000Z</time>
      </trkpt>
      <trkpt lat="45.96124" lon="6.56961">
        <ele>1790.8000488281</ele>
        <time>2018-03-24T11:50:58.000Z</time>
      </trkpt>
      <trkpt lat="45.96129" lon="6.56962">
        <ele>1789.5999755859</ele>
        <time>2018-03-24T11:50:59.000Z</time>
      </trkpt>
      <trkpt lat="45.96134" lon="6.56961">
        <ele>1788.4000244141</ele>
        <time>2018-03-24T11:51:00.000Z</time>
      </trkpt>
      <trkpt lat="45.96138" lon="6.56963">
        <ele>1787</ele>
        <time>2018-03-24T11:51:01.000Z</time>
      </trkpt>
      <trkpt lat="45.96141" lon="6.56969">
        <ele>1785.8000488281</ele>
        <time>2018-03-24T11:51:02.000Z</time>
      </trkpt>
      <trkpt lat="45.96143" lon="6.56975">
        <ele>1784.8000488281</ele>
        <time>2018-03-24T11:51:03.000Z</time>
      </trkpt>
      <trkpt lat="45.96147" lon="6.56977">
        <ele>1783.4000244141</ele>
        <time>2018-03-24T11:51:04.000Z</time>
      </trkpt>
      <trkpt lat="45.96152" lon="6.56978">
        <ele>1782.1999511719</ele>
        <time>2018-03-24T11:51:05.000Z</time>
      </trkpt>
      <trkpt lat="45.96155" lon="6.56981">
        <ele>1781</ele>
        <time>2018-03-24T11:51:06.000Z</time>
      </trkpt>
      <trkpt lat="45.96156" lon="6.56986">
        <ele>1779.5999755859</ele>
        <time>2018-03-24T11:51:07.000Z</time>
      </trkpt>
      <trkpt lat="45.96155" lon="6.56987">
        <ele>1778.5999755859</ele>
        <time>2018-03-24T11:51:08.000Z</time>
      </trkpt>
      <trkpt lat="45.96156" lon="6.56987">
        <ele>1777.5999755859</ele>
        <time>2018-03-24T11:51:09.000Z</time>
      </trkpt>
      <trkpt lat="45.96156" lon="6.56986">
        <ele>1777</ele>
        <time>2018-03-24T11:51:10.000Z</time>
      </trkpt>
      <trkpt lat="45.96165" lon="6.56997">
        <ele>1776.1999511719</ele>
        <time>2018-03-24T11:51:25.000Z</time>
      </trkpt>
      <trkpt lat="45.96165" lon="6.57">
        <ele>1776</ele>
        <time>2018-03-24T11:51:26.000Z</time>
      </trkpt>
      <trkpt lat="45.96166" lon="6.57001">
        <ele>1775.5999755859</ele>
        <time>2018-03-24T11:51:27.000Z</time>
      </trkpt>
      <trkpt lat="45.96169" lon="6.57001">
        <ele>1774.5999755859</ele>
        <time>2018-03-24T11:51:28.000Z</time>
      </trkpt>
      <trkpt lat="45.96172" lon="6.56998">
        <ele>1773.4000244141</ele>
        <time>2018-03-24T11:51:29.000Z</time>
      </trkpt>
      <trkpt lat="45.96175" lon="6.56996">
        <ele>1772.4000244141</ele>
        <time>2018-03-24T11:51:30.000Z</time>
      </trkpt>
      <trkpt lat="45.9618" lon="6.56992">
        <ele>1771</ele>
        <time>2018-03-24T11:51:32.000Z</time>
      </trkpt>
      <trkpt lat="45.96187" lon="6.56984">
        <ele>1770</ele>
        <time>2018-03-24T11:51:34.000Z</time>
      </trkpt>
      <trkpt lat="45.9619" lon="6.56982">
        <ele>1769.1999511719</ele>
        <time>2018-03-24T11:51:35.000Z</time>
      </trkpt>
      <trkpt lat="45.96192" lon="6.56985">
        <ele>1768.4000244141</ele>
        <time>2018-03-24T11:51:36.000Z</time>
      </trkpt>
      <trkpt lat="45.96193" lon="6.56994">
        <ele>1766.5999755859</ele>
        <time>2018-03-24T11:51:38.000Z</time>
      </trkpt>
      <trkpt lat="45.96193" lon="6.57">
        <ele>1765.8000488281</ele>
        <time>2018-03-24T11:51:39.000Z</time>
      </trkpt>
      <trkpt lat="45.96196" lon="6.57004">
        <ele>1764.8000488281</ele>
        <time>2018-03-24T11:51:40.000Z</time>
      </trkpt>
      <trkpt lat="45.96198" lon="6.57009">
        <ele>1763.5999755859</ele>
        <time>2018-03-24T11:51:41.000Z</time>
      </trkpt>
      <trkpt lat="45.96199" lon="6.57016">
        <ele>1762</ele>
        <time>2018-03-24T11:51:42.000Z</time>
      </trkpt>
      <trkpt lat="45.962" lon="6.57024">
        <ele>1760.1999511719</ele>
        <time>2018-03-24T11:51:43.000Z</time>
      </trkpt>
      <trkpt lat="45.96203" lon="6.57028">
        <ele>1758.4000244141</ele>
        <time>2018-03-24T11:51:44.000Z</time>
      </trkpt>
      <trkpt lat="45.96208" lon="6.57028">
        <ele>1756.8000488281</ele>
        <time>2018-03-24T11:51:45.000Z</time>
      </trkpt>
      <trkpt lat="45.96213" lon="6.57031">
        <ele>1755</ele>
        <time>2018-03-24T11:51:46.000Z</time>
      </trkpt>
      <trkpt lat="45.96217" lon="6.57036">
        <ele>1753.4000244141</ele>
        <time>2018-03-24T11:51:47.000Z</time>
      </trkpt>
      <trkpt lat="45.96222" lon="6.57038">
        <ele>1752</ele>
        <time>2018-03-24T11:51:48.000Z</time>
      </trkpt>
      <trkpt lat="45.96227" lon="6.57038">
        <ele>1750.8000488281</ele>
        <time>2018-03-24T11:51:49.000Z</time>
      </trkpt>
      <trkpt lat="45.96231" lon="6.57039">
        <ele>1749.4000244141</ele>
        <time>2018-03-24T11:51:50.000Z</time>
      </trkpt>
      <trkpt lat="45.96234" lon="6.57043">
        <ele>1748.1999511719</ele>
        <time>2018-03-24T11:51:51.000Z</time>
      </trkpt>
      <trkpt lat="45.96235" lon="6.57051">
        <ele>1747</ele>
        <time>2018-03-24T11:51:52.000Z</time>
      </trkpt>
      <trkpt lat="45.96233" lon="6.57058">
        <ele>1746.1999511719</ele>
        <time>2018-03-24T11:51:53.000Z</time>
      </trkpt>
      <trkpt lat="45.96232" lon="6.57061">
        <ele>1745</ele>
        <time>2018-03-24T11:51:54.000Z</time>
      </trkpt>
      <trkpt lat="45.96232" lon="6.57061">
        <ele>1744</ele>
        <time>2018-03-24T11:51:55.000Z</time>
      </trkpt>
      <trkpt lat="45.96232" lon="6.5706">
        <ele>1743.5999755859</ele>
        <time>2018-03-24T11:51:56.000Z</time>
      </trkpt>
      <trkpt lat="45.96233" lon="6.57072">
        <ele>1743</ele>
        <time>2018-03-24T11:52:10.000Z</time>
      </trkpt>
      <trkpt lat="45.96234" lon="6.57088">
        <ele>1742</ele>
        <time>2018-03-24T11:52:12.000Z</time>
      </trkpt>
      <trkpt lat="45.96234" lon="6.57097">
        <ele>1741.1999511719</ele>
        <time>2018-03-24T11:52:13.000Z</time>
      </trkpt>
      <trkpt lat="45.96234" lon="6.57107">
        <ele>1739.8000488281</ele>
        <time>2018-03-24T11:52:14.000Z</time>
      </trkpt>
      <trkpt lat="45.96233" lon="6.57115">
        <ele>1738.1999511719</ele>
        <time>2018-03-24T11:52:15.000Z</time>
      </trkpt>
      <trkpt lat="45.96234" lon="6.57121">
        <ele>1737</ele>
        <time>2018-03-24T11:52:16.000Z</time>
      </trkpt>
      <trkpt lat="45.96238" lon="6.57124">
        <ele>1735.8000488281</ele>
        <time>2018-03-24T11:52:17.000Z</time>
      </trkpt>
      <trkpt lat="45.96244" lon="6.57127">
        <ele>1734.5999755859</ele>
        <time>2018-03-24T11:52:18.000Z</time>
      </trkpt>
      <trkpt lat="45.96248" lon="6.57134">
        <ele>1733.4000244141</ele>
        <time>2018-03-24T11:52:19.000Z</time>
      </trkpt>
      <trkpt lat="45.96249" lon="6.57142">
        <ele>1732</ele>
        <time>2018-03-24T11:52:20.000Z</time>
      </trkpt>
      <trkpt lat="45.96251" lon="6.5715">
        <ele>1730.4000244141</ele>
        <time>2018-03-24T11:52:21.000Z</time>
      </trkpt>
      <trkpt lat="45.96254" lon="6.5716">
        <ele>1728.8000488281</ele>
        <time>2018-03-24T11:52:22.000Z</time>
      </trkpt>
      <trkpt lat="45.96257" lon="6.57169">
        <ele>1727</ele>
        <time>2018-03-24T11:52:23.000Z</time>
      </trkpt>
      <trkpt lat="45.96259" lon="6.5718">
        <ele>1725</ele>
        <time>2018-03-24T11:52:24.000Z</time>
      </trkpt>
      <trkpt lat="45.96259" lon="6.5719">
        <ele>1723</ele>
        <time>2018-03-24T11:52:25.000Z</time>
      </trkpt>
      <trkpt lat="45.96258" lon="6.57199">
        <ele>1721.4000244141</ele>
        <time>2018-03-24T11:52:26.000Z</time>
      </trkpt>
      <trkpt lat="45.96256" lon="6.57207">
        <ele>1720.1999511719</ele>
        <time>2018-03-24T11:52:27.000Z</time>
      </trkpt>
      <trkpt lat="45.96252" lon="6.57223">
        <ele>1718.5999755859</ele>
        <time>2018-03-24T11:52:29.000Z</time>
      </trkpt>
      <trkpt lat="45.96248" lon="6.57239">
        <ele>1717.5999755859</ele>
        <time>2018-03-24T11:52:31.000Z</time>
      </trkpt>
      <trkpt lat="45.96244" lon="6.57261">
        <ele>1716.1999511719</ele>
        <time>2018-03-24T11:52:34.000Z</time>
      </trkpt>
      <trkpt lat="45.96239" lon="6.57278">
        <ele>1714.5999755859</ele>
        <time>2018-03-24T11:52:37.000Z</time>
      </trkpt>
      <trkpt lat="45.96239" lon="6.57287">
        <ele>1713</ele>
        <time>2018-03-24T11:52:39.000Z</time>
      </trkpt>
      <trkpt lat="45.96241" lon="6.57296">
        <ele>1711.5999755859</ele>
        <time>2018-03-24T11:52:41.000Z</time>
      </trkpt>
      <trkpt lat="45.96245" lon="6.57297">
        <ele>1711</ele>
        <time>2018-03-24T11:52:42.000Z</time>
      </trkpt>
      <trkpt lat="45.9625" lon="6.57297">
        <ele>1709.8000488281</ele>
        <time>2018-03-24T11:52:43.000Z</time>
      </trkpt>
      <trkpt lat="45.96254" lon="6.573">
        <ele>1708.8000488281</ele>
        <time>2018-03-24T11:52:44.000Z</time>
      </trkpt>
      <trkpt lat="45.96258" lon="6.57307">
        <ele>1707.1999511719</ele>
        <time>2018-03-24T11:52:45.000Z</time>
      </trkpt>
      <trkpt lat="45.96263" lon="6.57312">
        <ele>1705.8000488281</ele>
        <time>2018-03-24T11:52:46.000Z</time>
      </trkpt>
      <trkpt lat="45.96269" lon="6.57313">
        <ele>1704.4000244141</ele>
        <time>2018-03-24T11:52:47.000Z</time>
      </trkpt>
      <trkpt lat="45.96274" lon="6.57313">
        <ele>1703</ele>
        <time>2018-03-24T11:52:48.000Z</time>
      </trkpt>
      <trkpt lat="45.9628" lon="6.57315">
        <ele>1701.8000488281</ele>
        <time>2018-03-24T11:52:49.000Z</time>
      </trkpt>
      <trkpt lat="45.96284" lon="6.5732">
        <ele>1700.5999755859</ele>
        <time>2018-03-24T11:52:50.000Z</time>
      </trkpt>
      <trkpt lat="45.96285" lon="6.57325">
        <ele>1699.5999755859</ele>
        <time>2018-03-24T11:52:51.000Z</time>
      </trkpt>
      <trkpt lat="45.96284" lon="6.57327">
        <ele>1698.1999511719</ele>
        <time>2018-03-24T11:52:53.000Z</time>
      </trkpt>
      <trkpt lat="45.96283" lon="6.5733">
        <ele>1697.1999511719</ele>
        <time>2018-03-24T11:53:03.000Z</time>
      </trkpt>
      <trkpt lat="45.96286" lon="6.57335">
        <ele>1697</ele>
        <time>2018-03-24T11:53:05.000Z</time>
      </trkpt>
      <trkpt lat="45.96293" lon="6.57345">
        <ele>1696</ele>
        <time>2018-03-24T11:53:07.000Z</time>
      </trkpt>
      <trkpt lat="45.96295" lon="6.57352">
        <ele>1694.8000488281</ele>
        <time>2018-03-24T11:53:08.000Z</time>
      </trkpt>
      <trkpt lat="45.96296" lon="6.57358">
        <ele>1693.4000244141</ele>
        <time>2018-03-24T11:53:09.000Z</time>
      </trkpt>
      <trkpt lat="45.96298" lon="6.57364">
        <ele>1692.4000244141</ele>
        <time>2018-03-24T11:53:10.000Z</time>
      </trkpt>
      <trkpt lat="45.96301" lon="6.57366">
        <ele>1691.4000244141</ele>
        <time>2018-03-24T11:53:11.000Z</time>
      </trkpt>
      <trkpt lat="45.96307" lon="6.57366">
        <ele>1690.5999755859</ele>
        <time>2018-03-24T11:53:12.000Z</time>
      </trkpt>
      <trkpt lat="45.96312" lon="6.57368">
        <ele>1689.4000244141</ele>
        <time>2018-03-24T11:53:13.000Z</time>
      </trkpt>
      <trkpt lat="45.96316" lon="6.57374">
        <ele>1688.4000244141</ele>
        <time>2018-03-24T11:53:14.000Z</time>
      </trkpt>
      <trkpt lat="45.96317" lon="6.57382">
        <ele>1687.1999511719</ele>
        <time>2018-03-24T11:53:15.000Z</time>
      </trkpt>
      <trkpt lat="45.96319" lon="6.57389">
        <ele>1686.4000244141</ele>
        <time>2018-03-24T11:53:16.000Z</time>
      </trkpt>
      <trkpt lat="45.96323" lon="6.57394">
        <ele>1685.4000244141</ele>
        <time>2018-03-24T11:53:17.000Z</time>
      </trkpt>
      <trkpt lat="45.96328" lon="6.57396">
        <ele>1684.1999511719</ele>
        <time>2018-03-24T11:53:18.000Z</time>
      </trkpt>
      <trkpt lat="45.96333" lon="6.57401">
        <ele>1683</ele>
        <time>2018-03-24T11:53:19.000Z</time>
      </trkpt>
      <trkpt lat="45.96334" lon="6.57407">
        <ele>1681.5999755859</ele>
        <time>2018-03-24T11:53:20.000Z</time>
      </trkpt>
      <trkpt lat="45.96333" lon="6.57414">
        <ele>1680.5999755859</ele>
        <time>2018-03-24T11:53:21.000Z</time>
      </trkpt>
      <trkpt lat="45.96329" lon="6.57425">
        <ele>1679</ele>
        <time>2018-03-24T11:53:23.000Z</time>
      </trkpt>
      <trkpt lat="45.96325" lon="6.5743">
        <ele>1677.8000488281</ele>
        <time>2018-03-24T11:53:25.000Z</time>
      </trkpt>
      <trkpt lat="45.96325" lon="6.57429">
        <ele>1676.5999755859</ele>
        <time>2018-03-24T11:53:31.000Z</time>
      </trkpt>
      <trkpt lat="45.96329" lon="6.57435">
        <ele>1676.1999511719</ele>
        <time>2018-03-24T11:53:42.000Z</time>
      </trkpt>
      <trkpt lat="45.96332" lon="6.57449">
        <ele>1675.1999511719</ele>
        <time>2018-03-24T11:53:44.000Z</time>
      </trkpt>
      <trkpt lat="45.96334" lon="6.57456">
        <ele>1674.1999511719</ele>
        <time>2018-03-24T11:53:45.000Z</time>
      </trkpt>
      <trkpt lat="45.96338" lon="6.57461">
        <ele>1673</ele>
        <time>2018-03-24T11:53:46.000Z</time>
      </trkpt>
      <trkpt lat="45.96345" lon="6.57465">
        <ele>1671.8000488281</ele>
        <time>2018-03-24T11:53:47.000Z</time>
      </trkpt>
      <trkpt lat="45.9635" lon="6.57471">
        <ele>1670.1999511719</ele>
        <time>2018-03-24T11:53:48.000Z</time>
      </trkpt>
      <trkpt lat="45.96353" lon="6.57479">
        <ele>1668.4000244141</ele>
        <time>2018-03-24T11:53:49.000Z</time>
      </trkpt>
      <trkpt lat="45.96355" lon="6.57487">
        <ele>1666.4000244141</ele>
        <time>2018-03-24T11:53:50.000Z</time>
      </trkpt>
      <trkpt lat="45.96355" lon="6.57494">
        <ele>1665</ele>
        <time>2018-03-24T11:53:51.000Z</time>
      </trkpt>
      <trkpt lat="45.96354" lon="6.5751">
        <ele>1663.1999511719</ele>
        <time>2018-03-24T11:53:53.000Z</time>
      </trkpt>
      <trkpt lat="45.96355" lon="6.57528">
        <ele>1661.5999755859</ele>
        <time>2018-03-24T11:53:55.000Z</time>
      </trkpt>
      <trkpt lat="45.96357" lon="6.57546">
        <ele>1659.8000488281</ele>
        <time>2018-03-24T11:53:57.000Z</time>
      </trkpt>
      <trkpt lat="45.96359" lon="6.57562">
        <ele>1658</ele>
        <time>2018-03-24T11:53:59.000Z</time>
      </trkpt>
      <trkpt lat="45.96361" lon="6.57569">
        <ele>1657.1999511719</ele>
        <time>2018-03-24T11:54:00.000Z</time>
      </trkpt>
      <trkpt lat="45.96364" lon="6.57575">
        <ele>1656.4000244141</ele>
        <time>2018-03-24T11:54:01.000Z</time>
      </trkpt>
      <trkpt lat="45.96368" lon="6.57578">
        <ele>1655.5999755859</ele>
        <time>2018-03-24T11:54:02.000Z</time>
      </trkpt>
      <trkpt lat="45.96373" lon="6.57582">
        <ele>1654.4000244141</ele>
        <time>2018-03-24T11:54:03.000Z</time>
      </trkpt>
      <trkpt lat="45.96377" lon="6.57586">
        <ele>1653.4000244141</ele>
        <time>2018-03-24T11:54:04.000Z</time>
      </trkpt>
      <trkpt lat="45.9638" lon="6.57591">
        <ele>1652.1999511719</ele>
        <time>2018-03-24T11:54:05.000Z</time>
      </trkpt>
      <trkpt lat="45.96382" lon="6.57596">
        <ele>1651.1999511719</ele>
        <time>2018-03-24T11:54:06.000Z</time>
      </trkpt>
      <trkpt lat="45.96384" lon="6.57607">
        <ele>1649.4000244141</ele>
        <time>2018-03-24T11:54:08.000Z</time>
      </trkpt>
      <trkpt lat="45.96389" lon="6.57623">
        <ele>1648.4000244141</ele>
        <time>2018-03-24T11:54:11.000Z</time>
      </trkpt>
      <trkpt lat="45.96395" lon="6.57639">
        <ele>1646.8000488281</ele>
        <time>2018-03-24T11:54:14.000Z</time>
      </trkpt>
      <trkpt lat="45.964" lon="6.57651">
        <ele>1645.5999755859</ele>
        <time>2018-03-24T11:54:17.000Z</time>
      </trkpt>
      <trkpt lat="45.96408" lon="6.57666">
        <ele>1644.4000244141</ele>
        <time>2018-03-24T11:54:21.000Z</time>
      </trkpt>
      <trkpt lat="45.96415" lon="6.57682">
        <ele>1643</ele>
        <time>2018-03-24T11:54:25.000Z</time>
      </trkpt>
      <trkpt lat="45.96419" lon="6.57692">
        <ele>1641.8000488281</ele>
        <time>2018-03-24T11:54:28.000Z</time>
      </trkpt>
      <trkpt lat="45.96426" lon="6.57709">
        <ele>1640.1999511719</ele>
        <time>2018-03-24T11:54:31.000Z</time>
      </trkpt>
      <trkpt lat="45.96432" lon="6.57723">
        <ele>1638.5999755859</ele>
        <time>2018-03-24T11:54:33.000Z</time>
      </trkpt>
      <trkpt lat="45.96437" lon="6.57735">
        <ele>1636.8000488281</ele>
        <time>2018-03-24T11:54:35.000Z</time>
      </trkpt>
      <trkpt lat="45.96442" lon="6.57747">
        <ele>1635.1999511719</ele>
        <time>2018-03-24T11:54:37.000Z</time>
      </trkpt>
      <trkpt lat="45.96443" lon="6.57752">
        <ele>1633.4000244141</ele>
        <time>2018-03-24T11:54:39.000Z</time>
      </trkpt>
      <trkpt lat="45.96443" lon="6.57752">
        <ele>1632.4000244141</ele>
        <time>2018-03-24T11:54:41.000Z</time>
      </trkpt>
      <trkpt lat="45.96447" lon="6.57762">
        <ele>1631</ele>
        <time>2018-03-24T11:54:52.000Z</time>
      </trkpt>
      <trkpt lat="45.9645" lon="6.57773">
        <ele>1629.8000488281</ele>
        <time>2018-03-24T11:54:55.000Z</time>
      </trkpt>
      <trkpt lat="45.96451" lon="6.5778">
        <ele>1628.8000488281</ele>
        <time>2018-03-24T11:54:57.000Z</time>
      </trkpt>
      <trkpt lat="45.96454" lon="6.5779">
        <ele>1627.1999511719</ele>
        <time>2018-03-24T11:54:59.000Z</time>
      </trkpt>
      <trkpt lat="45.96458" lon="6.578">
        <ele>1625.4000244141</ele>
        <time>2018-03-24T11:55:01.000Z</time>
      </trkpt>
      <trkpt lat="45.96461" lon="6.57808">
        <ele>1624</ele>
        <time>2018-03-24T11:55:03.000Z</time>
      </trkpt>
      <trkpt lat="45.96465" lon="6.57818">
        <ele>1622.5999755859</ele>
        <time>2018-03-24T11:55:05.000Z</time>
      </trkpt>
      <trkpt lat="45.96469" lon="6.57826">
        <ele>1621.4000244141</ele>
        <time>2018-03-24T11:55:07.000Z</time>
      </trkpt>
      <trkpt lat="45.96475" lon="6.57837">
        <ele>1620</ele>
        <time>2018-03-24T11:55:10.000Z</time>
      </trkpt>
      <trkpt lat="45.96479" lon="6.57844">
        <ele>1618.5999755859</ele>
        <time>2018-03-24T11:55:13.000Z</time>
      </trkpt>
      <trkpt lat="45.96485" lon="6.57854">
        <ele>1617.4000244141</ele>
        <time>2018-03-24T11:55:16.000Z</time>
      </trkpt>
      <trkpt lat="45.96488" lon="6.57864">
        <ele>1616.1999511719</ele>
        <time>2018-03-24T11:55:18.000Z</time>
      </trkpt>
      <trkpt lat="45.96492" lon="6.57875">
        <ele>1614.5999755859</ele>
        <time>2018-03-24T11:55:20.000Z</time>
      </trkpt>
      <trkpt lat="45.96497" lon="6.57888">
        <ele>1613</ele>
        <time>2018-03-24T11:55:22.000Z</time>
      </trkpt>
      <trkpt lat="45.96502" lon="6.57902">
        <ele>1611.5999755859</ele>
        <time>2018-03-24T11:55:24.000Z</time>
      </trkpt>
      <trkpt lat="45.96506" lon="6.57917">
        <ele>1610.1999511719</ele>
        <time>2018-03-24T11:55:26.000Z</time>
      </trkpt>
      <trkpt lat="45.96509" lon="6.57926">
        <ele>1609.1999511719</ele>
        <time>2018-03-24T11:55:27.000Z</time>
      </trkpt>
      <trkpt lat="45.96511" lon="6.57936">
        <ele>1608</ele>
        <time>2018-03-24T11:55:28.000Z</time>
      </trkpt>
      <trkpt lat="45.96514" lon="6.57946">
        <ele>1606.5999755859</ele>
        <time>2018-03-24T11:55:29.000Z</time>
      </trkpt>
      <trkpt lat="45.96518" lon="6.57956">
        <ele>1605.4000244141</ele>
        <time>2018-03-24T11:55:30.000Z</time>
      </trkpt>
      <trkpt lat="45.96521" lon="6.57967">
        <ele>1604</ele>
        <time>2018-03-24T11:55:31.000Z</time>
      </trkpt>
      <trkpt lat="45.96523" lon="6.57976">
        <ele>1602.5999755859</ele>
        <time>2018-03-24T11:55:32.000Z</time>
      </trkpt>
      <trkpt lat="45.96525" lon="6.57985">
        <ele>1601.1999511719</ele>
        <time>2018-03-24T11:55:33.000Z</time>
      </trkpt>
      <trkpt lat="45.96528" lon="6.57995">
        <ele>1600</ele>
        <time>2018-03-24T11:55:34.000Z</time>
      </trkpt>
      <trkpt lat="45.96531" lon="6.58004">
        <ele>1599</ele>
        <time>2018-03-24T11:55:35.000Z</time>
      </trkpt>
      <trkpt lat="45.96533" lon="6.58011">
        <ele>1598</ele>
        <time>2018-03-24T11:55:36.000Z</time>
      </trkpt>
      <trkpt lat="45.96535" lon="6.58018">
        <ele>1597</ele>
        <time>2018-03-24T11:55:37.000Z</time>
      </trkpt>
      <trkpt lat="45.96538" lon="6.5803">
        <ele>1595.1999511719</ele>
        <time>2018-03-24T11:55:39.000Z</time>
      </trkpt>
      <trkpt lat="45.9654" lon="6.58037">
        <ele>1594</ele>
        <time>2018-03-24T11:55:41.000Z</time>
      </trkpt>
      <trkpt lat="45.9654" lon="6.58039">
        <ele>1593.5999755859</ele>
        <time>2018-03-24T11:55:42.000Z</time>
      </trkpt>
      <trkpt lat="45.96542" lon="6.58043">
        <ele>1592.8000488281</ele>
        <time>2018-03-24T11:55:52.000Z</time>
      </trkpt>
      <trkpt lat="45.96545" lon="6.58052">
        <ele>1592</ele>
        <time>2018-03-24T11:55:55.000Z</time>
      </trkpt>
      <trkpt lat="45.96546" lon="6.58056">
        <ele>1591.1999511719</ele>
        <time>2018-03-24T11:55:56.000Z</time>
      </trkpt>
      <trkpt lat="45.96547" lon="6.58058">
        <ele>1590.1999511719</ele>
        <time>2018-03-24T11:55:57.000Z</time>
      </trkpt>
      <trkpt lat="45.96549" lon="6.58063">
        <ele>1588.1999511719</ele>
        <time>2018-03-24T11:55:59.000Z</time>
      </trkpt>
      <trkpt lat="45.9655" lon="6.58063">
        <ele>1587.4000244141</ele>
        <time>2018-03-24T11:56:00.000Z</time>
      </trkpt>
      <trkpt lat="45.9655" lon="6.58063">
        <ele>1586.5999755859</ele>
        <time>2018-03-24T11:56:01.000Z</time>
      </trkpt>
      <trkpt lat="45.9655" lon="6.58064">
        <ele>1585.4000244141</ele>
        <time>2018-03-24T11:56:03.000Z</time>
      </trkpt>
      <trkpt lat="45.96553" lon="6.58067">
        <ele>1584.5999755859</ele>
        <time>2018-03-24T11:56:05.000Z</time>
      </trkpt>
      <trkpt lat="45.96555" lon="6.58066">
        <ele>1584</ele>
        <time>2018-03-24T11:56:06.000Z</time>
      </trkpt>
      <trkpt lat="45.96561" lon="6.5807">
        <ele>1582.4000244141</ele>
        <time>2018-03-24T11:56:08.000Z</time>
      </trkpt>
      <trkpt lat="45.96562" lon="6.58072">
        <ele>1580.8000488281</ele>
        <time>2018-03-24T11:56:09.000Z</time>
      </trkpt>
      <trkpt lat="45.96562" lon="6.58071">
        <ele>1579.1999511719</ele>
        <time>2018-03-24T11:56:10.000Z</time>
      </trkpt>
      <trkpt lat="45.96562" lon="6.5807">
        <ele>1578.1999511719</ele>
        <time>2018-03-24T11:56:11.000Z</time>
      </trkpt>
      <trkpt lat="45.9656" lon="6.58067">
        <ele>1577</ele>
        <time>2018-03-24T11:56:14.000Z</time>
      </trkpt>
      <trkpt lat="45.96554" lon="6.58076">
        <ele>1575.5999755859</ele>
        <time>2018-03-24T11:56:23.000Z</time>
      </trkpt>
      <trkpt lat="45.96556" lon="6.58088">
        <ele>1574.1999511719</ele>
        <time>2018-03-24T11:56:25.000Z</time>
      </trkpt>
      <trkpt lat="45.96558" lon="6.58094">
        <ele>1573.5999755859</ele>
        <time>2018-03-24T11:56:26.000Z</time>
      </trkpt>
      <trkpt lat="45.9656" lon="6.58101">
        <ele>1572.5999755859</ele>
        <time>2018-03-24T11:56:27.000Z</time>
      </trkpt>
      <trkpt lat="45.96562" lon="6.58109">
        <ele>1571.4000244141</ele>
        <time>2018-03-24T11:56:28.000Z</time>
      </trkpt>
      <trkpt lat="45.96565" lon="6.58126">
        <ele>1569.5999755859</ele>
        <time>2018-03-24T11:56:30.000Z</time>
      </trkpt>
      <trkpt lat="45.96569" lon="6.58146">
        <ele>1568</ele>
        <time>2018-03-24T11:56:32.000Z</time>
      </trkpt>
      <trkpt lat="45.96571" lon="6.58155">
        <ele>1566.8000488281</ele>
        <time>2018-03-24T11:56:33.000Z</time>
      </trkpt>
      <trkpt lat="45.96575" lon="6.58165">
        <ele>1565.4000244141</ele>
        <time>2018-03-24T11:56:34.000Z</time>
      </trkpt>
      <trkpt lat="45.96578" lon="6.58174">
        <ele>1564</ele>
        <time>2018-03-24T11:56:35.000Z</time>
      </trkpt>
      <trkpt lat="45.96579" lon="6.58182">
        <ele>1562.8000488281</ele>
        <time>2018-03-24T11:56:36.000Z</time>
      </trkpt>
      <trkpt lat="45.96581" lon="6.58187">
        <ele>1561.8000488281</ele>
        <time>2018-03-24T11:56:37.000Z</time>
      </trkpt>
      <trkpt lat="45.96584" lon="6.58196">
        <ele>1560.5999755859</ele>
        <time>2018-03-24T11:56:39.000Z</time>
      </trkpt>
      <trkpt lat="45.96587" lon="6.58209">
        <ele>1559.4000244141</ele>
        <time>2018-03-24T11:56:42.000Z</time>
      </trkpt>
      <trkpt lat="45.96588" lon="6.58215">
        <ele>1558.8000488281</ele>
        <time>2018-03-24T11:56:45.000Z</time>
      </trkpt>
      <trkpt lat="45.9659" lon="6.58225">
        <ele>1558.8000488281</ele>
        <time>2018-03-24T11:56:57.000Z</time>
      </trkpt>
      <trkpt lat="45.96592" lon="6.58232">
        <ele>1558.1999511719</ele>
        <time>2018-03-24T11:56:59.000Z</time>
      </trkpt>
      <trkpt lat="45.96595" lon="6.58246">
        <ele>1557</ele>
        <time>2018-03-24T11:57:02.000Z</time>
      </trkpt>
      <trkpt lat="45.96597" lon="6.58259">
        <ele>1555.5999755859</ele>
        <time>2018-03-24T11:57:04.000Z</time>
      </trkpt>
      <trkpt lat="45.96598" lon="6.58267">
        <ele>1554.5999755859</ele>
        <time>2018-03-24T11:57:05.000Z</time>
      </trkpt>
      <trkpt lat="45.96601" lon="6.58275">
        <ele>1553.1999511719</ele>
        <time>2018-03-24T11:57:06.000Z</time>
      </trkpt>
      <trkpt lat="45.96602" lon="6.58285">
        <ele>1552</ele>
        <time>2018-03-24T11:57:07.000Z</time>
      </trkpt>
      <trkpt lat="45.96605" lon="6.58294">
        <ele>1551</ele>
        <time>2018-03-24T11:57:08.000Z</time>
      </trkpt>
      <trkpt lat="45.96609" lon="6.58311">
        <ele>1549</ele>
        <time>2018-03-24T11:57:10.000Z</time>
      </trkpt>
      <trkpt lat="45.96615" lon="6.58328">
        <ele>1547.4000244141</ele>
        <time>2018-03-24T11:57:12.000Z</time>
      </trkpt>
      <trkpt lat="45.96622" lon="6.58342">
        <ele>1545.8000488281</ele>
        <time>2018-03-24T11:57:14.000Z</time>
      </trkpt>
      <trkpt lat="45.96627" lon="6.58352">
        <ele>1544.5999755859</ele>
        <time>2018-03-24T11:57:16.000Z</time>
      </trkpt>
      <trkpt lat="45.96631" lon="6.58358">
        <ele>1543.1999511719</ele>
        <time>2018-03-24T11:57:18.000Z</time>
      </trkpt>
      <trkpt lat="45.96637" lon="6.58367">
        <ele>1542.1999511719</ele>
        <time>2018-03-24T11:57:20.000Z</time>
      </trkpt>
      <trkpt lat="45.96642" lon="6.58378">
        <ele>1541.1999511719</ele>
        <time>2018-03-24T11:57:22.000Z</time>
      </trkpt>
      <trkpt lat="45.96645" lon="6.58383">
        <ele>1540.5999755859</ele>
        <time>2018-03-24T11:57:23.000Z</time>
      </trkpt>
      <trkpt lat="45.96651" lon="6.58398">
        <ele>1539.5999755859</ele>
        <time>2018-03-24T11:57:26.000Z</time>
      </trkpt>
      <trkpt lat="45.96652" lon="6.58401">
        <ele>1538.4000244141</ele>
        <time>2018-03-24T11:57:28.000Z</time>
      </trkpt>
      <trkpt lat="45.96652" lon="6.58402">
        <ele>1537.4000244141</ele>
        <time>2018-03-24T11:57:32.000Z</time>
      </trkpt>
      <trkpt lat="45.9666" lon="6.58416">
        <ele>1536.5999755859</ele>
        <time>2018-03-24T11:57:45.000Z</time>
      </trkpt>
      <trkpt lat="45.96662" lon="6.58421">
        <ele>1536.1999511719</ele>
        <time>2018-03-24T11:57:47.000Z</time>
      </trkpt>
      <trkpt lat="45.96669" lon="6.58445">
        <ele>1535</ele>
        <time>2018-03-24T11:57:54.000Z</time>
      </trkpt>
      <trkpt lat="45.9667" lon="6.58452">
        <ele>1534.5999755859</ele>
        <time>2018-03-24T11:57:55.000Z</time>
      </trkpt>
      <trkpt lat="45.96673" lon="6.5846">
        <ele>1534</ele>
        <time>2018-03-24T11:57:56.000Z</time>
      </trkpt>
      <trkpt lat="45.96676" lon="6.58468">
        <ele>1533</ele>
        <time>2018-03-24T11:57:57.000Z</time>
      </trkpt>
      <trkpt lat="45.96678" lon="6.58475">
        <ele>1532</ele>
        <time>2018-03-24T11:57:58.000Z</time>
      </trkpt>
      <trkpt lat="45.96684" lon="6.58489">
        <ele>1530</ele>
        <time>2018-03-24T11:58:00.000Z</time>
      </trkpt>
      <trkpt lat="45.96691" lon="6.58502">
        <ele>1528.1999511719</ele>
        <time>2018-03-24T11:58:02.000Z</time>
      </trkpt>
      <trkpt lat="45.96697" lon="6.58513">
        <ele>1526.5999755859</ele>
        <time>2018-03-24T11:58:04.000Z</time>
      </trkpt>
      <trkpt lat="45.96702" lon="6.58529">
        <ele>1525.1999511719</ele>
        <time>2018-03-24T11:58:07.000Z</time>
      </trkpt>
      <trkpt lat="45.96707" lon="6.58542">
        <ele>1523.5999755859</ele>
        <time>2018-03-24T11:58:09.000Z</time>
      </trkpt>
      <trkpt lat="45.96714" lon="6.58559">
        <ele>1521.5999755859</ele>
        <time>2018-03-24T11:58:11.000Z</time>
      </trkpt>
      <trkpt lat="45.96718" lon="6.58567">
        <ele>1520.1999511719</ele>
        <time>2018-03-24T11:58:12.000Z</time>
      </trkpt>
      <trkpt lat="45.96721" lon="6.58572">
        <ele>1519.1999511719</ele>
        <time>2018-03-24T11:58:13.000Z</time>
      </trkpt>
      <trkpt lat="45.96726" lon="6.58583">
        <ele>1518</ele>
        <time>2018-03-24T11:58:15.000Z</time>
      </trkpt>
      <trkpt lat="45.96735" lon="6.58604">
        <ele>1517</ele>
        <time>2018-03-24T11:58:19.000Z</time>
      </trkpt>
      <trkpt lat="45.96741" lon="6.58617">
        <ele>1515.8000488281</ele>
        <time>2018-03-24T11:58:21.000Z</time>
      </trkpt>
      <trkpt lat="45.96747" lon="6.58631">
        <ele>1514.4000244141</ele>
        <time>2018-03-24T11:58:23.000Z</time>
      </trkpt>
      <trkpt lat="45.96751" lon="6.58644">
        <ele>1513.4000244141</ele>
        <time>2018-03-24T11:58:25.000Z</time>
      </trkpt>
      <trkpt lat="45.96756" lon="6.58658">
        <ele>1512</ele>
        <time>2018-03-24T11:58:27.000Z</time>
      </trkpt>
      <trkpt lat="45.96762" lon="6.58671">
        <ele>1510</ele>
        <time>2018-03-24T11:58:29.000Z</time>
      </trkpt>
      <trkpt lat="45.9677" lon="6.58685">
        <ele>1508.5999755859</ele>
        <time>2018-03-24T11:58:31.000Z</time>
      </trkpt>
      <trkpt lat="45.96778" lon="6.587">
        <ele>1507</ele>
        <time>2018-03-24T11:58:33.000Z</time>
      </trkpt>
      <trkpt lat="45.96786" lon="6.58713">
        <ele>1505.5999755859</ele>
        <time>2018-03-24T11:58:35.000Z</time>
      </trkpt>
      <trkpt lat="45.96794" lon="6.58731">
        <ele>1504.4000244141</ele>
        <time>2018-03-24T11:58:38.000Z</time>
      </trkpt>
      <trkpt lat="45.96797" lon="6.58745">
        <ele>1503.4000244141</ele>
        <time>2018-03-24T11:58:41.000Z</time>
      </trkpt>
      <trkpt lat="45.96798" lon="6.58751">
        <ele>1503</ele>
        <time>2018-03-24T11:58:45.000Z</time>
      </trkpt>
      <trkpt lat="45.96802" lon="6.58771">
        <ele>1504</ele>
        <time>2018-03-24T11:59:44.000Z</time>
      </trkpt>
      <trkpt lat="45.96803" lon="6.58773">
        <ele>1503.8000488281</ele>
        <time>2018-03-24T11:59:45.000Z</time>
      </trkpt>
      <trkpt lat="45.96805" lon="6.58776">
        <ele>1503.8000488281</ele>
        <time>2018-03-24T11:59:47.000Z</time>
      </trkpt>
      <trkpt lat="45.96809" lon="6.58782">
        <ele>1503.5999755859</ele>
        <time>2018-03-24T11:59:51.000Z</time>
      </trkpt>
      <trkpt lat="45.96809" lon="6.58782">
        <ele>1503.5999755859</ele>
        <time>2018-03-24T11:59:52.000Z</time>
      </trkpt>
      <trkpt lat="45.96814" lon="6.58789">
        <ele>1503.8000488281</ele>
        <time>2018-03-24T12:00:00.000Z</time>
      </trkpt>
      <trkpt lat="45.96817" lon="6.58792">
        <ele>1504</ele>
        <time>2018-03-24T12:00:05.000Z</time>
      </trkpt>
      <trkpt lat="45.96819" lon="6.58797">
        <ele>1503.8000488281</ele>
        <time>2018-03-24T12:00:13.000Z</time>
      </trkpt>
      <trkpt lat="45.96822" lon="6.588">
        <ele>1503.8000488281</ele>
        <time>2018-03-24T12:00:16.000Z</time>
      </trkpt>
      <trkpt lat="45.96824" lon="6.58802">
        <ele>1503.5999755859</ele>
        <time>2018-03-24T12:00:18.000Z</time>
      </trkpt>
      <trkpt lat="45.96827" lon="6.58805">
        <ele>1503.5999755859</ele>
        <time>2018-03-24T12:00:21.000Z</time>
      </trkpt>
      <trkpt lat="45.96829" lon="6.5881">
        <ele>1503.5999755859</ele>
        <time>2018-03-24T12:00:25.000Z</time>
      </trkpt>
      <trkpt lat="45.96829" lon="6.58814">
        <ele>1503.5999755859</ele>
        <time>2018-03-24T12:00:28.000Z</time>
      </trkpt>
      <trkpt lat="45.96828" lon="6.5882">
        <ele>1503.5999755859</ele>
        <time>2018-03-24T12:00:46.000Z</time>
      </trkpt>
      <trkpt lat="45.96831" lon="6.5882">
        <ele>1503.5999755859</ele>
        <time>2018-03-24T12:01:20.000Z</time>
      </trkpt>
      <trkpt lat="45.9683" lon="6.5882">
        <ele>1503.1999511719</ele>
        <time>2018-03-24T12:01:44.000Z</time>
      </trkpt>
      <trkpt lat="45.9683" lon="6.58822">
        <ele>1503.1999511719</ele>
        <time>2018-03-24T12:02:10.000Z</time>
      </trkpt>
      <trkpt lat="45.96831" lon="6.58818">
        <ele>1503.1999511719</ele>
        <time>2018-03-24T12:02:41.000Z</time>
      </trkpt>
      <trkpt lat="45.96831" lon="6.58821">
        <ele>1506</ele>
        <time>2018-03-24T12:03:38.000Z</time>
      </trkpt>
      <trkpt lat="45.96828" lon="6.5882">
        <ele>1505</ele>
        <time>2018-03-24T12:03:53.000Z</time>
      </trkpt>
      <trkpt lat="45.96827" lon="6.58819">
        <ele>1506</ele>
        <time>2018-03-24T12:04:01.000Z</time>
      </trkpt>
      <trkpt lat="45.96832" lon="6.58818">
        <ele>1506.1999511719</ele>
        <time>2018-03-24T12:04:24.000Z</time>
      </trkpt>
      <trkpt lat="45.96828" lon="6.58815">
        <ele>1506.5999755859</ele>
        <time>2018-03-24T12:05:19.000Z</time>
      </trkpt>
      <trkpt lat="45.96829" lon="6.58814">
        <ele>1507</ele>
        <time>2018-03-24T12:05:28.000Z</time>
      </trkpt>
      <trkpt lat="45.96829" lon="6.58813">
        <ele>1506.1999511719</ele>
        <time>2018-03-24T12:06:36.000Z</time>
      </trkpt>
      <trkpt lat="45.96831" lon="6.58821">
        <ele>1506.1999511719</ele>
        <time>2018-03-24T12:07:45.000Z</time>
      </trkpt>
      <trkpt lat="45.96829" lon="6.58821">
        <ele>1506.1999511719</ele>
        <time>2018-03-24T12:08:15.000Z</time>
      </trkpt>
      <trkpt lat="45.96827" lon="6.58825">
        <ele>1506.1999511719</ele>
        <time>2018-03-24T12:08:36.000Z</time>
      </trkpt>
      <trkpt lat="45.96826" lon="6.58832">
        <ele>1505.8000488281</ele>
        <time>2018-03-24T12:08:39.000Z</time>
      </trkpt>
      <trkpt lat="45.96825" lon="6.58841">
        <ele>1504.5999755859</ele>
        <time>2018-03-24T12:08:41.000Z</time>
      </trkpt>
      <trkpt lat="45.96823" lon="6.58856">
        <ele>1503.4000244141</ele>
        <time>2018-03-24T12:08:43.000Z</time>
      </trkpt>
      <trkpt lat="45.96821" lon="6.58887">
        <ele>1503</ele>
        <time>2018-03-24T12:08:47.000Z</time>
      </trkpt>
      <trkpt lat="45.9682" lon="6.58902">
        <ele>1502.1999511719</ele>
        <time>2018-03-24T12:08:49.000Z</time>
      </trkpt>
      <trkpt lat="45.96821" lon="6.58922">
        <ele>1501</ele>
        <time>2018-03-24T12:08:52.000Z</time>
      </trkpt>
      <trkpt lat="45.96823" lon="6.58934">
        <ele>1500.1999511719</ele>
        <time>2018-03-24T12:08:54.000Z</time>
      </trkpt>
      <trkpt lat="45.96822" lon="6.58937">
        <ele>1499.8000488281</ele>
        <time>2018-03-24T12:08:55.000Z</time>
      </trkpt>
      <trkpt lat="45.96813" lon="6.58955">
        <ele>1498.8000488281</ele>
        <time>2018-03-24T12:09:01.000Z</time>
      </trkpt>
      <trkpt lat="45.96809" lon="6.58979">
        <ele>1497.1999511719</ele>
        <time>2018-03-24T12:09:04.000Z</time>
      </trkpt>
      <trkpt lat="45.96811" lon="6.58991">
        <ele>1496.1999511719</ele>
        <time>2018-03-24T12:09:06.000Z</time>
      </trkpt>
      <trkpt lat="45.96814" lon="6.59004">
        <ele>1495</ele>
        <time>2018-03-24T12:09:09.000Z</time>
      </trkpt>
      <trkpt lat="45.96819" lon="6.5902">
        <ele>1494</ele>
        <time>2018-03-24T12:09:15.000Z</time>
      </trkpt>
      <trkpt lat="45.96822" lon="6.59039">
        <ele>1493</ele>
        <time>2018-03-24T12:09:19.000Z</time>
      </trkpt>
      <trkpt lat="45.9683" lon="6.59062">
        <ele>1492</ele>
        <time>2018-03-24T12:09:25.000Z</time>
      </trkpt>
      <trkpt lat="45.96836" lon="6.59086">
        <ele>1491</ele>
        <time>2018-03-24T12:09:32.000Z</time>
      </trkpt>
      <trkpt lat="45.96838" lon="6.59098">
        <ele>1489.5999755859</ele>
        <time>2018-03-24T12:09:36.000Z</time>
      </trkpt>
      <trkpt lat="45.96838" lon="6.59098">
        <ele>1489.4000244141</ele>
        <time>2018-03-24T12:09:37.000Z</time>
      </trkpt>
      <trkpt lat="45.96839" lon="6.59102">
        <ele>1488.5999755859</ele>
        <time>2018-03-24T12:09:43.000Z</time>
      </trkpt>
      <trkpt lat="45.96842" lon="6.59113">
        <ele>1488</ele>
        <time>2018-03-24T12:09:45.000Z</time>
      </trkpt>
      <trkpt lat="45.96843" lon="6.59121">
        <ele>1487.4000244141</ele>
        <time>2018-03-24T12:09:46.000Z</time>
      </trkpt>
      <trkpt lat="45.96842" lon="6.59129">
        <ele>1486.4000244141</ele>
        <time>2018-03-24T12:09:47.000Z</time>
      </trkpt>
      <trkpt lat="45.96842" lon="6.59137">
        <ele>1485.4000244141</ele>
        <time>2018-03-24T12:09:48.000Z</time>
      </trkpt>
      <trkpt lat="45.96842" lon="6.59155">
        <ele>1483.5999755859</ele>
        <time>2018-03-24T12:09:50.000Z</time>
      </trkpt>
      <trkpt lat="45.96839" lon="6.59173">
        <ele>1482</ele>
        <time>2018-03-24T12:09:52.000Z</time>
      </trkpt>
      <trkpt lat="45.96837" lon="6.59193">
        <ele>1479.8000488281</ele>
        <time>2018-03-24T12:09:54.000Z</time>
      </trkpt>
      <trkpt lat="45.96837" lon="6.59205">
        <ele>1478.4000244141</ele>
        <time>2018-03-24T12:09:55.000Z</time>
      </trkpt>
      <trkpt lat="45.96838" lon="6.59215">
        <ele>1477.4000244141</ele>
        <time>2018-03-24T12:09:56.000Z</time>
      </trkpt>
      <trkpt lat="45.9684" lon="6.59234">
        <ele>1475.8000488281</ele>
        <time>2018-03-24T12:09:58.000Z</time>
      </trkpt>
      <trkpt lat="45.96844" lon="6.59251">
        <ele>1474.1999511719</ele>
        <time>2018-03-24T12:10:00.000Z</time>
      </trkpt>
      <trkpt lat="45.9685" lon="6.59273">
        <ele>1473</ele>
        <time>2018-03-24T12:10:03.000Z</time>
      </trkpt>
      <trkpt lat="45.96856" lon="6.59295">
        <ele>1471.8000488281</ele>
        <time>2018-03-24T12:10:07.000Z</time>
      </trkpt>
      <trkpt lat="45.96859" lon="6.59314">
        <ele>1470.4000244141</ele>
        <time>2018-03-24T12:10:11.000Z</time>
      </trkpt>
      <trkpt lat="45.96859" lon="6.5932">
        <ele>1470</ele>
        <time>2018-03-24T12:10:12.000Z</time>
      </trkpt>
      <trkpt lat="45.96861" lon="6.59333">
        <ele>1469.1999511719</ele>
        <time>2018-03-24T12:10:14.000Z</time>
      </trkpt>
      <trkpt lat="45.96862" lon="6.59348">
        <ele>1468</ele>
        <time>2018-03-24T12:10:17.000Z</time>
      </trkpt>
      <trkpt lat="45.96863" lon="6.59362">
        <ele>1466.8000488281</ele>
        <time>2018-03-24T12:10:20.000Z</time>
      </trkpt>
      <trkpt lat="45.96863" lon="6.5937">
        <ele>1465.4000244141</ele>
        <time>2018-03-24T12:10:23.000Z</time>
      </trkpt>
      <trkpt lat="45.96864" lon="6.5937">
        <ele>1464.1999511719</ele>
        <time>2018-03-24T12:10:26.000Z</time>
      </trkpt>
      <trkpt lat="45.96864" lon="6.59383">
        <ele>1463.8000488281</ele>
        <time>2018-03-24T12:10:30.000Z</time>
      </trkpt>
      <trkpt lat="45.96863" lon="6.59394">
        <ele>1462.8000488281</ele>
        <time>2018-03-24T12:10:32.000Z</time>
      </trkpt>
      <trkpt lat="45.96858" lon="6.59407">
        <ele>1461.5999755859</ele>
        <time>2018-03-24T12:10:36.000Z</time>
      </trkpt>
      <trkpt lat="45.96857" lon="6.59416">
        <ele>1460.5999755859</ele>
        <time>2018-03-24T12:10:40.000Z</time>
      </trkpt>
      <trkpt lat="45.96857" lon="6.59422">
        <ele>1460.1999511719</ele>
        <time>2018-03-24T12:10:43.000Z</time>
      </trkpt>
      <trkpt lat="45.96856" lon="6.59431">
        <ele>1459.5999755859</ele>
        <time>2018-03-24T12:10:49.000Z</time>
      </trkpt>
      <trkpt lat="45.96855" lon="6.59433">
        <ele>1459.4000244141</ele>
        <time>2018-03-24T12:10:50.000Z</time>
      </trkpt>
      <trkpt lat="45.96852" lon="6.59441">
        <ele>1457.8000488281</ele>
        <time>2018-03-24T12:10:53.000Z</time>
      </trkpt>
      <trkpt lat="45.96846" lon="6.59447">
        <ele>1456.4000244141</ele>
        <time>2018-03-24T12:10:55.000Z</time>
      </trkpt>
      <trkpt lat="45.96841" lon="6.59455">
        <ele>1454.8000488281</ele>
        <time>2018-03-24T12:10:57.000Z</time>
      </trkpt>
      <trkpt lat="45.96836" lon="6.59458">
        <ele>1453.8000488281</ele>
        <time>2018-03-24T12:11:00.000Z</time>
      </trkpt>
      <trkpt lat="45.96834" lon="6.59457">
        <ele>1452.8000488281</ele>
        <time>2018-03-24T12:11:03.000Z</time>
      </trkpt>
      <trkpt lat="45.9683" lon="6.59458">
        <ele>1452</ele>
        <time>2018-03-24T12:11:06.000Z</time>
      </trkpt>
      <trkpt lat="45.96829" lon="6.59457">
        <ele>1451.5999755859</ele>
        <time>2018-03-24T12:11:07.000Z</time>
      </trkpt>
      <trkpt lat="45.96827" lon="6.59458">
        <ele>1450.5999755859</ele>
        <time>2018-03-24T12:11:10.000Z</time>
      </trkpt>
      <trkpt lat="45.96826" lon="6.59458">
        <ele>1450.1999511719</ele>
        <time>2018-03-24T12:11:11.000Z</time>
      </trkpt>
      <trkpt lat="45.96823" lon="6.59459">
        <ele>1449.1999511719</ele>
        <time>2018-03-24T12:11:14.000Z</time>
      </trkpt>
      <trkpt lat="45.96822" lon="6.59459">
        <ele>1448.8000488281</ele>
        <time>2018-03-24T12:11:15.000Z</time>
      </trkpt>
      <trkpt lat="45.96821" lon="6.59459">
        <ele>1447.8000488281</ele>
        <time>2018-03-24T12:11:17.000Z</time>
      </trkpt>
      <trkpt lat="45.9682" lon="6.59459">
        <ele>1447.5999755859</ele>
        <time>2018-03-24T12:11:18.000Z</time>
      </trkpt>
      <trkpt lat="45.96819" lon="6.59458">
        <ele>1446.8000488281</ele>
        <time>2018-03-24T12:11:21.000Z</time>
      </trkpt>
      <trkpt lat="45.96814" lon="6.59459">
        <ele>1445.5999755859</ele>
        <time>2018-03-24T12:11:26.000Z</time>
      </trkpt>
      <trkpt lat="45.96808" lon="6.59457">
        <ele>1444.1999511719</ele>
        <time>2018-03-24T12:11:29.000Z</time>
      </trkpt>
      <trkpt lat="45.96805" lon="6.59458">
        <ele>1443</ele>
        <time>2018-03-24T12:11:31.000Z</time>
      </trkpt>
      <trkpt lat="45.96803" lon="6.59459">
        <ele>1442.1999511719</ele>
        <time>2018-03-24T12:11:33.000Z</time>
      </trkpt>
      <trkpt lat="45.96801" lon="6.59459">
        <ele>1441.8000488281</ele>
        <time>2018-03-24T12:11:34.000Z</time>
      </trkpt>
      <trkpt lat="45.96796" lon="6.59458">
        <ele>1441.1999511719</ele>
        <time>2018-03-24T12:11:36.000Z</time>
      </trkpt>
      <trkpt lat="45.96795" lon="6.59459">
        <ele>1440.5999755859</ele>
        <time>2018-03-24T12:11:37.000Z</time>
      </trkpt>
      <trkpt lat="45.96792" lon="6.5946">
        <ele>1440.1999511719</ele>
        <time>2018-03-24T12:11:38.000Z</time>
      </trkpt>
      <trkpt lat="45.9679" lon="6.59461">
        <ele>1439.5999755859</ele>
        <time>2018-03-24T12:11:39.000Z</time>
      </trkpt>
      <trkpt lat="45.96787" lon="6.59462">
        <ele>1438</ele>
        <time>2018-03-24T12:11:41.000Z</time>
      </trkpt>
      <trkpt lat="45.96787" lon="6.59462">
        <ele>1437.5999755859</ele>
        <time>2018-03-24T12:11:42.000Z</time>
      </trkpt>
      <trkpt lat="45.96785" lon="6.59465">
        <ele>1437</ele>
        <time>2018-03-24T12:11:45.000Z</time>
      </trkpt>
      <trkpt lat="45.96783" lon="6.59466">
        <ele>1436.8000488281</ele>
        <time>2018-03-24T12:11:46.000Z</time>
      </trkpt>
      <trkpt lat="45.96777" lon="6.59467">
        <ele>1436.1999511719</ele>
        <time>2018-03-24T12:11:49.000Z</time>
      </trkpt>
      <trkpt lat="45.96775" lon="6.59468">
        <ele>1435.8000488281</ele>
        <time>2018-03-24T12:11:51.000Z</time>
      </trkpt>
      <trkpt lat="45.9677" lon="6.59466">
        <ele>1434.8000488281</ele>
        <time>2018-03-24T12:11:56.000Z</time>
      </trkpt>
      <trkpt lat="45.96762" lon="6.59467">
        <ele>1433.5999755859</ele>
        <time>2018-03-24T12:11:58.000Z</time>
      </trkpt>
      <trkpt lat="45.96755" lon="6.59473">
        <ele>1431.4000244141</ele>
        <time>2018-03-24T12:12:00.000Z</time>
      </trkpt>
      <trkpt lat="45.96755" lon="6.59475">
        <ele>1430.4000244141</ele>
        <time>2018-03-24T12:12:01.000Z</time>
      </trkpt>
      <trkpt lat="45.96755" lon="6.59478">
        <ele>1428.5999755859</ele>
        <time>2018-03-24T12:12:03.000Z</time>
      </trkpt>
      <trkpt lat="45.96755" lon="6.59478">
        <ele>1427.5999755859</ele>
        <time>2018-03-24T12:12:06.000Z</time>
      </trkpt>
      <trkpt lat="45.96757" lon="6.59479">
        <ele>1427.1999511719</ele>
        <time>2018-03-24T12:12:07.000Z</time>
      </trkpt>
      <trkpt lat="45.96761" lon="6.59482">
        <ele>1426</ele>
        <time>2018-03-24T12:12:09.000Z</time>
      </trkpt>
      <trkpt lat="45.96766" lon="6.59484">
        <ele>1424</ele>
        <time>2018-03-24T12:12:11.000Z</time>
      </trkpt>
      <trkpt lat="45.96771" lon="6.59485">
        <ele>1422</ele>
        <time>2018-03-24T12:12:13.000Z</time>
      </trkpt>
      <trkpt lat="45.96773" lon="6.59484">
        <ele>1421.1999511719</ele>
        <time>2018-03-24T12:12:14.000Z</time>
      </trkpt>
      <trkpt lat="45.96773" lon="6.59484">
        <ele>1420.4000244141</ele>
        <time>2018-03-24T12:12:15.000Z</time>
      </trkpt>
      <trkpt lat="45.96778" lon="6.59486">
        <ele>1419.4000244141</ele>
        <time>2018-03-24T12:12:20.000Z</time>
      </trkpt>
      <trkpt lat="45.96781" lon="6.59491">
        <ele>1418</ele>
        <time>2018-03-24T12:12:24.000Z</time>
      </trkpt>
      <trkpt lat="45.96785" lon="6.59495">
        <ele>1416.8000488281</ele>
        <time>2018-03-24T12:12:27.000Z</time>
      </trkpt>
      <trkpt lat="45.9679" lon="6.59499">
        <ele>1415.5999755859</ele>
        <time>2018-03-24T12:12:29.000Z</time>
      </trkpt>
      <trkpt lat="45.96798" lon="6.59505">
        <ele>1414.1999511719</ele>
        <time>2018-03-24T12:12:31.000Z</time>
      </trkpt>
      <trkpt lat="45.96804" lon="6.59514">
        <ele>1412.1999511719</ele>
        <time>2018-03-24T12:12:33.000Z</time>
      </trkpt>
      <trkpt lat="45.96804" lon="6.59517">
        <ele>1410.5999755859</ele>
        <time>2018-03-24T12:12:34.000Z</time>
      </trkpt>
      <trkpt lat="45.96803" lon="6.59518">
        <ele>1409.4000244141</ele>
        <time>2018-03-24T12:12:35.000Z</time>
      </trkpt>
      <trkpt lat="45.96802" lon="6.59518">
        <ele>1408.4000244141</ele>
        <time>2018-03-24T12:12:36.000Z</time>
      </trkpt>
      <trkpt lat="45.96801" lon="6.59519">
        <ele>1407.1999511719</ele>
        <time>2018-03-24T12:12:38.000Z</time>
      </trkpt>
      <trkpt lat="45.96799" lon="6.59522">
        <ele>1406.1999511719</ele>
        <time>2018-03-24T12:12:40.000Z</time>
      </trkpt>
      <trkpt lat="45.96797" lon="6.59524">
        <ele>1405.5999755859</ele>
        <time>2018-03-24T12:12:41.000Z</time>
      </trkpt>
      <trkpt lat="45.96794" lon="6.59528">
        <ele>1404</ele>
        <time>2018-03-24T12:12:43.000Z</time>
      </trkpt>
      <trkpt lat="45.96793" lon="6.59531">
        <ele>1402.8000488281</ele>
        <time>2018-03-24T12:12:45.000Z</time>
      </trkpt>
      <trkpt lat="45.96792" lon="6.59537">
        <ele>1402</ele>
        <time>2018-03-24T12:12:47.000Z</time>
      </trkpt>
      <trkpt lat="45.96791" lon="6.59539">
        <ele>1401.5999755859</ele>
        <time>2018-03-24T12:12:49.000Z</time>
      </trkpt>
      <trkpt lat="45.96791" lon="6.5954">
        <ele>1401.4000244141</ele>
        <time>2018-03-24T12:12:50.000Z</time>
      </trkpt>
      <trkpt lat="45.96786" lon="6.59552">
        <ele>1400.1999511719</ele>
        <time>2018-03-24T12:12:53.000Z</time>
      </trkpt>
      <trkpt lat="45.96786" lon="6.59562">
        <ele>1398.5999755859</ele>
        <time>2018-03-24T12:12:55.000Z</time>
      </trkpt>
      <trkpt lat="45.96788" lon="6.5957">
        <ele>1396.5999755859</ele>
        <time>2018-03-24T12:12:57.000Z</time>
      </trkpt>
      <trkpt lat="45.9679" lon="6.59572">
        <ele>1394.8000488281</ele>
        <time>2018-03-24T12:12:59.000Z</time>
      </trkpt>
      <trkpt lat="45.96791" lon="6.59569">
        <ele>1393.8000488281</ele>
        <time>2018-03-24T12:13:05.000Z</time>
      </trkpt>
      <trkpt lat="45.96794" lon="6.59568">
        <ele>1393.4000244141</ele>
        <time>2018-03-24T12:13:08.000Z</time>
      </trkpt>
      <trkpt lat="45.96798" lon="6.59567">
        <ele>1392.8000488281</ele>
        <time>2018-03-24T12:13:10.000Z</time>
      </trkpt>
      <trkpt lat="45.96808" lon="6.59573">
        <ele>1391.4000244141</ele>
        <time>2018-03-24T12:13:13.000Z</time>
      </trkpt>
      <trkpt lat="45.96815" lon="6.59579">
        <ele>1389.1999511719</ele>
        <time>2018-03-24T12:13:15.000Z</time>
      </trkpt>
      <trkpt lat="45.96822" lon="6.59586">
        <ele>1387.4000244141</ele>
        <time>2018-03-24T12:13:17.000Z</time>
      </trkpt>
      <trkpt lat="45.96829" lon="6.59595">
        <ele>1385.5999755859</ele>
        <time>2018-03-24T12:13:19.000Z</time>
      </trkpt>
      <trkpt lat="45.96833" lon="6.596">
        <ele>1384.5999755859</ele>
        <time>2018-03-24T12:13:20.000Z</time>
      </trkpt>
      <trkpt lat="45.96835" lon="6.59605">
        <ele>1383.4000244141</ele>
        <time>2018-03-24T12:13:21.000Z</time>
      </trkpt>
      <trkpt lat="45.96834" lon="6.59609">
        <ele>1381.8000488281</ele>
        <time>2018-03-24T12:13:23.000Z</time>
      </trkpt>
      <trkpt lat="45.96832" lon="6.59611">
        <ele>1380.8000488281</ele>
        <time>2018-03-24T12:13:26.000Z</time>
      </trkpt>
      <trkpt lat="45.96831" lon="6.59611">
        <ele>1380.8000488281</ele>
        <time>2018-03-24T12:13:27.000Z</time>
      </trkpt>
      <trkpt lat="45.96826" lon="6.5961">
        <ele>1379.5999755859</ele>
        <time>2018-03-24T12:13:35.000Z</time>
      </trkpt>
      <trkpt lat="45.96822" lon="6.59607">
        <ele>1378.1999511719</ele>
        <time>2018-03-24T12:13:38.000Z</time>
      </trkpt>
      <trkpt lat="45.96817" lon="6.59607">
        <ele>1377</ele>
        <time>2018-03-24T12:13:40.000Z</time>
      </trkpt>
      <trkpt lat="45.96814" lon="6.5961">
        <ele>1375.1999511719</ele>
        <time>2018-03-24T12:13:42.000Z</time>
      </trkpt>
      <trkpt lat="45.96814" lon="6.59611">
        <ele>1373.8000488281</ele>
        <time>2018-03-24T12:13:44.000Z</time>
      </trkpt>
      <trkpt lat="45.96816" lon="6.59612">
        <ele>1372.5999755859</ele>
        <time>2018-03-24T12:13:47.000Z</time>
      </trkpt>
      <trkpt lat="45.96817" lon="6.59613">
        <ele>1371.4000244141</ele>
        <time>2018-03-24T12:13:50.000Z</time>
      </trkpt>
      <trkpt lat="45.96819" lon="6.59617">
        <ele>1370.4000244141</ele>
        <time>2018-03-24T12:13:53.000Z</time>
      </trkpt>
      <trkpt lat="45.96822" lon="6.59621">
        <ele>1369.1999511719</ele>
        <time>2018-03-24T12:13:56.000Z</time>
      </trkpt>
      <trkpt lat="45.96826" lon="6.59629">
        <ele>1368</ele>
        <time>2018-03-24T12:13:59.000Z</time>
      </trkpt>
      <trkpt lat="45.96828" lon="6.59634">
        <ele>1367.4000244141</ele>
        <time>2018-03-24T12:14:00.000Z</time>
      </trkpt>
      <trkpt lat="45.96831" lon="6.59637">
        <ele>1366.8000488281</ele>
        <time>2018-03-24T12:14:01.000Z</time>
      </trkpt>
      <trkpt lat="45.96836" lon="6.59644">
        <ele>1365.4000244141</ele>
        <time>2018-03-24T12:14:03.000Z</time>
      </trkpt>
      <trkpt lat="45.96841" lon="6.5965">
        <ele>1364</ele>
        <time>2018-03-24T12:14:05.000Z</time>
      </trkpt>
      <trkpt lat="45.96849" lon="6.59653">
        <ele>1362</ele>
        <time>2018-03-24T12:14:07.000Z</time>
      </trkpt>
      <trkpt lat="45.96853" lon="6.59658">
        <ele>1360.8000488281</ele>
        <time>2018-03-24T12:14:08.000Z</time>
      </trkpt>
      <trkpt lat="45.96854" lon="6.59663">
        <ele>1359.5999755859</ele>
        <time>2018-03-24T12:14:09.000Z</time>
      </trkpt>
      <trkpt lat="45.96852" lon="6.59667">
        <ele>1358.1999511719</ele>
        <time>2018-03-24T12:14:10.000Z</time>
      </trkpt>
      <trkpt lat="45.9685" lon="6.5967">
        <ele>1357</ele>
        <time>2018-03-24T12:14:11.000Z</time>
      </trkpt>
      <trkpt lat="45.96844" lon="6.59677">
        <ele>1355.1999511719</ele>
        <time>2018-03-24T12:14:13.000Z</time>
      </trkpt>
      <trkpt lat="45.9684" lon="6.59678">
        <ele>1354</ele>
        <time>2018-03-24T12:14:14.000Z</time>
      </trkpt>
      <trkpt lat="45.96836" lon="6.59679">
        <ele>1353</ele>
        <time>2018-03-24T12:14:15.000Z</time>
      </trkpt>
      <trkpt lat="45.96832" lon="6.59679">
        <ele>1352</ele>
        <time>2018-03-24T12:14:16.000Z</time>
      </trkpt>
      <trkpt lat="45.96825" lon="6.59678">
        <ele>1349.8000488281</ele>
        <time>2018-03-24T12:14:18.000Z</time>
      </trkpt>
      <trkpt lat="45.96824" lon="6.5968">
        <ele>1348.8000488281</ele>
        <time>2018-03-24T12:14:19.000Z</time>
      </trkpt>
      <trkpt lat="45.96824" lon="6.59681">
        <ele>1347.8000488281</ele>
        <time>2018-03-24T12:14:20.000Z</time>
      </trkpt>
      <trkpt lat="45.96824" lon="6.59681">
        <ele>1346.5999755859</ele>
        <time>2018-03-24T12:14:22.000Z</time>
      </trkpt>
      <trkpt lat="45.96822" lon="6.59682">
        <ele>1346</ele>
        <time>2018-03-24T12:14:27.000Z</time>
      </trkpt>
      <trkpt lat="45.96815" lon="6.5968">
        <ele>1345</ele>
        <time>2018-03-24T12:14:30.000Z</time>
      </trkpt>
      <trkpt lat="45.9681" lon="6.59679">
        <ele>1343.1999511719</ele>
        <time>2018-03-24T12:14:32.000Z</time>
      </trkpt>
      <trkpt lat="45.96805" lon="6.59678">
        <ele>1341.5999755859</ele>
        <time>2018-03-24T12:14:34.000Z</time>
      </trkpt>
      <trkpt lat="45.96804" lon="6.59677">
        <ele>1339.5999755859</ele>
        <time>2018-03-24T12:14:36.000Z</time>
      </trkpt>
      <trkpt lat="45.968" lon="6.59677">
        <ele>1338.1999511719</ele>
        <time>2018-03-24T12:14:38.000Z</time>
      </trkpt>
      <trkpt lat="45.96794" lon="6.59675">
        <ele>1337</ele>
        <time>2018-03-24T12:14:40.000Z</time>
      </trkpt>
      <trkpt lat="45.96791" lon="6.59675">
        <ele>1336.1999511719</ele>
        <time>2018-03-24T12:14:41.000Z</time>
      </trkpt>
      <trkpt lat="45.9679" lon="6.59676">
        <ele>1335.5999755859</ele>
        <time>2018-03-24T12:14:42.000Z</time>
      </trkpt>
      <trkpt lat="45.96789" lon="6.59677">
        <ele>1334.8000488281</ele>
        <time>2018-03-24T12:14:43.000Z</time>
      </trkpt>
      <trkpt lat="45.96788" lon="6.59677">
        <ele>1334.1999511719</ele>
        <time>2018-03-24T12:14:44.000Z</time>
      </trkpt>
      <trkpt lat="45.96786" lon="6.59676">
        <ele>1333.4000244141</ele>
        <time>2018-03-24T12:14:47.000Z</time>
      </trkpt>
      <trkpt lat="45.96782" lon="6.59676">
        <ele>1333.1999511719</ele>
        <time>2018-03-24T12:14:49.000Z</time>
      </trkpt>
      <trkpt lat="45.9678" lon="6.59677">
        <ele>1332.8000488281</ele>
        <time>2018-03-24T12:14:50.000Z</time>
      </trkpt>
      <trkpt lat="45.9678" lon="6.59677">
        <ele>1332.1999511719</ele>
        <time>2018-03-24T12:14:52.000Z</time>
      </trkpt>
      <trkpt lat="45.9678" lon="6.59677">
        <ele>1332</ele>
        <time>2018-03-24T12:14:53.000Z</time>
      </trkpt>
      <trkpt lat="45.96778" lon="6.59676">
        <ele>1331</ele>
        <time>2018-03-24T12:15:02.000Z</time>
      </trkpt>
      <trkpt lat="45.96778" lon="6.59674">
        <ele>1330</ele>
        <time>2018-03-24T12:15:14.000Z</time>
      </trkpt>
      <trkpt lat="45.96767" lon="6.59677">
        <ele>1328.8000488281</ele>
        <time>2018-03-24T12:15:31.000Z</time>
      </trkpt>
      <trkpt lat="45.96763" lon="6.59675">
        <ele>1327.5999755859</ele>
        <time>2018-03-24T12:15:34.000Z</time>
      </trkpt>
      <trkpt lat="45.96758" lon="6.59673">
        <ele>1326.5999755859</ele>
        <time>2018-03-24T12:15:38.000Z</time>
      </trkpt>
      <trkpt lat="45.96758" lon="6.59673">
        <ele>1326.1999511719</ele>
        <time>2018-03-24T12:15:39.000Z</time>
      </trkpt>
      <trkpt lat="45.96752" lon="6.59667">
        <ele>1325.1999511719</ele>
        <time>2018-03-24T12:16:00.000Z</time>
      </trkpt>
      <trkpt lat="45.96749" lon="6.59665">
        <ele>1324.8000488281</ele>
        <time>2018-03-24T12:16:03.000Z</time>
      </trkpt>
      <trkpt lat="45.96744" lon="6.59658">
        <ele>1324.5999755859</ele>
        <time>2018-03-24T12:16:07.000Z</time>
      </trkpt>
      <trkpt lat="45.96737" lon="6.59654">
        <ele>1324</ele>
        <time>2018-03-24T12:16:10.000Z</time>
      </trkpt>
      <trkpt lat="45.96733" lon="6.59651">
        <ele>1323</ele>
        <time>2018-03-24T12:16:14.000Z</time>
      </trkpt>
      <trkpt lat="45.96733" lon="6.59651">
        <ele>1323</ele>
        <time>2018-03-24T12:16:15.000Z</time>
      </trkpt>
      <trkpt lat="45.96726" lon="6.59647">
        <ele>1322.1999511719</ele>
        <time>2018-03-24T12:16:21.000Z</time>
      </trkpt>
      <trkpt lat="45.9672" lon="6.59643">
        <ele>1321.5999755859</ele>
        <time>2018-03-24T12:16:23.000Z</time>
      </trkpt>
      <trkpt lat="45.96717" lon="6.59641">
        <ele>1321</ele>
        <time>2018-03-24T12:16:24.000Z</time>
      </trkpt>
      <trkpt lat="45.96716" lon="6.5964">
        <ele>1320</ele>
        <time>2018-03-24T12:16:25.000Z</time>
      </trkpt>
      <trkpt lat="45.96714" lon="6.5964">
        <ele>1319</ele>
        <time>2018-03-24T12:16:27.000Z</time>
      </trkpt>
      <trkpt lat="45.96706" lon="6.59637">
        <ele>1317.8000488281</ele>
        <time>2018-03-24T12:16:30.000Z</time>
      </trkpt>
      <trkpt lat="45.967" lon="6.59635">
        <ele>1316</ele>
        <time>2018-03-24T12:16:32.000Z</time>
      </trkpt>
      <trkpt lat="45.96697" lon="6.59636">
        <ele>1314.8000488281</ele>
        <time>2018-03-24T12:16:34.000Z</time>
      </trkpt>
      <trkpt lat="45.96689" lon="6.59639">
        <ele>1313.4000244141</ele>
        <time>2018-03-24T12:16:37.000Z</time>
      </trkpt>
      <trkpt lat="45.96686" lon="6.59642">
        <ele>1312.4000244141</ele>
        <time>2018-03-24T12:16:39.000Z</time>
      </trkpt>
      <trkpt lat="45.96686" lon="6.59643">
        <ele>1311.1999511719</ele>
        <time>2018-03-24T12:16:41.000Z</time>
      </trkpt>
      <trkpt lat="45.96686" lon="6.59643">
        <ele>1310.1999511719</ele>
        <time>2018-03-24T12:16:46.000Z</time>
      </trkpt>
      <trkpt lat="45.96683" lon="6.59646">
        <ele>1309.1999511719</ele>
        <time>2018-03-24T12:16:58.000Z</time>
      </trkpt>
      <trkpt lat="45.96684" lon="6.59656">
        <ele>1308.4000244141</ele>
        <time>2018-03-24T12:17:10.000Z</time>
      </trkpt>
      <trkpt lat="45.96685" lon="6.59659">
        <ele>1308</ele>
        <time>2018-03-24T12:17:11.000Z</time>
      </trkpt>
      <trkpt lat="45.96682" lon="6.59665">
        <ele>1307.8000488281</ele>
        <time>2018-03-24T12:17:12.000Z</time>
      </trkpt>
      <trkpt lat="45.96679" lon="6.5967">
        <ele>1306.8000488281</ele>
        <time>2018-03-24T12:17:13.000Z</time>
      </trkpt>
      <trkpt lat="45.96676" lon="6.59671">
        <ele>1305.8000488281</ele>
        <time>2018-03-24T12:17:14.000Z</time>
      </trkpt>
      <trkpt lat="45.96675" lon="6.59671">
        <ele>1304.5999755859</ele>
        <time>2018-03-24T12:17:15.000Z</time>
      </trkpt>
      <trkpt lat="45.96675" lon="6.59673">
        <ele>1303.4000244141</ele>
        <time>2018-03-24T12:17:17.000Z</time>
      </trkpt>
      <trkpt lat="45.96669" lon="6.59671">
        <ele>1302.5999755859</ele>
        <time>2018-03-24T12:17:21.000Z</time>
      </trkpt>
      <trkpt lat="45.96669" lon="6.5967">
        <ele>1302.4000244141</ele>
        <time>2018-03-24T12:17:22.000Z</time>
      </trkpt>
      <trkpt lat="45.96666" lon="6.59672">
        <ele>1301.1999511719</ele>
        <time>2018-03-24T12:17:35.000Z</time>
      </trkpt>
      <trkpt lat="45.96662" lon="6.59675">
        <ele>1300.5999755859</ele>
        <time>2018-03-24T12:17:39.000Z</time>
      </trkpt>
      <trkpt lat="45.96658" lon="6.59675">
        <ele>1300.1999511719</ele>
        <time>2018-03-24T12:17:40.000Z</time>
      </trkpt>
      <trkpt lat="45.96656" lon="6.59674">
        <ele>1299.5999755859</ele>
        <time>2018-03-24T12:17:41.000Z</time>
      </trkpt>
      <trkpt lat="45.96656" lon="6.59673">
        <ele>1298.8000488281</ele>
        <time>2018-03-24T12:17:42.000Z</time>
      </trkpt>
      <trkpt lat="45.96652" lon="6.59671">
        <ele>1297.5999755859</ele>
        <time>2018-03-24T12:17:45.000Z</time>
      </trkpt>
      <trkpt lat="45.96644" lon="6.59664">
        <ele>1296.5999755859</ele>
        <time>2018-03-24T12:17:47.000Z</time>
      </trkpt>
      <trkpt lat="45.96641" lon="6.5966">
        <ele>1296</ele>
        <time>2018-03-24T12:17:48.000Z</time>
      </trkpt>
      <trkpt lat="45.96638" lon="6.59658">
        <ele>1294.4000244141</ele>
        <time>2018-03-24T12:17:50.000Z</time>
      </trkpt>
      <trkpt lat="45.96637" lon="6.5966">
        <ele>1293.4000244141</ele>
        <time>2018-03-24T12:17:53.000Z</time>
      </trkpt>
      <trkpt lat="45.96636" lon="6.59662">
        <ele>1292.4000244141</ele>
        <time>2018-03-24T12:17:57.000Z</time>
      </trkpt>
      <trkpt lat="45.96635" lon="6.59662">
        <ele>1292</ele>
        <time>2018-03-24T12:17:58.000Z</time>
      </trkpt>
      <trkpt lat="45.96634" lon="6.59662">
        <ele>1291.8000488281</ele>
        <time>2018-03-24T12:17:59.000Z</time>
      </trkpt>
      <trkpt lat="45.96632" lon="6.59663">
        <ele>1290.8000488281</ele>
        <time>2018-03-24T12:18:01.000Z</time>
      </trkpt>
      <trkpt lat="45.96632" lon="6.59665">
        <ele>1290.4000244141</ele>
        <time>2018-03-24T12:18:02.000Z</time>
      </trkpt>
      <trkpt lat="45.96632" lon="6.59668">
        <ele>1289.5999755859</ele>
        <time>2018-03-24T12:18:03.000Z</time>
      </trkpt>
      <trkpt lat="45.96633" lon="6.59671">
        <ele>1288.5999755859</ele>
        <time>2018-03-24T12:18:04.000Z</time>
      </trkpt>
      <trkpt lat="45.96632" lon="6.59674">
        <ele>1287.8000488281</ele>
        <time>2018-03-24T12:18:05.000Z</time>
      </trkpt>
      <trkpt lat="45.96629" lon="6.59676">
        <ele>1286</ele>
        <time>2018-03-24T12:18:07.000Z</time>
      </trkpt>
      <trkpt lat="45.96628" lon="6.59677">
        <ele>1285</ele>
        <time>2018-03-24T12:18:08.000Z</time>
      </trkpt>
      <trkpt lat="45.96628" lon="6.59679">
        <ele>1284</ele>
        <time>2018-03-24T12:18:09.000Z</time>
      </trkpt>
      <trkpt lat="45.96629" lon="6.59681">
        <ele>1283.1999511719</ele>
        <time>2018-03-24T12:18:10.000Z</time>
      </trkpt>
      <trkpt lat="45.9663" lon="6.59682">
        <ele>1281.8000488281</ele>
        <time>2018-03-24T12:18:12.000Z</time>
      </trkpt>
      <trkpt lat="45.9663" lon="6.59685">
        <ele>1280.8000488281</ele>
        <time>2018-03-24T12:18:15.000Z</time>
      </trkpt>
      <trkpt lat="45.96627" lon="6.5969">
        <ele>1279</ele>
        <time>2018-03-24T12:18:18.000Z</time>
      </trkpt>
      <trkpt lat="45.96628" lon="6.5969">
        <ele>1277.8000488281</ele>
        <time>2018-03-24T12:18:20.000Z</time>
      </trkpt>
      <trkpt lat="45.96628" lon="6.5969">
        <ele>1276.8000488281</ele>
        <time>2018-03-24T12:18:29.000Z</time>
      </trkpt>
      <trkpt lat="45.96628" lon="6.59698">
        <ele>1275.8000488281</ele>
        <time>2018-03-24T12:18:33.000Z</time>
      </trkpt>
      <trkpt lat="45.96625" lon="6.59699">
        <ele>1275.1999511719</ele>
        <time>2018-03-24T12:18:34.000Z</time>
      </trkpt>
      <trkpt lat="45.96622" lon="6.597">
        <ele>1273</ele>
        <time>2018-03-24T12:18:36.000Z</time>
      </trkpt>
      <trkpt lat="45.96621" lon="6.59706">
        <ele>1271.5999755859</ele>
        <time>2018-03-24T12:18:38.000Z</time>
      </trkpt>
      <trkpt lat="45.96615" lon="6.59709">
        <ele>1269.1999511719</ele>
        <time>2018-03-24T12:18:40.000Z</time>
      </trkpt>
      <trkpt lat="45.96612" lon="6.59708">
        <ele>1267.4000244141</ele>
        <time>2018-03-24T12:18:41.000Z</time>
      </trkpt>
      <trkpt lat="45.96611" lon="6.59708">
        <ele>1266</ele>
        <time>2018-03-24T12:18:42.000Z</time>
      </trkpt>
      <trkpt lat="45.96611" lon="6.59708">
        <ele>1264.5999755859</ele>
        <time>2018-03-24T12:18:44.000Z</time>
      </trkpt>
      <trkpt lat="45.96608" lon="6.5972">
        <ele>1263.5999755859</ele>
        <time>2018-03-24T12:18:52.000Z</time>
      </trkpt>
      <trkpt lat="45.96609" lon="6.59724">
        <ele>1263</ele>
        <time>2018-03-24T12:18:53.000Z</time>
      </trkpt>
      <trkpt lat="45.96607" lon="6.59732">
        <ele>1261.1999511719</ele>
        <time>2018-03-24T12:18:55.000Z</time>
      </trkpt>
      <trkpt lat="45.96604" lon="6.59732">
        <ele>1259.5999755859</ele>
        <time>2018-03-24T12:18:56.000Z</time>
      </trkpt>
      <trkpt lat="45.96602" lon="6.59732">
        <ele>1258.1999511719</ele>
        <time>2018-03-24T12:18:57.000Z</time>
      </trkpt>
      <trkpt lat="45.96602" lon="6.59734">
        <ele>1256.8000488281</ele>
        <time>2018-03-24T12:18:58.000Z</time>
      </trkpt>
      <trkpt lat="45.96603" lon="6.59736">
        <ele>1255.5999755859</ele>
        <time>2018-03-24T12:18:59.000Z</time>
      </trkpt>
      <trkpt lat="45.96604" lon="6.59737">
        <ele>1254.5999755859</ele>
        <time>2018-03-24T12:19:00.000Z</time>
      </trkpt>
      <trkpt lat="45.96605" lon="6.59737">
        <ele>1253.5999755859</ele>
        <time>2018-03-24T12:19:01.000Z</time>
      </trkpt>
      <trkpt lat="45.96605" lon="6.59737">
        <ele>1252.5999755859</ele>
        <time>2018-03-24T12:19:03.000Z</time>
      </trkpt>
      <trkpt lat="45.96608" lon="6.59743">
        <ele>1251.5999755859</ele>
        <time>2018-03-24T12:19:06.000Z</time>
      </trkpt>
      <trkpt lat="45.9661" lon="6.59744">
        <ele>1251.1999511719</ele>
        <time>2018-03-24T12:19:07.000Z</time>
      </trkpt>
      <trkpt lat="45.96613" lon="6.59747">
        <ele>1250</ele>
        <time>2018-03-24T12:19:09.000Z</time>
      </trkpt>
      <trkpt lat="45.96618" lon="6.59754">
        <ele>1249</ele>
        <time>2018-03-24T12:19:11.000Z</time>
      </trkpt>
      <trkpt lat="45.96626" lon="6.59762">
        <ele>1247.5999755859</ele>
        <time>2018-03-24T12:19:13.000Z</time>
      </trkpt>
      <trkpt lat="45.96629" lon="6.59763">
        <ele>1246.4000244141</ele>
        <time>2018-03-24T12:19:14.000Z</time>
      </trkpt>
      <trkpt lat="45.96632" lon="6.59765">
        <ele>1245</ele>
        <time>2018-03-24T12:19:15.000Z</time>
      </trkpt>
      <trkpt lat="45.96635" lon="6.59767">
        <ele>1243.8000488281</ele>
        <time>2018-03-24T12:19:16.000Z</time>
      </trkpt>
      <trkpt lat="45.9664" lon="6.5977">
        <ele>1242</ele>
        <time>2018-03-24T12:19:18.000Z</time>
      </trkpt>
      <trkpt lat="45.96642" lon="6.59771">
        <ele>1240.4000244141</ele>
        <time>2018-03-24T12:19:20.000Z</time>
      </trkpt>
      <trkpt lat="45.96644" lon="6.59772">
        <ele>1239.1999511719</ele>
        <time>2018-03-24T12:19:23.000Z</time>
      </trkpt>
      <trkpt lat="45.96649" lon="6.59773">
        <ele>1238.5999755859</ele>
        <time>2018-03-24T12:19:28.000Z</time>
      </trkpt>
      <trkpt lat="45.96652" lon="6.59776">
        <ele>1238.1999511719</ele>
        <time>2018-03-24T12:19:30.000Z</time>
      </trkpt>
      <trkpt lat="45.96656" lon="6.5978">
        <ele>1236.8000488281</ele>
        <time>2018-03-24T12:19:32.000Z</time>
      </trkpt>
      <trkpt lat="45.96659" lon="6.59782">
        <ele>1235.5999755859</ele>
        <time>2018-03-24T12:19:33.000Z</time>
      </trkpt>
      <trkpt lat="45.96663" lon="6.59784">
        <ele>1234.4000244141</ele>
        <time>2018-03-24T12:19:34.000Z</time>
      </trkpt>
      <trkpt lat="45.96668" lon="6.59786">
        <ele>1233.4000244141</ele>
        <time>2018-03-24T12:19:35.000Z</time>
      </trkpt>
      <trkpt lat="45.96674" lon="6.59789">
        <ele>1232.1999511719</ele>
        <time>2018-03-24T12:19:36.000Z</time>
      </trkpt>
      <trkpt lat="45.96684" lon="6.59792">
        <ele>1230.1999511719</ele>
        <time>2018-03-24T12:19:38.000Z</time>
      </trkpt>
      <trkpt lat="45.96688" lon="6.59795">
        <ele>1229</ele>
        <time>2018-03-24T12:19:39.000Z</time>
      </trkpt>
      <trkpt lat="45.96688" lon="6.598">
        <ele>1228</ele>
        <time>2018-03-24T12:19:40.000Z</time>
      </trkpt>
      <trkpt lat="45.96686" lon="6.59803">
        <ele>1226.8000488281</ele>
        <time>2018-03-24T12:19:41.000Z</time>
      </trkpt>
      <trkpt lat="45.96685" lon="6.59802">
        <ele>1225.8000488281</ele>
        <time>2018-03-24T12:19:42.000Z</time>
      </trkpt>
      <trkpt lat="45.96684" lon="6.59802">
        <ele>1225</ele>
        <time>2018-03-24T12:19:43.000Z</time>
      </trkpt>
      <trkpt lat="45.96685" lon="6.59803">
        <ele>1224.4000244141</ele>
        <time>2018-03-24T12:19:44.000Z</time>
      </trkpt>
      <trkpt lat="45.96682" lon="6.59804">
        <ele>1223.1999511719</ele>
        <time>2018-03-24T12:19:47.000Z</time>
      </trkpt>
      <trkpt lat="45.96676" lon="6.59806">
        <ele>1222</ele>
        <time>2018-03-24T12:19:49.000Z</time>
      </trkpt>
      <trkpt lat="45.96669" lon="6.5981">
        <ele>1220</ele>
        <time>2018-03-24T12:19:51.000Z</time>
      </trkpt>
      <trkpt lat="45.96665" lon="6.59813">
        <ele>1219</ele>
        <time>2018-03-24T12:19:52.000Z</time>
      </trkpt>
      <trkpt lat="45.96661" lon="6.59814">
        <ele>1217.8000488281</ele>
        <time>2018-03-24T12:19:53.000Z</time>
      </trkpt>
      <trkpt lat="45.96657" lon="6.59815">
        <ele>1216.5999755859</ele>
        <time>2018-03-24T12:19:54.000Z</time>
      </trkpt>
      <trkpt lat="45.96653" lon="6.59816">
        <ele>1215.5999755859</ele>
        <time>2018-03-24T12:19:55.000Z</time>
      </trkpt>
      <trkpt lat="45.96648" lon="6.59818">
        <ele>1214.5999755859</ele>
        <time>2018-03-24T12:19:56.000Z</time>
      </trkpt>
      <trkpt lat="45.96643" lon="6.59819">
        <ele>1213.4000244141</ele>
        <time>2018-03-24T12:19:57.000Z</time>
      </trkpt>
      <trkpt lat="45.96638" lon="6.5982">
        <ele>1212.1999511719</ele>
        <time>2018-03-24T12:19:58.000Z</time>
      </trkpt>
      <trkpt lat="45.96633" lon="6.59821">
        <ele>1210.8000488281</ele>
        <time>2018-03-24T12:19:59.000Z</time>
      </trkpt>
      <trkpt lat="45.96628" lon="6.59822">
        <ele>1209.4000244141</ele>
        <time>2018-03-24T12:20:00.000Z</time>
      </trkpt>
      <trkpt lat="45.96624" lon="6.59823">
        <ele>1208.1999511719</ele>
        <time>2018-03-24T12:20:01.000Z</time>
      </trkpt>
      <trkpt lat="45.9662" lon="6.59826">
        <ele>1207.4000244141</ele>
        <time>2018-03-24T12:20:02.000Z</time>
      </trkpt>
      <trkpt lat="45.96616" lon="6.5983">
        <ele>1206.1999511719</ele>
        <time>2018-03-24T12:20:03.000Z</time>
      </trkpt>
      <trkpt lat="45.96612" lon="6.59831">
        <ele>1205</ele>
        <time>2018-03-24T12:20:04.000Z</time>
      </trkpt>
      <trkpt lat="45.96607" lon="6.59831">
        <ele>1203.8000488281</ele>
        <time>2018-03-24T12:20:05.000Z</time>
      </trkpt>
      <trkpt lat="45.96605" lon="6.59831">
        <ele>1202.5999755859</ele>
        <time>2018-03-24T12:20:06.000Z</time>
      </trkpt>
      <trkpt lat="45.96601" lon="6.59831">
        <ele>1201</ele>
        <time>2018-03-24T12:20:08.000Z</time>
      </trkpt>
      <trkpt lat="45.96589" lon="6.59836">
        <ele>1199.4000244141</ele>
        <time>2018-03-24T12:20:11.000Z</time>
      </trkpt>
      <trkpt lat="45.96584" lon="6.59839">
        <ele>1198.1999511719</ele>
        <time>2018-03-24T12:20:12.000Z</time>
      </trkpt>
      <trkpt lat="45.96578" lon="6.59843">
        <ele>1197</ele>
        <time>2018-03-24T12:20:13.000Z</time>
      </trkpt>
      <trkpt lat="45.96573" lon="6.59845">
        <ele>1195.5999755859</ele>
        <time>2018-03-24T12:20:14.000Z</time>
      </trkpt>
      <trkpt lat="45.96569" lon="6.59845">
        <ele>1194.1999511719</ele>
        <time>2018-03-24T12:20:15.000Z</time>
      </trkpt>
      <trkpt lat="45.96566" lon="6.59843">
        <ele>1193</ele>
        <time>2018-03-24T12:20:16.000Z</time>
      </trkpt>
      <trkpt lat="45.96559" lon="6.59841">
        <ele>1191.8000488281</ele>
        <time>2018-03-24T12:20:19.000Z</time>
      </trkpt>
      <trkpt lat="45.96558" lon="6.59842">
        <ele>1191.4000244141</ele>
        <time>2018-03-24T12:20:20.000Z</time>
      </trkpt>
      <trkpt lat="45.9655" lon="6.59847">
        <ele>1191</ele>
        <time>2018-03-24T12:20:37.000Z</time>
      </trkpt>
      <trkpt lat="45.96547" lon="6.5985">
        <ele>1190.8000488281</ele>
        <time>2018-03-24T12:20:39.000Z</time>
      </trkpt>
      <trkpt lat="45.96536" lon="6.59859">
        <ele>1189.5999755859</ele>
        <time>2018-03-24T12:20:43.000Z</time>
      </trkpt>
      <trkpt lat="45.96533" lon="6.5986">
        <ele>1188.5999755859</ele>
        <time>2018-03-24T12:20:44.000Z</time>
      </trkpt>
      <trkpt lat="45.96531" lon="6.5986">
        <ele>1187.5999755859</ele>
        <time>2018-03-24T12:20:45.000Z</time>
      </trkpt>
      <trkpt lat="45.96531" lon="6.59859">
        <ele>1186.4000244141</ele>
        <time>2018-03-24T12:20:46.000Z</time>
      </trkpt>
      <trkpt lat="45.96531" lon="6.59859">
        <ele>1185.4000244141</ele>
        <time>2018-03-24T12:20:48.000Z</time>
      </trkpt>
      <trkpt lat="45.96518" lon="6.59857">
        <ele>1184.1999511719</ele>
        <time>2018-03-24T12:21:01.000Z</time>
      </trkpt>
      <trkpt lat="45.96511" lon="6.59856">
        <ele>1182.5999755859</ele>
        <time>2018-03-24T12:21:03.000Z</time>
      </trkpt>
      <trkpt lat="45.96505" lon="6.59855">
        <ele>1181.1999511719</ele>
        <time>2018-03-24T12:21:05.000Z</time>
      </trkpt>
      <trkpt lat="45.96503" lon="6.59855">
        <ele>1180.4000244141</ele>
        <time>2018-03-24T12:21:06.000Z</time>
      </trkpt>
      <trkpt lat="45.96502" lon="6.59857">
        <ele>1179.5999755859</ele>
        <time>2018-03-24T12:21:07.000Z</time>
      </trkpt>
      <trkpt lat="45.96502" lon="6.59857">
        <ele>1179</ele>
        <time>2018-03-24T12:21:08.000Z</time>
      </trkpt>
      <trkpt lat="45.96502" lon="6.59857">
        <ele>1178.4000244141</ele>
        <time>2018-03-24T12:21:09.000Z</time>
      </trkpt>
      <trkpt lat="45.96498" lon="6.59858">
        <ele>1177.4000244141</ele>
        <time>2018-03-24T12:21:13.000Z</time>
      </trkpt>
      <trkpt lat="45.96495" lon="6.59857">
        <ele>1177.1999511719</ele>
        <time>2018-03-24T12:21:14.000Z</time>
      </trkpt>
      <trkpt lat="45.96482" lon="6.59863">
        <ele>1175.8000488281</ele>
        <time>2018-03-24T12:21:17.000Z</time>
      </trkpt>
      <trkpt lat="45.96478" lon="6.59867">
        <ele>1174.5999755859</ele>
        <time>2018-03-24T12:21:18.000Z</time>
      </trkpt>
      <trkpt lat="45.96474" lon="6.59868">
        <ele>1173.1999511719</ele>
        <time>2018-03-24T12:21:19.000Z</time>
      </trkpt>
      <trkpt lat="45.96471" lon="6.59871">
        <ele>1172</ele>
        <time>2018-03-24T12:21:20.000Z</time>
      </trkpt>
      <trkpt lat="45.96463" lon="6.59876">
        <ele>1170.4000244141</ele>
        <time>2018-03-24T12:21:22.000Z</time>
      </trkpt>
      <trkpt lat="45.96455" lon="6.5988">
        <ele>1168.4000244141</ele>
        <time>2018-03-24T12:21:24.000Z</time>
      </trkpt>
      <trkpt lat="45.96451" lon="6.59882">
        <ele>1167</ele>
        <time>2018-03-24T12:21:25.000Z</time>
      </trkpt>
      <trkpt lat="45.96447" lon="6.59884">
        <ele>1166</ele>
        <time>2018-03-24T12:21:26.000Z</time>
      </trkpt>
      <trkpt lat="45.96439" lon="6.59887">
        <ele>1164.4000244141</ele>
        <time>2018-03-24T12:21:28.000Z</time>
      </trkpt>
      <trkpt lat="45.96432" lon="6.59893">
        <ele>1163.4000244141</ele>
        <time>2018-03-24T12:21:30.000Z</time>
      </trkpt>
      <trkpt lat="45.96426" lon="6.59899">
        <ele>1162.1999511719</ele>
        <time>2018-03-24T12:21:33.000Z</time>
      </trkpt>
      <trkpt lat="45.96415" lon="6.59907">
        <ele>1161</ele>
        <time>2018-03-24T12:21:38.000Z</time>
      </trkpt>
      <trkpt lat="45.96407" lon="6.59912">
        <ele>1159.5999755859</ele>
        <time>2018-03-24T12:21:40.000Z</time>
      </trkpt>
      <trkpt lat="45.96398" lon="6.59919">
        <ele>1157.8000488281</ele>
        <time>2018-03-24T12:21:42.000Z</time>
      </trkpt>
      <trkpt lat="45.96389" lon="6.59925">
        <ele>1156.4000244141</ele>
        <time>2018-03-24T12:21:44.000Z</time>
      </trkpt>
      <trkpt lat="45.96384" lon="6.59929">
        <ele>1155.8000488281</ele>
        <time>2018-03-24T12:21:45.000Z</time>
      </trkpt>
      <trkpt lat="45.96378" lon="6.59934">
        <ele>1155</ele>
        <time>2018-03-24T12:21:46.000Z</time>
      </trkpt>
      <trkpt lat="45.96368" lon="6.59943">
        <ele>1153.1999511719</ele>
        <time>2018-03-24T12:21:48.000Z</time>
      </trkpt>
      <trkpt lat="45.9636" lon="6.59952">
        <ele>1151.5999755859</ele>
        <time>2018-03-24T12:21:50.000Z</time>
      </trkpt>
      <trkpt lat="45.96355" lon="6.59957">
        <ele>1150.5999755859</ele>
        <time>2018-03-24T12:21:51.000Z</time>
      </trkpt>
      <trkpt lat="45.96352" lon="6.5996">
        <ele>1150</ele>
        <time>2018-03-24T12:21:52.000Z</time>
      </trkpt>
      <trkpt lat="45.96342" lon="6.59969">
        <ele>1148.8000488281</ele>
        <time>2018-03-24T12:21:55.000Z</time>
      </trkpt>
      <trkpt lat="45.96335" lon="6.59972">
        <ele>1147.5999755859</ele>
        <time>2018-03-24T12:21:58.000Z</time>
      </trkpt>
      <trkpt lat="45.96322" lon="6.59979">
        <ele>1146.4000244141</ele>
        <time>2018-03-24T12:22:02.000Z</time>
      </trkpt>
      <trkpt lat="45.96311" lon="6.59987">
        <ele>1144.8000488281</ele>
        <time>2018-03-24T12:22:04.000Z</time>
      </trkpt>
      <trkpt lat="45.96304" lon="6.59992">
        <ele>1143.4000244141</ele>
        <time>2018-03-24T12:22:05.000Z</time>
      </trkpt>
      <trkpt lat="45.96297" lon="6.59997">
        <ele>1141.8000488281</ele>
        <time>2018-03-24T12:22:06.000Z</time>
      </trkpt>
      <trkpt lat="45.96291" lon="6.60001">
        <ele>1140.5999755859</ele>
        <time>2018-03-24T12:22:07.000Z</time>
      </trkpt>
      <trkpt lat="45.96286" lon="6.60007">
        <ele>1139.4000244141</ele>
        <time>2018-03-24T12:22:08.000Z</time>
      </trkpt>
      <trkpt lat="45.96282" lon="6.60015">
        <ele>1138.1999511719</ele>
        <time>2018-03-24T12:22:09.000Z</time>
      </trkpt>
      <trkpt lat="45.96278" lon="6.6002">
        <ele>1137.1999511719</ele>
        <time>2018-03-24T12:22:10.000Z</time>
      </trkpt>
      <trkpt lat="45.96271" lon="6.60027">
        <ele>1135.8000488281</ele>
        <time>2018-03-24T12:22:12.000Z</time>
      </trkpt>
      <trkpt lat="45.96253" lon="6.60042">
        <ele>1134.8000488281</ele>
        <time>2018-03-24T12:22:18.000Z</time>
      </trkpt>
      <trkpt lat="45.96257" lon="6.60033">
        <ele>1134</ele>
        <time>2018-03-24T12:22:30.000Z</time>
      </trkpt>
      <trkpt lat="45.96258" lon="6.60028">
        <ele>1134</ele>
        <time>2018-03-24T12:22:33.000Z</time>
      </trkpt>
      <trkpt lat="45.96269" lon="6.60025">
        <ele>1133.8000488281</ele>
        <time>2018-03-24T12:23:35.000Z</time>
      </trkpt>
      <trkpt lat="45.96275" lon="6.60024">
        <ele>1134.1999511719</ele>
        <time>2018-03-24T12:24:01.000Z</time>
      </trkpt>
      <trkpt lat="45.96261" lon="6.60027">
        <ele>1134.1999511719</ele>
        <time>2018-03-24T12:24:59.000Z</time>
      </trkpt>
      <trkpt lat="45.96265" lon="6.60017">
        <ele>1134.1999511719</ele>
        <time>2018-03-24T12:25:14.000Z</time>
      </trkpt>
      <trkpt lat="45.9626" lon="6.60019">
        <ele>1134.1999511719</ele>
        <time>2018-03-24T12:25:48.000Z</time>
      </trkpt>
      <trkpt lat="45.96269" lon="6.60019">
        <ele>1134.1999511719</ele>
        <time>2018-03-24T12:27:07.000Z</time>
      </trkpt>
      <trkpt lat="45.96272" lon="6.60018">
        <ele>1134.1999511719</ele>
        <time>2018-03-24T12:27:42.000Z</time>
      </trkpt>
      <trkpt lat="45.96257" lon="6.60028">
        <ele>1135</ele>
        <time>2018-03-24T12:28:11.000Z</time>
      </trkpt>
      <trkpt lat="45.96254" lon="6.60029">
        <ele>1136</ele>
        <time>2018-03-24T12:28:13.000Z</time>
      </trkpt>
      <trkpt lat="45.96253" lon="6.60024">
        <ele>1137</ele>
        <time>2018-03-24T12:28:25.000Z</time>
      </trkpt>
      <trkpt lat="45.96252" lon="6.60021">
        <ele>1138.1999511719</ele>
        <time>2018-03-24T12:28:48.000Z</time>
      </trkpt>
      <trkpt lat="45.96256" lon="6.60031">
        <ele>1139.1999511719</ele>
        <time>2018-03-24T12:29:05.000Z</time>
      </trkpt>
      <trkpt lat="45.96256" lon="6.60031">
        <ele>1139.1999511719</ele>
        <time>2018-03-24T12:29:06.000Z</time>
      </trkpt>
      <trkpt lat="45.96258" lon="6.60025">
        <ele>1139.1999511719</ele>
        <time>2018-03-24T12:29:16.000Z</time>
      </trkpt>
      <trkpt lat="45.96261" lon="6.60016">
        <ele>1140</ele>
        <time>2018-03-24T12:30:22.000Z</time>
      </trkpt>
      <trkpt lat="45.96261" lon="6.60015">
        <ele>1140.1999511719</ele>
        <time>2018-03-24T12:30:33.000Z</time>
      </trkpt>
      <trkpt lat="45.9626" lon="6.60015">
        <ele>1140.4000244141</ele>
        <time>2018-03-24T12:30:48.000Z</time>
      </trkpt>
      <trkpt lat="45.96259" lon="6.60017">
        <ele>1140.5999755859</ele>
        <time>2018-03-24T12:30:51.000Z</time>
      </trkpt>
      <trkpt lat="45.96257" lon="6.60022">
        <ele>1141</ele>
        <time>2018-03-24T12:30:56.000Z</time>
      </trkpt>
      <trkpt lat="45.96258" lon="6.60023">
        <ele>1141</ele>
        <time>2018-03-24T12:30:58.000Z</time>
      </trkpt>
      <trkpt lat="45.96258" lon="6.60026">
        <ele>1141</ele>
        <time>2018-03-24T12:31:02.000Z</time>
      </trkpt>
      <trkpt lat="45.9626" lon="6.60031">
        <ele>1141</ele>
        <time>2018-03-24T12:31:06.000Z</time>
      </trkpt>
      <trkpt lat="45.96261" lon="6.60035">
        <ele>1141</ele>
        <time>2018-03-24T12:31:10.000Z</time>
      </trkpt>
      <trkpt lat="45.96257" lon="6.60041">
        <ele>1140.5999755859</ele>
        <time>2018-03-24T12:31:36.000Z</time>
      </trkpt>
      <trkpt lat="45.96255" lon="6.60044">
        <ele>1140.4000244141</ele>
        <time>2018-03-24T12:31:40.000Z</time>
      </trkpt>
      <trkpt lat="45.96254" lon="6.60045">
        <ele>1140.1999511719</ele>
        <time>2018-03-24T12:31:42.000Z</time>
      </trkpt>
      <trkpt lat="45.9625" lon="6.60049">
        <ele>1139.8000488281</ele>
        <time>2018-03-24T12:31:51.000Z</time>
      </trkpt>
      <trkpt lat="45.96245" lon="6.60056">
        <ele>1139</ele>
        <time>2018-03-24T12:31:56.000Z</time>
      </trkpt>
      <trkpt lat="45.96243" lon="6.60059">
        <ele>1138.5999755859</ele>
        <time>2018-03-24T12:31:58.000Z</time>
      </trkpt>
      <trkpt lat="45.96239" lon="6.60069">
        <ele>1138</ele>
        <time>2018-03-24T12:32:04.000Z</time>
      </trkpt>
      <trkpt lat="45.96237" lon="6.60075">
        <ele>1137.1999511719</ele>
        <time>2018-03-24T12:32:08.000Z</time>
      </trkpt>
      <trkpt lat="45.96235" lon="6.60079">
        <ele>1136.5999755859</ele>
        <time>2018-03-24T12:32:10.000Z</time>
      </trkpt>
      <trkpt lat="45.9623" lon="6.60083">
        <ele>1136</ele>
        <time>2018-03-24T12:32:13.000Z</time>
      </trkpt>
      <trkpt lat="45.96229" lon="6.60084">
        <ele>1135.8000488281</ele>
        <time>2018-03-24T12:32:14.000Z</time>
      </trkpt>
      <trkpt lat="45.96228" lon="6.60085">
        <ele>1135.5999755859</ele>
        <time>2018-03-24T12:32:16.000Z</time>
      </trkpt>
      <trkpt lat="45.96226" lon="6.60087">
        <ele>1135</ele>
        <time>2018-03-24T12:32:19.000Z</time>
      </trkpt>
      <trkpt lat="45.96226" lon="6.60088">
        <ele>1134.8000488281</ele>
        <time>2018-03-24T12:32:20.000Z</time>
      </trkpt>
      <trkpt lat="45.96225" lon="6.6009">
        <ele>1134.4000244141</ele>
        <time>2018-03-24T12:32:22.000Z</time>
      </trkpt>
      <trkpt lat="45.96224" lon="6.60094">
        <ele>1134.1999511719</ele>
        <time>2018-03-24T12:32:24.000Z</time>
      </trkpt>
      <trkpt lat="45.96222" lon="6.60098">
        <ele>1134</ele>
        <time>2018-03-24T12:32:27.000Z</time>
      </trkpt>
      <trkpt lat="45.96221" lon="6.601">
        <ele>1133.8000488281</ele>
        <time>2018-03-24T12:32:29.000Z</time>
      </trkpt>
      <trkpt lat="45.96218" lon="6.60104">
        <ele>1133.4000244141</ele>
        <time>2018-03-24T12:32:32.000Z</time>
      </trkpt>
      <trkpt lat="45.96217" lon="6.60106">
        <ele>1132.8000488281</ele>
        <time>2018-03-24T12:32:34.000Z</time>
      </trkpt>
      <trkpt lat="45.96213" lon="6.60112">
        <ele>1132.1999511719</ele>
        <time>2018-03-24T12:32:38.000Z</time>
      </trkpt>
      <trkpt lat="45.96212" lon="6.60116">
        <ele>1131.8000488281</ele>
        <time>2018-03-24T12:32:40.000Z</time>
      </trkpt>
      <trkpt lat="45.96207" lon="6.60126">
        <ele>1131.1999511719</ele>
        <time>2018-03-24T12:32:45.000Z</time>
      </trkpt>
      <trkpt lat="45.96201" lon="6.60131">
        <ele>1130</ele>
        <time>2018-03-24T12:32:49.000Z</time>
      </trkpt>
      <trkpt lat="45.96196" lon="6.60134">
        <ele>1128.8000488281</ele>
        <time>2018-03-24T12:32:53.000Z</time>
      </trkpt>
      <trkpt lat="45.96189" lon="6.60135">
        <ele>1127.8000488281</ele>
        <time>2018-03-24T12:32:58.000Z</time>
      </trkpt>
      <trkpt lat="45.9618" lon="6.60136">
        <ele>1126.5999755859</ele>
        <time>2018-03-24T12:33:05.000Z</time>
      </trkpt>
      <trkpt lat="45.9618" lon="6.60137">
        <ele>1126.4000244141</ele>
        <time>2018-03-24T12:33:06.000Z</time>
      </trkpt>
      <trkpt lat="45.96179" lon="6.60138">
        <ele>1126</ele>
        <time>2018-03-24T12:33:08.000Z</time>
      </trkpt>
      <trkpt lat="45.96177" lon="6.60139">
        <ele>1125.4000244141</ele>
        <time>2018-03-24T12:33:10.000Z</time>
      </trkpt>
      <trkpt lat="45.96172" lon="6.60144">
        <ele>1124.5999755859</ele>
        <time>2018-03-24T12:33:16.000Z</time>
      </trkpt>
      <trkpt lat="45.96171" lon="6.60145">
        <ele>1124.1999511719</ele>
        <time>2018-03-24T12:33:17.000Z</time>
      </trkpt>
      <trkpt lat="45.96167" lon="6.6015">
        <ele>1123.1999511719</ele>
        <time>2018-03-24T12:33:21.000Z</time>
      </trkpt>
      <trkpt lat="45.96166" lon="6.60151">
        <ele>1122.8000488281</ele>
        <time>2018-03-24T12:33:23.000Z</time>
      </trkpt>
      <trkpt lat="45.96163" lon="6.60153">
        <ele>1122</ele>
        <time>2018-03-24T12:33:28.000Z</time>
      </trkpt>
      <trkpt lat="45.96162" lon="6.60153">
        <ele>1121</ele>
        <time>2018-03-24T12:33:40.000Z</time>
      </trkpt>
      <trkpt lat="45.96162" lon="6.60154">
        <ele>1120.8000488281</ele>
        <time>2018-03-24T12:33:41.000Z</time>
      </trkpt>
      <trkpt lat="45.96163" lon="6.60158">
        <ele>1120.4000244141</ele>
        <time>2018-03-24T12:33:45.000Z</time>
      </trkpt>
      <trkpt lat="45.96166" lon="6.6016">
        <ele>1119.8000488281</ele>
        <time>2018-03-24T12:33:49.000Z</time>
      </trkpt>
      <trkpt lat="45.96168" lon="6.60161">
        <ele>1119.1999511719</ele>
        <time>2018-03-24T12:33:51.000Z</time>
      </trkpt>
      <trkpt lat="45.9617" lon="6.6016">
        <ele>1118.8000488281</ele>
        <time>2018-03-24T12:33:53.000Z</time>
      </trkpt>
      <trkpt lat="45.96171" lon="6.6016">
        <ele>1118.5999755859</ele>
        <time>2018-03-24T12:33:54.000Z</time>
      </trkpt>
      <trkpt lat="45.96176" lon="6.6016">
        <ele>1117.8000488281</ele>
        <time>2018-03-24T12:34:00.000Z</time>
      </trkpt>
      <trkpt lat="45.96177" lon="6.60158">
        <ele>1117.5999755859</ele>
        <time>2018-03-24T12:34:01.000Z</time>
      </trkpt>
      <trkpt lat="45.96178" lon="6.60158">
        <ele>1117.1999511719</ele>
        <time>2018-03-24T12:34:03.000Z</time>
      </trkpt>
      <trkpt lat="45.96179" lon="6.60161">
        <ele>1116.5999755859</ele>
        <time>2018-03-24T12:34:06.000Z</time>
      </trkpt>
      <trkpt lat="45.9618" lon="6.60163">
        <ele>1116.1999511719</ele>
        <time>2018-03-24T12:34:07.000Z</time>
      </trkpt>
      <trkpt lat="45.96179" lon="6.60167">
        <ele>1115.1999511719</ele>
        <time>2018-03-24T12:34:10.000Z</time>
      </trkpt>
      <trkpt lat="45.9618" lon="6.60171">
        <ele>1114</ele>
        <time>2018-03-24T12:34:13.000Z</time>
      </trkpt>
      <trkpt lat="45.96181" lon="6.60174">
        <ele>1112.4000244141</ele>
        <time>2018-03-24T12:34:16.000Z</time>
      </trkpt>
      <trkpt lat="45.96183" lon="6.60176">
        <ele>1111.4000244141</ele>
        <time>2018-03-24T12:34:19.000Z</time>
      </trkpt>
      <trkpt lat="45.96185" lon="6.60178">
        <ele>1110.5999755859</ele>
        <time>2018-03-24T12:34:21.000Z</time>
      </trkpt>
      <trkpt lat="45.96186" lon="6.60179">
        <ele>1110.1999511719</ele>
        <time>2018-03-24T12:34:23.000Z</time>
      </trkpt>
      <trkpt lat="45.96189" lon="6.6018">
        <ele>1109.1999511719</ele>
        <time>2018-03-24T12:34:26.000Z</time>
      </trkpt>
      <trkpt lat="45.96189" lon="6.60182">
        <ele>1109</ele>
        <time>2018-03-24T12:34:27.000Z</time>
      </trkpt>
      <trkpt lat="45.96188" lon="6.60183">
        <ele>1108.5999755859</ele>
        <time>2018-03-24T12:34:29.000Z</time>
      </trkpt>
      <trkpt lat="45.96188" lon="6.60185">
        <ele>1107.8000488281</ele>
        <time>2018-03-24T12:34:31.000Z</time>
      </trkpt>
      <trkpt lat="45.96188" lon="6.60189">
        <ele>1106.5999755859</ele>
        <time>2018-03-24T12:34:35.000Z</time>
      </trkpt>
      <trkpt lat="45.96187" lon="6.60194">
        <ele>1105.4000244141</ele>
        <time>2018-03-24T12:34:38.000Z</time>
      </trkpt>
      <trkpt lat="45.96187" lon="6.60196">
        <ele>1105.1999511719</ele>
        <time>2018-03-24T12:34:39.000Z</time>
      </trkpt>
      <trkpt lat="45.96186" lon="6.60199">
        <ele>1104.1999511719</ele>
        <time>2018-03-24T12:34:41.000Z</time>
      </trkpt>
      <trkpt lat="45.96184" lon="6.60204">
        <ele>1103.1999511719</ele>
        <time>2018-03-24T12:34:44.000Z</time>
      </trkpt>
      <trkpt lat="45.96182" lon="6.60212">
        <ele>1101.8000488281</ele>
        <time>2018-03-24T12:34:48.000Z</time>
      </trkpt>
      <trkpt lat="45.96181" lon="6.60214">
        <ele>1101.4000244141</ele>
        <time>2018-03-24T12:34:49.000Z</time>
      </trkpt>
      <trkpt lat="45.96181" lon="6.60219">
        <ele>1100.8000488281</ele>
        <time>2018-03-24T12:34:51.000Z</time>
      </trkpt>
      <trkpt lat="45.9618" lon="6.60225">
        <ele>1099.8000488281</ele>
        <time>2018-03-24T12:34:54.000Z</time>
      </trkpt>
      <trkpt lat="45.96178" lon="6.60234">
        <ele>1098.5999755859</ele>
        <time>2018-03-24T12:34:58.000Z</time>
      </trkpt>
      <trkpt lat="45.96176" lon="6.60239">
        <ele>1097.5999755859</ele>
        <time>2018-03-24T12:35:01.000Z</time>
      </trkpt>
      <trkpt lat="45.96174" lon="6.60242">
        <ele>1097</ele>
        <time>2018-03-24T12:35:03.000Z</time>
      </trkpt>
      <trkpt lat="45.96171" lon="6.60244">
        <ele>1096.5999755859</ele>
        <time>2018-03-24T12:35:05.000Z</time>
      </trkpt>
      <trkpt lat="45.96167" lon="6.60246">
        <ele>1095.4000244141</ele>
        <time>2018-03-24T12:35:08.000Z</time>
      </trkpt>
      <trkpt lat="45.96163" lon="6.60246">
        <ele>1095</ele>
        <time>2018-03-24T12:35:11.000Z</time>
      </trkpt>
      <trkpt lat="45.9616" lon="6.60249">
        <ele>1094.4000244141</ele>
        <time>2018-03-24T12:35:15.000Z</time>
      </trkpt>
      <trkpt lat="45.96159" lon="6.60252">
        <ele>1093.1999511719</ele>
        <time>2018-03-24T12:35:19.000Z</time>
      </trkpt>
      <trkpt lat="45.96158" lon="6.60255">
        <ele>1092.8000488281</ele>
        <time>2018-03-24T12:35:21.000Z</time>
      </trkpt>
      <trkpt lat="45.96158" lon="6.60258">
        <ele>1092.5999755859</ele>
        <time>2018-03-24T12:35:23.000Z</time>
      </trkpt>
      <trkpt lat="45.96157" lon="6.60261">
        <ele>1092</ele>
        <time>2018-03-24T12:35:26.000Z</time>
      </trkpt>
      <trkpt lat="45.96153" lon="6.60261">
        <ele>1091</ele>
        <time>2018-03-24T12:35:31.000Z</time>
      </trkpt>
      <trkpt lat="45.96151" lon="6.60262">
        <ele>1090.5999755859</ele>
        <time>2018-03-24T12:35:34.000Z</time>
      </trkpt>
      <trkpt lat="45.9615" lon="6.60265">
        <ele>1090</ele>
        <time>2018-03-24T12:35:38.000Z</time>
      </trkpt>
      <trkpt lat="45.96149" lon="6.60266">
        <ele>1089.8000488281</ele>
        <time>2018-03-24T12:35:39.000Z</time>
      </trkpt>
      <trkpt lat="45.96149" lon="6.60271">
        <ele>1088.5999755859</ele>
        <time>2018-03-24T12:35:43.000Z</time>
      </trkpt>
      <trkpt lat="45.96148" lon="6.60275">
        <ele>1088.1999511719</ele>
        <time>2018-03-24T12:35:45.000Z</time>
      </trkpt>
      <trkpt lat="45.96147" lon="6.6028">
        <ele>1087.8000488281</ele>
        <time>2018-03-24T12:35:49.000Z</time>
      </trkpt>
      <trkpt lat="45.96148" lon="6.60281">
        <ele>1087.5999755859</ele>
        <time>2018-03-24T12:35:50.000Z</time>
      </trkpt>
      <trkpt lat="45.96148" lon="6.60282">
        <ele>1087.5999755859</ele>
        <time>2018-03-24T12:35:51.000Z</time>
      </trkpt>
      <trkpt lat="45.96148" lon="6.60283">
        <ele>1087.4000244141</ele>
        <time>2018-03-24T12:35:52.000Z</time>
      </trkpt>
      <trkpt lat="45.96149" lon="6.60283">
        <ele>1087.1999511719</ele>
        <time>2018-03-24T12:35:53.000Z</time>
      </trkpt>
      <trkpt lat="45.9615" lon="6.60286">
        <ele>1086.5999755859</ele>
        <time>2018-03-24T12:35:57.000Z</time>
      </trkpt>
      <trkpt lat="45.96151" lon="6.60288">
        <ele>1085.8000488281</ele>
        <time>2018-03-24T12:36:01.000Z</time>
      </trkpt>
      <trkpt lat="45.96153" lon="6.60289">
        <ele>1085.4000244141</ele>
        <time>2018-03-24T12:36:02.000Z</time>
      </trkpt>
      <trkpt lat="45.96154" lon="6.60292">
        <ele>1084.8000488281</ele>
        <time>2018-03-24T12:36:06.000Z</time>
      </trkpt>
      <trkpt lat="45.96154" lon="6.60294">
        <ele>1084.4000244141</ele>
        <time>2018-03-24T12:36:08.000Z</time>
      </trkpt>
      <trkpt lat="45.96154" lon="6.60298">
        <ele>1083.4000244141</ele>
        <time>2018-03-24T12:36:11.000Z</time>
      </trkpt>
      <trkpt lat="45.96154" lon="6.60299">
        <ele>1083.1999511719</ele>
        <time>2018-03-24T12:36:12.000Z</time>
      </trkpt>
      <trkpt lat="45.96154" lon="6.60304">
        <ele>1082.8000488281</ele>
        <time>2018-03-24T12:36:16.000Z</time>
      </trkpt>
      <trkpt lat="45.96152" lon="6.60309">
        <ele>1082.1999511719</ele>
        <time>2018-03-24T12:36:19.000Z</time>
      </trkpt>
      <trkpt lat="45.9615" lon="6.60322">
        <ele>1081.4000244141</ele>
        <time>2018-03-24T12:36:26.000Z</time>
      </trkpt>
      <trkpt lat="45.9615" lon="6.60326">
        <ele>1081</ele>
        <time>2018-03-24T12:36:28.000Z</time>
      </trkpt>
      <trkpt lat="45.9615" lon="6.60329">
        <ele>1080.8000488281</ele>
        <time>2018-03-24T12:36:29.000Z</time>
      </trkpt>
      <trkpt lat="45.96148" lon="6.60334">
        <ele>1080.4000244141</ele>
        <time>2018-03-24T12:36:32.000Z</time>
      </trkpt>
      <trkpt lat="45.96147" lon="6.6034">
        <ele>1079.8000488281</ele>
        <time>2018-03-24T12:36:35.000Z</time>
      </trkpt>
      <trkpt lat="45.96145" lon="6.60346">
        <ele>1078.8000488281</ele>
        <time>2018-03-24T12:36:39.000Z</time>
      </trkpt>
      <trkpt lat="45.96143" lon="6.60352">
        <ele>1077.8000488281</ele>
        <time>2018-03-24T12:36:45.000Z</time>
      </trkpt>
      <trkpt lat="45.96143" lon="6.60354">
        <ele>1077.8000488281</ele>
        <time>2018-03-24T12:36:46.000Z</time>
      </trkpt>
      <trkpt lat="45.96143" lon="6.60363">
        <ele>1076.5999755859</ele>
        <time>2018-03-24T12:36:59.000Z</time>
      </trkpt>
      <trkpt lat="45.96142" lon="6.60367">
        <ele>1075.8000488281</ele>
        <time>2018-03-24T12:37:02.000Z</time>
      </trkpt>
      <trkpt lat="45.96142" lon="6.60368">
        <ele>1075.5999755859</ele>
        <time>2018-03-24T12:37:03.000Z</time>
      </trkpt>
      <trkpt lat="45.96142" lon="6.60369">
        <ele>1075.4000244141</ele>
        <time>2018-03-24T12:37:04.000Z</time>
      </trkpt>
      <trkpt lat="45.96142" lon="6.60373">
        <ele>1075.1999511719</ele>
        <time>2018-03-24T12:37:07.000Z</time>
      </trkpt>
      <trkpt lat="45.96139" lon="6.60384">
        <ele>1074.4000244141</ele>
        <time>2018-03-24T12:37:12.000Z</time>
      </trkpt>
      <trkpt lat="45.96135" lon="6.60394">
        <ele>1073.4000244141</ele>
        <time>2018-03-24T12:37:19.000Z</time>
      </trkpt>
      <trkpt lat="45.96134" lon="6.60399">
        <ele>1073</ele>
        <time>2018-03-24T12:37:23.000Z</time>
      </trkpt>
      <trkpt lat="45.96135" lon="6.60402">
        <ele>1072.5999755859</ele>
        <time>2018-03-24T12:37:25.000Z</time>
      </trkpt>
      <trkpt lat="45.96136" lon="6.60408">
        <ele>1072.1999511719</ele>
        <time>2018-03-24T12:37:28.000Z</time>
      </trkpt>
      <trkpt lat="45.96132" lon="6.6042">
        <ele>1071.1999511719</ele>
        <time>2018-03-24T12:37:37.000Z</time>
      </trkpt>
      <trkpt lat="45.96128" lon="6.60426">
        <ele>1070</ele>
        <time>2018-03-24T12:37:42.000Z</time>
      </trkpt>
      <trkpt lat="45.96123" lon="6.60438">
        <ele>1069</ele>
        <time>2018-03-24T12:37:51.000Z</time>
      </trkpt>
      <trkpt lat="45.96119" lon="6.60444">
        <ele>1068.8000488281</ele>
        <time>2018-03-24T12:37:56.000Z</time>
      </trkpt>
      <trkpt lat="45.96115" lon="6.60447">
        <ele>1067.8000488281</ele>
        <time>2018-03-24T12:38:00.000Z</time>
      </trkpt>
      <trkpt lat="45.96113" lon="6.60447">
        <ele>1067.5999755859</ele>
        <time>2018-03-24T12:38:02.000Z</time>
      </trkpt>
      <trkpt lat="45.96111" lon="6.60448">
        <ele>1067.5999755859</ele>
        <time>2018-03-24T12:38:04.000Z</time>
      </trkpt>
      <trkpt lat="45.96106" lon="6.60452">
        <ele>1067.4000244141</ele>
        <time>2018-03-24T12:38:11.000Z</time>
      </trkpt>
      <trkpt lat="45.96103" lon="6.60454">
        <ele>1067.1999511719</ele>
        <time>2018-03-24T12:38:15.000Z</time>
      </trkpt>
      <trkpt lat="45.96101" lon="6.60457">
        <ele>1066.8000488281</ele>
        <time>2018-03-24T12:38:18.000Z</time>
      </trkpt>
      <trkpt lat="45.961" lon="6.6046">
        <ele>1066.4000244141</ele>
        <time>2018-03-24T12:38:21.000Z</time>
      </trkpt>
      <trkpt lat="45.96098" lon="6.60463">
        <ele>1065.8000488281</ele>
        <time>2018-03-24T12:38:23.000Z</time>
      </trkpt>
      <trkpt lat="45.96096" lon="6.60466">
        <ele>1065.4000244141</ele>
        <time>2018-03-24T12:38:25.000Z</time>
      </trkpt>
      <trkpt lat="45.96095" lon="6.60468">
        <ele>1065.1999511719</ele>
        <time>2018-03-24T12:38:27.000Z</time>
      </trkpt>
      <trkpt lat="45.96094" lon="6.60472">
        <ele>1065</ele>
        <time>2018-03-24T12:38:29.000Z</time>
      </trkpt>
      <trkpt lat="45.96092" lon="6.60474">
        <ele>1064.5999755859</ele>
        <time>2018-03-24T12:38:32.000Z</time>
      </trkpt>
      <trkpt lat="45.9609" lon="6.60477">
        <ele>1064.5999755859</ele>
        <time>2018-03-24T12:38:34.000Z</time>
      </trkpt>
      <trkpt lat="45.96087" lon="6.60483">
        <ele>1064.1999511719</ele>
        <time>2018-03-24T12:38:38.000Z</time>
      </trkpt>
      <trkpt lat="45.96084" lon="6.60487">
        <ele>1063.8000488281</ele>
        <time>2018-03-24T12:38:41.000Z</time>
      </trkpt>
      <trkpt lat="45.96084" lon="6.60488">
        <ele>1063.5999755859</ele>
        <time>2018-03-24T12:38:42.000Z</time>
      </trkpt>
      <trkpt lat="45.96083" lon="6.60491">
        <ele>1063.4000244141</ele>
        <time>2018-03-24T12:38:43.000Z</time>
      </trkpt>
      <trkpt lat="45.96082" lon="6.60495">
        <ele>1062.5999755859</ele>
        <time>2018-03-24T12:38:46.000Z</time>
      </trkpt>
      <trkpt lat="45.96079" lon="6.605">
        <ele>1061.4000244141</ele>
        <time>2018-03-24T12:38:50.000Z</time>
      </trkpt>
      <trkpt lat="45.96078" lon="6.60501">
        <ele>1061.1999511719</ele>
        <time>2018-03-24T12:38:51.000Z</time>
      </trkpt>
      <trkpt lat="45.96075" lon="6.60505">
        <ele>1060.1999511719</ele>
        <time>2018-03-24T12:38:54.000Z</time>
      </trkpt>
      <trkpt lat="45.9607" lon="6.60512">
        <ele>1059.1999511719</ele>
        <time>2018-03-24T12:38:59.000Z</time>
      </trkpt>
      <trkpt lat="45.96068" lon="6.60514">
        <ele>1058.8000488281</ele>
        <time>2018-03-24T12:39:01.000Z</time>
      </trkpt>
      <trkpt lat="45.96067" lon="6.60519">
        <ele>1058.4000244141</ele>
        <time>2018-03-24T12:39:04.000Z</time>
      </trkpt>
      <trkpt lat="45.96065" lon="6.60524">
        <ele>1058</ele>
        <time>2018-03-24T12:39:08.000Z</time>
      </trkpt>
      <trkpt lat="45.96064" lon="6.6053">
        <ele>1057.4000244141</ele>
        <time>2018-03-24T12:39:11.000Z</time>
      </trkpt>
      <trkpt lat="45.96064" lon="6.60534">
        <ele>1056.8000488281</ele>
        <time>2018-03-24T12:39:13.000Z</time>
      </trkpt>
      <trkpt lat="45.96065" lon="6.60538">
        <ele>1056</ele>
        <time>2018-03-24T12:39:17.000Z</time>
      </trkpt>
      <trkpt lat="45.96065" lon="6.60538">
        <ele>1055.8000488281</ele>
        <time>2018-03-24T12:39:18.000Z</time>
      </trkpt>
      <trkpt lat="45.96063" lon="6.60541">
        <ele>1055</ele>
        <time>2018-03-24T12:39:21.000Z</time>
      </trkpt>
      <trkpt lat="45.96063" lon="6.60542">
        <ele>1054.8000488281</ele>
        <time>2018-03-24T12:39:22.000Z</time>
      </trkpt>
      <trkpt lat="45.96063" lon="6.60546">
        <ele>1053.5999755859</ele>
        <time>2018-03-24T12:39:27.000Z</time>
      </trkpt>
      <trkpt lat="45.96063" lon="6.60549">
        <ele>1052.5999755859</ele>
        <time>2018-03-24T12:39:31.000Z</time>
      </trkpt>
      <trkpt lat="45.96061" lon="6.60555">
        <ele>1051.1999511719</ele>
        <time>2018-03-24T12:39:36.000Z</time>
      </trkpt>
      <trkpt lat="45.96057" lon="6.60561">
        <ele>1050</ele>
        <time>2018-03-24T12:39:39.000Z</time>
      </trkpt>
      <trkpt lat="45.96053" lon="6.60567">
        <ele>1049</ele>
        <time>2018-03-24T12:39:43.000Z</time>
      </trkpt>
      <trkpt lat="45.96049" lon="6.60571">
        <ele>1048</ele>
        <time>2018-03-24T12:39:48.000Z</time>
      </trkpt>
      <trkpt lat="45.96045" lon="6.60578">
        <ele>1047</ele>
        <time>2018-03-24T12:39:53.000Z</time>
      </trkpt>
      <trkpt lat="45.96044" lon="6.60579">
        <ele>1046.8000488281</ele>
        <time>2018-03-24T12:39:54.000Z</time>
      </trkpt>
      <trkpt lat="45.96043" lon="6.60581">
        <ele>1046.8000488281</ele>
        <time>2018-03-24T12:39:55.000Z</time>
      </trkpt>
      <trkpt lat="45.96041" lon="6.60587">
        <ele>1046.8000488281</ele>
        <time>2018-03-24T12:39:59.000Z</time>
      </trkpt>
      <trkpt lat="45.9604" lon="6.60596">
        <ele>1046.4000244141</ele>
        <time>2018-03-24T12:40:02.000Z</time>
      </trkpt>
      <trkpt lat="45.9604" lon="6.60599">
        <ele>1046.1999511719</ele>
        <time>2018-03-24T12:40:04.000Z</time>
      </trkpt>
      <trkpt lat="45.9604" lon="6.60603">
        <ele>1045.8000488281</ele>
        <time>2018-03-24T12:40:07.000Z</time>
      </trkpt>
      <trkpt lat="45.96038" lon="6.60607">
        <ele>1045.8000488281</ele>
        <time>2018-03-24T12:40:09.000Z</time>
      </trkpt>
      <trkpt lat="45.96031" lon="6.60616">
        <ele>1044.8000488281</ele>
        <time>2018-03-24T12:40:16.000Z</time>
      </trkpt>
      <trkpt lat="45.96023" lon="6.60619">
        <ele>1043.5999755859</ele>
        <time>2018-03-24T12:40:21.000Z</time>
      </trkpt>
      <trkpt lat="45.96022" lon="6.60619">
        <ele>1043.1999511719</ele>
        <time>2018-03-24T12:40:22.000Z</time>
      </trkpt>
      <trkpt lat="45.96016" lon="6.60621">
        <ele>1042.5999755859</ele>
        <time>2018-03-24T12:40:29.000Z</time>
      </trkpt>
      <trkpt lat="45.96015" lon="6.60621">
        <ele>1042.1999511719</ele>
        <time>2018-03-24T12:40:30.000Z</time>
      </trkpt>
      <trkpt lat="45.96014" lon="6.60624">
        <ele>1041.5999755859</ele>
        <time>2018-03-24T12:40:33.000Z</time>
      </trkpt>
      <trkpt lat="45.96012" lon="6.60629">
        <ele>1041.1999511719</ele>
        <time>2018-03-24T12:40:35.000Z</time>
      </trkpt>
      <trkpt lat="45.96011" lon="6.60634">
        <ele>1040</ele>
        <time>2018-03-24T12:40:39.000Z</time>
      </trkpt>
      <trkpt lat="45.96009" lon="6.60639">
        <ele>1039</ele>
        <time>2018-03-24T12:40:44.000Z</time>
      </trkpt>
      <trkpt lat="45.96004" lon="6.60644">
        <ele>1037.8000488281</ele>
        <time>2018-03-24T12:40:50.000Z</time>
      </trkpt>
      <trkpt lat="45.96001" lon="6.60647">
        <ele>1036.5999755859</ele>
        <time>2018-03-24T12:40:53.000Z</time>
      </trkpt>
      <trkpt lat="45.96" lon="6.60648">
        <ele>1036.1999511719</ele>
        <time>2018-03-24T12:40:54.000Z</time>
      </trkpt>
      <trkpt lat="45.95999" lon="6.6065">
        <ele>1035.5999755859</ele>
        <time>2018-03-24T12:40:56.000Z</time>
      </trkpt>
      <trkpt lat="45.95996" lon="6.60654">
        <ele>1034.4000244141</ele>
        <time>2018-03-24T12:41:00.000Z</time>
      </trkpt>
      <trkpt lat="45.95995" lon="6.60655">
        <ele>1034</ele>
        <time>2018-03-24T12:41:03.000Z</time>
      </trkpt>
      <trkpt lat="45.95994" lon="6.60654">
        <ele>1033.4000244141</ele>
        <time>2018-03-24T12:41:09.000Z</time>
      </trkpt>
      <trkpt lat="45.95994" lon="6.60653">
        <ele>1033.4000244141</ele>
        <time>2018-03-24T12:41:12.000Z</time>
      </trkpt>
      <trkpt lat="45.95989" lon="6.60655">
        <ele>1032.5999755859</ele>
        <time>2018-03-24T12:41:24.000Z</time>
      </trkpt>
      <trkpt lat="45.95987" lon="6.60656">
        <ele>1032.1999511719</ele>
        <time>2018-03-24T12:41:26.000Z</time>
      </trkpt>
      <trkpt lat="45.95985" lon="6.60662">
        <ele>1031</ele>
        <time>2018-03-24T12:41:30.000Z</time>
      </trkpt>
      <trkpt lat="45.95981" lon="6.60667">
        <ele>1030</ele>
        <time>2018-03-24T12:41:35.000Z</time>
      </trkpt>
      <trkpt lat="45.95978" lon="6.60671">
        <ele>1029</ele>
        <time>2018-03-24T12:41:39.000Z</time>
      </trkpt>
      <trkpt lat="45.95972" lon="6.60677">
        <ele>1028</ele>
        <time>2018-03-24T12:41:45.000Z</time>
      </trkpt>
      <trkpt lat="45.95969" lon="6.6068">
        <ele>1026.8000488281</ele>
        <time>2018-03-24T12:41:49.000Z</time>
      </trkpt>
      <trkpt lat="45.95963" lon="6.60685">
        <ele>1025.5999755859</ele>
        <time>2018-03-24T12:41:55.000Z</time>
      </trkpt>
      <trkpt lat="45.95961" lon="6.60691">
        <ele>1024.5999755859</ele>
        <time>2018-03-24T12:42:00.000Z</time>
      </trkpt>
      <trkpt lat="45.9596" lon="6.60692">
        <ele>1024.4000244141</ele>
        <time>2018-03-24T12:42:01.000Z</time>
      </trkpt>
      <trkpt lat="45.95959" lon="6.60696">
        <ele>1024.1999511719</ele>
        <time>2018-03-24T12:42:03.000Z</time>
      </trkpt>
      <trkpt lat="45.95957" lon="6.607">
        <ele>1024.1999511719</ele>
        <time>2018-03-24T12:42:05.000Z</time>
      </trkpt>
      <trkpt lat="45.95952" lon="6.60708">
        <ele>1023.4000244141</ele>
        <time>2018-03-24T12:42:11.000Z</time>
      </trkpt>
      <trkpt lat="45.95951" lon="6.6071">
        <ele>1023.200012207</ele>
        <time>2018-03-24T12:42:12.000Z</time>
      </trkpt>
      <trkpt lat="45.9595" lon="6.60711">
        <ele>1023</ele>
        <time>2018-03-24T12:42:13.000Z</time>
      </trkpt>
      <trkpt lat="45.95948" lon="6.60713">
        <ele>1022.4000244141</ele>
        <time>2018-03-24T12:42:15.000Z</time>
      </trkpt>
      <trkpt lat="45.95945" lon="6.60721">
        <ele>1021.4000244141</ele>
        <time>2018-03-24T12:42:21.000Z</time>
      </trkpt>
      <trkpt lat="45.95944" lon="6.60725">
        <ele>1020.4000244141</ele>
        <time>2018-03-24T12:42:24.000Z</time>
      </trkpt>
      <trkpt lat="45.95943" lon="6.6073">
        <ele>1019.200012207</ele>
        <time>2018-03-24T12:42:27.000Z</time>
      </trkpt>
      <trkpt lat="45.95942" lon="6.60736">
        <ele>1018.200012207</ele>
        <time>2018-03-24T12:42:32.000Z</time>
      </trkpt>
      <trkpt lat="45.95942" lon="6.60737">
        <ele>1018.200012207</ele>
        <time>2018-03-24T12:42:33.000Z</time>
      </trkpt>
      <trkpt lat="45.95943" lon="6.60738">
        <ele>1018</ele>
        <time>2018-03-24T12:42:34.000Z</time>
      </trkpt>
      <trkpt lat="45.95947" lon="6.6074">
        <ele>1017.200012207</ele>
        <time>2018-03-24T12:42:38.000Z</time>
      </trkpt>
      <trkpt lat="45.95947" lon="6.60741">
        <ele>1017</ele>
        <time>2018-03-24T12:42:39.000Z</time>
      </trkpt>
      <trkpt lat="45.95947" lon="6.60748">
        <ele>1015.799987793</ele>
        <time>2018-03-24T12:42:44.000Z</time>
      </trkpt>
      <trkpt lat="45.95947" lon="6.60749">
        <ele>1015.5999755859</ele>
        <time>2018-03-24T12:42:45.000Z</time>
      </trkpt>
      <trkpt lat="45.95948" lon="6.60751">
        <ele>1014.799987793</ele>
        <time>2018-03-24T12:42:47.000Z</time>
      </trkpt>
      <trkpt lat="45.95949" lon="6.60752">
        <ele>1013.799987793</ele>
        <time>2018-03-24T12:42:49.000Z</time>
      </trkpt>
      <trkpt lat="45.9595" lon="6.60752">
        <ele>1013.200012207</ele>
        <time>2018-03-24T12:42:50.000Z</time>
      </trkpt>
      <trkpt lat="45.95948" lon="6.60752">
        <ele>1012.4000244141</ele>
        <time>2018-03-24T12:42:52.000Z</time>
      </trkpt>
      <trkpt lat="45.95945" lon="6.60753">
        <ele>1011.5999755859</ele>
        <time>2018-03-24T12:42:55.000Z</time>
      </trkpt>
      <trkpt lat="45.95943" lon="6.60754">
        <ele>1011.200012207</ele>
        <time>2018-03-24T12:42:58.000Z</time>
      </trkpt>
      <trkpt lat="45.95941" lon="6.60755">
        <ele>1011.200012207</ele>
        <time>2018-03-24T12:43:00.000Z</time>
      </trkpt>
      <trkpt lat="45.95938" lon="6.60757">
        <ele>1011</ele>
        <time>2018-03-24T12:43:02.000Z</time>
      </trkpt>
      <trkpt lat="45.95934" lon="6.60755">
        <ele>1010.799987793</ele>
        <time>2018-03-24T12:43:05.000Z</time>
      </trkpt>
      <trkpt lat="45.95931" lon="6.60756">
        <ele>1010.200012207</ele>
        <time>2018-03-24T12:43:08.000Z</time>
      </trkpt>
      <trkpt lat="45.9593" lon="6.60758">
        <ele>1009.5999755859</ele>
        <time>2018-03-24T12:43:10.000Z</time>
      </trkpt>
      <trkpt lat="45.95929" lon="6.60761">
        <ele>1009.200012207</ele>
        <time>2018-03-24T12:43:12.000Z</time>
      </trkpt>
      <trkpt lat="45.95928" lon="6.60764">
        <ele>1009</ele>
        <time>2018-03-24T12:43:13.000Z</time>
      </trkpt>
      <trkpt lat="45.95928" lon="6.60765">
        <ele>1008.5999755859</ele>
        <time>2018-03-24T12:43:14.000Z</time>
      </trkpt>
      <trkpt lat="45.95927" lon="6.60767">
        <ele>1008</ele>
        <time>2018-03-24T12:43:16.000Z</time>
      </trkpt>
      <trkpt lat="45.95926" lon="6.60768">
        <ele>1007.799987793</ele>
        <time>2018-03-24T12:43:17.000Z</time>
      </trkpt>
      <trkpt lat="45.95926" lon="6.6077">
        <ele>1007.5999755859</ele>
        <time>2018-03-24T12:43:18.000Z</time>
      </trkpt>
      <trkpt lat="45.95925" lon="6.60775">
        <ele>1006.799987793</ele>
        <time>2018-03-24T12:43:21.000Z</time>
      </trkpt>
      <trkpt lat="45.95926" lon="6.60777">
        <ele>1006.200012207</ele>
        <time>2018-03-24T12:43:23.000Z</time>
      </trkpt>
      <trkpt lat="45.95926" lon="6.60779">
        <ele>1005.799987793</ele>
        <time>2018-03-24T12:43:25.000Z</time>
      </trkpt>
      <trkpt lat="45.95927" lon="6.60781">
        <ele>1005.5999755859</ele>
        <time>2018-03-24T12:43:26.000Z</time>
      </trkpt>
      <trkpt lat="45.95927" lon="6.60783">
        <ele>1005.200012207</ele>
        <time>2018-03-24T12:43:27.000Z</time>
      </trkpt>
      <trkpt lat="45.95927" lon="6.60787">
        <ele>1004.5999755859</ele>
        <time>2018-03-24T12:43:29.000Z</time>
      </trkpt>
      <trkpt lat="45.95928" lon="6.60789">
        <ele>1004.4000244141</ele>
        <time>2018-03-24T12:43:30.000Z</time>
      </trkpt>
      <trkpt lat="45.95927" lon="6.60793">
        <ele>1004.200012207</ele>
        <time>2018-03-24T12:43:32.000Z</time>
      </trkpt>
      <trkpt lat="45.95926" lon="6.608">
        <ele>1003.4000244141</ele>
        <time>2018-03-24T12:43:36.000Z</time>
      </trkpt>
      <trkpt lat="45.95926" lon="6.60803">
        <ele>1002.799987793</ele>
        <time>2018-03-24T12:43:39.000Z</time>
      </trkpt>
      <trkpt lat="45.95926" lon="6.60806">
        <ele>1002.200012207</ele>
        <time>2018-03-24T12:43:42.000Z</time>
      </trkpt>
      <trkpt lat="45.95925" lon="6.60812">
        <ele>1001.200012207</ele>
        <time>2018-03-24T12:43:47.000Z</time>
      </trkpt>
      <trkpt lat="45.95925" lon="6.6082">
        <ele>1000</ele>
        <time>2018-03-24T12:43:52.000Z</time>
      </trkpt>
      <trkpt lat="45.95924" lon="6.60822">
        <ele>999.40002441406</ele>
        <time>2018-03-24T12:43:54.000Z</time>
      </trkpt>
      <trkpt lat="45.95923" lon="6.60825">
        <ele>998.79998779297</ele>
        <time>2018-03-24T12:43:56.000Z</time>
      </trkpt>
      <trkpt lat="45.9592" lon="6.60833">
        <ele>997.59997558594</ele>
        <time>2018-03-24T12:44:01.000Z</time>
      </trkpt>
      <trkpt lat="45.95919" lon="6.60837">
        <ele>997</ele>
        <time>2018-03-24T12:44:03.000Z</time>
      </trkpt>
      <trkpt lat="45.95917" lon="6.60843">
        <ele>996.40002441406</ele>
        <time>2018-03-24T12:44:06.000Z</time>
      </trkpt>
      <trkpt lat="45.95917" lon="6.60844">
        <ele>996</ele>
        <time>2018-03-24T12:44:07.000Z</time>
      </trkpt>
      <trkpt lat="45.95918" lon="6.60851">
        <ele>995.20001220703</ele>
        <time>2018-03-24T12:44:10.000Z</time>
      </trkpt>
      <trkpt lat="45.95914" lon="6.60856">
        <ele>994</ele>
        <time>2018-03-24T12:44:14.000Z</time>
      </trkpt>
      <trkpt lat="45.9591" lon="6.60858">
        <ele>993.20001220703</ele>
        <time>2018-03-24T12:44:17.000Z</time>
      </trkpt>
      <trkpt lat="45.95908" lon="6.60858">
        <ele>992.79998779297</ele>
        <time>2018-03-24T12:44:19.000Z</time>
      </trkpt>
      <trkpt lat="45.95902" lon="6.6086">
        <ele>991.59997558594</ele>
        <time>2018-03-24T12:44:24.000Z</time>
      </trkpt>
      <trkpt lat="45.95898" lon="6.60861">
        <ele>990.20001220703</ele>
        <time>2018-03-24T12:44:28.000Z</time>
      </trkpt>
      <trkpt lat="45.95897" lon="6.60862">
        <ele>989.79998779297</ele>
        <time>2018-03-24T12:44:30.000Z</time>
      </trkpt>
      <trkpt lat="45.95894" lon="6.60864">
        <ele>989.20001220703</ele>
        <time>2018-03-24T12:44:35.000Z</time>
      </trkpt>
      <trkpt lat="45.95893" lon="6.60864">
        <ele>989</ele>
        <time>2018-03-24T12:44:36.000Z</time>
      </trkpt>
      <trkpt lat="45.95891" lon="6.60867">
        <ele>988.20001220703</ele>
        <time>2018-03-24T12:44:39.000Z</time>
      </trkpt>
      <trkpt lat="45.9589" lon="6.6087">
        <ele>987.40002441406</ele>
        <time>2018-03-24T12:44:41.000Z</time>
      </trkpt>
      <trkpt lat="45.95889" lon="6.60871">
        <ele>987.20001220703</ele>
        <time>2018-03-24T12:44:42.000Z</time>
      </trkpt>
      <trkpt lat="45.95886" lon="6.60877">
        <ele>986</ele>
        <time>2018-03-24T12:44:46.000Z</time>
      </trkpt>
      <trkpt lat="45.95883" lon="6.60881">
        <ele>984.79998779297</ele>
        <time>2018-03-24T12:44:49.000Z</time>
      </trkpt>
      <trkpt lat="45.95881" lon="6.60885">
        <ele>983.79998779297</ele>
        <time>2018-03-24T12:44:52.000Z</time>
      </trkpt>
      <trkpt lat="45.95877" lon="6.60893">
        <ele>982.59997558594</ele>
        <time>2018-03-24T12:44:58.000Z</time>
      </trkpt>
      <trkpt lat="45.95873" lon="6.60901">
        <ele>981.59997558594</ele>
        <time>2018-03-24T12:45:05.000Z</time>
      </trkpt>
      <trkpt lat="45.95872" lon="6.60906">
        <ele>980.79998779297</ele>
        <time>2018-03-24T12:45:11.000Z</time>
      </trkpt>
      <trkpt lat="45.95872" lon="6.60908">
        <ele>980.59997558594</ele>
        <time>2018-03-24T12:45:18.000Z</time>
      </trkpt>
      <trkpt lat="45.9587" lon="6.6091">
        <ele>980.40002441406</ele>
        <time>2018-03-24T12:45:39.000Z</time>
      </trkpt>
      <trkpt lat="45.95868" lon="6.60912">
        <ele>980</ele>
        <time>2018-03-24T12:45:41.000Z</time>
      </trkpt>
      <trkpt lat="45.95865" lon="6.60915">
        <ele>979.40002441406</ele>
        <time>2018-03-24T12:45:45.000Z</time>
      </trkpt>
      <trkpt lat="45.95861" lon="6.60922">
        <ele>978.20001220703</ele>
        <time>2018-03-24T12:45:51.000Z</time>
      </trkpt>
      <trkpt lat="45.95854" lon="6.60928">
        <ele>977</ele>
        <time>2018-03-24T12:45:58.000Z</time>
      </trkpt>
      <trkpt lat="45.9585" lon="6.60931">
        <ele>976</ele>
        <time>2018-03-24T12:46:03.000Z</time>
      </trkpt>
      <trkpt lat="45.95841" lon="6.6094">
        <ele>975</ele>
        <time>2018-03-24T12:46:12.000Z</time>
      </trkpt>
      <trkpt lat="45.95829" lon="6.60948">
        <ele>974</ele>
        <time>2018-03-24T12:46:23.000Z</time>
      </trkpt>
      <trkpt lat="45.9582" lon="6.60956">
        <ele>972.79998779297</ele>
        <time>2018-03-24T12:46:32.000Z</time>
      </trkpt>
      <trkpt lat="45.95815" lon="6.6096">
        <ele>971.79998779297</ele>
        <time>2018-03-24T12:46:37.000Z</time>
      </trkpt>
      <trkpt lat="45.95809" lon="6.60967">
        <ele>970.59997558594</ele>
        <time>2018-03-24T12:46:44.000Z</time>
      </trkpt>
      <trkpt lat="45.95806" lon="6.60971">
        <ele>970</ele>
        <time>2018-03-24T12:46:47.000Z</time>
      </trkpt>
      <trkpt lat="45.95802" lon="6.60974">
        <ele>969.59997558594</ele>
        <time>2018-03-24T12:46:50.000Z</time>
      </trkpt>
      <trkpt lat="45.95794" lon="6.60981">
        <ele>968.40002441406</ele>
        <time>2018-03-24T12:46:58.000Z</time>
      </trkpt>
      <trkpt lat="45.95788" lon="6.60986">
        <ele>967.40002441406</ele>
        <time>2018-03-24T12:47:04.000Z</time>
      </trkpt>
      <trkpt lat="45.95782" lon="6.6099">
        <ele>966.20001220703</ele>
        <time>2018-03-24T12:47:10.000Z</time>
      </trkpt>
      <trkpt lat="45.95776" lon="6.60995">
        <ele>965.20001220703</ele>
        <time>2018-03-24T12:47:16.000Z</time>
      </trkpt>
      <trkpt lat="45.95764" lon="6.60997">
        <ele>964</ele>
        <time>2018-03-24T12:47:25.000Z</time>
      </trkpt>
      <trkpt lat="45.95762" lon="6.60997">
        <ele>964</ele>
        <time>2018-03-24T12:47:27.000Z</time>
      </trkpt>
      <trkpt lat="45.95757" lon="6.60998">
        <ele>964</ele>
        <time>2018-03-24T12:47:31.000Z</time>
      </trkpt>
      <trkpt lat="45.9574" lon="6.61005">
        <ele>963.79998779297</ele>
        <time>2018-03-24T12:47:47.000Z</time>
      </trkpt>
      <trkpt lat="45.95722" lon="6.61012">
        <ele>963.59997558594</ele>
        <time>2018-03-24T12:48:02.000Z</time>
      </trkpt>
      <trkpt lat="45.95718" lon="6.61011">
        <ele>963.59997558594</ele>
        <time>2018-03-24T12:48:07.000Z</time>
      </trkpt>
      <trkpt lat="45.95719" lon="6.61013">
        <ele>964.59997558594</ele>
        <time>2018-03-24T12:48:47.000Z</time>
      </trkpt>
      <trkpt lat="45.95724" lon="6.61025">
        <ele>964.20001220703</ele>
        <time>2018-03-24T12:48:55.000Z</time>
      </trkpt>
      <trkpt lat="45.95725" lon="6.61026">
        <ele>964</ele>
        <time>2018-03-24T12:48:57.000Z</time>
      </trkpt>
      <trkpt lat="45.95727" lon="6.61026">
        <ele>964</ele>
        <time>2018-03-24T12:49:01.000Z</time>
      </trkpt>
      <trkpt lat="45.95731" lon="6.61028">
        <ele>965</ele>
        <time>2018-03-24T12:49:36.000Z</time>
      </trkpt>
      <trkpt lat="45.95728" lon="6.61025">
        <ele>965.59997558594</ele>
        <time>2018-03-24T12:49:59.000Z</time>
      </trkpt>
      <trkpt lat="45.95724" lon="6.61017">
        <ele>965.59997558594</ele>
        <time>2018-03-24T12:50:04.000Z</time>
      </trkpt>
      <trkpt lat="45.95719" lon="6.61009">
        <ele>965.40002441406</ele>
        <time>2018-03-24T12:50:10.000Z</time>
      </trkpt>
      <trkpt lat="45.95717" lon="6.61007">
        <ele>965</ele>
        <time>2018-03-24T12:50:16.000Z</time>
      </trkpt>
      <trkpt lat="45.95716" lon="6.61002">
        <ele>965</ele>
        <time>2018-03-24T12:50:58.000Z</time>
      </trkpt>
      <trkpt lat="45.95717" lon="6.61008">
        <ele>964.40002441406</ele>
        <time>2018-03-24T12:51:15.000Z</time>
      </trkpt>
    </trkseg>
  </trk>
</gpx>